Site Date LOGGERID PROGID AIRTEMP_MEAN_150_0_04 AIRTEMP_MEAN_250_0_03 AIRTEMP_MEAN_350_0_02 AIRTEMP_MEAN_450_0_01 AIRTEMP_MEAN_350_0_08 RELHUM_MEAN_150_0_04 RELHUM_MEAN_450_0_01 DEWPT_MEAN_150_0_04 DEWPT_MEAN_450_0_01 SW_IN_MEAN_600_0_01 SW_OUT_MEAN_600_0_01 SOILTEMP_MEAN_0_10_01 SOILTEMP_MEAN_0_20_02 SOILTEMP_MEAN_0_50_03 SOILTEMP_MEAN_0_100_04 BATTERY_INST_0_0_01 AIRTEMP_MAX_150_0_04 AIRTEMP_MAX_250_0_03 AIRTEMP_MAX_350_0_02 AIRTEMP_MAX_450_0_01 AIRTEMP_MAX_350_0_08 DEWPT_MAX_150_0_04 DEWPT_MAX_450_0_01 SW_IN_MAX_600_0_01 SW_OUT_MAX_600_0_01 WSPD_PRO_MAX_1000_0_01 WSPD_SNC_MAX_1000_0_02 AIRTEMP_MIN_150_0_04 AIRTEMP_MIN_250_0_03 AIRTEMP_MIN_350_0_02 AIRTEMP_MIN_450_0_01 AIRTEMP_MIN_350_0_08 DEWPT_MIN_150_0_04 DEWPT_MIN_450_0_01 SNOWDEP_INST_0_0_01 SNOWDEP_MED_0_0_01 SNOWDEP_QUAL SWE_INST_0_0_01 SWE_MED_0_0_01 WSPD_PRO_MEAN_1000_0_01 WDIR_PRO_MEAN_1000_0_01 WDIR_PRO_STDDEV_1000_0_01 WSPD_SNC_MEAN_1000_0_02 WDIR_SNC_MEAN_1000_0_02 WDIR_SNC_STDDEV_1000_0_02 SATVP_MEAN_150_0_04 VAP_MEAN_150_0_04 VPD_MEAN_150_0_04 SATVP_MEAN_450_0_01 VAP_MEAN_450_0_01 VPD_MEAN_450_0_01
WS7MET_125 2018-10-01 00:00:00 125 30483.0 9.820 9.950 10.060 10.060 10.070 90.300 87.500 8.310 8.090 0.00 0.00 13.660 13.590 13.260 12.050 12.430 9.990 9.970 10.070 10.130 10.090 8.460 8.170 0.00 0.00 0.2550   9.720 9.930 10.050 9.990 10.050 8.200 8.000     0     0.1460 335.40 0.09   0.000 0.000 12.131 10.956 1.177 12.328 10.793 1.541
WS7MET_125 2018-09-30 23:55:00 125 30483.0 9.850 9.980 10.080 10.090 10.070 89.400 87.200 8.200 8.060 0.00 0.00 13.680 13.590 13.260 12.060 12.430 9.990 10.010 10.110 10.160 10.110 8.290 8.160 0.00 0.00 0.3070   9.790 9.970 10.070 10.030 10.040 8.100 7.973     0     0.2460 334.70 0.19   0.000 0.000 12.156 10.874 1.289 12.353 10.771 1.581
WS7MET_125 2018-09-30 23:50:00 125 30483.0 9.910 10.040 10.140 10.140 10.120 89.100 86.800 8.220 8.050 0.00 0.00 13.680 13.590 13.260 12.050 12.440 10.030 10.070 10.150 10.200 10.170 8.320 8.150 0.00 0.00 0.2810   9.790 10.010 10.110 10.060 10.060 8.070 7.956     0     0.0770 349.20 2.15   0.000 0.000 12.205 10.889 1.330 12.394 10.764 1.636
WS7MET_125 2018-09-30 23:45:00 125 30483.0 9.960 10.110 10.200 10.200 10.130 88.900 86.700 8.230 8.090 0.00 0.00 13.690 13.590 13.260 12.050 12.430 10.030 10.150 10.240 10.370 10.190 8.310 8.230 0.00 0.00 0.3010   9.890 10.070 10.170 10.130 10.110 8.140 8.040     0     0.2550 350.90 2.29   0.000 0.000 12.246 10.896 1.359 12.444 10.793 1.655
WS7MET_125 2018-09-30 23:40:00 125 30483.0 10.010 10.200 10.280 10.260 10.200 88.400 86.400 8.190 8.100 0.00 0.00 13.700 13.590 13.260 12.050 12.490 10.130 10.240 10.330 10.500 10.250 8.310 8.360 0.00 0.00 0.2030   9.890 10.150 10.250 10.160 10.170 8.070 7.997     0     0.0450 335.00 2.17   0.000 0.000 12.287 10.867 1.425 12.494 10.800 1.699
WS7MET_125 2018-09-30 23:35:00 125 30483.0 10.070 10.270 10.360 10.330 10.300 88.600 86.200 8.280 8.130 0.00 0.00 13.700 13.590 13.260 12.050 12.450 10.200 10.290 10.390 10.440 10.330 8.410 8.260 0.00 0.00 0.0390   9.990 10.250 10.330 10.270 10.250 8.140 8.050     0     0.0020 326.00 0.00   0.000 0.000 12.336 10.933 1.406 12.553 10.822 1.732
WS7MET_125 2018-09-30 23:30:00 125 30483.0 10.130 10.300 10.390 10.380 10.400 88.900 86.300 8.380 8.210 0.00 0.00 13.700 13.590 13.260 12.050 12.460 10.400 10.310 10.390 10.470 10.440 8.670 8.280 0.00 0.00 0.0000   10.030 10.290 10.390 10.300 10.350 8.260 8.100     0     0.0000 0.00 0.00   0.000 0.000 12.386 11.008 1.375 12.595 10.881 1.726
WS7MET_125 2018-09-30 23:25:00 125 30483.0 10.120 10.320 10.410 10.410 10.410 88.800 86.300 8.350 8.230 0.00 0.00 13.710 13.590 13.260 12.050 12.430 10.230 10.330 10.420 10.540 10.460 8.510 8.360 0.00 0.00 0.3920   10.030 10.300 10.390 10.330 10.350 8.200 8.110     0     0.1140 264.90 9.02   0.000 0.000 12.378 10.985 1.386 12.620 10.896 1.729
WS7MET_125 2018-09-30 23:20:00 125 30483.0 10.120 10.330 10.430 10.410 10.440 88.900 86.200 8.380 8.220 0.00 0.00 13.720 13.590 13.260 12.050 12.450 10.200 10.330 10.430 10.500 10.460 8.490 8.330 0.00 0.00 0.2550   10.030 10.330 10.420 10.330 10.420 8.260 8.050     0     0.0640 11.92 0.19   0.000 0.000 12.378 11.008 1.374 12.620 10.889 1.742
WS7MET_125 2018-09-30 23:15:00 125 30483.0 10.150 10.340 10.440 10.440 10.420 89.200 86.600 8.450 8.310 0.00 0.00 13.720 13.590 13.260 12.050 12.450 10.230 10.370 10.460 10.540 10.460 8.590 8.410 0.00 0.00 0.3010   10.030 10.330 10.430 10.330 10.400 8.310 8.200     0     0.0380 19.09 0.54   0.000 0.000 12.403 11.060 1.339 12.645 10.956 1.694
WS7MET_125 2018-09-30 23:10:00 125 30483.0 10.140 10.380 10.480 10.440 10.470 89.000 86.600 8.410 8.320 0.00 0.00 13.730 13.580 13.260 12.050 12.430 10.230 10.390 10.490 10.510 10.510 8.520 8.380 0.00 0.00 0.1700   10.030 10.370 10.460 10.370 10.420 8.300 8.260     0     0.0170 345.30 0.33   0.000 0.000 12.394 11.030 1.363 12.645 10.963 1.694
WS7MET_125 2018-09-30 23:05:00 125 30483.0 10.140 10.380 10.460 10.420 10.520 90.100 87.100 8.610 8.380 0.00 0.00 13.740 13.580 13.260 12.050 12.450 10.300 10.390 10.490 10.500 10.530 8.820 8.480 0.00 0.00 0.0000   10.030 10.350 10.430 10.330 10.500 8.480 8.310     0     0.0000 0.00 0.00   0.000 0.000 12.394 11.181 1.227 12.629 11.008 1.629
WS7MET_125 2018-09-30 23:00:00 125 30483.0 10.080 10.310 10.410 10.380 10.490 90.200 87.200 8.560 8.360 0.00 0.00 13.740 13.580 13.260 12.050 12.450 10.200 10.350 10.430 10.500 10.510 8.670 8.480 0.00 0.00 0.0590   9.960 10.290 10.370 10.300 10.470 8.360 8.250     0     0.0030 333.10 0.00   0.000 0.000 12.345 11.143 1.210 12.595 10.993 1.612
WS7MET_125 2018-09-30 22:55:00 125 30483.0 10.000 10.240 10.330 10.290 10.420 90.500 87.400 8.520 8.310 0.00 0.00 13.740 13.580 13.260 12.050 12.440 10.100 10.280 10.370 10.400 10.470 8.650 8.400 0.00 0.00 0.3010   9.860 10.190 10.280 10.230 10.360 8.400 8.230     0     0.2470 330.40 2.79   0.000 0.000 12.279 11.113 1.166 12.519 10.956 1.577
WS7MET_125 2018-09-30 22:50:00 125 30483.0 9.920 10.140 10.240 10.240 10.290 90.100 87.500 8.380 8.260 0.00 0.00 13.760 13.580 13.260 12.050 12.490 10.060 10.190 10.270 10.300 10.360 8.590 8.310 0.00 0.00 0.3530   9.820 10.100 10.230 10.100 10.250 8.280 8.110     0     0.2900 328.80 5.55   0.000 0.000 12.213 11.008 1.209 12.478 10.918 1.560
WS7MET_125 2018-09-30 22:45:00 125 30483.0 9.890 10.070 10.190 10.200 10.260 89.900 87.400 8.320 8.210 0.00 0.00 13.760 13.580 13.260 12.060 12.450 10.030 10.090 10.220 10.270 10.300 8.450 8.280 0.00 0.00 0.3720   9.750 10.050 10.170 10.130 10.240 8.200 8.140     0     0.2950 339.20 5.80   0.000 0.000 12.189 10.963 1.231 12.444 10.881 1.568
WS7MET_125 2018-09-30 22:40:00 125 30483.0 9.900 10.050 10.170 10.220 10.200 89.700 87.300 8.300 8.200 0.00 0.00 13.760 13.580 13.260 12.050 12.440 9.960 10.070 10.180 10.270 10.250 8.350 8.260 0.00 0.00 0.5880   9.860 10.050 10.170 10.160 10.180 8.250 8.140     0     0.4040 349.10 0.44   0.000 0.000 12.197 10.948 1.256 12.461 10.874 1.583
WS7MET_125 2018-09-30 22:35:00 125 30483.0 9.930 10.090 10.190 10.230 10.170 89.300 86.900 8.270 8.150 0.00 0.00 13.770 13.580 13.260 12.050 12.440 9.990 10.130 10.240 10.370 10.220 8.350 8.230 0.00 0.00 0.6140   9.860 10.070 10.170 10.100 10.160 8.190 8.030     0     0.4690 346.20 1.68   0.000 0.000 12.221 10.926 1.308 12.469 10.837 1.633
WS7MET_125 2018-09-30 22:30:00 125 30483.0 10.010 10.160 10.280 10.320 10.260 89.000 86.400 8.280 8.160 0.00 0.00 13.780 13.580 13.260 12.050 12.430 10.100 10.200 10.310 10.400 10.290 8.410 8.220 0.00 0.00 0.4310   9.890 10.130 10.250 10.270 10.240 8.170 8.110     0     0.3060 345.20 1.00   0.000 0.000 12.287 10.933 1.352 12.545 10.844 1.706
WS7MET_125 2018-09-30 22:25:00 125 30483.0 10.100 10.250 10.350 10.400 10.320 88.800 86.400 8.350 8.230 0.00 0.00 13.780 13.580 13.260 12.050 12.470 10.230 10.290 10.390 10.470 10.330 8.420 8.320 0.00 0.00 0.4640   9.990 10.210 10.320 10.300 10.310 8.220 8.120     0     0.3840 337.30 2.44   0.000 0.000 12.361 10.985 1.384 12.612 10.896 1.715
WS7MET_125 2018-09-30 22:20:00 125 30483.0 10.190 10.360 10.460 10.500 10.420 88.100 85.800 8.320 8.230 0.00 0.00 13.780 13.580 13.260 12.050 12.470 10.270 10.410 10.510 10.710 10.490 8.430 8.430 0.00 0.00 0.3850   10.100 10.290 10.390 10.330 10.300 8.210 8.070     0     0.2510 339.50 4.94   0.000 0.000 12.436 10.963 1.480 12.696 10.896 1.803
WS7MET_125 2018-09-30 22:15:00 125 30483.0 10.290 10.450 10.560 10.610 10.550 87.900 85.400 8.380 8.260 0.00 0.00 13.790 13.580 13.260 12.050 12.480 10.440 10.490 10.600 10.680 10.600 8.510 8.350 0.00 0.00 0.3790   10.060 10.410 10.510 10.540 10.480 8.180 8.170     0     0.2900 342.00 5.31   0.000 0.000 12.519 11.008 1.515 12.790 10.918 1.867
WS7MET_125 2018-09-30 22:10:00 125 30483.0 10.360 10.550 10.640 10.640 10.630 87.900 85.300 8.450 8.290 0.00 0.00 13.790 13.580 13.260 12.050 12.490 10.440 10.580 10.670 10.710 10.680 8.590 8.420 0.00 0.00 0.3200   10.270 10.500 10.610 10.510 10.600 8.330 8.140     0     0.2450 340.50 0.80   0.000 0.000 12.578 11.060 1.522 12.815 10.941 1.884
WS7MET_125 2018-09-30 22:05:00 125 30483.0 10.270 10.550 10.650 10.600 10.690 88.000 85.300 8.380 8.240 0.00 0.00 13.800 13.580 13.260 12.050 12.450 10.370 10.570 10.670 10.680 10.700 8.450 8.320 0.00 0.00 0.3330   10.160 10.510 10.620 10.470 10.670 8.290 8.100     0     0.2130 341.30 2.79   0.000 0.000 12.503 11.008 1.500 12.781 10.904 1.879
WS7MET_125 2018-09-30 22:00:00 125 30483.0 10.190 10.460 10.570 10.560 10.660 88.500 85.600 8.380 8.260 0.00 0.00 13.800 13.570 13.260 12.050 12.460 10.300 10.510 10.610 10.680 10.690 8.460 8.340 0.00 0.00 0.3330   10.060 10.390 10.510 10.440 10.610 8.270 8.160     0     0.2350 347.60 0.15   0.000 0.000 12.436 11.008 1.430 12.747 10.918 1.836
WS7MET_125 2018-09-30 21:55:00 125 30483.0 10.060 10.320 10.440 10.400 10.530 88.800 85.900 8.310 8.160 0.00 0.00 13.800 13.570 13.260 12.050 12.460 10.200 10.390 10.510 10.540 10.610 8.450 8.260 0.00 0.00 0.4250   9.930 10.250 10.370 10.300 10.460 8.200 8.070     0     0.2950 347.70 0.11   0.000 0.000 12.328 10.956 1.381 12.612 10.844 1.778
WS7MET_125 2018-09-30 21:50:00 125 30483.0 9.950 10.190 10.320 10.310 10.390 89.100 86.000 8.240 8.070 0.00 0.00 13.810 13.570 13.260 12.050 12.470 10.030 10.250 10.370 10.370 10.450 8.330 8.150 0.00 0.00 0.3660   9.860 10.150 10.290 10.230 10.320 8.170 8.020     0     0.2800 347.90 0.31   0.000 0.000 12.238 10.904 1.334 12.536 10.778 1.755
WS7MET_125 2018-09-30 21:45:00 125 30483.0 9.870 10.120 10.260 10.310 10.290 89.200 85.800 8.190 8.050 0.00 0.00 13.820 13.560 13.270 12.060 12.460 9.960 10.150 10.270 10.370 10.320 8.270 8.100 0.00 0.00 0.5550   9.750 10.090 10.250 10.270 10.270 8.100 7.997     0     0.4340 340.70 7.09   0.000 0.000 12.172 10.867 1.315 12.536 10.764 1.780
WS7MET_125 2018-09-30 21:40:00 125 30483.0 9.880 10.090 10.250 10.330 10.300 89.300 85.800 8.220 8.060 0.00 0.00 13.830 13.560 13.270 12.050 12.460 9.960 10.100 10.270 10.400 10.320 8.340 8.120 0.00 0.00 0.5750   9.790 10.080 10.250 10.270 10.290 8.120 7.998     0     0.4970 350.00 1.09   0.000 0.000 12.180 10.889 1.303 12.553 10.771 1.783
WS7MET_125 2018-09-30 21:35:00 125 30483.0 9.920 10.120 10.270 10.350 10.330 89.200 85.900 8.240 8.090 0.00 0.00 13.830 13.560 13.270 12.050 12.500 9.990 10.130 10.290 10.400 10.360 8.320 8.160 0.00 0.00 0.5880   9.820 10.110 10.260 10.270 10.290 8.090 8.020     0     0.5100 350.70 1.06   0.000 0.000 12.213 10.904 1.319 12.570 10.793 1.772
WS7MET_125 2018-09-30 21:30:00 125 30483.0 9.930 10.130 10.270 10.330 10.310 88.700 85.800 8.160 8.050 0.00 0.00 13.830 13.560 13.270 12.050 12.500 10.030 10.150 10.290 10.400 10.350 8.260 8.140 0.00 0.00 0.5290   9.820 10.130 10.260 10.270 10.280 8.070 7.971     0     0.4340 350.30 3.97   0.000 0.000 12.221 10.844 1.381 12.553 10.764 1.783
WS7MET_125 2018-09-30 21:25:00 125 30483.0 9.920 10.140 10.270 10.330 10.310 88.700 85.500 8.140 8.020 0.00 0.00 13.830 13.560 13.280 12.060 12.450 9.990 10.150 10.290 10.440 10.350 8.230 8.100 0.00 0.00 0.5030   9.820 10.130 10.270 10.270 10.280 8.030 7.944     0     0.3660 345.60 0.59   0.000 0.000 12.213 10.830 1.380 12.553 10.742 1.820
WS7MET_125 2018-09-30 21:20:00 125 30483.0 9.900 10.130 10.290 10.360 10.360 89.000 85.500 8.170 8.040 0.00 0.00 13.830 13.560 13.280 12.060 12.490 9.990 10.140 10.310 10.400 10.440 8.290 8.090 0.00 0.00 0.4700   9.860 10.130 10.270 10.300 10.290 8.080 7.981     0     0.3570 351.20 6.33   0.000 0.000 12.197 10.852 1.342 12.578 10.756 1.824
WS7MET_125 2018-09-30 21:15:00 125 30483.0 9.930 10.150 10.300 10.340 10.330 88.800 85.700 8.170 8.060 0.00 0.00 13.840 13.550 13.280 12.050 12.440 9.990 10.170 10.310 10.400 10.350 8.250 8.180 0.00 0.00 0.6730   9.820 10.130 10.290 10.300 10.320 8.020 7.974     0     0.4760 345.50 3.12   0.000 0.000 12.221 10.852 1.369 12.561 10.771 1.796
WS7MET_125 2018-09-30 21:10:00 125 30483.0 9.940 10.170 10.310 10.330 10.330 88.200 85.200 8.080 7.957 0.00 0.00 13.850 13.550 13.280 12.060 12.480 10.030 10.180 10.330 10.400 10.360 8.190 8.020 0.00 0.00 0.6790   9.820 10.170 10.300 10.260 10.300 7.931 7.893     0     0.5330 345.00 2.11   0.000 0.000 12.229 10.786 1.443 12.553 10.696 1.858
WS7MET_125 2018-09-30 21:05:00 125 30483.0 9.990 10.180 10.340 10.390 10.360 87.800 84.600 8.070 7.917 0.00 0.00 13.850 13.550 13.280 12.060 12.470 10.060 10.210 10.370 10.470 10.390 8.130 7.990 0.00 0.00 0.6340   9.920 10.170 10.330 10.330 10.340 7.987 7.860     0     0.4810 348.40 2.02   0.000 0.000 12.271 10.778 1.497 12.603 10.667 1.941
WS7MET_125 2018-09-30 21:00:00 125 30483.0 10.050 10.240 10.400 10.490 10.390 87.300 83.900 8.040 7.895 0.00 0.00 13.850 13.550 13.280 12.060 12.500 10.130 10.270 10.460 10.610 10.470 8.140 7.985 0.00 0.00 0.6210   9.990 10.210 10.370 10.370 10.330 7.922 7.816     0     0.4600 347.50 1.23   0.000 0.000 12.320 10.756 1.565 12.688 10.651 2.043
WS7MET_125 2018-09-30 20:55:00 125 30483.0 10.080 10.300 10.480 10.580 10.530 87.500 83.700 8.110 7.951 0.00 0.00 13.850 13.550 13.280 12.060 12.480 10.160 10.330 10.510 10.710 10.590 8.160 8.090 0.00 0.00 0.5360   9.990 10.270 10.470 10.500 10.480 8.000 7.855     0     0.3980 347.20 0.43   0.000 0.000 12.345 10.808 1.543 12.764 10.691 2.081
WS7MET_125 2018-09-30 20:50:00 125 30483.0 10.130 10.320 10.510 10.580 10.590 86.800 83.300 8.040 7.868 0.00 0.00 13.850 13.540 13.280 12.060 12.490 10.440 10.330 10.510 10.670 10.610 8.340 7.993 0.00 0.00 0.6140   9.990 10.310 10.510 10.470 10.570 7.905 7.779     0     0.5150 346.70 0.42   0.000 0.000 12.386 10.756 1.635 12.764 10.631 2.132
WS7MET_125 2018-09-30 20:45:00 125 30483.0 10.140 10.330 10.490 10.570 10.560 87.300 83.700 8.120 7.934 0.00 0.00 13.850 13.540 13.280 12.060 12.490 10.270 10.330 10.490 10.670 10.600 8.230 8.050 0.00 0.00 0.6010   9.990 10.330 10.480 10.470 10.530 7.945 7.835     0     0.4560 349.70 2.53   0.000 0.000 12.394 10.815 1.574 12.756 10.679 2.079
WS7MET_125 2018-09-30 20:40:00 125 30483.0 10.160 10.330 10.480 10.530 10.530 87.100 83.800 8.110 7.925 0.00 0.00 13.850 13.540 13.280 12.060 12.500 10.230 10.350 10.490 10.610 10.570 8.200 7.987 0.00 0.00 0.5810   10.060 10.330 10.470 10.440 10.500 8.000 7.829     0     0.4680 352.00 3.15   0.000 0.000 12.411 10.808 1.601 12.722 10.672 2.061
WS7MET_125 2018-09-30 20:35:00 125 30483.0 10.190 10.380 10.530 10.590 10.530 86.400 83.500 8.030 7.924 0.00 0.00 13.850 13.540 13.280 12.060 12.490 10.260 10.420 10.560 10.670 10.570 8.110 8.010 0.00 0.00 0.4970   10.060 10.350 10.490 10.500 10.480 7.885 7.872     0     0.4020 349.60 2.15   0.000 0.000 12.436 10.749 1.691 12.773 10.672 2.107
WS7MET_125 2018-09-30 20:30:00 125 30483.0 10.270 10.450 10.580 10.630 10.600 86.200 83.400 8.080 7.945 0.00 0.00 13.850 13.540 13.280 12.060 12.500 10.470 10.470 10.600 10.740 10.630 8.290 8.030 0.00 0.00 0.5160   10.130 10.420 10.570 10.500 10.570 7.922 7.836     0     0.3780 343.70 6.05   0.000 0.000 12.503 10.786 1.725 12.807 10.687 2.126
WS7MET_125 2018-09-30 20:25:00 125 30483.0 10.310 10.490 10.630 10.680 10.640 85.900 83.100 8.070 7.943 0.00 0.00 13.850 13.540 13.280 12.050 12.510 10.600 10.510 10.650 10.740 10.680 8.370 8.010 0.00 0.00 0.5550   10.190 10.470 10.590 10.570 10.590 7.941 7.841     0     0.4570 352.90 0.88   0.000 0.000 12.536 10.778 1.768 12.850 10.685 2.172
WS7MET_125 2018-09-30 20:20:00 125 30483.0 10.310 10.500 10.650 10.720 10.670 85.800 82.800 8.050 7.925 0.00 0.00 13.850 13.540 13.280 12.050 12.460 10.360 10.510 10.660 10.910 10.680 8.140 8.110 0.00 0.00 0.4900   10.190 10.500 10.640 10.640 10.650 7.929 7.850     0     0.4200 348.70 2.43   0.000 0.000 12.536 10.764 1.780 12.884 10.672 2.216
WS7MET_125 2018-09-30 20:15:00 125 30483.0 10.350 10.510 10.670 10.750 10.680 85.700 82.400 8.080 7.887 0.00 0.00 13.850 13.540 13.280 12.060 12.490 10.430 10.530 10.680 10.840 10.710 8.160 7.970 0.00 0.00 0.5160   10.260 10.510 10.650 10.670 10.640 7.983 7.763     0     0.4390 344.90 1.47   0.000 0.000 12.570 10.786 1.797 12.910 10.645 2.272
WS7MET_125 2018-09-30 20:10:00 125 30483.0 10.370 10.570 10.720 10.790 10.740 85.200 81.900 8.000 7.835 0.00 0.00 13.850 13.530 13.280 12.050 12.530 10.470 10.590 10.750 10.840 10.810 8.120 7.952 0.00 0.00 0.6340   10.230 10.540 10.680 10.740 10.670 7.868 7.769     0     0.5240 347.60 0.61   0.000 0.000 12.586 10.727 1.863 12.944 10.607 2.343
WS7MET_125 2018-09-30 20:05:00 125 30483.0 10.390 10.600 10.760 10.830 10.810 85.200 81.500 8.030 7.812 0.00 0.00 13.840 13.530 13.280 12.050 12.500 10.470 10.610 10.770 10.910 10.840 8.110 7.869 0.00 0.00 0.5810   10.260 10.590 10.750 10.770 10.770 7.895 7.748     0     0.4440 358.20 3.55   0.000 0.000 12.603 10.749 1.865 12.979 10.590 2.401
WS7MET_125 2018-09-30 20:00:00 125 30483.0 10.430 10.610 10.780 10.850 10.810 84.800 81.500 7.984 7.820 0.00 0.00 13.840 13.530 13.280 12.050 12.500 10.530 10.630 10.800 10.940 10.850 8.080 7.920 0.00 0.00 0.6990   10.360 10.600 10.760 10.740 10.780 7.888 7.738     0     0.5380 350.60 1.34   0.000 0.000 12.637 10.715 1.921 12.996 10.596 2.404
WS7MET_125 2018-09-30 19:55:00 125 30483.0 10.500 10.630 10.800 10.880 10.820 84.000 81.100 7.924 7.774 0.00 0.00 13.840 13.530 13.280 12.050 12.500 10.640 10.650 10.810 10.940 10.850 8.060 7.871 0.00 0.00 0.5550   10.430 10.630 10.790 10.770 10.800 7.836 7.641     0     0.4440 353.00 1.33   0.000 0.000 12.696 10.672 2.031 13.022 10.563 2.461
WS7MET_125 2018-09-30 19:50:00 125 30483.0 10.510 10.660 10.820 10.890 10.820 83.900 80.900 7.911 7.740 0.00 0.00 13.840 13.520 13.270 12.050 12.530 10.570 10.690 10.850 11.050 10.850 8.000 7.897 0.00 0.00 0.5810   10.430 10.650 10.810 10.810 10.810 7.801 7.651     0     0.5190 348.80 1.55   0.000 0.000 12.705 10.662 2.045 13.030 10.539 2.489
WS7MET_125 2018-09-30 19:45:00 125 30483.0 10.570 10.710 10.870 10.910 10.860 83.700 80.900 7.932 7.763 0.00 0.00 13.840 13.510 13.270 12.050 12.530 10.670 10.750 10.910 10.980 10.910 8.040 7.836 0.00 0.00 0.5160   10.430 10.690 10.850 10.770 10.830 7.819 7.630     0     0.4460 347.40 0.77   0.000 0.000 12.756 10.677 2.079 13.048 10.555 2.492
WS7MET_125 2018-09-30 19:40:00 125 30483.0 10.610 10.780 10.940 11.000 10.930 83.300 80.600 7.912 7.802 0.00 0.00 13.840 13.510 13.270 12.050 12.530 10.740 10.820 10.980 11.080 10.950 8.020 7.886 0.00 0.00 0.4440   10.470 10.760 10.910 10.910 10.910 7.769 7.720     0     0.3800 348.30 2.50   0.000 0.000 12.790 10.663 2.136 13.126 10.583 2.546
WS7MET_125 2018-09-30 19:35:00 125 30483.0 10.680 10.870 11.020 11.110 11.030 83.300 80.300 7.967 7.865 0.00 0.00 13.840 13.510 13.270 12.050 12.530 10.840 10.910 11.060 11.250 11.080 8.130 7.986 0.00 0.00 0.4440   10.600 10.820 10.990 11.040 10.970 7.881 7.781     0     0.3720 345.30 3.00   0.000 0.000 12.850 10.703 2.146 13.222 10.629 2.605
WS7MET_125 2018-09-30 19:30:00 125 30483.0 10.700 10.920 11.070 11.130 11.100 83.100 80.000 7.958 7.820 0.00 0.00 13.840 13.500 13.270 12.050 12.530 10.770 10.930 11.100 11.180 11.150 8.070 7.877 0.00 0.00 0.4700   10.630 10.910 11.050 11.080 11.070 7.861 7.758     0     0.3880 344.70 1.10   0.000 0.000 12.867 10.696 2.174 13.240 10.596 2.648
WS7MET_125 2018-09-30 19:25:00 125 30483.0 10.770 10.950 11.110 11.180 11.130 83.400 80.100 8.080 7.884 0.00 0.00 13.830 13.500 13.270 12.050 12.590 10.870 10.970 11.130 11.420 11.180 8.180 8.100 0.00 0.00 0.6340   10.670 10.930 11.090 11.110 11.110 7.980 7.803     0     0.5160 347.10 0.95   0.000 0.000 12.927 10.786 2.146 13.284 10.643 2.644
WS7MET_125 2018-09-30 19:20:00 125 30483.0 10.790 10.970 11.130 11.170 11.150 82.900 79.880 8.010 7.839 0.00 0.00 13.820 13.500 13.270 12.050 12.540 10.870 10.990 11.140 11.250 11.190 8.160 7.937 0.00 0.00 0.6010   10.670 10.970 11.120 11.040 11.110 7.836 7.690     0     0.5270 346.50 2.15   0.000 0.000 12.944 10.734 2.213 13.275 10.610 2.671
WS7MET_125 2018-09-30 19:15:00 125 30483.0 10.810 11.010 11.140 11.180 11.140 82.900 79.850 8.020 7.843 0.00 0.00 13.820 13.500 13.270 12.050 12.570 10.900 11.030 11.160 11.250 11.170 8.140 7.902 0.00 0.00 0.5810   10.630 11.000 11.130 11.110 11.130 7.857 7.771     0     0.5110 344.10 3.19   0.000 0.000 12.961 10.742 2.216 13.284 10.613 2.677
WS7MET_125 2018-09-30 19:10:00 125 30483.0 10.860 11.030 11.170 11.220 11.190 82.200 79.470 7.961 7.807 0.00 0.00 13.810 13.500 13.270 12.050 12.550 10.940 11.040 11.190 11.310 11.210 8.190 7.961 0.00 0.00 0.5290   10.770 11.020 11.160 11.140 11.170 7.845 7.735     0     0.4400 341.40 2.99   0.000 0.000 13.004 10.699 2.315 13.319 10.587 2.734
WS7MET_125 2018-09-30 19:05:00 125 30483.0 10.880 11.050 11.180 11.240 11.180 82.100 79.130 7.956 7.762 0.00 0.00 13.810 13.500 13.270 12.040 12.550 10.970 11.050 11.210 11.350 11.210 8.060 7.889 0.00 0.00 0.5550   10.800 11.040 11.170 11.140 11.150 7.854 7.690     0     0.4660 345.40 2.31   0.000 0.000 13.022 10.695 2.331 13.337 10.554 2.783
WS7MET_125 2018-09-30 19:00:00 125 30483.0 10.890 11.060 11.200 11.250 11.220 82.100 79.080 7.960 7.767 0.00 0.00 13.810 13.490 13.270 12.040 12.540 10.970 11.070 11.210 11.380 11.270 8.110 7.919 0.00 0.00 0.6210   10.770 11.050 11.190 11.110 11.120 7.851 7.575     0     0.5560 349.30 1.07   0.000 0.000 13.030 10.698 2.332 13.346 10.558 2.792
WS7MET_125 2018-09-30 18:55:00 125 30483.0 10.960 11.120 11.250 11.320 11.210 81.700 78.900 7.964 7.803 0.00 0.00 13.800 13.490 13.270 12.040 12.600 11.010 11.150 11.310 11.420 11.310 8.100 7.904 0.00 0.00 0.6210   10.800 11.070 11.190 11.180 11.100 7.769 7.698     0     0.4990 347.00 5.05   0.000 0.000 13.091 10.701 2.396 13.408 10.584 2.829
WS7MET_125 2018-09-30 18:50:00 125 30483.0 10.970 11.170 11.310 11.370 11.350 81.700 78.780 7.979 7.829 0.00 0.00 13.790 13.490 13.280 12.040 12.590 11.110 11.180 11.330 11.450 11.400 8.210 7.966 0.00 0.00 0.5750   10.900 11.160 11.310 11.280 11.310 7.809 7.689     0     0.4590 348.30 1.06   0.000 0.000 13.100 10.712 2.397 13.452 10.603 2.855
WS7MET_125 2018-09-30 18:45:00 125 30483.0 11.010 11.200 11.320 11.360 11.320 81.500 78.730 7.985 7.809 0.00 0.00 13.790 13.480 13.280 12.040 12.570 11.070 11.210 11.340 11.480 11.350 8.060 7.907 0.00 0.00 0.5950   10.940 11.160 11.310 11.280 11.310 7.858 7.722     0     0.4360 351.70 4.01   0.000 0.000 13.135 10.716 2.430 13.444 10.588 2.859
WS7MET_125 2018-09-30 18:40:00 125 30483.0 11.040 11.210 11.340 11.380 11.380 81.900 79.070 8.070 7.895 0.00 0.00 13.780 13.480 13.280 12.040 12.600 11.210 11.210 11.360 11.450 11.410 8.280 8.020 0.00 0.00 0.6530   10.940 11.200 11.330 11.310 11.350 7.864 7.741     0     0.4020 344.70 7.59   0.000 0.000 13.161 10.778 2.382 13.461 10.651 2.817
WS7MET_125 2018-09-30 18:35:00 125 30483.0 11.110 11.230 11.350 11.440 11.290 81.500 78.670 8.060 7.880 0.00 0.00 13.780 13.480 13.280 12.040 12.650 11.210 11.290 11.410 11.720 11.330 8.160 8.110 0.00 0.00 0.7060   11.010 11.200 11.330 11.350 11.250 7.908 7.774     0     0.5310 348.10 2.20   0.000 0.000 13.222 10.771 2.446 13.515 10.640 2.883
WS7MET_125 2018-09-30 18:30:00 125 30483.0 11.250 11.400 11.530 11.590 11.450 81.200 77.900 8.160 7.879 0.00 0.00 13.770 13.470 13.280 12.040 12.630 11.350 11.470 11.600 11.690 11.590 8.310 7.983 0.00 0.00 0.6340   11.110 11.300 11.430 11.420 11.310 7.981 7.726     0     0.4250 344.50 2.14   0.000 0.000 13.346 10.844 2.509 13.650 10.639 3.017
WS7MET_125 2018-09-30 18:25:00 125 30483.0 11.330 11.520 11.650 11.700 11.650 81.400 77.630 8.260 7.933 0.00 0.00 13.770 13.480 13.280 12.040 12.610 11.450 11.550 11.670 11.830 11.740 8.580 8.040 0.00 0.00 0.6140   11.250 11.470 11.610 11.620 11.570 8.110 7.822     0     0.5130 352.30 2.68   0.000 0.000 13.417 10.918 2.496 13.749 10.678 3.076
WS7MET_125 2018-09-30 18:20:00 125 30483.0 11.330 11.540 11.660 11.660 11.690 80.600 77.630 8.130 7.895 0.00 0.00 13.760 13.480 13.290 12.040 12.680 11.420 11.560 11.670 11.760 11.760 8.490 7.976 0.00 0.00 0.5950   11.250 11.530 11.640 11.620 11.630 7.965 7.796     0     0.4910 349.70 2.83   0.000 0.000 13.417 10.822 2.603 13.713 10.651 3.068
WS7MET_125 2018-09-30 18:15:00 125 30483.0 11.410 11.540 11.660 11.690 11.670 79.840 77.280 8.060 7.861 0.00 0.00 13.750 13.470 13.280 12.040 12.640 11.480 11.540 11.670 11.760 11.690 8.130 7.922 0.00 0.00 0.5100   11.350 11.530 11.640 11.620 11.630 7.958 7.789     0     0.4450 347.60 0.40   0.000 0.000 13.488 10.771 2.719 13.740 10.626 3.122
WS7MET_125 2018-09-30 18:10:00 125 30483.0 11.460 11.580 11.710 11.800 11.660 80.200 77.020 8.170 7.913 0.00 0.00 13.740 13.470 13.290 12.040 12.720 11.620 11.620 11.750 11.890 11.670 8.370 7.989 0.00 0.00 0.5620   11.310 11.540 11.670 11.720 11.630 7.975 7.843     0     0.4730 350.90 1.61   0.000 0.000 13.533 10.852 2.680 13.841 10.664 3.181
WS7MET_125 2018-09-30 18:05:00 125 30483.0 11.560 11.690 11.820 11.900 11.770 79.880 76.940 8.220 7.993 0.00 0.00 13.730 13.470 13.290 12.040 12.700 11.720 11.730 11.880 11.960 11.840 8.380 8.090 0.00 0.00 0.5810   11.420 11.620 11.760 11.830 11.690 8.010 7.897     0     0.4480 346.70 4.12   0.000 0.000 13.623 10.889 2.741 13.932 10.722 3.213
WS7MET_125 2018-09-30 18:00:00 125 30483.0 11.670 11.790 11.930 12.000 11.860 80.100 77.040 8.370 8.110 0.00 0.00 13.730 13.470 13.290 12.040 12.710 11.760 11.860 11.970 12.130 11.900 8.520 8.270 0.00 0.00 0.5230   11.590 11.740 11.880 11.930 11.840 8.180 7.990     0     0.4050 345.10 8.92   0.000 0.000 13.722 11.000 2.731 14.025 10.808 3.220
WS7MET_125 2018-09-30 17:55:00 125 30483.0 11.820 11.950 12.060 12.120 11.950 79.680 76.980 8.430 8.220 1.34 0.00 13.720 13.470 13.290 12.040 12.770 11.930 12.030 12.140 12.230 12.060 8.600 8.320 1.34 0.00 0.5100   11.720 11.860 11.980 12.000 11.880 8.290 8.110     0     0.4240 349.50 5.21   0.000 0.000 13.859 11.045 2.816 14.136 10.889 3.254
WS7MET_125 2018-09-30 17:50:00 125 30483.0 12.000 12.110 12.230 12.280 12.120 78.630 76.030 8.410 8.190 1.75 0.00 13.710 13.460 13.280 12.040 12.740 12.100 12.200 12.300 12.370 12.220 8.570 8.290 2.68 0.00 0.4900   11.930 12.030 12.140 12.200 12.030 8.320 8.140     0     0.3860 350.00 7.42   0.000 0.000 14.025 11.030 2.997 14.286 10.867 3.424
WS7MET_125 2018-09-30 17:45:00 125 30483.0 12.190 12.280 12.380 12.440 12.260 79.110 75.790 8.680 8.300 2.68 0.00 13.700 13.460 13.280 12.040 12.750 12.300 12.360 12.460 12.580 12.330 9.020 8.430 2.68 0.00 0.6930   12.100 12.200 12.310 12.300 12.230 8.430 8.150     0     0.4570 3.42 5.24   0.000 0.000 14.201 11.234 2.967 14.437 10.948 3.495
WS7MET_125 2018-09-30 17:40:00 125 30483.0 12.330 12.440 12.550 12.580 12.420 78.010 75.600 8.620 8.390 3.96 0.00 13.690 13.450 13.280 12.040 12.780 12.470 12.520 12.620 12.680 12.490 8.730 8.530 4.03 0.00 0.4900   12.200 12.370 12.470 12.470 12.330 8.500 8.270     0     0.3600 356.40 6.23   0.000 0.000 14.333 11.188 3.152 14.570 11.015 3.555
WS7MET_125 2018-09-30 17:35:00 125 30483.0 12.460 12.580 12.680 12.690 12.570 78.140 75.140 8.770 8.410 6.64 0.60 13.680 13.450 13.280 12.040 12.780 12.540 12.640 12.720 12.780 12.600 8.920 8.510 8.05 1.34 0.6270   12.340 12.520 12.620 12.610 12.500 8.640 8.290     0     0.4260 348.60 3.50   0.000 0.000 14.456 11.303 3.160 14.675 11.030 3.648
WS7MET_125 2018-09-30 17:30:00 125 30483.0 12.550 12.680 12.770 12.770 12.630 77.600 74.720 8.750 8.410 9.93 1.34 13.680 13.450 13.280 12.040 12.790 12.750 12.720 12.810 12.880 12.680 9.000 8.500 10.74 1.34 0.5230   12.410 12.640 12.720 12.680 12.600 8.530 8.340     0     0.2370 339.90 10.21   0.000 0.000 14.541 11.287 3.257 14.753 11.030 3.729
WS7MET_125 2018-09-30 17:25:00 125 30483.0 12.630 12.770 12.860 12.870 12.700 77.630 74.000 8.840 8.360 12.82 1.34 13.660 13.450 13.290 12.040 12.820 12.750 12.810 12.910 12.950 12.740 9.130 8.470 13.42 1.34 0.3790   12.540 12.730 12.830 12.810 12.680 8.550 8.280     0     0.2300 4.22 9.96   0.000 0.000 14.618 11.356 3.270 14.850 10.993 3.861
WS7MET_125 2018-09-30 17:20:00 125 30483.0 12.680 12.830 12.930 12.910 12.850 77.020 73.630 8.760 8.320 13.42 2.01 13.650 13.450 13.290 12.040 12.880 12.780 12.840 12.930 12.990 12.890 9.100 8.450 13.42 2.68 0.3400   12.540 12.820 12.910 12.810 12.760 8.590 8.180     0     0.1520 343.10 4.49   0.000 0.000 14.666 11.295 3.370 14.889 10.963 3.926
WS7MET_125 2018-09-30 17:15:00 125 30483.0 12.700 12.860 12.950 12.940 12.840 76.310 73.330 8.650 8.290 13.76 1.81 13.640 13.450 13.290 12.040 12.930 12.750 12.880 12.970 12.990 12.880 8.840 8.400 14.76 2.68 0.4900   12.610 12.830 12.930 12.850 12.830 8.480 8.190     0     0.2850 351.10 19.34   0.000 0.000 14.685 11.211 3.479 14.918 10.941 3.979
WS7MET_125 2018-09-30 17:10:00 125 30483.0 12.810 12.910 13.000 13.010 12.860 76.580 73.020 8.810 8.300 14.76 2.68 13.630 13.450 13.290 12.040 12.930 12.990 12.950 13.030 13.120 12.900 9.040 8.440 14.76 2.68 0.4180   12.750 12.890 12.970 12.920 12.850 8.450 8.150     0     0.1610 345.30 18.72   0.000 0.000 14.791 11.333 3.464 14.986 10.948 4.043
WS7MET_125 2018-09-30 17:05:00 125 30483.0 12.870 13.010 13.100 13.140 12.930 77.190 73.420 8.980 8.500 14.76 2.62 13.620 13.450 13.290 12.040 12.950 12.990 13.080 13.180 13.220 13.010 9.310 8.640 14.76 2.68 0.6010   12.750 12.950 13.040 13.050 12.890 8.740 8.330     0     0.3030 336.20 10.45   0.000 0.000 14.850 11.464 3.387 15.114 11.098 4.017
WS7MET_125 2018-09-30 17:00:00 125 30483.0 13.000 13.120 13.230 13.270 13.070 76.630 73.090 9.000 8.560 18.45 2.82 13.610 13.450 13.290 12.050 12.970 13.190 13.140 13.260 13.430 13.100 9.200 8.890 22.82 4.03 0.3850   12.880 13.080 13.180 13.190 13.010 8.820 8.230     0     0.1100 341.00 10.59   0.000 0.000 14.976 11.480 3.500 15.243 11.143 4.102
WS7MET_125 2018-09-30 16:55:00 125 30483.0 13.070 13.160 13.300 13.360 13.090 75.470 72.180 8.840 8.460 30.33 4.03 13.600 13.450 13.290 12.050 13.010 13.290 13.200 13.350 13.500 13.110 9.220 8.600 34.89 4.03 0.3400   12.950 13.140 13.260 13.220 13.050 8.570 8.330     0     0.2870 352.30 8.43   0.000 0.000 15.045 11.356 3.691 15.333 11.068 4.266
WS7MET_125 2018-09-30 16:50:00 125 30483.0 13.200 13.280 13.430 13.490 13.100 75.120 71.460 8.900 8.440 38.99 5.17 13.590 13.450 13.290 12.050 13.020 13.360 13.370 13.510 13.600 13.160 9.590 8.650 41.60 5.37 0.4310   13.120 13.200 13.350 13.390 13.070 8.560 8.290     0     0.1310 0.30 0.05   0.000 0.000 15.173 11.402 3.775 15.463 11.053 4.413
WS7MET_125 2018-09-30 16:45:00 125 30483.0 13.330 13.430 13.560 13.580 13.290 75.940 71.580 9.190 8.560 46.64 6.31 13.580 13.450 13.290 12.050 13.100 13.460 13.460 13.600 13.630 13.410 9.550 8.850 49.66 6.71 0.5490   13.220 13.390 13.510 13.430 13.170 8.770 8.240     0     0.1000 316.40 35.08   0.000 0.000 15.303 11.628 3.682 15.554 11.143 4.420
WS7MET_125 2018-09-30 16:40:00 125 30483.0 13.430 13.530 13.660 13.720 13.340 74.520 69.900 9.000 8.340 44.22 5.70 13.570 13.450 13.290 12.050 13.090 13.570 13.600 13.750 13.870 13.410 9.350 8.460 46.97 6.71 0.1830   13.330 13.470 13.600 13.570 13.280 8.780 8.210     0     0.0460 332.40 2.40   0.000 0.000 15.403 11.480 3.925 15.697 10.978 4.725
WS7MET_125 2018-09-30 16:35:00 125 30483.0 13.560 13.720 13.870 13.920 13.520 73.800 68.870 8.990 8.310 49.12 6.71 13.560 13.450 13.290 12.050 13.130 13.630 13.810 13.960 14.040 13.870 9.400 8.520 51.00 6.71 0.3400   13.430 13.600 13.760 13.800 13.370 7.928 7.793     0     0.1080 8.61 6.88   0.000 0.000 15.534 11.472 4.070 15.902 10.956 4.950
WS7MET_125 2018-09-30 16:30:00 125 30483.0 13.680 13.810 13.960 13.970 13.670 72.080 68.090 8.750 8.190 49.46 6.91 13.540 13.450 13.300 12.050 13.170 13.800 13.840 13.970 14.040 13.870 9.460 8.540 52.34 8.05 0.2680   13.600 13.780 13.940 13.870 13.550 7.920 7.677     0     0.0490 201.10 34.62   0.000 0.000 15.656 11.287 4.371 15.954 10.867 5.091
WS7MET_125 2018-09-30 16:25:00 125 30483.0 13.800 13.870 13.990 14.010 13.710 72.950 67.560 9.040 8.110 56.84 8.05 13.530 13.450 13.300 12.050 13.180 13.970 13.910 14.040 14.080 13.810 9.610 8.470 57.71 8.05 0.3330   13.700 13.840 13.970 13.910 13.620 8.320 7.735     0     0.1520 27.26 51.77   0.000 0.000 15.778 11.511 4.268 15.995 10.808 5.189
WS7MET_125 2018-09-30 16:20:00 125 30483.0 13.910 14.000 14.130 14.160 13.710 73.070 68.970 9.170 8.560 66.77 10.07 13.520 13.450 13.300 12.050 13.220 14.010 14.100 14.240 14.420 13.830 9.720 9.190 71.13 10.74 0.4050   13.800 13.940 14.040 14.010 13.640 8.080 7.782     0     0.1570 347.90 41.27   0.000 0.000 15.892 11.612 4.280 16.151 11.143 5.012
WS7MET_125 2018-09-30 16:15:00 125 30483.0 14.070 14.150 14.280 14.240 13.900 70.730 67.150 8.840 8.240 73.01 11.21 13.510 13.450 13.300 12.060 13.290 14.210 14.170 14.310 14.320 14.050 9.570 8.750 81.90 13.42 0.6930   13.970 14.100 14.230 14.180 13.720 7.948 7.740     0     0.2910 264.70 25.72   0.000 0.000 16.057 11.356 4.700 16.235 10.904 5.333
WS7MET_125 2018-09-30 16:10:00 125 30483.0 14.220 14.310 14.400 14.370 13.820 72.830 68.010 9.420 8.550 87.20 13.96 13.490 13.450 13.300 12.060 13.390 14.320 14.420 14.510 14.490 14.130 10.130 9.060 91.30 14.76 0.8620   14.080 14.180 14.270 14.180 13.700 8.780 8.030     0     0.2140 92.60 34.69   0.000 0.000 16.214 11.810 4.405 16.372 11.135 5.238
WS7MET_125 2018-09-30 16:05:00 125 30483.0 14.290 14.430 14.500 14.430 14.200 66.450 64.340 8.130 7.797 83.90 13.09 13.480 13.450 13.300 12.060 13.350 14.380 14.440 14.520 14.520 14.250 9.300 8.530 87.20 13.42 1.1890   14.180 14.410 14.490 14.350 14.150 7.819 7.591     0     0.5920 214.00 43.35   0.000 0.000 16.288 10.822 5.465 16.436 10.580 5.861
WS7MET_125 2018-09-30 16:00:00 125 30483.0 14.330 14.440 14.520 14.470 14.180 70.440 67.390 9.030 8.520 83.30 13.42 13.470 13.450 13.300 12.060 13.380 14.420 14.440 14.550 14.520 14.250 9.650 9.210 84.60 13.42 0.8300   14.210 14.430 14.510 14.380 14.080 8.690 7.825     0     0.3810 244.00 32.16   0.000 0.000 16.330 11.503 4.827 16.479 11.113 5.374
WS7MET_125 2018-09-30 15:55:00 125 30483.0 14.360 14.450 14.560 14.480 14.180 69.200 66.390 8.790 8.300 85.60 13.42 13.460 13.450 13.300 12.060 13.400 14.490 14.510 14.630 14.550 14.260 9.450 9.090 88.60 13.42 0.2870   14.250 14.420 14.530 14.380 14.050 8.300 7.771     0     0.0490 328.40 45.30   0.000 0.000 16.362 11.318 5.039 16.489 10.948 5.542
WS7MET_125 2018-09-30 15:50:00 125 30483.0 14.470 14.570 14.660 14.580 14.160 70.490 67.880 9.160 8.720 90.30 14.36 13.450 13.450 13.300 12.060 13.470 14.590 14.700 14.750 14.730 14.230 10.500 9.640 93.90 14.76 1.0650   14.350 14.490 14.600 14.450 14.020 8.180 8.070     0     0.4160 248.50 24.63   0.000 0.000 16.479 11.604 4.863 16.596 11.264 5.331
WS7MET_125 2018-09-30 15:45:00 125 30483.0 14.500 14.700 14.780 14.670 14.340 70.270 67.150 9.150 8.650 114.10 18.52 13.430 13.450 13.300 12.060 13.610 14.590 14.710 14.810 14.760 14.450 10.060 9.720 124.80 20.13 0.4640   14.420 14.670 14.720 14.590 14.190 8.220 8.080     0     0.0840 123.60 34.43   0.000 0.000 16.511 11.597 4.909 16.693 11.211 5.484
WS7MET_125 2018-09-30 15:40:00 125 30483.0 14.380 14.600 14.690 14.560 14.310 66.960 65.100 8.330 8.090 122.20 19.53 13.420 13.450 13.300 12.060 13.650 14.490 14.670 14.760 14.730 14.380 8.740 8.450 128.80 20.13 0.6210   14.320 14.540 14.640 14.450 14.250 8.100 7.886     0     0.1330 245.00 45.93   0.000 0.000 16.383 10.970 5.413 16.575 10.793 5.785
WS7MET_125 2018-09-30 15:35:00 125 30483.0 14.310 14.510 14.610 14.510 14.250 69.520 65.980 8.820 8.240 113.90 18.25 13.410 13.450 13.300 12.060 13.560 14.380 14.540 14.650 14.590 14.360 9.470 8.900 120.80 20.13 1.1040   14.250 14.450 14.550 14.380 14.130 8.100 7.908     0     0.3100 247.30 37.97   0.000 0.000 16.309 11.341 4.971 16.521 10.904 5.621
WS7MET_125 2018-09-30 15:30:00 125 30483.0 14.360 14.530 14.650 14.530 14.220 68.020 65.230 8.550 8.090 115.60 18.99 13.400 13.450 13.300 12.060 13.620 14.420 14.570 14.720 14.660 14.260 9.320 8.320 122.10 20.13 0.8040   14.280 14.470 14.550 14.450 14.190 8.070 7.735     0     0.3180 89.80 7.95   0.000 0.000 16.362 11.135 5.233 16.543 10.793 5.752
WS7MET_125 2018-09-30 15:25:00 125 30483.0 14.340 14.540 14.690 14.550 14.210 68.830 64.620 8.690 7.976 133.30 21.88 13.390 13.450 13.300 12.060 13.650 14.420 14.570 14.730 14.620 14.300 9.950 8.250 139.60 22.82 0.7710   14.150 14.510 14.660 14.450 14.060 7.844 7.649     0     0.3080 191.10 52.08   0.000 0.000 16.341 11.242 5.093 16.564 10.709 5.860
WS7MET_125 2018-09-30 15:20:00 125 30483.0 14.350 14.470 14.580 14.510 14.190 69.880 65.670 8.930 8.170 136.20 22.21 13.380 13.450 13.300 12.060 13.630 14.420 14.530 14.650 14.590 14.300 9.450 8.790 140.90 22.82 1.0650   14.180 14.420 14.530 14.350 14.040 8.380 7.917     0     0.3220 90.50 63.82   0.000 0.000 16.351 11.426 4.925 16.521 10.852 5.672
WS7MET_125 2018-09-30 15:15:00 125 30483.0 14.490 14.560 14.690 14.610 14.240 68.290 63.760 8.730 7.837 134.10 22.08 13.360 13.450 13.300 12.060 13.630 14.660 14.640 14.760 14.760 14.350 9.690 8.050 135.50 22.82 0.8170   14.320 14.490 14.610 14.550 14.170 8.050 7.634     0     0.3410 76.20 78.60   0.000 0.000 16.500 11.272 5.232 16.628 10.608 6.026
WS7MET_125 2018-09-30 15:10:00 125 30483.0 14.680 14.700 14.820 14.770 14.350 66.910 63.560 8.610 7.937 147.70 24.29 13.350 13.450 13.300 12.060 13.610 14.860 14.810 14.950 14.860 14.400 9.470 8.340 155.70 25.50 0.8620   14.520 14.640 14.730 14.660 14.270 8.170 7.645     0     0.4560 83.50 48.89   0.000 0.000 16.704 11.181 5.527 16.801 10.681 6.122
WS7MET_125 2018-09-30 15:05:00 125 30483.0 14.850 14.910 15.060 14.950 14.440 65.690 62.280 8.500 7.814 147.60 24.49 13.350 13.450 13.300 12.060 13.550 15.030 15.000 15.170 15.100 14.540 9.300 8.070 154.30 25.50 1.2150   14.690 14.820 14.960 14.830 14.300 7.822 7.618     0     0.4450 147.70 72.87   0.000 0.000 16.888 11.098 5.794 16.997 10.592 6.411
WS7MET_125 2018-09-30 15:00:00 125 30483.0 15.090 15.120 15.320 15.210 14.520 63.510 60.750 8.230 7.689 148.20 24.43 13.330 13.450 13.310 12.060 13.550 15.310 15.240 15.450 15.440 14.590 9.230 8.140 170.40 28.18 0.6530   14.930 15.050 15.240 15.070 14.420 7.466 7.332     0     0.2440 306.70 58.48   0.000 0.000 17.151 10.896 6.258 17.284 10.502 6.784
WS7MET_125 2018-09-30 14:55:00 125 30483.0 15.400 15.610 15.840 15.560 14.900 67.190 60.960 9.340 8.070 164.90 26.71 13.320 13.450 13.300 12.060 13.570 15.480 15.710 15.950 15.750 15.170 10.770 9.160 186.50 28.18 0.9930   15.340 15.340 15.540 15.370 14.610 7.702 7.212     0     0.4470 165.40 50.38   0.000 0.000 17.496 11.746 5.740 17.676 10.778 6.901
WS7MET_125 2018-09-30 14:50:00 125 30483.0 15.550 15.740 15.890 15.750 15.000 66.890 60.220 9.420 8.070 456.70 68.24 13.310 13.450 13.310 12.060 13.690 15.680 15.800 15.950 15.920 15.260 10.460 8.820 756.90 108.70 1.1690   15.370 15.680 15.780 15.580 14.700 8.350 7.601     0     0.6780 112.60 18.91   0.000 0.000 17.665 11.810 5.849 17.893 10.778 7.118
WS7MET_125 2018-09-30 14:45:00 125 30483.0 15.760 15.860 16.050 15.710 14.790 65.490 62.190 9.310 8.500 264.10 42.01 13.300 13.450 13.310 12.060 13.920 15.890 16.000 16.250 15.920 15.000 10.170 9.280 369.10 56.37 0.8750   15.580 15.700 15.800 15.510 14.420 8.280 7.901     0     0.3130 154.90 66.12   0.000 0.000 17.904 11.722 6.179 17.847 11.098 6.748
WS7MET_125 2018-09-30 14:40:00 125 30483.0 15.330 15.620 15.810 15.640 14.910 66.280 60.120 9.070 7.944 349.00 53.95 13.280 13.450 13.310 12.060 14.020 15.610 15.780 15.930 15.820 15.210 10.930 8.450 637.50 93.90 1.0850   15.030 15.320 15.580 15.480 14.440 7.887 7.585     0     0.5920 162.80 52.94   0.000 0.000 17.418 11.534 5.873 17.767 10.686 7.086
WS7MET_125 2018-09-30 14:35:00 125 30483.0 15.050 15.220 15.460 15.320 14.680 62.230 59.750 7.898 7.552 262.70 40.60 13.270 13.450 13.310 12.060 13.840 15.170 15.320 15.560 15.440 14.820 8.590 7.727 446.90 67.10 0.9150   14.930 15.130 15.410 15.200 14.570 7.676 7.364     0     0.5080 242.10 72.23   0.000 0.000 17.107 10.653 6.461 17.406 10.404 7.006
WS7MET_125 2018-09-30 14:30:00 125 30483.0 15.160 15.220 15.400 15.300 14.690 66.020 61.340 8.860 7.908 339.60 55.23 13.260 13.450 13.310 12.060 13.910 15.370 15.360 15.540 15.480 14.940 10.490 9.060 761.00 120.80 1.2480   15.030 15.020 15.160 15.070 14.530 7.943 7.354     0     0.3960 126.30 69.47   0.000 0.000 17.228 11.372 5.854 17.384 10.660 6.721
WS7MET_125 2018-09-30 14:25:00 125 30483.0 15.600 15.600 15.750 15.520 14.550 65.880 61.640 9.260 8.200 171.40 28.12 13.260 13.450 13.310 12.060 13.710 15.820 15.970 16.170 15.920 14.790 10.160 8.730 187.90 30.87 1.1040   15.240 15.140 15.270 15.170 14.380 8.610 7.811     0     0.4590 103.00 37.57   0.000 0.000 17.722 11.683 6.047 17.631 10.874 6.763
WS7MET_125 2018-09-30 14:20:00 125 30483.0 15.840 16.140 16.390 15.970 14.980 62.770 58.540 8.770 7.864 255.90 40.93 13.240 13.450 13.310 12.060 13.860 16.060 16.240 16.500 16.090 15.200 9.420 8.300 663.00 103.30 1.2940   15.750 16.000 16.170 15.820 14.830 7.933 7.516     0     0.4050 205.50 40.68   0.000 0.000 17.996 11.303 6.700 18.146 10.628 7.523
WS7MET_125 2018-09-30 14:15:00 125 30483.0 15.720 16.280 16.550 16.200 15.350 64.180 57.900 8.970 7.916 566.90 91.90 13.240 13.460 13.310 12.060 13.930 15.990 16.520 16.810 16.430 15.650 10.490 8.340 804.00 131.50 1.3070   15.370 16.030 16.280 15.990 15.070 8.320 7.667     0     0.7880 125.10 56.04   0.000 0.000 17.859 11.457 6.397 18.415 10.666 7.753
WS7MET_125 2018-09-30 14:10:00 125 30483.0 15.100 15.640 15.890 15.660 15.210 68.400 60.070 9.330 7.952 671.00 110.50 13.220 13.460 13.310 12.060 14.090 15.440 16.020 16.240 15.920 15.720 10.510 9.170 803.00 132.90 1.7840   14.930 15.320 15.540 15.310 14.890 8.420 7.635     0     1.0130 94.70 39.65   0.000 0.000 17.162 11.738 5.423 17.790 10.692 7.104
WS7MET_125 2018-09-30 14:05:00 125 30483.0 14.670 15.000 15.210 15.010 14.570 70.570 63.250 9.380 8.090 578.20 96.60 13.220 13.450 13.310 12.060 14.090 14.960 15.290 15.530 15.370 14.860 9.980 8.510 884.00 147.60 1.2670   14.490 14.830 14.980 14.860 14.400 8.410 7.743     0     0.5420 112.40 16.15   0.000 0.000 16.693 11.778 4.913 17.063 10.793 6.271
WS7MET_125 2018-09-30 14:00:00 125 30483.0 14.510 14.630 14.820 14.730 14.210 69.610 63.910 9.030 7.979 355.70 58.98 13.210 13.460 13.310 12.060 14.050 14.830 14.760 14.940 15.000 14.570 9.640 8.460 493.90 81.90 1.0130   14.380 14.570 14.750 14.550 13.980 8.370 7.779     0     0.4760 63.17 56.00   0.000 0.000 16.521 11.503 5.021 16.758 10.712 6.048
WS7MET_125 2018-09-30 13:55:00 125 30483.0 14.850 14.910 15.100 14.790 14.110 71.680 64.690 9.780 8.210 229.60 37.04 13.200 13.460 13.310 12.050 13.880 15.070 15.320 15.560 15.130 14.200 11.110 9.060 332.80 55.03 1.1690   14.590 14.640 14.790 14.590 14.040 8.520 7.843     0     0.6650 98.60 28.71   0.000 0.000 16.888 12.099 4.783 16.823 10.881 5.940
WS7MET_125 2018-09-30 13:50:00 125 30483.0 14.980 15.380 15.670 15.470 14.620 65.580 60.640 8.590 7.902 358.30 58.85 13.200 13.460 13.310 12.050 13.860 15.130 15.450 15.780 15.650 14.910 10.280 8.610 906.00 146.30 1.1890   14.860 15.280 15.560 15.200 14.260 7.466 7.384     0     0.4740 185.60 84.40   0.000 0.000 17.030 11.166 5.862 17.575 10.656 6.917
WS7MET_125 2018-09-30 13:45:00 125 30483.0 14.910 15.410 15.850 15.460 14.690 66.760 59.970 8.790 7.735 398.90 66.10 13.180 13.460 13.310 12.050 14.060 15.130 15.520 16.000 15.580 14.840 9.750 8.420 467.00 77.84 1.6590   14.790 15.300 15.690 15.310 14.520 8.010 7.362     0     0.7650 220.80 48.85   0.000 0.000 16.953 11.318 5.635 17.563 10.535 7.031
WS7MET_125 2018-09-30 13:40:00 125 30483.0 15.040 15.940 16.260 15.680 14.570 67.400 58.970 9.050 7.698 374.80 59.12 13.180 13.460 13.300 12.050 14.330 15.310 16.170 16.520 16.020 15.070 10.140 7.946 569.00 89.90 1.1690   14.830 15.500 15.900 15.310 14.170 7.911 7.497     0     0.4650 117.00 48.81   0.000 0.000 17.096 11.519 5.573 17.813 10.508 7.309
WS7MET_125 2018-09-30 13:35:00 125 30483.0 14.780 15.590 15.910 15.410 14.830 68.940 61.020 9.110 7.936 686.90 105.80 13.170 13.460 13.310 12.050 14.350 15.030 16.060 16.360 15.820 15.340 10.500 9.080 803.00 126.20 0.8490   14.490 14.950 15.210 14.900 14.210 7.661 7.035     0     0.4620 122.10 64.76   0.000 0.000 16.812 11.565 5.222 17.507 10.680 6.824
WS7MET_125 2018-09-30 13:30:00 125 30483.0 14.450 14.900 15.070 14.730 13.970 71.310 62.960 9.320 7.763 588.80 94.90 13.160 13.460 13.310 12.050 14.370 14.660 14.980 15.180 14.930 14.210 11.080 8.350 863.00 135.50 1.1760   14.320 14.800 14.920 14.620 13.800 8.330 7.411     0     0.6490 90.50 30.81   0.000 0.000 16.457 11.730 4.722 16.758 10.555 6.207
WS7MET_125 2018-09-30 13:25:00 125 30483.0 14.440 15.000 15.220 14.770 14.090 74.030 66.450 9.870 8.590 521.60 82.10 13.160 13.460 13.310 12.050 14.400 14.590 15.110 15.340 14.900 14.350 11.130 9.200 868.00 132.90 1.2350   14.280 14.900 15.070 14.660 13.930 8.700 7.685     0     0.6880 103.70 45.88   0.000 0.000 16.447 12.172 4.271 16.801 11.166 5.637
WS7MET_125 2018-09-30 13:20:00 125 30483.0 14.020 14.430 14.660 14.320 13.760 71.990 65.700 9.040 7.994 559.20 90.10 13.150 13.460 13.310 12.050 14.390 14.180 14.850 15.090 14.730 14.280 10.620 8.930 985.00 149.00 1.4960   13.870 14.300 14.510 14.110 13.420 7.626 7.257     0     0.6080 198.30 49.14   0.000 0.000 16.005 11.511 4.483 16.320 10.723 5.598
WS7MET_125 2018-09-30 13:15:00 125 30483.0 13.850 14.310 14.540 14.200 13.590 77.350 67.440 9.960 8.270 382.00 62.88 13.140 13.470 13.310 12.050 14.420 13.970 14.380 14.600 14.320 13.800 10.820 8.630 428.10 69.79 0.9600   13.700 14.220 14.410 14.110 13.420 8.910 7.882     0     0.6600 126.00 21.17   0.000 0.000 15.830 12.246 3.585 16.193 10.926 5.273
WS7MET_125 2018-09-30 13:10:00 125 30483.0 13.610 14.110 14.340 14.140 13.570 76.110 68.410 9.490 8.420 451.60 72.41 13.140 13.470 13.300 12.050 14.400 13.770 14.200 14.420 14.250 13.760 10.690 9.130 591.90 91.30 0.9600   13.430 14.010 14.210 14.040 13.380 8.750 8.030     0     0.5750 103.50 28.17   0.000 0.000 15.585 11.865 3.723 16.130 11.038 5.096
WS7MET_125 2018-09-30 13:05:00 125 30483.0 13.510 14.030 14.260 14.080 13.700 76.520 67.980 9.470 8.270 379.50 62.21 13.130 13.470 13.310 12.050 14.370 13.630 14.080 14.320 14.150 13.860 10.440 9.140 535.50 83.20 1.2670   13.430 13.970 14.210 13.970 13.550 8.880 7.641     0     0.8820 77.92 17.04   0.000 0.000 15.483 11.849 3.636 16.068 10.926 5.145
WS7MET_125 2018-09-30 13:00:00 125 30483.0 13.510 13.970 14.170 13.900 13.490 80.600 73.340 10.250 9.220 640.00 100.50 13.130 13.480 13.310 12.050 14.420 13.910 14.170 14.420 14.250 13.850 10.980 10.010 980.00 149.00 1.5160   13.390 13.790 13.950 13.600 13.180 9.640 8.560     0     0.7260 89.80 18.97   0.000 0.000 15.483 12.486 3.004 15.881 11.652 4.234
WS7MET_125 2018-09-30 12:55:00 125 30483.0 13.180 13.480 13.650 13.320 13.110 80.100 74.750 9.830 8.930 371.90 61.33 13.120 13.480 13.310 12.050 14.390 13.430 13.750 13.950 13.570 13.510 11.010 10.290 534.10 84.60 1.5750   13.020 13.330 13.500 13.160 12.770 8.310 7.965     0     0.3880 270.00 55.98   0.000 0.000 15.154 12.140 3.016 15.293 11.426 3.861
WS7MET_125 2018-09-30 12:50:00 125 30483.0 13.050 13.240 13.370 13.120 12.760 82.700 76.400 10.180 9.070 304.50 51.20 13.120 13.480 13.310 12.050 14.410 13.160 13.340 13.490 13.190 12.960 10.980 9.890 315.40 53.68 1.2220   12.880 13.160 13.260 13.050 12.570 8.930 8.470     0     0.4840 106.20 74.70   0.000 0.000 15.025 12.428 2.599 15.094 11.534 3.562
WS7MET_125 2018-09-30 12:45:00 125 30483.0 13.330 13.420 13.560 13.190 12.610 84.200 79.550 10.720 9.740 292.40 49.66 13.120 13.480 13.310 12.050 14.380 13.460 13.520 13.690 13.330 12.900 11.280 10.680 308.70 51.00 0.9150   13.120 13.300 13.390 13.050 12.370 10.190 9.260     0     0.3540 110.00 52.08   0.000 0.000 15.303 12.884 2.418 15.164 12.066 3.101
WS7MET_125 2018-09-30 12:40:00 125 30483.0 13.540 13.700 13.940 13.430 12.790 84.900 79.820 11.060 10.030 301.80 50.93 13.110 13.480 13.310 12.050 14.340 13.740 13.850 14.180 13.630 13.170 12.110 10.770 306.00 51.00 1.4570   13.360 13.520 13.660 13.290 12.640 9.390 8.960     0     0.3840 75.34 68.17   0.000 0.000 15.514 13.179 2.343 15.403 12.303 3.108
WS7MET_125 2018-09-30 12:35:00 125 30483.0 13.360 13.790 14.080 13.490 12.730 85.900 79.800 11.060 10.080 317.30 53.01 13.100 13.480 13.310 12.050 14.410 13.460 13.830 14.170 13.600 13.090 11.650 10.650 330.20 55.03 0.5880   13.160 13.750 14.010 13.290 12.510 10.490 9.350     0     0.1820 174.70 45.29   0.000 0.000 15.333 13.179 2.162 15.463 12.345 3.124
WS7MET_125 2018-09-30 12:30:00 125 30483.0 13.140 13.650 13.800 13.370 13.080 84.500 78.320 10.600 9.680 301.40 50.19 13.100 13.480 13.310 12.050 14.360 13.360 13.830 14.010 13.570 13.190 11.410 10.490 323.40 53.68 0.6730   12.950 13.420 13.590 13.120 12.960 9.840 9.130     0     0.2160 184.90 51.04   0.000 0.000 15.114 12.781 2.343 15.343 12.018 3.326
WS7MET_125 2018-09-30 12:25:00 125 30483.0 12.790 13.150 13.350 12.960 12.570 87.600 80.300 10.800 9.650 278.40 47.04 13.100 13.490 13.310 12.050 14.330 12.920 13.390 13.570 13.160 13.050 11.190 10.000 284.50 48.32 1.0850   12.610 12.980 13.150 12.810 12.180 10.370 9.350     0     0.3850 147.90 73.60   0.000 0.000 14.772 12.953 1.832 14.937 11.994 2.943
WS7MET_125 2018-09-30 12:20:00 125 30483.0 12.750 13.030 13.200 12.850 12.180 88.300 81.400 10.880 9.760 327.70 54.96 13.100 13.490 13.310 12.050 14.400 12.810 13.100 13.300 12.920 12.420 11.280 10.010 393.20 65.76 0.8750   12.640 12.990 13.150 12.710 12.050 10.440 9.420     0     0.3580 86.30 22.03   0.000 0.000 14.733 13.022 1.724 14.830 12.083 2.758
WS7MET_125 2018-09-30 12:15:00 125 30483.0 12.590 12.760 12.890 12.650 12.090 89.700 82.400 10.950 9.750 382.60 63.28 13.100 13.490 13.310 12.050 14.440 12.780 13.040 13.200 12.920 12.510 11.460 10.300 438.90 73.82 0.7970   12.440 12.590 12.660 12.440 11.850 10.170 9.580     0     0.1230 45.10 41.76   0.000 0.000 14.579 13.083 1.502 14.637 12.075 2.576
WS7MET_125 2018-09-30 12:10:00 125 30483.0 12.550 12.720 12.820 12.570 12.060 86.100 80.200 10.280 9.250 299.00 49.66 13.090 13.490 13.310 12.050 14.390 12.750 12.870 12.980 12.710 12.250 11.000 9.680 327.50 53.69 0.8620   12.340 12.620 12.680 12.470 11.950 8.840 8.380     0     0.5680 69.74 34.51   0.000 0.000 14.541 12.511 2.021 14.560 11.675 2.883
WS7MET_125 2018-09-30 12:05:00 125 30483.0 12.690 13.020 13.200 12.790 12.220 87.500 81.500 10.670 9.710 284.80 47.11 13.090 13.490 13.310 12.050 14.370 12.780 13.160 13.400 12.950 12.400 11.330 10.050 307.30 49.66 1.1960   12.610 12.870 12.980 12.540 11.990 9.460 9.110     0     0.4140 101.20 50.15   0.000 0.000 14.675 12.841 1.834 14.772 12.042 2.733
WS7MET_125 2018-09-30 12:00:00 125 30483.0 12.650 13.020 13.190 12.770 12.200 88.400 82.800 10.790 9.940 361.30 57.98 13.090 13.500 13.310 12.050 14.420 12.810 13.140 13.360 12.920 12.420 11.130 10.390 613.30 91.30 0.6860   12.540 12.850 13.020 12.580 11.940 10.260 9.680     0     0.2700 85.00 26.47   0.000 0.000 14.637 12.944 1.698 14.753 12.229 2.537
WS7MET_125 2018-09-30 11:55:00 125 30483.0 12.630 12.970 13.200 12.770 12.090 88.100 82.800 10.710 9.920 293.10 48.25 13.090 13.500 13.310 12.050 14.340 12.880 13.120 13.470 12.950 12.340 11.310 10.440 350.30 56.37 0.7320   12.470 12.850 13.010 12.510 11.880 9.370 9.060     0     0.3300 95.60 55.32   0.000 0.000 14.618 12.875 1.740 14.753 12.213 2.537
WS7MET_125 2018-09-30 11:50:00 125 30483.0 12.620 13.120 13.420 12.810 12.490 88.700 83.900 10.810 10.170 336.80 55.36 13.090 13.500 13.310 12.050 14.410 12.780 13.210 13.550 13.020 12.730 11.320 10.840 367.70 60.40 0.6990   12.440 12.960 13.220 12.610 12.240 10.220 9.660     0     0.2270 239.10 21.42   0.000 0.000 14.608 12.961 1.651 14.791 12.419 2.381
WS7MET_125 2018-09-30 11:45:00 125 30483.0 12.440 12.870 13.150 12.550 11.950 92.500 87.300 11.270 10.510 336.10 54.09 13.090 13.510 13.310 12.050 14.410 12.680 12.930 13.200 12.710 12.190 11.590 10.790 369.10 59.05 0.5230   12.300 12.800 13.070 12.410 11.830 10.560 9.970     0     0.1260 147.10 57.60   0.000 0.000 14.437 13.364 1.083 14.541 12.705 1.847
WS7MET_125 2018-09-30 11:40:00 125 30483.0 12.190 12.680 12.890 12.410 12.010 90.100 85.000 10.630 9.960 320.70 51.14 13.090 13.510 13.310 12.050 14.420 12.340 12.830 13.070 12.540 12.260 11.210 10.360 408.00 63.08 0.5030   11.960 12.400 12.570 12.170 11.890 10.020 9.380     0     0.1480 70.42 73.59   0.000 0.000 14.201 12.807 1.406 14.408 12.246 2.161
WS7MET_125 2018-09-30 11:35:00 125 30483.0 12.000 12.200 12.320 12.010 11.540 93.000 88.200 10.910 10.130 441.40 68.12 13.090 13.510 13.310 12.050 14.500 12.130 12.370 12.540 12.200 11.890 11.280 10.380 586.50 88.60 1.0260   11.890 12.070 12.180 11.790 11.340 10.530 9.910     0     0.6130 82.10 27.77   0.000 0.000 14.025 13.048 0.982 14.034 12.386 1.656
WS7MET_125 2018-09-30 11:30:00 125 30483.0 11.820 11.910 11.990 11.730 11.110 93.200 89.500 10.770 10.080 350.90 55.70 13.090 13.510 13.310 12.050 14.360 11.890 12.050 12.150 11.890 11.420 11.220 10.220 433.50 67.11 0.7120   11.720 11.840 11.900 11.620 11.000 10.410 9.920     0     0.1870 53.91 11.89   0.000 0.000 13.859 12.927 0.942 13.777 12.345 1.447
WS7MET_125 2018-09-30 11:25:00 125 30483.0 11.870 11.900 11.990 11.640 11.140 93.900 90.200 10.930 10.100 246.80 40.00 13.080 13.510 13.310 12.050 14.030 11.960 11.980 12.070 11.760 11.210 11.180 10.250 257.70 41.61 0.7710   11.790 11.840 11.920 11.520 11.060 10.670 9.880     0     0.2680 67.04 12.84   0.000 0.000 13.905 13.065 0.848 13.695 12.361 1.342
WS7MET_125 2018-09-30 11:20:00 125 30483.0 11.930 12.060 12.120 11.880 11.090 93.100 87.600 10.870 9.900 238.30 37.92 13.080 13.510 13.310 12.050 14.060 12.030 12.190 12.310 12.060 11.190 11.170 10.090 355.70 56.38 0.6400   11.830 11.960 12.020 11.720 10.980 10.610 9.760     0     0.2310 31.64 17.21   0.000 0.000 13.960 13.013 0.963 13.914 12.197 1.725
WS7MET_125 2018-09-30 11:15:00 125 30483.0 12.000 12.360 12.540 12.100 11.230 91.200 85.700 10.610 9.790 325.80 51.14 13.090 13.520 13.310 12.060 14.420 12.100 12.590 12.870 12.270 11.530 11.100 10.190 389.30 60.40 0.5680   11.930 12.200 12.330 11.960 11.090 10.050 9.350     0     0.2760 72.60 13.85   0.000 0.000 14.025 12.790 1.234 14.117 12.107 2.019
WS7MET_125 2018-09-30 11:10:00 125 30483.0 12.000 12.560 12.770 12.270 11.280 90.700 84.500 10.530 9.740 484.40 73.36 13.090 13.520 13.310 12.050 14.490 12.170 12.620 12.930 12.370 11.570 11.030 10.230 809.00 118.10 0.5360   11.890 12.490 12.580 12.170 11.060 9.890 9.170     0     0.2870 68.35 44.74   0.000 0.000 14.025 12.722 1.304 14.276 12.066 2.213
WS7MET_125 2018-09-30 11:05:00 125 30483.0 11.670 12.240 12.300 11.900 11.210 93.200 87.600 10.620 9.920 560.50 84.50 13.080 13.530 13.310 12.050 14.560 11.930 12.470 12.540 12.300 11.490 11.090 10.420 736.90 108.70 0.4700   11.480 12.100 12.080 11.620 11.000 9.890 9.270     0     0.1170 90.50 59.06   0.000 0.000 13.722 12.798 0.933 13.932 12.213 1.728
WS7MET_125 2018-09-30 11:00:00 125 30483.0 11.310 11.790 11.800 11.340 10.890 95.200 89.800 10.570 9.740 568.00 83.20 13.080 13.530 13.310 12.050 14.530 11.550 12.060 12.020 11.620 10.940 10.870 9.960 790.60 111.40 0.0650   11.080 11.520 11.560 11.010 10.840 9.960 9.390     0     0.0030 0.73 0.00   0.000 0.000 13.399 12.756 0.643 13.426 12.066 1.369
WS7MET_125 2018-09-30 10:55:00 125 30483.0 11.090 11.330 11.350 10.890 10.700 95.800 92.400 10.450 9.710 307.40 47.52 13.090 13.530 13.310 12.050 14.120 11.180 11.500 11.560 11.080 10.980 10.770 9.900 377.20 57.72 0.2350   10.970 11.250 11.210 10.770 10.510 9.890 9.500     0     0.0450 29.16 25.77   0.000 0.000 13.205 12.654 0.555 13.030 12.042 0.990
WS7MET_125 2018-09-30 10:50:00 125 30483.0 11.060 11.240 11.180 10.770 10.590 97.300 93.700 10.660 9.800 251.80 39.80 13.090 13.530 13.310 12.050 13.760 11.140 11.270 11.230 10.840 10.750 10.870 9.870 264.40 41.61 0.5360   10.900 11.210 11.110 10.700 10.470 10.360 9.700     0     0.1720 48.09 20.14   0.000 0.000 13.179 12.832 0.356 12.927 12.115 0.814
WS7MET_125 2018-09-30 10:45:00 125 30483.0 10.960 11.140 11.080 10.660 10.490 98.900 95.300 10.800 9.950 242.00 38.66 13.080 13.530 13.310 12.050 13.570 11.110 11.230 11.110 10.730 10.590 11.000 10.090 247.00 38.93 0.3990   10.800 11.020 11.050 10.600 10.430 10.550 9.810     0     0.1120 63.93 17.68   0.000 0.000 13.091 12.953 0.144 12.832 12.238 0.603
WS7MET_125 2018-09-30 10:40:00 125 30483.0 10.790 10.950 10.990 10.580 10.380 98.600 96.000 10.590 9.980 232.30 37.25 13.090 13.530 13.310 12.050 13.480 11.040 11.020 11.050 10.670 10.490 10.850 10.150 243.00 38.93 0.4510   10.670 10.910 10.960 10.430 10.270 10.450 9.850     0     0.0990 75.85 10.04   0.000 0.000 12.944 12.773 0.181 12.764 12.262 0.511
WS7MET_125 2018-09-30 10:35:00 125 30483.0 10.730 10.820 10.890 10.450 10.530 98.900 96.700 10.570 9.950 174.40 27.45 13.090 13.540 13.320 12.050 13.240 10.940 10.910 10.970 10.560 10.720 10.790 10.090 194.60 30.87 0.7840   10.630 10.770 10.850 10.330 10.390 10.440 9.800     0     0.2890 32.26 17.91   0.000 0.000 12.892 12.756 0.142 12.654 12.238 0.418
WS7MET_125 2018-09-30 10:30:00 125 30483.0 10.580 10.730 10.760 10.310 10.330 98.700 96.200 10.390 9.750 121.80 18.93 13.090 13.540 13.320 12.050 13.170 10.770 10.760 10.830 10.390 10.460 10.590 9.820 142.30 22.82 0.1700   10.460 10.670 10.670 10.260 10.250 10.260 9.690     0     0.0080 24.56 0.00   0.000 0.000 12.764 12.603 0.166 12.536 12.075 0.476
WS7MET_125 2018-09-30 10:25:00 125 30483.0 10.460 10.640 10.680 10.250 10.340 97.900 96.300 10.150 9.700 129.10 19.93 13.090 13.540 13.320 12.050 13.170 10.600 10.700 10.730 10.330 10.510 10.340 9.790 145.00 22.82 0.3400   10.390 10.540 10.630 10.160 10.190 9.960 9.590     0     0.0630 39.72 17.86   0.000 0.000 12.662 12.403 0.266 12.486 12.034 0.462
WS7MET_125 2018-09-30 10:20:00 125 30483.0 10.540 10.600 10.680 10.220 10.220 98.200 96.600 10.280 9.710 73.90 10.67 13.090 13.540 13.320 12.050 13.090 10.910 10.640 10.720 10.390 10.350 10.720 9.880 103.40 16.11 0.4050   10.360 10.540 10.630 10.160 10.080 9.940 9.630     0     0.0660 50.77 7.76   0.000 0.000 12.730 12.511 0.229 12.461 12.042 0.424
WS7MET_125 2018-09-30 10:15:00 125 30483.0 10.560 10.640 10.740 10.250 10.260 99.000 96.600 10.420 9.750 68.26 9.66 13.100 13.550 13.320 12.050 13.120 10.670 10.670 10.770 10.330 10.380 10.540 9.850 72.49 10.74 0.4900   10.500 10.610 10.720 10.190 10.130 10.340 9.670     0     0.0590 63.20 8.84   0.000 0.000 12.747 12.629 0.127 12.486 12.075 0.425
WS7MET_125 2018-09-30 10:10:00 125 30483.0 10.520 10.680 10.770 10.300 10.270 99.000 96.500 10.390 9.780 82.20 12.22 13.100 13.550 13.320 12.050 13.170 10.630 10.720 10.810 10.360 10.510 10.510 9.890 111.40 17.45 0.0000   10.390 10.650 10.730 10.190 10.120 10.270 9.660     0     0.0000 0.00 0.00   0.000 0.000 12.713 12.603 0.127 12.528 12.099 0.438
WS7MET_125 2018-09-30 10:05:00 125 30483.0 10.450 10.600 10.700 10.260 10.300 99.000 96.400 10.310 9.720 119.50 18.66 13.100 13.560 13.320 12.050 13.170 10.600 10.690 10.780 10.390 10.580 10.460 9.870 127.50 20.14 0.3070   10.330 10.570 10.680 10.190 10.120 10.170 9.630     0     0.0500 49.25 22.89   0.000 0.000 12.654 12.536 0.127 12.494 12.050 0.450
WS7MET_125 2018-09-30 10:00:00 125 30483.0 10.340 10.540 10.620 10.210 10.160 98.800 96.200 10.170 9.640 122.80 19.13 13.100 13.560 13.320 12.050 13.180 10.600 10.570 10.670 10.290 10.290 10.460 9.730 139.60 22.82 0.6530   10.260 10.490 10.570 10.160 10.080 10.020 9.570     0     0.1350 32.28 4.66   0.000 0.000 12.561 12.419 0.151 12.453 11.986 0.473
WS7MET_125 2018-09-30 09:55:00 125 30483.0 10.220 10.470 10.540 10.120 10.050 98.000 96.000 9.930 9.520 127.10 19.80 13.110 13.560 13.320 12.050 13.190 10.330 10.490 10.580 10.290 10.160 10.080 9.690 136.90 21.48 0.2550   10.090 10.450 10.520 10.020 9.960 9.810 9.420     0     0.0430 117.90 0.30   0.000 0.000 12.461 12.221 0.249 12.378 11.889 0.495
WS7MET_125 2018-09-30 09:50:00 125 30483.0 10.210 10.430 10.510 10.060 10.060 97.800 95.800 9.900 9.420 83.20 12.22 13.110 13.560 13.320 12.050 13.140 10.400 10.450 10.550 10.230 10.240 10.080 9.590 102.00 14.77 0.0000   10.090 10.410 10.490 9.990 9.950 9.760 9.330     0     0.0000 0.00 0.00   0.000 0.000 12.453 12.197 0.274 12.328 11.810 0.518
WS7MET_125 2018-09-30 09:45:00 125 30483.0 10.180 10.370 10.410 9.970 10.030 98.100 95.700 9.900 9.330 86.20 12.89 13.110 13.570 13.320 12.060 13.120 10.260 10.430 10.490 10.050 10.170 10.010 9.440 96.70 14.77 0.0000   10.090 10.330 10.340 9.880 9.960 9.750 9.220     0     0.0000 0.00 0.00   0.000 0.000 12.428 12.197 0.236 12.254 11.738 0.527
WS7MET_125 2018-09-30 09:40:00 125 30483.0 10.110 10.240 10.260 9.870 9.820 96.800 94.300 9.640 9.010 102.60 15.71 13.110 13.570 13.320 12.060 13.130 10.190 10.330 10.330 10.020 10.160 9.760 9.210 115.50 17.45 0.3140   10.050 10.210 10.230 9.710 9.680 9.400 8.790     0     0.0920 351.90 4.08   0.000 0.000 12.370 11.986 0.396 12.172 11.488 0.694
WS7MET_125 2018-09-30 09:35:00 125 30483.0 10.310 10.390 10.480 10.020 9.870 97.400 96.000 9.930 9.420 106.10 16.18 13.110 13.580 13.320 12.060 13.180 10.470 10.490 10.590 10.160 10.110 10.270 9.690 116.80 18.79 0.3400   10.090 10.250 10.350 9.850 9.680 9.530 8.970     0     0.0810 76.82 10.03   0.000 0.000 12.536 12.221 0.326 12.295 11.810 0.492
WS7MET_125 2018-09-30 09:30:00 125 30483.0 10.450 10.510 10.640 10.120 10.070 98.900 96.600 10.300 9.610 105.20 15.91 13.110 13.580 13.320 12.060 13.170 10.530 10.530 10.710 10.230 10.230 10.430 9.710 107.40 16.11 0.1760   10.360 10.490 10.590 10.060 10.030 10.170 9.540     0     0.0140 136.50 0.01   0.000 0.000 12.654 12.528 0.139 12.378 11.962 0.421
WS7MET_125 2018-09-30 09:25:00 125 30483.0 10.450 10.490 10.650 10.100 10.070 98.600 96.400 10.250 9.570 119.80 18.33 13.120 13.580 13.320 12.060 13.200 10.570 10.520 10.710 10.230 10.240 10.400 9.710 132.90 20.14 0.0000   10.330 10.450 10.620 9.990 9.960 10.090 9.450     0     0.0000 0.00 0.00   0.000 0.000 12.654 12.486 0.177 12.361 11.929 0.445
WS7MET_125 2018-09-30 09:20:00 125 30483.0 10.450 10.460 10.600 10.100 10.050 98.600 96.700 10.240 9.610 124.70 19.13 13.130 13.580 13.320 12.060 13.240 10.540 10.510 10.650 10.260 10.150 10.320 9.730 134.30 21.48 0.3990   10.400 10.440 10.570 9.990 9.970 10.170 9.510     0     0.0680 84.10 24.76   0.000 0.000 12.654 12.478 0.177 12.361 11.962 0.408
WS7MET_125 2018-09-30 09:15:00 125 30483.0 10.510 10.440 10.600 10.060 10.100 98.900 96.800 10.350 9.590 110.20 17.25 13.130 13.580 13.320 12.060 13.240 10.600 10.490 10.650 10.190 10.330 10.450 9.770 118.10 18.80 0.3720   10.470 10.410 10.570 9.990 9.980 10.280 9.470     0     0.0520 39.06 4.85   0.000 0.000 12.705 12.570 0.140 12.328 11.945 0.395
WS7MET_125 2018-09-30 09:10:00 125 30483.0 10.530 10.490 10.640 10.090 10.000 98.500 96.100 10.310 9.510 89.70 13.76 13.130 13.580 13.320 12.060 13.270 10.640 10.560 10.760 10.200 10.080 10.440 9.610 98.00 14.77 0.2740   10.400 10.450 10.570 9.990 9.970 10.160 9.440     0     0.0660 108.90 6.33   0.000 0.000 12.722 12.536 0.191 12.353 11.881 0.482
WS7MET_125 2018-09-30 09:05:00 125 30483.0 10.660 10.640 10.850 10.210 10.080 99.000 95.600 10.520 9.540 98.50 14.90 13.130 13.580 13.320 12.050 13.330 10.910 10.670 10.870 10.300 10.210 10.790 9.650 127.50 20.14 0.1570   10.570 10.570 10.780 10.130 9.980 10.420 9.430     0     0.0170 123.80 8.66   0.000 0.000 12.832 12.713 0.128 12.453 11.905 0.548
WS7MET_125 2018-09-30 09:00:00 125 30483.0 10.660 10.760 10.930 10.300 10.020 99.500 95.000 10.580 9.550 153.10 23.63 13.140 13.580 13.320 12.060 13.420 10.950 10.850 11.020 10.440 10.190 10.960 9.700 162.40 25.51 0.3990   10.500 10.660 10.870 10.160 9.930 10.350 9.360     0     0.1620 118.30 9.17   0.000 0.000 12.832 12.764 0.064 12.528 11.913 0.626
WS7MET_125 2018-09-30 08:55:00 125 30483.0 10.620 10.830 10.960 10.440 10.210 99.900 95.600 10.610 9.790 197.40 33.90 13.140 13.590 13.320 12.050 13.640 10.780 10.890 11.040 10.610 10.480 10.790 9.970 271.20 60.41 0.3140   10.400 10.690 10.810 10.330 10.060 10.320 9.630     0     0.0410 144.60 1.17   0.000 0.000 12.798 12.790 0.013 12.645 12.107 0.556
WS7MET_125 2018-09-30 08:50:00 125 30483.0 10.370 10.690 10.780 10.380 10.120 99.700 95.900 10.320 9.760 204.60 37.26 13.150 13.590 13.320 12.050 13.630 10.470 10.730 10.880 10.500 10.220 10.470 9.880 249.70 55.04 0.6010   10.230 10.670 10.730 10.260 10.000 10.140 9.650     0     0.2040 91.80 9.21   0.000 0.000 12.586 12.545 0.038 12.595 12.083 0.516
WS7MET_125 2018-09-30 08:45:00 125 30483.0 10.270 10.680 10.860 10.400 10.210 100.000 96.300 10.280 9.840 183.10 31.35 13.150 13.600 13.320 12.050 13.460 10.640 10.730 10.900 10.510 10.420 10.650 9.980 224.20 45.65 0.3070   10.130 10.600 10.800 10.300 10.130 10.140 9.710     0     0.0930 126.90 30.86   0.000 0.000 12.503 12.511 0.000 12.612 12.148 0.467
WS7MET_125 2018-09-30 08:40:00 125 30483.0 10.090 10.540 10.750 10.330 10.080 100.000 96.800 10.100 9.860 158.50 27.19 13.150 13.600 13.320 12.050 13.290 10.230 10.590 10.790 10.440 10.160 10.240 10.000 174.50 29.54 0.2220   9.990 10.440 10.660 10.160 10.000 10.000 9.720     0     0.0240 92.20 6.85   0.000 0.000 12.353 12.361 0.000 12.553 12.164 0.402
WS7MET_125 2018-09-30 08:35:00 125 30483.0 9.870 10.290 10.550 10.090 9.920 100.000 97.700 9.880 9.750 196.00 36.18 13.150 13.600 13.320 12.050 13.130 10.030 10.430 10.630 10.230 10.130 10.030 9.870 226.90 45.65 0.3720   9.580 10.190 10.490 9.890 9.800 9.590 9.600     0     0.1890 81.50 23.34   0.000 0.000 12.172 12.180 0.000 12.353 12.075 0.284
WS7MET_125 2018-09-30 08:30:00 125 30483.0 9.700 10.080 10.340 9.780 9.700 100.000 98.400 9.710 9.560 188.60 33.63 13.160 13.600 13.320 12.050 12.920 9.790 10.190 10.470 9.990 9.830 9.800 9.750 213.50 38.93 0.5750   9.580 9.960 10.170 9.550 9.610 9.590 9.340     0     0.1270 115.10 22.46   0.000 0.000 12.034 12.042 0.000 12.099 11.921 0.194
WS7MET_125 2018-09-30 08:25:00 125 30483.0 9.670 9.930 10.070 9.570 9.570 100.000 98.700 9.680 9.390 156.70 26.78 13.170 13.600 13.320 12.050 12.770 9.750 9.950 10.150 9.690 9.720 9.760 9.500 169.20 30.88 0.5030   9.580 9.910 10.030 9.450 9.520 9.590 9.250     0     0.0940 147.20 30.76   0.000 0.000 12.010 12.018 0.000 11.929 11.786 0.155
WS7MET_125 2018-09-30 08:20:00 125 30483.0 9.560 9.840 9.930 9.430 9.580 100.000 98.700 9.570 9.240 110.60 16.51 13.180 13.610 13.320 12.050 12.620 9.720 9.890 10.010 9.550 9.720 9.730 9.370 150.40 25.51 0.0590   9.450 9.770 9.870 9.340 9.480 9.450 9.170     0     0.0030 235.70 0.00   0.000 0.000 11.921 11.929 -0.000 11.818 11.667 0.154
WS7MET_125 2018-09-30 08:15:00 125 30483.0 9.510 9.730 9.810 9.350 9.470 100.000 98.900 9.520 9.190 112.10 16.24 13.180 13.610 13.320 12.050 12.570 9.580 9.770 9.860 9.480 9.640 9.590 9.310 138.30 20.14 0.3200   9.450 9.650 9.750 9.240 9.320 9.450 9.080     0     0.1040 86.40 21.40   0.000 0.000 11.881 11.889 -0.000 11.754 11.628 0.129
WS7MET_125 2018-09-30 08:10:00 125 30483.0 9.420 9.600 9.710 9.240 9.410 100.000 98.900 9.430 9.080 78.74 10.94 13.180 13.610 13.320 12.050 12.520 9.750 9.650 9.750 9.340 9.450 9.760 9.190 100.70 14.77 0.2810   9.340 9.570 9.690 9.170 9.340 9.350 9.010     0     0.0570 231.50 54.39   0.000 0.000 11.810 11.818 0.000 11.667 11.542 0.128
WS7MET_125 2018-09-30 08:05:00 125 30483.0 9.490 9.590 9.710 9.240 9.310 100.000 98.900 9.500 9.090 55.38 7.11 13.180 13.620 13.320 12.050 12.520 9.580 9.630 9.750 9.310 9.480 9.590 9.160 60.41 8.06 0.3140   9.310 9.570 9.690 9.140 9.200 9.320 8.990     0     0.0440 215.30 4.37   0.000 0.000 11.865 11.873 0.000 11.667 11.550 0.128
WS7MET_125 2018-09-30 08:00:00 125 30483.0 9.470 9.580 9.690 9.240 9.400 100.000 99.000 9.480 9.090 69.21 9.46 13.190 13.620 13.320 12.050 12.460 9.580 9.610 9.750 9.310 9.440 9.590 9.170 76.52 10.74 0.1830   9.380 9.550 9.660 9.170 9.330 9.390 9.020     0     0.0160 190.80 8.80   0.000 0.000 11.849 11.857 0.000 11.667 11.550 0.117
WS7MET_125 2018-09-30 07:55:00 125 30483.0 9.330 9.510 9.600 9.190 9.330 100.000 99.000 9.330 9.050 83.50 12.22 13.200 13.620 13.320 12.050 12.470 9.450 9.530 9.650 9.310 9.370 9.450 9.170 89.90 13.43 0.0000   9.170 9.490 9.570 9.070 9.320 9.180 8.930     0     0.0000 0.00 0.00   0.000 0.000 11.738 11.738 -0.000 11.628 11.519 0.116
WS7MET_125 2018-09-30 07:50:00 125 30483.0 9.130 9.380 9.450 9.060 9.370 100.000 99.000 9.130 8.920 79.55 11.61 13.200 13.630 13.320 12.050 12.450 9.210 9.490 9.570 9.210 9.520 9.220 9.070 89.90 13.43 0.2810   9.040 9.290 9.350 8.930 9.240 9.040 8.790     0     0.0270 268.10 0.19   0.000 0.000 11.581 11.581 -0.000 11.526 11.418 0.115
WS7MET_125 2018-09-30 07:45:00 125 30483.0 9.030 9.220 9.280 8.900 9.120 100.000 99.000 9.040 8.750 54.78 7.18 13.200 13.630 13.320 12.050 12.420 9.110 9.290 9.350 9.070 9.250 9.110 8.930 63.10 8.06 0.0000   8.930 9.200 9.250 8.760 9.030 8.940 8.620     0     0.0000 0.00 0.00   0.000 0.000 11.503 11.511 0.000 11.402 11.287 0.114
WS7MET_125 2018-09-30 07:40:00 125 30483.0 8.950 9.180 9.240 8.850 9.070 100.000 99.000 8.960 8.710 44.04 5.77 13.200 13.630 13.320 12.050 12.420 9.040 9.210 9.270 8.900 9.190 9.050 8.760 49.67 6.71 0.0000   8.800 9.130 9.230 8.760 9.020 8.810 8.620     0     0.0000 0.00 0.00   0.000 0.000 11.441 11.449 0.000 11.364 11.257 0.114
WS7MET_125 2018-09-30 07:35:00 125 30483.0 8.860 9.080 9.170 8.790 9.020 100.000 99.000 8.870 8.650 42.09 5.30 13.210 13.630 13.320 12.050 12.380 8.970 9.130 9.230 8.870 9.150 8.980 8.740 44.30 5.37 0.0000   8.760 9.050 9.130 8.700 8.930 8.770 8.540     0     0.0000 0.00 0.00   0.000 0.000 11.372 11.379 0.000 11.318 11.211 0.113
WS7MET_125 2018-09-30 07:30:00 125 30483.0 8.750 9.010 9.100 8.750 8.940 100.000 99.000 8.760 8.600 43.03 5.77 13.220 13.630 13.320 12.050 12.370 8.940 9.030 9.130 8.830 9.000 8.940 8.690 52.36 6.71 0.0000   8.630 8.950 9.050 8.630 8.910 8.630 8.490     0     0.0000 0.00 0.00   0.000 0.000 11.287 11.295 0.000 11.287 11.173 0.113
WS7MET_125 2018-09-30 07:25:00 125 30483.0 8.630 8.880 8.960 8.650 8.820 100.000 99.000 8.630 8.510 56.32 7.72 13.220 13.630 13.320 12.050 12.370 8.700 8.950 9.030 8.800 8.930 8.700 8.660 59.07 8.06 0.0000   8.560 8.830 8.910 8.490 8.780 8.570 8.340     0     0.0000 0.00 0.00   0.000 0.000 11.196 11.196 0.000 11.211 11.105 0.112
WS7MET_125 2018-09-30 07:20:00 125 30483.0 8.560 8.780 8.870 8.560 8.750 100.000 98.900 8.570 8.410 46.45 5.44 13.220 13.640 13.320 12.060 12.370 8.630 8.820 8.910 8.630 8.780 8.640 8.480 49.67 6.71 0.0000   8.460 8.750 8.830 8.490 8.730 8.460 8.330     0     0.0000 0.00 0.00   0.000 0.000 11.143 11.151 0.000 11.143 11.030 0.123
WS7MET_125 2018-09-30 07:15:00 125 30483.0 8.510 8.700 8.770 8.460 8.670 100.000 99.000 8.510 8.310 47.06 5.44 13.220 13.640 13.320 12.050 12.350 8.630 8.730 8.830 8.520 8.720 8.630 8.380 48.33 6.71 0.0000   8.390 8.660 8.740 8.320 8.650 8.400 8.170     0     0.0000 0.00 0.00   0.000 0.000 11.105 11.105 0.000 11.068 10.956 0.111
WS7MET_125 2018-09-30 07:10:00 125 30483.0 8.480 8.650 8.710 8.420 8.620 100.000 98.900 8.480 8.270 38.20 4.43 13.230 13.640 13.320 12.050 12.390 8.530 8.670 8.740 8.530 8.680 8.530 8.370 44.30 5.37 0.0000   8.390 8.630 8.690 8.350 8.590 8.400 8.200     0     0.0000 0.00 0.00   0.000 0.000 11.083 11.083 0.000 11.038 10.926 0.121
WS7MET_125 2018-09-30 07:05:00 125 30483.0 8.440 8.630 8.690 8.410 8.590 100.000 99.000 8.450 8.260 38.46 4.50 13.240 13.640 13.320 12.050 12.410 8.530 8.640 8.690 8.490 8.650 8.530 8.340 41.62 5.37 0.0000   8.360 8.610 8.680 8.360 8.560 8.360 8.200     0     0.0000 0.00 0.00   0.000 0.000 11.053 11.060 0.000 11.030 10.918 0.110
WS7MET_125 2018-09-30 07:00:00 125 30483.0 8.450 8.620 8.680 8.390 8.590 100.000 99.000 8.460 8.250 25.98 3.49 13.240 13.650 13.320 12.050 12.330 8.530 8.670 8.690 8.530 8.630 8.530 8.380 33.56 4.03 0.0000   8.350 8.590 8.660 8.290 8.540 8.360 8.130     0     0.0000 0.00 0.00   0.000 0.000 11.060 11.068 0.000 11.015 10.911 0.110
WS7MET_125 2018-09-30 06:55:00 125 30483.0 8.450 8.660 8.720 8.450 8.680 100.000 99.000 8.460 8.300 14.70 1.48 13.240 13.650 13.320 12.050 12.300 8.560 8.670 8.740 8.560 8.730 8.570 8.410 17.45 2.68 0.0000   8.320 8.610 8.700 8.320 8.610 8.330 8.170     0     0.0000 0.00 0.00   0.000 0.000 11.060 11.068 0.000 11.060 10.948 0.111
WS7MET_125 2018-09-30 06:50:00 125 30483.0 8.460 8.600 8.690 8.410 8.640 100.000 99.000 8.460 8.260 13.83 1.34 13.240 13.650 13.320 12.050 12.290 8.730 8.610 8.710 8.530 8.650 8.740 8.370 14.77 1.34 0.0000   8.360 8.590 8.670 8.320 8.610 8.360 8.160     0     0.0000 0.00 0.00   0.000 0.000 11.068 11.068 0.000 11.030 10.918 0.110
WS7MET_125 2018-09-30 06:45:00 125 30483.0 8.460 8.580 8.650 8.360 8.600 100.000 98.900 8.460 8.210 11.34 1.34 13.260 13.650 13.320 12.050 12.280 8.590 8.600 8.670 8.460 8.650 8.600 8.300 13.43 1.34 0.0000   8.320 8.570 8.630 8.290 8.540 8.330 8.140     0     0.0000 0.00 0.00   0.000 0.000 11.068 11.068 0.000 10.993 10.881 0.121
WS7MET_125 2018-09-30 06:40:00 125 30483.0 8.430 8.600 8.660 8.400 8.630 100.000 98.900 8.440 8.250 7.25 0.74 13.260 13.650 13.320 12.050 12.290 8.520 8.620 8.690 8.520 8.710 8.530 8.370 9.40 1.34 0.0000   8.390 8.580 8.650 8.320 8.550 8.400 8.170     0     0.0000 0.00 0.00   0.000 0.000 11.045 11.053 -0.000 11.023 10.911 0.121
WS7MET_125 2018-09-30 06:35:00 125 30483.0 8.400 8.550 8.630 8.330 8.600 100.000 98.900 8.410 8.180 4.30 0.00 13.260 13.660 13.320 12.050 12.260 8.530 8.590 8.670 8.460 8.670 8.530 8.300 5.37 0.00 0.0000   8.320 8.530 8.610 8.250 8.530 8.330 8.090     0     0.0000 0.00 0.00   0.000 0.000 11.023 11.030 0.000 10.970 10.859 0.121
WS7MET_125 2018-09-30 06:30:00 125 30483.0 8.320 8.520 8.600 8.330 8.580 100.000 98.900 8.330 8.170 2.82 0.00 13.260 13.660 13.320 12.050 12.290 8.460 8.550 8.630 8.460 8.620 8.460 8.300 4.03 0.00 0.0000   8.120 8.510 8.590 8.220 8.530 8.120 8.060     0     0.0000 0.00 0.00   0.000 0.000 10.963 10.970 0.000 10.970 10.852 0.121
WS7MET_125 2018-09-30 06:25:00 125 30483.0 8.350 8.490 8.580 8.300 8.550 100.000 98.800 8.350 8.140 2.68 0.00 13.270 13.660 13.320 12.060 12.270 8.420 8.510 8.590 8.390 8.580 8.430 8.220 2.68 0.00 0.0000   8.220 8.470 8.550 8.220 8.480 8.220 8.050     0     0.0000 0.00 0.00   0.000 0.000 10.985 10.985 -0.000 10.948 10.830 0.131
WS7MET_125 2018-09-30 06:20:00 125 30483.0 8.320 8.490 8.570 8.310 8.530 100.000 98.800 8.330 8.150 1.48 0.00 13.280 13.670 13.320 12.050 12.280 8.520 8.490 8.570 8.390 8.570 8.530 8.220 2.68 0.00 0.0000   8.180 8.470 8.550 8.250 8.480 8.190 8.070     0     0.0000 0.00 0.00   0.000 0.000 10.963 10.970 0.000 10.956 10.837 0.131
WS7MET_125 2018-09-30 06:15:00 125 30483.0 8.300 8.450 8.540 8.320 8.510 100.000 98.800 8.310 8.140 0.81 0.00 13.280 13.670 13.320 12.050 12.290 8.390 8.470 8.570 8.420 8.570 8.400 8.260 1.34 0.00 0.0000   8.180 8.430 8.530 8.220 8.460 8.190 8.050     0     0.0000 0.00 0.00   0.000 0.000 10.948 10.956 0.000 10.963 10.830 0.132
WS7MET_125 2018-09-30 06:10:00 125 30483.0 8.350 8.470 8.560 8.310 8.490 100.000 98.800 8.360 8.130 0.81 0.00 13.280 13.670 13.320 12.050 12.300 8.460 8.490 8.570 8.420 8.530 8.460 8.240 1.34 0.00 0.0000   8.220 8.450 8.540 8.150 8.450 8.220 7.962     0     0.0000 0.00 0.00   0.000 0.000 10.985 10.993 -0.000 10.956 10.822 0.131
WS7MET_125 2018-09-30 06:05:00 125 30483.0 8.390 8.520 8.590 8.350 8.500 100.000 98.800 8.400 8.170 0.00 0.00 13.280 13.670 13.320 12.050 12.280 8.590 8.550 8.610 8.390 8.560 8.600 8.220 0.00 0.00 0.0000   8.290 8.490 8.570 8.290 8.440 8.290 8.110     0     0.0000 0.00 0.00   0.000 0.000 11.015 11.023 -0.000 10.985 10.852 0.132
WS7MET_125 2018-09-30 06:00:00 125 30483.0 8.420 8.540 8.620 8.380 8.570 100.000 98.700 8.420 8.200 0.00 0.00 13.290 13.670 13.320 12.050 12.270 8.630 8.550 8.640 8.420 8.600 8.640 8.250 0.00 0.00 0.0000   8.220 8.530 8.610 8.290 8.550 8.220 8.110     0     0.0000 0.00 0.00   0.000 0.000 11.038 11.038 0.000 11.008 10.874 0.143
WS7MET_125 2018-09-30 05:55:00 125 30483.0 8.440 8.540 8.640 8.390 8.570 100.000 98.700 8.440 8.210 0.00 0.00 13.300 13.680 13.320 12.050 12.290 8.660 8.550 8.650 8.530 8.600 8.670 8.330 0.00 0.00 0.0000   8.350 8.530 8.630 8.320 8.540 8.360 8.130     0     0.0000 0.00 0.00   0.000 0.000 11.053 11.053 0.000 11.015 10.881 0.143
WS7MET_125 2018-09-30 05:50:00 125 30483.0 8.440 8.580 8.660 8.440 8.600 100.000 98.700 8.450 8.250 0.00 0.00 13.300 13.680 13.320 12.060 12.280 8.530 8.590 8.670 8.490 8.640 8.530 8.320 0.00 0.00 0.0000   8.350 8.550 8.650 8.350 8.550 8.360 8.170     0     0.0000 0.00 0.00   0.000 0.000 11.053 11.060 0.000 11.053 10.911 0.144
WS7MET_125 2018-09-30 05:45:00 125 30483.0 8.460 8.590 8.680 8.450 8.580 100.000 98.700 8.470 8.260 0.00 0.00 13.300 13.680 13.320 12.050 12.280 8.590 8.610 8.690 8.530 8.610 8.600 8.330 0.00 0.00 0.0000   8.390 8.580 8.670 8.390 8.570 8.400 8.200     0     0.0000 0.00 0.00   0.000 0.000 11.068 11.075 0.000 11.060 10.918 0.144
WS7MET_125 2018-09-30 05:40:00 125 30483.0 8.490 8.640 8.720 8.460 8.650 100.000 98.700 8.500 8.280 0.00 0.00 13.310 13.680 13.320 12.050 12.280 8.700 8.650 8.730 8.530 8.700 8.700 8.340 0.00 0.00 0.0000   8.390 8.620 8.710 8.390 8.590 8.400 8.210     0     0.0000 0.00 0.00   0.000 0.000 11.090 11.098 0.000 11.068 10.933 0.144
WS7MET_125 2018-09-30 05:35:00 125 30483.0 8.510 8.650 8.720 8.470 8.650 100.000 98.700 8.520 8.290 0.00 0.00 13.320 13.690 13.320 12.050 12.310 8.590 8.670 8.740 8.590 8.720 8.600 8.410 0.00 0.00 0.0000   8.420 8.630 8.710 8.390 8.600 8.430 8.190     0     0.0000 0.00 0.00   0.000 0.000 11.105 11.113 0.000 11.075 10.941 0.144
WS7MET_125 2018-09-30 05:30:00 125 30483.0 8.510 8.680 8.760 8.530 8.710 100.000 98.700 8.520 8.340 0.00 0.00 13.320 13.690 13.320 12.050 12.300 8.560 8.690 8.770 8.660 8.790 8.570 8.480 0.00 0.00 0.0000   8.420 8.670 8.750 8.420 8.660 8.430 8.230     0     0.0000 0.00 0.00   0.000 0.000 11.105 11.113 0.000 11.120 10.978 0.145
WS7MET_125 2018-09-30 05:25:00 125 30483.0 8.460 8.670 8.770 8.530 8.720 100.000 98.700 8.470 8.350 0.00 0.00 13.320 13.690 13.320 12.050 12.320 8.530 8.670 8.790 8.630 8.750 8.530 8.430 0.00 0.00 0.0000   8.360 8.650 8.750 8.490 8.670 8.360 8.300     0     0.0000 0.00 0.00   0.000 0.000 11.068 11.075 0.000 11.120 10.985 0.145
WS7MET_125 2018-09-30 05:20:00 125 30483.0 8.510 8.680 8.770 8.520 8.720 100.000 98.700 8.520 8.340 0.00 0.00 13.320 13.690 13.320 12.060 12.290 8.630 8.690 8.790 8.590 8.760 8.640 8.410 0.00 0.00 0.0000   8.460 8.660 8.770 8.350 8.670 8.460 8.150     0     0.0000 0.00 0.00   0.000 0.000 11.105 11.113 0.000 11.113 10.978 0.144
WS7MET_125 2018-09-30 05:15:00 125 30483.0 8.510 8.690 8.770 8.510 8.750 100.000 98.600 8.520 8.310 0.00 0.00 13.330 13.690 13.320 12.050 12.310 8.590 8.700 8.790 8.560 8.790 8.600 8.370 0.00 0.00 0.0000   8.420 8.690 8.770 8.460 8.720 8.430 8.260     0     0.0000 0.00 0.00   0.000 0.000 11.105 11.113 0.000 11.105 10.956 0.155
WS7MET_125 2018-09-30 05:10:00 125 30483.0 8.500 8.700 8.780 8.530 8.750 100.000 98.700 8.510 8.330 0.00 0.00 13.340 13.700 13.320 12.050 12.300 8.560 8.710 8.790 8.700 8.800 8.570 8.510 0.00 0.00 0.0000   8.290 8.690 8.770 8.460 8.710 8.290 8.260     0     0.0000 0.00 0.00   0.000 0.000 11.098 11.105 -0.000 11.120 10.970 0.145
WS7MET_125 2018-09-30 05:05:00 125 30483.0 8.540 8.690 8.770 8.540 8.780 100.000 98.700 8.550 8.340 0.00 0.00 13.340 13.700 13.320 12.060 12.280 8.660 8.710 8.790 8.590 8.810 8.670 8.410 0.00 0.00 0.0000   8.460 8.670 8.750 8.460 8.750 8.460 8.280     0     0.0000 0.00 0.00   0.000 0.000 11.128 11.135 0.000 11.128 10.978 0.145
WS7MET_125 2018-09-30 05:00:00 125 30483.0 8.500 8.670 8.750 8.490 8.750 100.000 98.600 8.500 8.290 0.00 0.00 13.340 13.710 13.320 12.050 12.300 8.560 8.670 8.750 8.560 8.760 8.570 8.370 0.00 0.00 0.0000   8.390 8.650 8.740 8.420 8.730 8.400 8.220     0     0.0000 0.00 0.00   0.000 0.000 11.098 11.098 -0.000 11.090 10.941 0.155
WS7MET_125 2018-09-30 04:55:00 125 30483.0 8.510 8.650 8.730 8.470 8.710 100.000 98.600 8.520 8.270 0.00 0.00 13.350 13.710 13.320 12.050 12.310 8.560 8.650 8.740 8.560 8.760 8.570 8.350 0.00 0.00 0.3330   8.420 8.630 8.710 8.360 8.680 8.430 8.160     0     0.1050 335.40 3.95   0.000 0.000 11.105 11.113 0.000 11.075 10.926 0.155
WS7MET_125 2018-09-30 04:50:00 125 30483.0 8.470 8.640 8.720 8.490 8.650 100.000 98.600 8.480 8.280 0.00 0.00 13.360 13.710 13.320 12.050 12.300 8.560 8.670 8.750 8.560 8.720 8.570 8.360 0.00 0.00 0.0000   8.360 8.630 8.710 8.420 8.620 8.360 8.220     0     0.0000 0.00 0.00   0.000 0.000 11.075 11.083 0.000 11.090 10.933 0.155
WS7MET_125 2018-09-30 04:45:00 125 30483.0 8.510 8.680 8.760 8.490 8.750 100.000 98.600 8.510 8.290 0.00 0.00 13.360 13.710 13.320 12.050 12.320 8.590 8.690 8.770 8.630 8.800 8.600 8.420 0.00 0.00 0.0000   8.420 8.670 8.750 8.350 8.720 8.430 8.160     0     0.0000 0.00 0.00   0.000 0.000 11.105 11.105 0.000 11.090 10.941 0.155
WS7MET_125 2018-09-30 04:40:00 125 30483.0 8.460 8.650 8.730 8.480 8.730 100.000 98.600 8.460 8.280 0.00 0.00 13.360 13.710 13.320 12.050 12.300 8.530 8.670 8.750 8.560 8.770 8.530 8.380 0.00 0.00 0.0000   8.350 8.630 8.710 8.420 8.670 8.360 8.210     0     0.0000 0.00 0.00   0.000 0.000 11.068 11.068 0.000 11.083 10.933 0.155
WS7MET_125 2018-09-30 04:35:00 125 30483.0 8.480 8.650 8.730 8.490 8.700 100.000 98.600 8.490 8.300 0.00 0.00 13.360 13.710 13.320 12.050 12.300 8.690 8.660 8.730 8.590 8.750 8.700 8.400 0.00 0.00 0.0000   8.350 8.630 8.710 8.420 8.660 8.360 8.220     0     0.0000 0.00 0.00   0.000 0.000 11.083 11.090 0.000 11.090 10.948 0.155
WS7MET_125 2018-09-30 04:30:00 125 30483.0 8.490 8.640 8.710 8.490 8.720 100.000 98.600 8.500 8.290 0.00 0.00 13.360 13.710 13.320 12.060 12.300 8.660 8.650 8.730 8.590 8.750 8.670 8.390 0.00 0.00 0.0000   8.350 8.630 8.700 8.420 8.700 8.360 8.220     0     0.0000 0.00 0.00   0.000 0.000 11.090 11.098 0.000 11.090 10.941 0.155
WS7MET_125 2018-09-30 04:25:00 125 30483.0 8.430 8.600 8.680 8.450 8.710 100.000 98.600 8.430 8.240 0.00 0.00 13.370 13.710 13.320 12.050 12.290 8.520 8.630 8.700 8.520 8.750 8.530 8.320 0.00 0.00 0.0000   8.350 8.570 8.650 8.350 8.670 8.360 8.150     0     0.0000 0.00 0.00   0.000 0.000 11.045 11.045 -0.000 11.060 10.904 0.155
WS7MET_125 2018-09-30 04:20:00 125 30483.0 8.400 8.570 8.650 8.440 8.660 100.000 98.500 8.400 8.230 0.00 0.00 13.390 13.720 13.320 12.050 12.290 8.460 8.570 8.660 8.490 8.670 8.460 8.280 0.00 0.00 0.0000   8.290 8.560 8.640 8.320 8.650 8.290 8.120     0     0.0000 0.00 0.00   0.000 0.000 11.023 11.023 0.000 11.053 10.896 0.166
WS7MET_125 2018-09-30 04:15:00 125 30483.0 8.380 8.570 8.650 8.440 8.630 100.000 98.500 8.390 8.220 0.00 0.00 13.380 13.720 13.320 12.050 12.300 8.420 8.570 8.660 8.530 8.680 8.430 8.300 0.00 0.00 0.0000   8.250 8.560 8.640 8.320 8.600 8.260 8.100     0     0.0000 0.00 0.00   0.000 0.000 11.008 11.015 0.000 11.053 10.889 0.166
WS7MET_125 2018-09-30 04:10:00 125 30483.0 8.390 8.560 8.650 8.460 8.660 100.000 98.400 8.400 8.230 0.00 0.00 13.380 13.720 13.320 12.050 12.300 8.460 8.570 8.650 8.560 8.680 8.460 8.340 0.00 0.00 0.0000   8.250 8.550 8.630 8.390 8.630 8.260 8.160     0     0.0000 0.00 0.00   0.000 0.000 11.015 11.023 -0.000 11.068 10.896 0.177
WS7MET_125 2018-09-30 04:05:00 125 30483.0 8.400 8.550 8.630 8.430 8.630 100.000 98.400 8.410 8.200 0.00 0.00 13.390 13.720 13.320 12.060 12.310 8.460 8.550 8.650 8.490 8.650 8.460 8.260 0.00 0.00 0.0000   8.350 8.550 8.630 8.390 8.610 8.360 8.140     0     0.0000 0.00 0.00   0.000 0.000 11.023 11.030 0.000 11.045 10.874 0.177
WS7MET_125 2018-09-30 04:00:00 125 30483.0 8.400 8.550 8.630 8.430 8.610 100.000 98.400 8.400 8.200 0.00 0.00 13.400 13.720 13.320 12.060 12.270 8.530 8.550 8.640 8.530 8.660 8.530 8.290 0.00 0.00 0.0000   8.250 8.550 8.630 8.350 8.570 8.250 8.120     0     0.0000 0.00 0.00   0.000 0.000 11.023 11.023 0.000 11.045 10.874 0.177
WS7MET_125 2018-09-30 03:55:00 125 30483.0 8.410 8.560 8.650 8.430 8.600 100.000 98.300 8.420 8.190 0.00 0.00 13.410 13.730 13.320 12.050 12.280 8.530 8.590 8.670 8.520 8.610 8.530 8.300 0.00 0.00 0.0000   8.320 8.550 8.630 8.320 8.590 8.330 8.080     0     0.0000 0.00 0.00   0.000 0.000 11.030 11.038 0.000 11.045 10.867 0.188
WS7MET_125 2018-09-30 03:50:00 125 30483.0 8.440 8.600 8.690 8.470 8.680 100.000 98.400 8.450 8.230 0.00 0.00 13.410 13.730 13.320 12.060 12.350 8.530 8.610 8.710 8.530 8.730 8.530 8.300 0.00 0.00 0.0000   8.390 8.590 8.670 8.390 8.610 8.390 8.140     0     0.0000 0.00 0.00   0.000 0.000 11.053 11.060 0.000 11.075 10.896 0.177
WS7MET_125 2018-09-30 03:45:00 125 30483.0 8.440 8.590 8.670 8.470 8.690 100.000 98.400 8.440 8.230 0.00 0.00 13.410 13.730 13.320 12.050 12.290 8.530 8.590 8.690 8.530 8.710 8.530 8.290 0.00 0.00 0.0000   8.360 8.580 8.670 8.390 8.650 8.350 8.160     0     0.0000 0.00 0.00   0.000 0.000 11.053 11.053 0.000 11.075 10.896 0.177
WS7MET_125 2018-09-30 03:40:00 125 30483.0 8.450 8.580 8.670 8.490 8.680 99.900 98.300 8.440 8.240 0.00 0.00 13.420 13.740 13.320 12.060 12.310 8.530 8.590 8.670 8.530 8.720 8.530 8.300 0.00 0.00 0.0000   8.360 8.570 8.650 8.420 8.650 8.350 8.170     0     0.0000 0.00 0.00   0.000 0.000 11.060 11.053 0.011 11.090 10.904 0.189
WS7MET_125 2018-09-30 03:35:00 125 30483.0 8.440 8.570 8.660 8.480 8.650 99.900 98.200 8.430 8.230 0.00 0.00 13.430 13.740 13.320 12.060 12.300 8.560 8.580 8.670 8.560 8.690 8.550 8.310 0.00 0.00 0.0000   8.320 8.570 8.650 8.420 8.620 8.300 8.170     0     0.0000 0.00 0.00   0.000 0.000 11.053 11.045 0.011 11.083 10.896 0.199
WS7MET_125 2018-09-30 03:30:00 125 30483.0 8.440 8.570 8.660 8.480 8.650 99.700 98.200 8.400 8.220 0.00 0.00 13.430 13.740 13.320 12.060 12.300 8.530 8.580 8.670 8.560 8.680 8.510 8.300 0.00 0.00 0.0000   8.390 8.570 8.650 8.360 8.620 8.340 8.090     0     0.0000 0.00 0.00   0.000 0.000 11.053 11.023 0.033 11.083 10.889 0.199
WS7MET_125 2018-09-30 03:25:00 125 30483.0 8.460 8.580 8.670 8.520 8.610 99.600 98.200 8.410 8.250 0.00 0.00 13.430 13.750 13.320 12.060 12.300 8.560 8.610 8.700 8.630 8.640 8.510 8.360 0.00 0.00 0.0000   8.290 8.570 8.650 8.460 8.570 8.230 8.180     0     0.0000 0.00 0.00   0.000 0.000 11.068 11.030 0.044 11.113 10.911 0.200
WS7MET_125 2018-09-30 03:20:00 125 30483.0 8.550 8.660 8.750 8.580 8.710 99.700 98.200 8.520 8.320 0.00 0.00 13.430 13.750 13.320 12.060 12.320 8.830 8.690 8.770 8.700 8.760 8.800 8.440 0.00 0.00 0.0000   8.460 8.610 8.710 8.490 8.600 8.410 8.230     0     0.0000 0.00 0.00   0.000 0.000 11.135 11.113 0.033 11.158 10.963 0.201
WS7MET_125 2018-09-30 03:15:00 125 30483.0 8.580 8.720 8.800 8.640 8.750 99.800 98.200 8.560 8.370 0.00 0.00 13.440 13.750 13.320 12.060 12.270 8.660 8.740 8.830 8.730 8.800 8.650 8.480 0.00 0.00 0.0000   8.490 8.690 8.770 8.520 8.720 8.480 8.270     0     0.0000 0.00 0.00   0.000 0.000 11.158 11.143 0.022 11.204 11.000 0.202
WS7MET_125 2018-09-30 03:10:00 125 30483.0 8.600 8.750 8.830 8.660 8.790 99.700 98.200 8.570 8.400 0.00 0.00 13.450 13.750 13.320 12.050 12.300 8.660 8.770 8.850 8.770 8.840 8.640 8.510 0.00 0.00 0.0000   8.530 8.740 8.830 8.560 8.770 8.490 8.300     0     0.0000 0.00 0.00   0.000 0.000 11.173 11.151 0.034 11.219 11.023 0.202
WS7MET_125 2018-09-30 03:05:00 125 30483.0 8.600 8.750 8.850 8.670 8.840 99.600 98.100 8.540 8.400 0.00 0.00 13.450 13.750 13.320 12.060 12.350 8.760 8.770 8.870 8.760 8.870 8.710 8.510 0.00 0.00 0.0000   8.490 8.730 8.830 8.590 8.810 8.430 8.330     0     0.0000 0.00 0.00   0.000 0.000 11.173 11.128 0.045 11.226 11.023 0.213
WS7MET_125 2018-09-30 03:00:00 125 30483.0 8.630 8.750 8.840 8.660 8.770 99.600 98.100 8.570 8.380 0.00 0.00 13.450 13.750 13.320 12.060 12.350 8.700 8.770 8.850 8.730 8.810 8.640 8.440 0.00 0.00 0.0000   8.560 8.730 8.830 8.590 8.750 8.500 8.300     0     0.0000 0.00 0.00   0.000 0.000 11.196 11.151 0.045 11.219 11.008 0.213
WS7MET_125 2018-09-30 02:55:00 125 30483.0 8.660 8.780 8.870 8.690 8.800 99.600 98.000 8.600 8.400 0.00 0.00 13.450 13.750 13.320 12.060 12.310 8.760 8.800 8.890 8.800 8.830 8.710 8.510 0.00 0.00 0.0000   8.530 8.770 8.850 8.590 8.780 8.470 8.310     0     0.0000 0.00 0.00   0.000 0.000 11.219 11.173 0.045 11.242 11.023 0.225
WS7MET_125 2018-09-30 02:50:00 125 30483.0 8.700 8.820 8.900 8.740 8.840 99.600 98.100 8.650 8.450 0.00 0.00 13.460 13.760 13.320 12.060 12.310 8.900 8.850 8.920 8.800 8.870 8.840 8.520 0.00 0.00 0.0000   8.560 8.800 8.890 8.660 8.810 8.510 8.380     0     0.0000 0.00 0.00   0.000 0.000 11.249 11.211 0.045 11.280 11.060 0.214
WS7MET_125 2018-09-30 02:45:00 125 30483.0 8.700 8.850 8.930 8.740 8.890 99.600 98.000 8.650 8.450 0.00 0.00 13.470 13.760 13.320 12.060 12.340 8.800 8.850 8.930 8.830 8.930 8.760 8.560 0.00 0.00 0.0000   8.560 8.850 8.930 8.660 8.870 8.510 8.380     0     0.0000 0.00 0.00   0.000 0.000 11.249 11.211 0.045 11.280 11.060 0.226
WS7MET_125 2018-09-30 02:40:00 125 30483.0 8.710 8.860 8.940 8.740 8.880 99.500 98.000 8.650 8.440 0.00 0.00 13.470 13.760 13.320 12.060 12.320 8.800 8.870 8.950 8.800 8.920 8.740 8.510 0.00 0.00 0.0000   8.630 8.850 8.930 8.660 8.850 8.570 8.360     0     0.0000 0.00 0.00   0.000 0.000 11.257 11.211 0.056 11.280 11.053 0.226
WS7MET_125 2018-09-30 02:35:00 125 30483.0 8.740 8.900 8.970 8.790 8.890 99.500 97.900 8.680 8.490 0.00 0.00 13.470 13.760 13.320 12.060 12.330 8.900 8.930 8.990 8.870 8.930 8.840 8.580 0.00 0.00 0.0000   8.630 8.870 8.950 8.730 8.870 8.560 8.420     0     0.0000 0.00 0.00   0.000 0.000 11.280 11.234 0.056 11.318 11.090 0.238
WS7MET_125 2018-09-30 02:30:00 125 30483.0 8.810 8.950 9.010 8.830 8.970 99.600 97.900 8.760 8.530 0.00 0.00 13.480 13.770 13.320 12.060 12.330 8.970 8.970 9.030 8.970 9.010 8.920 8.680 0.00 0.00 0.0000   8.700 8.930 9.000 8.730 8.930 8.630 8.430     0     0.0000 0.00 0.00   0.000 0.000 11.333 11.295 0.045 11.349 11.120 0.238
WS7MET_125 2018-09-30 02:25:00 125 30483.0 8.790 8.950 9.020 8.810 8.970 99.700 98.000 8.750 8.510 0.00 0.00 13.490 13.770 13.320 12.060 12.310 8.900 8.970 9.040 8.870 9.010 8.860 8.580 0.00 0.00 0.0000   8.730 8.950 9.010 8.730 8.940 8.680 8.410     0     0.0000 0.00 0.00   0.000 0.000 11.318 11.287 0.034 11.333 11.105 0.227
WS7MET_125 2018-09-30 02:20:00 125 30483.0 8.830 8.980 9.050 8.840 9.010 99.800 98.000 8.810 8.550 0.00 0.00 13.490 13.770 13.320 12.060 12.320 8.900 8.990 9.070 8.940 9.050 8.860 8.660 0.00 0.00 0.0000   8.760 8.970 9.030 8.730 8.970 8.740 8.450     0     0.0000 0.00 0.00   0.000 0.000 11.349 11.333 0.023 11.356 11.135 0.227
WS7MET_125 2018-09-30 02:15:00 125 30483.0 8.800 8.980 9.050 8.840 9.060 99.800 98.100 8.780 8.560 0.00 0.00 13.490 13.770 13.320 12.060 12.330 8.870 8.990 9.070 8.970 9.090 8.850 8.710 0.00 0.00 0.0000   8.730 8.960 9.040 8.760 9.020 8.700 8.490     0     0.0000 0.00 0.00   0.000 0.000 11.326 11.310 0.023 11.356 11.143 0.216
WS7MET_125 2018-09-30 02:10:00 125 30483.0 8.780 8.930 9.010 8.790 9.030 99.700 98.100 8.750 8.520 0.00 0.00 13.490 13.770 13.320 12.060 12.320 8.930 8.960 9.030 8.870 9.070 8.900 8.590 0.00 0.00 0.0000   8.660 8.910 8.990 8.730 9.010 8.640 8.450     0     0.0000 0.00 0.00   0.000 0.000 11.310 11.287 0.034 11.318 11.113 0.215
WS7MET_125 2018-09-30 02:05:00 125 30483.0 8.770 8.900 8.980 8.800 8.970 99.700 98.100 8.720 8.520 0.00 0.00 13.500 13.770 13.320 12.060 12.340 8.830 8.910 8.990 8.870 9.010 8.790 8.590 0.00 0.00 0.0000   8.700 8.890 8.970 8.730 8.940 8.650 8.440     0     0.0000 0.00 0.00   0.000 0.000 11.303 11.264 0.034 11.326 11.113 0.215
WS7MET_125 2018-09-30 02:00:00 125 30483.0 8.750 8.900 8.980 8.800 9.010 99.500 98.100 8.690 8.520 0.00 0.00 13.510 13.770 13.320 12.060 12.330 8.940 8.910 8.990 8.900 9.040 8.880 8.620 0.00 0.00 0.0000   8.700 8.870 8.970 8.760 8.980 8.630 8.460     0     0.0000 0.00 0.00   0.000 0.000 11.287 11.242 0.056 11.326 11.113 0.215
WS7MET_125 2018-09-30 01:55:00 125 30483.0 8.720 8.850 8.940 8.780 8.950 99.400 98.000 8.640 8.490 0.00 0.00 13.510 13.780 13.320 12.060 12.330 8.800 8.870 8.960 8.830 9.010 8.720 8.550 0.00 0.00 0.0000   8.630 8.830 8.930 8.700 8.930 8.550 8.410     0     0.0000 0.00 0.00   0.000 0.000 11.264 11.204 0.068 11.310 11.090 0.226
WS7MET_125 2018-09-30 01:50:00 125 30483.0 8.750 8.850 8.930 8.750 8.910 99.400 98.000 8.670 8.450 0.00 0.00 13.510 13.780 13.320 12.060 12.340 8.940 8.850 8.930 8.830 8.950 8.860 8.550 0.00 0.00 0.0000   8.590 8.830 8.920 8.700 8.880 8.520 8.380     0     0.0000 0.00 0.00   0.000 0.000 11.287 11.226 0.068 11.287 11.060 0.226
WS7MET_125 2018-09-30 01:45:00 125 30483.0 8.730 8.860 8.930 8.760 8.910 99.400 97.900 8.650 8.460 0.00 0.00 13.520 13.780 13.320 12.060 12.320 8.870 8.870 8.940 8.870 8.950 8.780 8.560 0.00 0.00 0.0000   8.630 8.850 8.930 8.660 8.860 8.540 8.350     0     0.0000 0.00 0.00   0.000 0.000 11.272 11.211 0.068 11.295 11.068 0.237
WS7MET_125 2018-09-30 01:40:00 125 30483.0 8.760 8.850 8.920 8.760 8.940 99.200 97.800 8.650 8.440 0.00 0.00 13.530 13.790 13.320 12.060 12.370 9.040 8.870 8.930 8.830 8.980 8.940 8.530 0.00 0.00 0.0000   8.590 8.850 8.910 8.700 8.910 8.470 8.380     0     0.0000 0.00 0.00   0.000 0.000 11.295 11.211 0.090 11.295 11.053 0.248
WS7MET_125 2018-09-30 01:35:00 125 30483.0 8.730 8.830 8.910 8.770 8.890 99.000 97.600 8.590 8.420 0.00 0.00 13.530 13.790 13.320 12.060 12.360 8.830 8.850 8.920 8.830 8.950 8.690 8.490 0.00 0.00 0.0000   8.630 8.820 8.910 8.700 8.850 8.470 8.360     0     0.0000 0.00 0.00   0.000 0.000 11.272 11.166 0.113 11.303 11.038 0.271
WS7MET_125 2018-09-30 01:30:00 125 30483.0 8.750 8.820 8.910 8.800 8.840 98.800 97.500 8.580 8.440 0.00 0.00 13.530 13.790 13.320 12.060 12.350 8.830 8.830 8.910 8.870 8.890 8.680 8.510 0.00 0.00 0.0000   8.630 8.810 8.910 8.760 8.810 8.470 8.400     0     0.0000 0.00 0.00   0.000 0.000 11.287 11.158 0.135 11.326 11.053 0.283
WS7MET_125 2018-09-30 01:25:00 125 30483.0 8.780 8.850 8.940 8.810 8.830 98.800 97.400 8.610 8.430 0.00 0.00 13.530 13.790 13.320 12.060 12.340 8.900 8.870 8.970 8.870 8.850 8.720 8.500 0.00 0.00 0.0000   8.660 8.830 8.910 8.730 8.810 8.500 8.340     0     0.0000 0.00 0.00   0.000 0.000 11.310 11.181 0.136 11.333 11.045 0.295
WS7MET_125 2018-09-30 01:20:00 125 30483.0 8.800 8.890 8.970 8.810 8.900 98.600 97.200 8.600 8.410 0.00 0.00 13.540 13.790 13.320 12.060 12.340 8.900 8.890 8.970 8.940 8.920 8.690 8.520 0.00 0.00 0.0000   8.660 8.880 8.970 8.700 8.880 8.430 8.300     0     0.0000 0.00 0.00   0.000 0.000 11.326 11.173 0.159 11.333 11.030 0.317
WS7MET_125 2018-09-30 01:15:00 125 30483.0 8.870 8.910 9.000 8.890 8.870 98.300 96.900 8.630 8.430 0.00 0.00 13.540 13.790 13.320 12.060 12.350 8.970 8.950 9.040 8.970 8.890 8.720 8.520 0.00 0.00 0.3590   8.800 8.890 8.970 8.830 8.850 8.570 8.370     0     0.0750 90.00 7.84   0.000 0.000 11.379 11.196 0.193 11.395 11.045 0.353
WS7MET_125 2018-09-30 01:10:00 125 30483.0 8.920 8.980 9.070 8.950 8.950 98.100 96.700 8.640 8.460 0.00 0.00 13.550 13.790 13.320 12.060 12.370 9.040 9.010 9.110 9.040 9.000 8.780 8.550 0.00 0.00 0.4380   8.800 8.970 9.050 8.870 8.890 8.530 8.370     0     0.0270 4.74 1.44   0.000 0.000 11.418 11.204 0.217 11.441 11.068 0.378
WS7MET_125 2018-09-30 01:05:00 125 30483.0 8.920 9.030 9.140 9.020 8.990 97.600 96.400 8.570 8.480 0.00 0.00 13.550 13.800 13.320 12.060 12.320 9.000 9.070 9.170 9.110 9.060 8.660 8.550 0.00 0.00 0.2220   8.830 9.010 9.110 8.940 8.960 8.470 8.410     0     0.0280 112.90 19.75   0.000 0.000 11.418 11.151 0.274 11.495 11.083 0.414
WS7MET_125 2018-09-30 01:00:00 125 30483.0 8.960 9.100 9.190 9.070 9.080 97.500 95.700 8.590 8.420 0.00 0.00 13.550 13.800 13.320 12.060 12.350 9.040 9.130 9.230 9.140 9.120 8.680 8.490 0.00 0.00 0.2220   8.870 9.070 9.170 9.000 9.050 8.490 8.370     0     0.0310 129.70 2.32   0.000 0.000 11.449 11.166 0.286 11.534 11.038 0.496
WS7MET_125 2018-09-30 00:55:00 125 30483.0 8.980 9.150 9.230 9.090 9.190 97.300 95.400 8.590 8.400 0.00 0.00 13.560 13.800 13.320 12.060 12.300 9.040 9.170 9.250 9.170 9.260 8.640 8.500 0.00 0.00 0.0000   8.900 9.130 9.230 9.040 9.140 8.510 8.330     0     0.0000 0.00 0.00   0.000 0.000 11.464 11.166 0.310 11.550 11.023 0.531
WS7MET_125 2018-09-30 00:50:00 125 30483.0 9.020 9.160 9.240 9.100 9.230 97.300 95.300 8.620 8.400 0.00 0.00 13.570 13.800 13.320 12.060 12.340 9.110 9.170 9.250 9.170 9.280 8.710 8.480 0.00 0.00 0.3270   8.930 9.160 9.230 8.970 9.210 8.540 8.280     0     0.0550 354.60 2.14   0.000 0.000 11.495 11.188 0.310 11.558 11.023 0.543
WS7MET_125 2018-09-30 00:45:00 125 30483.0 9.020 9.170 9.240 9.080 9.210 97.000 95.200 8.590 8.360 0.00 0.00 13.570 13.810 13.320 12.060 12.350 9.210 9.190 9.250 9.140 9.240 8.760 8.410 0.00 0.00 0.0000   8.930 9.160 9.240 9.040 9.180 8.490 8.300     0     0.0000 0.00 0.00   0.000 0.000 11.495 11.166 0.345 11.542 10.993 0.554
WS7MET_125 2018-09-30 00:40:00 125 30483.0 9.010 9.180 9.240 9.080 9.240 97.000 95.100 8.570 8.350 0.00 0.00 13.570 13.800 13.320 12.060 12.370 9.240 9.190 9.250 9.210 9.270 8.800 8.470 0.00 0.00 0.5100   8.900 9.170 9.230 8.970 9.230 8.470 8.240     0     0.2760 309.50 1.21   0.000 0.000 11.488 11.151 0.345 11.542 10.985 0.566
WS7MET_125 2018-09-30 00:35:00 125 30483.0 8.970 9.130 9.200 9.050 9.240 97.300 95.400 8.570 8.360 0.00 0.00 13.570 13.810 13.320 12.060 12.350 9.140 9.170 9.230 9.210 9.290 8.770 8.510 0.00 0.00 0.5100   8.870 9.090 9.160 8.940 9.210 8.490 8.250     0     0.2940 305.10 3.06   0.000 0.000 11.457 11.151 0.309 11.519 10.993 0.530
WS7MET_125 2018-09-30 00:30:00 125 30483.0 8.920 9.020 9.110 9.010 9.100 97.100 95.300 8.500 8.300 0.00 0.00 13.590 13.810 13.320 12.060 12.380 9.170 9.080 9.150 9.070 9.210 8.750 8.380 0.00 0.00 0.2680   8.830 8.990 9.090 8.900 9.000 8.400 8.190     0     0.0300 285.90 0.01   0.000 0.000 11.418 11.098 0.331 11.488 10.948 0.540
WS7MET_125 2018-09-30 00:25:00 125 30483.0 8.910 9.040 9.130 9.040 9.020 97.000 95.200 8.470 8.310 0.00 0.00 13.590 13.810 13.320 12.060 12.360 8.970 9.070 9.150 9.110 9.070 8.540 8.390 0.00 0.00 0.0000   8.800 9.010 9.110 8.930 9.010 8.360 8.210     0     0.0000 0.00 0.00   0.000 0.000 11.410 11.075 0.342 11.511 10.956 0.553
WS7MET_125 2018-09-30 00:20:00 125 30483.0 8.950 9.100 9.180 9.070 9.140 97.000 95.100 8.500 8.330 0.00 0.00 13.590 13.820 13.320 12.060 12.350 9.000 9.120 9.200 9.140 9.190 8.570 8.410 0.00 0.00 0.0000   8.870 9.070 9.150 9.000 9.080 8.420 8.260     0     0.0000 0.00 0.00   0.000 0.000 11.441 11.098 0.343 11.534 10.970 0.565
WS7MET_125 2018-09-30 00:15:00 125 30483.0 8.960 9.120 9.200 9.080 9.140 96.900 94.800 8.500 8.310 0.00 0.00 13.600 13.820 13.320 12.060 12.350 9.000 9.150 9.230 9.140 9.190 8.570 8.360 0.00 0.00 0.0000   8.900 9.110 9.190 9.000 9.120 8.440 8.240     0     0.0000 0.00 0.00   0.000 0.000 11.449 11.098 0.355 11.542 10.956 0.600
WS7MET_125 2018-09-30 00:10:00 125 30483.0 8.960 9.140 9.230 9.120 9.200 97.100 94.800 8.530 8.330 0.00 0.00 13.600 13.820 13.320 12.060 12.350 9.040 9.150 9.230 9.210 9.240 8.600 8.430 0.00 0.00 0.0000   8.870 9.140 9.220 9.000 9.170 8.440 8.230     0     0.0000 0.00 0.00   0.000 0.000 11.449 11.120 0.332 11.573 10.970 0.602
WS7MET_125 2018-09-30 00:05:00 125 30483.0 8.980 9.160 9.250 9.150 9.230 97.200 94.800 8.570 8.370 0.00 0.00 13.610 13.820 13.320 12.060 12.360 9.040 9.170 9.270 9.210 9.270 8.640 8.440 0.00 0.00 0.1830   8.900 9.150 9.230 9.040 9.190 8.490 8.260     0     0.0290 351.00 0.04   0.000 0.000 11.464 11.151 0.321 11.597 11.000 0.603
WS7MET_125 2018-09-30 00:00:00 125 30483.0 8.990 9.170 9.270 9.140 9.260 97.200 94.900 8.570 8.360 0.00 0.00 13.620 13.820 13.320 12.060 12.350 9.070 9.190 9.270 9.240 9.300 8.670 8.470 0.00 0.00 0.0000   8.930 9.160 9.270 9.040 9.230 8.500 8.260     0     0.0000 0.00 0.00   0.000 0.000 11.472 11.151 0.321 11.589 10.993 0.591
WS7MET_125 2018-09-29 23:55:00 125 30483.0 9.000 9.190 9.270 9.170 9.290 97.200 94.900 8.590 8.410 0.00 0.00 13.620 13.830 13.320 12.060 12.380 9.110 9.190 9.290 9.410 9.320 8.700 8.650 0.00 0.00 0.1830   8.900 9.190 9.270 9.070 9.270 8.480 8.320     0     0.0530 333.80 3.43   0.000 0.000 11.480 11.166 0.321 11.612 11.030 0.592
WS7MET_125 2018-09-29 23:50:00 125 30483.0 9.000 9.190 9.270 9.160 9.250 97.100 95.000 8.570 8.420 0.00 0.00 13.620 13.830 13.320 12.060 12.370 9.110 9.210 9.290 9.240 9.300 8.680 8.500 0.00 0.00 0.1440   8.930 9.180 9.260 9.110 9.200 8.490 8.360     0     0.0140 329.00 0.01   0.000 0.000 11.480 11.151 0.333 11.604 11.038 0.580
WS7MET_125 2018-09-29 23:45:00 125 30483.0 9.010 9.210 9.290 9.170 9.260 97.200 95.100 8.600 8.430 0.00 0.00 13.620 13.830 13.320 12.060 12.360 9.070 9.230 9.310 9.240 9.320 8.660 8.510 0.00 0.00 0.3460   8.930 9.210 9.290 9.070 9.230 8.540 8.330     0     0.1520 344.70 10.23   0.000 0.000 11.488 11.173 0.322 11.612 11.045 0.569
WS7MET_125 2018-09-29 23:40:00 125 30483.0 9.050 9.230 9.310 9.170 9.320 97.400 95.200 8.660 8.460 0.00 0.00 13.630 13.830 13.320 12.060 12.380 9.110 9.250 9.310 9.240 9.340 8.730 8.520 0.00 0.00 0.1760   9.000 9.220 9.290 9.110 9.300 8.600 8.390     0     0.0240 339.50 11.06   0.000 0.000 11.519 11.219 0.299 11.612 11.068 0.557
WS7MET_125 2018-09-29 23:35:00 125 30483.0 9.030 9.230 9.290 9.140 9.270 97.600 95.400 8.680 8.460 0.00 0.00 13.640 13.830 13.320 12.060 12.370 9.140 9.230 9.300 9.240 9.320 8.780 8.570 0.00 0.00 0.2940   8.900 9.220 9.290 9.110 9.240 8.560 8.410     0     0.0590 22.34 6.27   0.000 0.000 11.503 11.234 0.276 11.589 11.068 0.533
WS7MET_125 2018-09-29 23:30:00 125 30483.0 9.060 9.230 9.300 9.150 9.290 97.800 95.500 8.740 8.470 0.00 0.00 13.640 13.840 13.320 12.060 12.390 9.310 9.250 9.310 9.240 9.350 9.010 8.560 0.00 0.00 0.3660   8.970 9.210 9.290 9.070 9.220 8.650 8.390     0     0.1030 42.56 1.40   0.000 0.000 11.526 11.280 0.254 11.597 11.075 0.522
WS7MET_125 2018-09-29 23:25:00 125 30483.0 8.940 9.160 9.260 9.080 9.310 98.000 96.000 8.650 8.490 0.00 0.00 13.640 13.840 13.320 12.060 12.390 9.040 9.210 9.310 9.170 9.440 8.730 8.580 0.00 0.00 0.6660   8.870 9.130 9.230 8.930 9.190 8.540 8.340     0     0.3160 33.32 29.87   0.000 0.000 11.433 11.211 0.229 11.542 11.090 0.462
WS7MET_125 2018-09-29 23:20:00 125 30483.0 8.950 9.090 9.190 9.090 9.200 98.200 96.400 8.690 8.560 0.00 0.00 13.650 13.840 13.320 12.060 12.350 9.070 9.130 9.230 9.210 9.220 8.830 8.680 0.00 0.00 0.8620   8.830 9.070 9.170 8.970 9.170 8.560 8.420     0     0.2980 96.60 61.27   0.000 0.000 11.441 11.242 0.206 11.550 11.143 0.416
WS7MET_125 2018-09-29 23:15:00 125 30483.0 8.950 9.070 9.150 9.050 9.150 98.200 96.500 8.680 8.530 0.00 0.00 13.660 13.840 13.320 12.060 12.390 9.110 9.070 9.160 9.110 9.200 8.830 8.590 0.00 0.00 0.7450   8.870 9.060 9.140 9.000 9.110 8.620 8.480     0     0.2330 284.30 40.87   0.000 0.000 11.441 11.234 0.206 11.519 11.120 0.403
WS7MET_125 2018-09-29 23:10:00 125 30483.0 8.930 9.050 9.120 9.040 9.120 98.100 96.400 8.650 8.500 0.00 0.00 13.660 13.840 13.320 12.060 12.370 9.000 9.070 9.140 9.170 9.180 8.730 8.600 0.00 0.00 0.8300   8.830 9.030 9.100 8.970 9.050 8.530 8.430     0     0.2460 42.59 29.48   0.000 0.000 11.426 11.211 0.217 11.511 11.098 0.414
WS7MET_125 2018-09-29 23:05:00 125 30483.0 8.930 9.040 9.120 9.060 9.100 97.800 96.000 8.600 8.460 0.00 0.00 13.660 13.840 13.320 12.060 12.370 9.000 9.050 9.140 9.210 9.130 8.690 8.610 0.00 0.00 0.4770   8.830 9.030 9.110 8.900 9.060 8.510 8.300     0     0.1750 216.10 51.97   0.000 0.000 11.426 11.173 0.251 11.526 11.068 0.461
WS7MET_125 2018-09-29 23:00:00 125 30483.0 8.960 9.050 9.130 9.070 9.080 97.600 95.700 8.610 8.430 0.00 0.00 13.660 13.840 13.320 12.060 12.400 9.210 9.050 9.150 9.170 9.130 8.830 8.530 0.00 0.00 0.3070   8.900 9.050 9.130 9.000 9.060 8.530 8.350     0     0.0470 29.87 3.20   0.000 0.000 11.449 11.181 0.275 11.534 11.045 0.496
WS7MET_125 2018-09-29 22:55:00 125 30483.0 8.980 9.080 9.170 9.130 9.110 97.500 95.500 8.610 8.460 0.00 0.00 13.680 13.840 13.320 12.060 12.400 9.070 9.110 9.200 9.210 9.200 8.720 8.540 0.00 0.00 0.3530   8.870 9.050 9.150 9.070 9.070 8.510 8.410     0     0.0660 264.00 2.36   0.000 0.000 11.464 11.181 0.287 11.581 11.068 0.521
WS7MET_125 2018-09-29 22:50:00 125 30483.0 9.000 9.110 9.190 9.150 9.140 97.200 95.200 8.600 8.430 0.00 0.00 13.680 13.850 13.320 12.060 12.400 9.070 9.110 9.200 9.210 9.180 8.700 8.480 0.00 0.00 0.5810   8.900 9.100 9.190 9.070 9.110 8.470 8.330     0     0.1550 30.00 9.45   0.000 0.000 11.480 11.173 0.321 11.597 11.045 0.557
WS7MET_125 2018-09-29 22:45:00 125 30483.0 9.000 9.130 9.230 9.190 9.120 96.700 94.700 8.520 8.390 0.00 0.00 13.680 13.850 13.320 12.060 12.370 9.070 9.170 9.270 9.310 9.180 8.640 8.500 0.00 0.00 0.1440   8.940 9.110 9.200 9.070 9.090 8.420 8.280     0     0.0080 39.31 0.00   0.000 0.000 11.480 11.113 0.379 11.628 11.015 0.616
WS7MET_125 2018-09-29 22:40:00 125 30483.0 9.070 9.190 9.280 9.220 9.200 96.400 94.300 8.540 8.360 0.00 0.00 13.680 13.850 13.320 12.060 12.370 9.310 9.230 9.310 9.310 9.230 8.770 8.470 0.00 0.00 0.0000   8.940 9.170 9.270 9.140 9.170 8.410 8.260     0     0.0000 0.00 0.00   0.000 0.000 11.534 11.128 0.415 11.652 10.993 0.664
WS7MET_125 2018-09-29 22:35:00 125 30483.0 9.080 9.250 9.330 9.250 9.290 96.400 93.900 8.550 8.320 0.00 0.00 13.690 13.850 13.320 12.060 12.390 9.140 9.270 9.350 9.310 9.370 8.620 8.380 0.00 0.00 0.0000   8.970 9.230 9.310 9.170 9.230 8.430 8.230     0     0.0000 0.00 0.00   0.000 0.000 11.542 11.135 0.416 11.675 10.963 0.712
WS7MET_125 2018-09-29 22:30:00 125 30483.0 9.060 9.270 9.350 9.270 9.350 96.600 94.100 8.550 8.370 0.00 0.00 13.700 13.850 13.320 12.060 12.370 9.140 9.280 9.350 9.340 9.400 8.640 8.470 0.00 0.00 0.2160   8.970 9.270 9.350 9.210 9.330 8.460 8.290     0     0.0510 16.20 11.82   0.000 0.000 11.526 11.135 0.392 11.691 11.000 0.690
WS7MET_125 2018-09-29 22:25:00 125 30483.0 9.050 9.270 9.350 9.270 9.340 96.500 94.100 8.530 8.390 0.00 0.00 13.700 13.850 13.320 12.060 12.420 9.170 9.270 9.350 9.410 9.400 8.670 8.530 0.00 0.00 0.3140   8.830 9.270 9.350 9.210 9.310 8.310 8.310     0     0.1590 354.30 0.33   0.000 0.000 11.519 11.120 0.403 11.691 11.015 0.690
WS7MET_125 2018-09-29 22:20:00 125 30483.0 9.100 9.280 9.370 9.280 9.340 96.600 94.200 8.600 8.410 0.00 0.00 13.700 13.860 13.320 12.060 12.410 9.170 9.300 9.390 9.450 9.390 8.680 8.600 0.00 0.00 0.3400   9.040 9.270 9.350 9.210 9.290 8.530 8.320     0     0.1140 346.90 1.27   0.000 0.000 11.558 11.173 0.393 11.699 11.030 0.679
WS7MET_125 2018-09-29 22:15:00 125 30483.0 9.100 9.280 9.350 9.250 9.410 96.700 94.600 8.610 8.440 0.00 0.00 13.700 13.860 13.320 12.060 12.400 9.170 9.300 9.390 9.340 9.480 8.700 8.510 0.00 0.00 0.4900   8.970 9.250 9.310 9.170 9.320 8.460 8.370     0     0.3580 333.90 9.73   0.000 0.000 11.558 11.181 0.381 11.675 11.053 0.630
WS7MET_125 2018-09-29 22:10:00 125 30483.0 9.070 9.220 9.290 9.240 9.240 96.600 94.600 8.570 8.430 0.00 0.00 13.710 13.860 13.320 12.060 12.380 9.170 9.240 9.310 9.310 9.310 8.690 8.480 0.00 0.00 0.4830   8.970 9.210 9.280 9.140 9.180 8.490 8.340     0     0.3810 332.20 4.52   0.000 0.000 11.534 11.151 0.392 11.667 11.045 0.630
WS7MET_125 2018-09-29 22:05:00 125 30483.0 9.120 9.290 9.350 9.280 9.320 96.600 94.500 8.610 8.460 0.00 0.00 13.720 13.860 13.320 12.060 12.400 9.240 9.310 9.370 9.350 9.400 8.730 8.520 0.00 0.00 0.4180   9.040 9.250 9.310 9.210 9.190 8.510 8.380     0     0.3020 343.70 8.71   0.000 0.000 11.573 11.181 0.393 11.699 11.068 0.643
WS7MET_125 2018-09-29 22:00:00 125 30483.0 9.130 9.280 9.340 9.270 9.330 96.700 94.700 8.630 8.470 0.00 0.00 13.720 13.860 13.320 12.060 12.410 9.210 9.310 9.370 9.350 9.400 8.720 8.560 0.00 0.00 0.4570   9.040 9.270 9.310 9.210 9.250 8.540 8.410     0     0.3270 325.10 0.97   0.000 0.000 11.581 11.196 0.382 11.691 11.075 0.620
WS7MET_125 2018-09-29 21:55:00 125 30483.0 9.150 9.300 9.360 9.330 9.310 96.800 94.600 8.670 8.520 0.00 0.00 13.720 13.860 13.320 12.060 12.410 9.240 9.310 9.380 9.380 9.360 8.780 8.580 0.00 0.00 0.7380   9.040 9.290 9.350 9.240 9.280 8.570 8.440     0     0.5420 323.90 2.51   0.000 0.000 11.597 11.226 0.371 11.738 11.113 0.634
WS7MET_125 2018-09-29 21:50:00 125 30483.0 9.170 9.310 9.390 9.330 9.360 96.800 94.700 8.690 8.540 0.00 0.00 13.730 13.860 13.320 12.060 12.430 9.280 9.330 9.400 9.380 9.390 8.790 8.590 0.00 0.00 0.4440   9.070 9.310 9.380 9.280 9.330 8.600 8.480     0     0.2980 348.70 6.68   0.000 0.000 11.612 11.242 0.372 11.738 11.128 0.622
WS7MET_125 2018-09-29 21:45:00 125 30483.0 9.210 9.350 9.410 9.360 9.360 96.600 94.600 8.700 8.550 0.00 0.00 13.730 13.860 13.320 12.060 12.410 9.280 9.370 9.450 9.410 9.410 8.780 8.610 0.00 0.00 0.4570   9.140 9.330 9.390 9.240 9.320 8.620 8.430     0     0.2660 326.60 5.11   0.000 0.000 11.644 11.249 0.396 11.762 11.135 0.635
WS7MET_125 2018-09-29 21:40:00 125 30483.0 9.240 9.390 9.450 9.400 9.430 96.800 94.700 8.760 8.590 0.00 0.00 13.740 13.870 13.320 12.060 12.410 9.410 9.410 9.470 9.480 9.470 8.930 8.670 0.00 0.00 0.3400   9.170 9.380 9.450 9.310 9.400 8.690 8.500     0     0.1220 328.10 9.87   0.000 0.000 11.667 11.295 0.373 11.794 11.166 0.625
WS7MET_125 2018-09-29 21:35:00 125 30483.0 9.250 9.400 9.470 9.420 9.460 96.800 94.900 8.770 8.640 0.00 0.00 13.740 13.870 13.320 12.060 12.410 9.550 9.410 9.480 9.510 9.490 9.070 8.740 0.00 0.00 0.4250   9.070 9.390 9.470 9.340 9.440 8.590 8.580     0     0.1700 339.30 7.79   0.000 0.000 11.675 11.303 0.374 11.810 11.204 0.602
WS7MET_125 2018-09-29 21:30:00 125 30483.0 9.260 9.400 9.470 9.410 9.470 96.600 94.900 8.760 8.640 0.00 0.00 13.740 13.870 13.320 12.060 12.410 9.340 9.410 9.480 9.480 9.520 8.820 8.710 0.00 0.00 0.0000   9.140 9.400 9.470 9.340 9.450 8.660 8.570     0     0.0000 0.00 0.00   0.000 0.000 11.683 11.295 0.397 11.802 11.204 0.602
WS7MET_125 2018-09-29 21:25:00 125 30483.0 9.340 9.410 9.470 9.430 9.420 96.200 94.500 8.780 8.600 0.00 0.00 13.740 13.870 13.320 12.060 12.410 9.510 9.430 9.490 9.510 9.490 8.970 8.670 0.00 0.00 0.4770   9.210 9.410 9.470 9.340 9.370 8.640 8.530     0     0.2520 311.90 0.58   0.000 0.000 11.746 11.310 0.446 11.818 11.173 0.650
WS7MET_125 2018-09-29 21:20:00 125 30483.0 9.390 9.450 9.510 9.500 9.450 95.800 94.100 8.760 8.600 0.00 0.00 13.750 13.870 13.320 12.060 12.410 9.480 9.490 9.550 9.650 9.500 8.860 8.780 0.00 0.00 0.4770   9.240 9.430 9.490 9.410 9.410 8.640 8.520     0     0.2570 331.70 17.11   0.000 0.000 11.786 11.295 0.495 11.873 11.173 0.701
WS7MET_125 2018-09-29 21:15:00 125 30483.0 9.470 9.520 9.570 9.580 9.480 95.500 93.900 8.790 8.650 0.00 0.00 13.760 13.870 13.320 12.060 12.400 9.620 9.550 9.600 9.650 9.510 8.940 8.720 0.00 0.00 0.3140   9.340 9.490 9.550 9.520 9.470 8.700 8.580     0     0.1720 344.90 4.33   0.000 0.000 11.849 11.318 0.533 11.937 11.211 0.728
WS7MET_125 2018-09-29 21:10:00 125 30483.0 9.530 9.620 9.650 9.640 9.540 94.900 93.400 8.770 8.630 0.00 0.00 13.760 13.880 13.320 12.060 12.410 9.650 9.700 9.730 9.720 9.670 8.870 8.730 0.00 0.00 0.5030   9.410 9.560 9.600 9.550 9.470 8.650 8.520     0     0.1240 326.50 6.65   0.000 0.000 11.897 11.303 0.607 11.986 11.196 0.791
WS7MET_125 2018-09-29 21:05:00 125 30483.0 9.600 9.710 9.740 9.730 9.690 95.400 93.500 8.910 8.740 0.00 0.00 13.760 13.880 13.320 12.060 12.420 9.720 9.730 9.770 9.830 9.730 9.060 8.810 0.00 0.00 0.5230   9.550 9.710 9.730 9.620 9.650 8.840 8.630     0     0.4240 324.70 0.33   0.000 0.000 11.953 11.410 0.550 12.058 11.280 0.784
WS7MET_125 2018-09-29 21:00:00 125 30483.0 9.630 9.740 9.810 9.840 9.740 95.000 92.800 8.870 8.750 0.00 0.00 13.760 13.880 13.320 12.060 12.420 9.750 9.780 9.860 9.960 9.790 9.000 8.880 0.00 0.00 0.5420   9.520 9.710 9.770 9.720 9.670 8.750 8.650     0     0.4290 329.30 3.51   0.000 0.000 11.978 11.379 0.599 12.148 11.287 0.875
WS7MET_125 2018-09-29 20:55:00 125 30483.0 9.690 9.800 9.880 9.920 9.820 94.600 92.100 8.870 8.710 0.00 0.00 13.760 13.880 13.320 12.060 12.420 9.790 9.810 9.910 10.030 9.850 8.990 8.830 0.00 0.00 0.5680   9.580 9.770 9.850 9.820 9.790 8.700 8.580     0     0.4170 345.70 1.40   0.000 0.000 12.026 11.379 0.649 12.213 11.257 0.965
WS7MET_125 2018-09-29 20:50:00 125 30483.0 9.800 9.880 9.970 10.010 9.820 92.800 90.300 8.690 8.510 0.00 0.00 13.780 13.880 13.320 12.060 12.430 9.920 9.970 10.050 10.130 9.900 8.790 8.620 0.00 0.00 0.6530   9.680 9.810 9.910 9.920 9.720 8.570 8.320     0     0.4730 345.10 2.05   0.000 0.000 12.115 11.242 0.872 12.287 11.105 1.192
WS7MET_125 2018-09-29 20:45:00 125 30483.0 9.920 10.070 10.150 10.200 10.020 89.400 87.000 8.260 8.140 0.00 0.00 13.780 13.880 13.320 12.060 12.450 10.030 10.130 10.230 10.370 10.160 8.490 8.320 0.00 0.00 0.4970   9.820 9.980 10.070 10.090 9.920 8.060 7.915     0     0.3130 339.60 8.40   0.000 0.000 12.213 10.918 1.295 12.444 10.830 1.618
WS7MET_125 2018-09-29 20:40:00 125 30483.0 10.000 10.150 10.240 10.230 10.220 87.300 84.500 7.993 7.740 0.00 0.00 13.780 13.880 13.320 12.060 12.430 10.300 10.150 10.250 10.300 10.250 8.270 7.861 0.00 0.00 0.3460   9.890 10.140 10.230 10.130 10.170 7.861 7.633     0     0.2810 350.50 0.48   0.000 0.000 12.279 10.722 1.559 12.469 10.539 1.933
WS7MET_125 2018-09-29 20:35:00 125 30483.0 9.980 10.150 10.230 10.200 10.220 86.500 84.100 7.839 7.635 0.00 0.00 13.780 13.880 13.320 12.060 12.410 10.060 10.150 10.240 10.230 10.240 7.924 7.685 0.00 0.00 0.3660   9.860 10.150 10.230 10.160 10.210 7.697 7.588     0     0.2970 344.10 2.71   0.000 0.000 12.262 10.610 1.655 12.444 10.463 1.979
WS7MET_125 2018-09-29 20:30:00 125 30483.0 9.980 10.160 10.240 10.210 10.210 86.200 84.000 7.785 7.644 0.00 0.00 13.780 13.880 13.320 12.060 12.440 10.060 10.170 10.250 10.330 10.260 7.887 7.748 0.00 0.00 0.3010   9.890 10.150 10.230 10.100 10.180 7.707 7.521     0     0.1990 338.50 1.70   0.000 0.000 12.262 10.571 1.692 12.453 10.470 1.992
WS7MET_125 2018-09-29 20:25:00 125 30483.0 9.900 10.140 10.230 10.210 10.260 86.300 83.900 7.730 7.628 0.00 0.00 13.790 13.880 13.320 12.060 12.450 9.990 10.170 10.250 10.330 10.280 7.825 7.760 0.00 0.00 0.1110   9.790 10.110 10.210 10.060 10.250 7.612 7.482     0     0.0060 340.90 0.00   0.000 0.000 12.197 10.531 1.671 12.453 10.458 2.005
WS7MET_125 2018-09-29 20:20:00 125 30483.0 9.900 10.090 10.190 10.150 10.220 86.600 84.200 7.779 7.606 0.00 0.00 13.800 13.880 13.320 12.060 12.430 10.030 10.110 10.210 10.270 10.270 7.928 7.700 0.00 0.00 0.3200   9.790 10.070 10.170 10.100 10.170 7.647 7.533     0     0.1790 348.30 2.06   0.000 0.000 12.197 10.567 1.634 12.403 10.443 1.960
WS7MET_125 2018-09-29 20:15:00 125 30483.0 9.860 10.050 10.140 10.120 10.160 86.700 84.400 7.761 7.622 0.00 0.00 13.800 13.880 13.320 12.060 12.410 9.920 10.070 10.170 10.200 10.190 7.828 7.728 0.00 0.00 0.5230   9.790 10.030 10.120 10.030 10.120 7.688 7.536     0     0.3300 335.60 7.40   0.000 0.000 12.164 10.554 1.618 12.378 10.454 1.931
WS7MET_125 2018-09-29 20:10:00 125 30483.0 9.800 10.020 10.110 10.110 10.140 86.800 84.500 7.710 7.622 0.00 0.00 13.800 13.890 13.320 12.060 12.450 9.890 10.030 10.120 10.160 10.170 7.811 7.682 0.00 0.00 0.2290   9.690 10.020 10.110 10.030 10.110 7.609 7.537     0     0.0220 343.80 0.31   0.000 0.000 12.115 10.517 1.599 12.370 10.454 1.917
WS7MET_125 2018-09-29 20:05:00 125 30483.0 9.800 9.980 10.070 10.040 10.120 87.000 84.600 7.741 7.579 0.00 0.00 13.800 13.890 13.320 12.060 12.470 9.860 10.020 10.110 10.160 10.160 7.806 7.682 0.00 0.00 0.2030   9.750 9.970 10.050 9.960 10.060 7.682 7.469     0     0.0700 353.30 1.97   0.000 0.000 12.115 10.539 1.575 12.312 10.423 1.896
WS7MET_125 2018-09-29 20:00:00 125 30483.0 9.770 9.960 10.040 10.030 10.070 87.200 85.000 7.750 7.621 0.00 0.00 13.800 13.890 13.320 12.060 12.440 9.920 9.970 10.050 10.060 10.130 7.878 7.693 0.00 0.00 0.3010   9.680 9.950 10.030 9.960 10.040 7.677 7.515     0     0.2140 356.10 2.68   0.000 0.000 12.091 10.546 1.548 12.303 10.453 1.846
WS7MET_125 2018-09-29 19:55:00 125 30483.0 9.750 9.910 9.990 9.970 10.060 87.500 85.300 7.779 7.626 0.00 0.00 13.810 13.890 13.320 12.060 12.460 9.990 9.950 10.030 10.060 10.130 8.000 7.752 0.00 0.00 0.3140   9.650 9.890 9.970 9.890 9.980 7.661 7.537     0     0.1450 355.30 2.95   0.000 0.000 12.075 10.567 1.509 12.254 10.457 1.801
WS7MET_125 2018-09-29 19:50:00 125 30483.0 9.730 9.900 9.970 9.970 9.950 87.400 85.500 7.756 7.654 0.00 0.00 13.810 13.890 13.320 12.060 12.480 9.860 9.910 9.990 10.030 9.990 7.858 7.737 0.00 0.00 0.3660   9.580 9.890 9.970 9.890 9.920 7.578 7.597     0     0.1640 351.10 1.42   0.000 0.000 12.058 10.550 1.519 12.254 10.477 1.777
WS7MET_125 2018-09-29 19:45:00 125 30483.0 9.720 9.890 9.960 9.940 9.980 87.700 85.600 7.780 7.648 0.00 0.00 13.820 13.890 13.320 12.060 12.470 9.790 9.910 9.990 10.030 10.000 7.866 7.743 0.00 0.00 0.3850   9.650 9.870 9.950 9.860 9.950 7.691 7.551     0     0.3260 353.80 0.40   0.000 0.000 12.050 10.567 1.482 12.229 10.473 1.761
WS7MET_125 2018-09-29 19:40:00 125 30483.0 9.730 9.860 9.940 9.910 9.930 87.600 85.700 7.770 7.644 0.00 0.00 13.820 13.890 13.320 12.060 12.460 9.790 9.870 9.950 9.960 9.950 7.848 7.711 0.00 0.00 0.3200   9.650 9.860 9.930 9.820 9.910 7.680 7.553     0     0.2780 349.60 4.65   0.000 0.000 12.058 10.560 1.495 12.205 10.470 1.745
WS7MET_125 2018-09-29 19:35:00 125 30483.0 9.730 9.860 9.950 9.920 9.920 87.100 85.400 7.703 7.601 0.00 0.00 13.830 13.890 13.320 12.060 12.440 9.820 9.870 9.950 9.990 9.950 7.780 7.658 0.00 0.00 0.3790   9.690 9.860 9.950 9.860 9.850 7.617 7.557     0     0.2730 336.20 3.24   0.000 0.000 12.058 10.512 1.556 12.213 10.439 1.783
WS7MET_125 2018-09-29 19:30:00 125 30483.0 9.800 9.900 9.990 10.020 9.910 86.800 84.900 7.715 7.605 0.00 0.00 13.830 13.890 13.320 12.060 12.510 9.930 9.950 10.040 10.160 9.990 7.829 7.690 0.00 0.00 0.4180   9.720 9.870 9.950 9.930 9.840 7.644 7.536     0     0.2800 341.10 0.87   0.000 0.000 12.115 10.521 1.599 12.295 10.442 1.857
WS7MET_125 2018-09-29 19:25:00 125 30483.0 9.850 9.980 10.070 10.100 10.010 86.500 84.500 7.704 7.605 0.00 0.00 13.830 13.890 13.320 12.060 12.470 9.960 10.010 10.090 10.160 10.060 7.810 7.683 0.00 0.00 0.3140   9.720 9.950 10.040 10.030 9.970 7.575 7.537     0     0.1270 333.70 3.16   0.000 0.000 12.156 10.513 1.641 12.361 10.442 1.916
WS7MET_125 2018-09-29 19:20:00 125 30483.0 9.900 10.020 10.120 10.140 10.100 86.400 84.300 7.735 7.620 0.00 0.00 13.830 13.890 13.320 12.060 12.460 9.960 10.050 10.130 10.200 10.150 7.798 7.681 0.00 0.00 0.0000   9.820 10.010 10.090 10.060 10.000 7.669 7.529     0     0.0000 0.00 0.00   0.000 0.000 12.197 10.535 1.659 12.394 10.453 1.946
WS7MET_125 2018-09-29 19:15:00 125 30483.0 9.960 10.060 10.150 10.160 10.130 86.000 84.000 7.739 7.592 0.00 0.00 13.830 13.890 13.320 12.060 12.450 10.030 10.090 10.160 10.270 10.150 7.838 7.725 0.00 0.00 0.2160   9.860 10.050 10.130 10.060 10.110 7.643 7.524     0     0.0840 340.40 0.05   0.000 0.000 12.246 10.538 1.714 12.411 10.433 1.986
WS7MET_125 2018-09-29 19:10:00 125 30483.0 9.990 10.100 10.170 10.190 10.130 85.600 83.800 7.700 7.587 0.00 0.00 13.830 13.900 13.320 12.060 12.500 10.060 10.130 10.190 10.230 10.160 7.771 7.666 0.00 0.00 0.3140   9.890 10.080 10.170 10.090 10.100 7.591 7.514     0     0.1990 339.20 2.39   0.000 0.000 12.271 10.510 1.767 12.436 10.429 2.015
WS7MET_125 2018-09-29 19:05:00 125 30483.0 10.030 10.170 10.240 10.270 10.190 85.500 83.500 7.718 7.601 0.00 0.00 13.830 13.900 13.320 12.060 12.490 10.200 10.190 10.270 10.370 10.280 7.882 7.706 0.00 0.00 0.5160   9.960 10.130 10.190 10.200 10.090 7.636 7.532     0     0.3030 336.00 2.99   0.000 0.000 12.303 10.523 1.784 12.503 10.439 2.063
WS7MET_125 2018-09-29 19:00:00 125 30483.0 10.030 10.170 10.260 10.240 10.250 85.400 83.500 7.707 7.576 0.00 0.00 13.830 13.900 13.320 12.060 12.520 10.060 10.190 10.270 10.300 10.300 7.760 7.682 0.00 0.00 0.3850   9.930 10.160 10.240 10.130 10.190 7.606 7.471     0     0.2880 335.10 3.22   0.000 0.000 12.303 10.515 1.796 12.478 10.421 2.059
WS7MET_125 2018-09-29 18:55:00 125 30483.0 10.080 10.210 10.290 10.310 10.250 85.200 83.000 7.719 7.556 0.00 0.00 13.830 13.900 13.320 12.060 12.490 10.160 10.260 10.330 10.400 10.340 7.823 7.635 0.00 0.00 0.4900   9.960 10.170 10.250 10.200 10.190 7.598 7.477     0     0.3660 341.50 0.23   0.000 0.000 12.345 10.523 1.827 12.536 10.407 2.131
WS7MET_125 2018-09-29 18:50:00 125 30483.0 10.120 10.270 10.340 10.320 10.340 84.700 82.600 7.681 7.507 0.00 0.00 13.830 13.900 13.310 12.060 12.530 10.200 10.290 10.350 10.400 10.360 7.782 7.623 0.00 0.00 0.4570   10.060 10.260 10.330 10.200 10.320 7.594 7.351     0     0.2840 328.60 5.09   0.000 0.000 12.378 10.496 1.894 12.545 10.372 2.183
WS7MET_125 2018-09-29 18:45:00 125 30483.0 10.150 10.290 10.360 10.330 10.320 85.200 83.200 7.785 7.618 0.00 0.00 13.830 13.900 13.320 12.060 12.540 10.370 10.310 10.370 10.400 10.360 8.000 7.732 0.00 0.00 0.3460   10.030 10.290 10.350 10.270 10.290 7.657 7.448     0     0.2490 325.20 0.37   0.000 0.000 12.403 10.571 1.836 12.553 10.451 2.109
WS7MET_125 2018-09-29 18:40:00 125 30483.0 10.100 10.300 10.380 10.340 10.370 85.700 83.500 7.817 7.671 0.00 0.00 13.840 13.910 13.310 12.060 12.530 10.160 10.320 10.390 10.400 10.410 7.955 7.735 0.00 0.00 0.4250   9.960 10.290 10.370 10.230 10.330 7.681 7.574     0     0.3130 328.20 1.30   0.000 0.000 12.361 10.594 1.768 12.561 10.489 2.073
WS7MET_125 2018-09-29 18:35:00 125 30483.0 9.990 10.240 10.320 10.270 10.360 86.600 84.100 7.873 7.715 0.00 0.00 13.840 13.910 13.320 12.060 12.530 10.160 10.290 10.360 10.330 10.400 8.000 7.816 0.00 0.00 0.5100   9.850 10.190 10.280 10.190 10.330 7.789 7.627     0     0.3750 329.40 3.31   0.000 0.000 12.271 10.635 1.644 12.503 10.521 1.988
WS7MET_125 2018-09-29 18:30:00 125 30483.0 9.900 10.140 10.220 10.190 10.260 87.200 84.800 7.882 7.760 0.00 0.00 13.840 13.910 13.320 12.050 12.550 9.990 10.190 10.270 10.370 10.340 7.973 7.910 0.00 0.00 0.4510   9.680 10.090 10.180 10.090 10.190 7.686 7.669     0     0.3540 334.10 8.28   0.000 0.000 12.197 10.641 1.561 12.436 10.553 1.890
WS7MET_125 2018-09-29 18:25:00 125 30483.0 9.850 10.080 10.170 10.130 10.180 87.400 85.100 7.866 7.746 0.00 0.00 13.840 13.910 13.310 12.050 12.550 9.920 10.080 10.180 10.230 10.220 7.949 7.827 0.00 0.00 0.4570   9.780 10.060 10.160 10.060 10.130 7.787 7.687     0     0.3250 335.40 9.13   0.000 0.000 12.156 10.629 1.532 12.386 10.543 1.846
WS7MET_125 2018-09-29 18:20:00 125 30483.0 9.810 10.030 10.130 10.110 10.180 87.500 85.000 7.835 7.709 0.00 0.00 13.840 13.910 13.310 12.050 12.590 9.950 10.050 10.140 10.190 10.210 7.988 7.810 0.00 0.00 0.3460   9.720 10.010 10.100 10.020 10.120 7.758 7.609     0     0.2570 344.10 10.89   0.000 0.000 12.123 10.607 1.515 12.370 10.516 1.855
WS7MET_125 2018-09-29 18:15:00 125 30483.0 9.710 9.970 10.080 10.060 10.110 87.700 85.000 7.776 7.661 0.00 0.00 13.840 13.910 13.310 12.050 12.540 9.850 10.010 10.100 10.160 10.150 7.877 7.788 0.00 0.00 0.4770   9.540 9.920 10.060 9.950 10.080 7.675 7.558     0     0.3220 333.90 15.15   0.000 0.000 12.042 10.564 1.481 12.328 10.482 1.849
WS7MET_125 2018-09-29 18:10:00 125 30483.0 9.580 9.830 9.960 9.950 10.120 88.400 85.400 7.759 7.622 0.00 0.00 13.840 13.910 13.310 12.050 12.560 9.920 9.920 10.040 10.060 10.190 8.090 7.705 0.00 0.00 0.4700   9.480 9.760 9.880 9.780 10.040 7.660 7.514     0     0.3260 338.80 5.46   0.000 0.000 11.937 10.552 1.385 12.238 10.454 1.787
WS7MET_125 2018-09-29 18:05:00 125 30483.0 9.430 9.660 9.780 9.760 9.890 88.600 86.000 7.648 7.539 0.00 0.00 13.840 13.910 13.310 12.050 12.610 9.510 9.740 9.860 9.850 10.030 7.743 7.615 0.00 0.00 0.4180   9.270 9.600 9.700 9.650 9.780 7.463 7.442     0     0.3220 338.00 4.46   0.000 0.000 11.818 10.473 1.347 12.083 10.395 1.692
WS7MET_125 2018-09-29 18:00:00 125 30483.0 9.400 9.540 9.650 9.650 9.680 88.300 86.100 7.573 7.451 0.00 0.00 13.840 13.910 13.310 12.050 12.580 9.470 9.600 9.700 9.710 9.760 7.657 7.520 0.00 0.00 0.4770   9.270 9.520 9.620 9.580 9.640 7.455 7.385     0     0.3160 336.40 9.09   0.000 0.000 11.794 10.419 1.380 11.994 10.332 1.667
WS7MET_125 2018-09-29 17:55:00 125 30483.0 9.410 9.500 9.600 9.640 9.610 88.400 86.400 7.595 7.498 1.07 0.00 13.840 13.910 13.300 12.050 12.580 9.510 9.520 9.620 9.710 9.680 7.707 7.588 1.34 0.00 0.5490   9.340 9.480 9.580 9.580 9.560 7.509 7.396     0     0.3950 343.40 9.05   0.000 0.000 11.802 10.435 1.369 11.986 10.366 1.630
WS7MET_125 2018-09-29 17:50:00 125 30483.0 9.510 9.550 9.650 9.740 9.480 87.800 85.900 7.595 7.502 2.01 0.00 13.830 13.910 13.300 12.050 12.610 9.610 9.640 9.750 9.880 9.580 7.676 7.568 2.68 0.00 0.4180   9.400 9.480 9.590 9.640 9.440 7.514 7.398     0     0.1130 335.90 3.44   0.000 0.000 11.881 10.435 1.450 12.066 10.369 1.701
WS7MET_125 2018-09-29 17:45:00 125 30483.0 9.660 9.730 9.840 9.920 9.760 87.300 85.400 7.650 7.586 2.68 0.00 13.830 13.910 13.300 12.050 12.620 9.780 9.790 9.890 10.050 9.850 7.768 7.688 2.68 0.00 0.4830   9.570 9.650 9.770 9.810 9.610 7.554 7.477     0     0.3540 330.90 5.74   0.000 0.000 12.002 10.474 1.524 12.213 10.428 1.783
WS7MET_125 2018-09-29 17:40:00 125 30483.0 9.800 9.860 9.950 10.020 9.870 86.900 85.400 7.740 7.703 3.56 0.00 13.830 13.910 13.300 12.050 12.620 9.920 9.930 10.030 10.120 9.950 7.886 7.820 4.03 0.00 0.3850   9.710 9.810 9.910 9.920 9.790 7.648 7.593     0     0.3090 321.20 5.36   0.000 0.000 12.115 10.539 1.587 12.295 10.512 1.795
WS7MET_125 2018-09-29 17:35:00 125 30483.0 10.030 10.010 10.090 10.190 10.050 86.900 85.500 7.963 7.868 4.03 0.00 13.830 13.910 13.300 12.050 12.660 10.190 10.050 10.130 10.290 10.110 8.160 7.957 4.03 0.00 0.4830   9.910 9.950 10.030 10.120 9.970 7.863 7.784     0     0.2760 346.60 12.30   0.000 0.000 12.303 10.700 1.612 12.436 10.631 1.803
WS7MET_125 2018-09-29 17:30:00 125 30483.0 10.210 10.150 10.230 10.330 10.020 86.600 85.400 8.080 8.000 4.03 0.00 13.830 13.910 13.300 12.050 12.650 10.330 10.250 10.340 10.500 10.060 8.200 8.090 4.03 0.00 0.3270   10.120 10.070 10.140 10.220 9.980 8.000 7.943     0     0.1750 12.46 9.37   0.000 0.000 12.453 10.786 1.669 12.553 10.727 1.833
WS7MET_125 2018-09-29 17:25:00 125 30483.0 10.470 10.410 10.490 10.570 10.230 86.000 84.700 8.240 8.120 5.91 0.13 13.830 13.910 13.300 12.050 12.710 10.560 10.520 10.610 10.700 10.390 8.340 8.230 8.05 1.34 0.3850   10.330 10.270 10.360 10.460 9.990 8.110 8.010     0     0.1540 344.00 8.92   0.000 0.000 12.671 10.904 1.774 12.756 10.815 1.952
WS7MET_125 2018-09-29 17:20:00 125 30483.0 10.650 10.630 10.720 10.820 10.450 84.900 83.400 8.230 8.130 9.73 1.34 13.830 13.920 13.300 12.050 12.710 10.900 10.760 10.860 10.940 10.510 8.370 8.270 10.74 1.34 0.3200   10.530 10.540 10.620 10.700 10.410 8.000 7.975     0     0.1530 332.50 19.16   0.000 0.000 12.824 10.896 1.936 12.970 10.822 2.153
WS7MET_125 2018-09-29 17:15:00 125 30483.0 10.820 10.870 10.960 10.980 10.730 83.900 82.300 8.210 8.100 13.15 1.68 13.830 13.920 13.300 12.050 12.710 11.010 10.960 11.040 11.070 10.920 8.480 8.340 16.11 2.68 0.2290   10.670 10.780 10.860 10.840 10.530 8.030 7.930     0     0.0220 299.90 0.44   0.000 0.000 12.970 10.881 2.088 13.109 10.800 2.320
WS7MET_125 2018-09-29 17:10:00 125 30483.0 10.990 11.010 11.090 11.090 10.940 84.200 82.800 8.440 8.290 20.40 3.15 13.830 13.920 13.300 12.050 12.740 11.070 11.050 11.140 11.210 10.980 8.520 8.430 22.82 4.03 0.4570   10.870 10.960 11.040 11.010 10.910 8.290 8.180     0     0.0800 59.22 18.67   0.000 0.000 13.117 11.053 2.073 13.205 10.941 2.271
WS7MET_125 2018-09-29 17:05:00 125 30483.0 11.110 11.110 11.190 11.180 10.980 84.100 82.600 8.540 8.330 19.59 3.09 13.830 13.920 13.300 12.050 12.780 11.210 11.160 11.250 11.250 10.990 8.640 8.510 22.82 4.03 0.6470   10.970 11.060 11.140 11.040 10.940 8.370 7.896     0     0.1540 49.64 33.19   0.000 0.000 13.222 11.128 2.102 13.284 10.970 2.311
WS7MET_125 2018-09-29 17:00:00 125 30483.0 11.240 11.220 11.310 11.290 11.060 83.600 82.000 8.570 8.340 9.53 1.07 13.830 13.920 13.300 12.050 12.750 11.350 11.290 11.390 11.380 11.100 8.710 8.450 12.08 1.34 0.2220   11.040 11.160 11.270 11.210 11.020 8.370 8.240     0     0.0280 53.52 21.40   0.000 0.000 13.337 11.151 2.187 13.381 10.978 2.409
WS7MET_125 2018-09-29 16:55:00 125 30483.0 11.380 11.380 11.460 11.420 11.180 82.600 81.200 8.540 8.330 7.65 0.00 13.830 13.920 13.300 12.050 12.790 11.590 11.450 11.510 11.520 11.210 8.920 8.460 8.05 0.00 0.2480   11.250 11.300 11.390 11.310 11.120 8.340 8.180     0     0.0480 159.50 0.84   0.000 0.000 13.461 11.128 2.342 13.497 10.970 2.537
WS7MET_125 2018-09-29 16:50:00 125 30483.0 11.470 11.500 11.580 11.510 11.290 82.500 81.300 8.600 8.440 8.72 0.87 13.830 13.930 13.300 12.050 12.790 11.650 11.550 11.610 11.620 11.400 8.730 8.610 10.74 1.34 0.0000   11.310 11.450 11.530 11.420 11.170 8.460 8.230     0     0.0000 0.00 0.00   0.000 0.000 13.542 11.173 2.370 13.578 11.053 2.539
WS7MET_125 2018-09-29 16:45:00 125 30483.0 11.520 11.570 11.640 11.560 11.400 81.900 80.800 8.550 8.400 14.90 2.01 13.830 13.930 13.300 12.050 12.850 11.620 11.570 11.670 11.650 11.450 8.830 8.640 17.45 2.68 0.0000   11.420 11.540 11.610 11.480 11.370 8.380 8.170     0     0.0000 0.00 0.00   0.000 0.000 13.587 11.135 2.459 13.623 11.023 2.616
WS7MET_125 2018-09-29 16:40:00 125 30483.0 11.560 11.590 11.680 11.590 11.430 82.700 81.100 8.730 8.470 21.07 3.02 13.830 13.930 13.300 12.050 12.900 11.690 11.630 11.720 11.720 11.450 8.850 8.540 24.16 4.03 0.3590   11.450 11.570 11.650 11.520 11.410 8.570 8.360     0     0.0620 87.70 7.96   0.000 0.000 13.623 11.272 2.357 13.650 11.075 2.580
WS7MET_125 2018-09-29 16:35:00 125 30483.0 11.620 11.670 11.760 11.630 11.480 81.000 80.300 8.480 8.370 23.49 3.83 13.830 13.930 13.310 12.050 12.900 11.790 11.700 11.780 11.690 11.530 8.680 8.500 24.16 4.03 0.0000   11.480 11.650 11.720 11.550 11.420 8.280 8.210     0     0.0000 0.00 0.00   0.000 0.000 13.677 11.083 2.599 13.686 11.000 2.696
WS7MET_125 2018-09-29 16:30:00 125 30483.0 11.650 11.690 11.780 11.640 11.430 80.900 80.200 8.490 8.340 25.77 4.03 13.830 13.930 13.300 12.060 12.940 11.790 11.720 11.800 11.720 11.470 8.650 8.490 28.19 4.03 0.0000   11.550 11.680 11.760 11.590 11.400 8.300 8.230     0     0.0000 0.00 0.00   0.000 0.000 13.704 11.090 2.617 13.695 10.978 2.712
WS7MET_125 2018-09-29 16:25:00 125 30483.0 11.750 11.740 11.820 11.670 11.470 80.700 79.930 8.540 8.330 29.39 4.30 13.830 13.930 13.300 12.050 12.970 11.890 11.790 11.860 11.760 11.560 8.680 8.410 42.95 6.71 0.2550   11.590 11.720 11.800 11.590 11.420 8.370 8.230     0     0.0330 93.40 0.07   0.000 0.000 13.795 11.128 2.662 13.722 10.970 2.754
WS7MET_125 2018-09-29 16:20:00 125 30483.0 11.890 11.850 11.910 11.770 11.420 81.300 79.260 8.800 8.310 48.39 7.32 13.830 13.940 13.300 12.050 12.980 11.960 11.890 11.960 11.930 11.470 8.900 8.430 49.66 8.05 0.0000   11.790 11.790 11.870 11.690 11.390 8.630 8.180     0     0.0000 0.00 0.00   0.000 0.000 13.923 11.326 2.604 13.813 10.956 2.865
WS7MET_125 2018-09-29 16:15:00 125 30483.0 11.990 11.960 11.990 11.880 11.530 79.120 78.710 8.500 8.310 45.84 6.71 13.830 13.940 13.300 12.060 13.030 12.230 12.030 12.070 12.000 11.550 8.830 8.430 48.32 6.71 0.0000   11.860 11.900 11.960 11.760 11.480 8.360 8.190     0     0.0000 0.00 0.00   0.000 0.000 14.015 11.098 2.926 13.914 10.956 2.962
WS7MET_125 2018-09-29 16:10:00 125 30483.0 12.070 12.140 12.200 12.030 11.590 78.890 77.900 8.530 8.300 52.55 8.05 13.830 13.940 13.300 12.060 13.070 12.170 12.230 12.310 12.130 11.710 8.840 8.450 59.06 9.40 0.2610   11.930 12.050 12.080 11.930 11.500 8.350 8.130     0     0.0390 30.00 17.29   0.000 0.000 14.089 11.120 2.974 14.052 10.948 3.106
WS7MET_125 2018-09-29 16:05:00 125 30483.0 12.270 12.330 12.380 12.140 11.880 78.310 78.090 8.610 8.450 76.84 12.42 13.830 13.950 13.300 12.060 13.140 12.370 12.400 12.440 12.300 12.140 8.910 8.670 92.60 14.76 0.3010   12.130 12.230 12.300 12.030 11.670 8.300 8.150     0     0.0260 17.42 9.74   0.000 0.000 14.276 11.181 3.096 14.154 11.060 3.101
WS7MET_125 2018-09-29 16:00:00 125 30483.0 12.210 12.240 12.290 12.010 11.890 79.310 79.010 8.750 8.490 87.60 14.29 13.830 13.950 13.300 12.060 13.190 12.470 12.320 12.370 12.060 12.080 9.190 8.690 92.60 16.11 0.3070   12.130 12.180 12.220 11.890 11.690 8.330 8.300     0     0.0260 229.80 30.77   0.000 0.000 14.220 11.287 2.942 14.034 11.090 2.946
WS7MET_125 2018-09-29 15:55:00 125 30483.0 12.210 12.170 12.250 11.970 11.720 78.110 78.030 8.520 8.270 95.60 15.77 13.830 13.950 13.300 12.060 13.160 12.370 12.190 12.290 12.060 11.890 8.810 8.570 98.00 16.11 0.7450   12.100 12.100 12.210 11.890 11.600 8.220 8.080     0     0.2210 148.20 60.36   0.000 0.000 14.220 11.113 3.113 13.997 10.926 3.075
WS7MET_125 2018-09-29 15:50:00 125 30483.0 12.130 12.020 12.230 11.930 11.710 79.520 78.510 8.700 8.320 87.20 13.83 13.830 13.950 13.300 12.060 13.170 12.200 12.080 12.250 11.960 11.850 8.810 8.510 96.60 16.11 0.5030   12.000 11.980 12.210 11.860 11.610 8.530 8.160     0     0.1570 205.00 20.26   0.000 0.000 14.145 11.249 2.897 13.960 10.963 3.000
WS7MET_125 2018-09-29 15:45:00 125 30483.0 12.170 12.040 12.290 11.980 11.630 78.670 77.250 8.590 8.140 88.90 13.56 13.830 13.960 13.300 12.060 13.220 12.300 12.110 12.400 12.130 11.740 8.970 8.450 91.30 14.77 1.1890   11.960 11.980 12.230 11.890 11.590 8.300 7.958     0     0.2920 177.90 18.56   0.000 0.000 14.182 11.166 3.025 14.006 10.830 3.186
WS7MET_125 2018-09-29 15:40:00 125 30483.0 12.260 12.180 12.510 12.180 11.620 78.760 76.550 8.690 8.190 114.50 18.59 13.830 13.950 13.300 12.060 13.280 12.340 12.220 12.580 12.340 11.670 8.940 8.300 135.60 22.82 0.7250   12.170 12.090 12.400 12.070 11.570 8.450 8.080     0     0.2960 191.00 19.57   0.000 0.000 14.267 11.242 3.030 14.192 10.867 3.328
WS7MET_125 2018-09-29 15:35:00 125 30483.0 12.260 12.280 12.720 12.310 11.710 77.150 75.660 8.390 8.150 87.80 12.35 13.830 13.950 13.290 12.060 13.230 12.440 12.330 12.800 12.410 11.810 8.640 8.340 127.50 20.13 0.6470   12.130 12.230 12.590 12.200 11.650 8.210 8.010     0     0.0800 156.00 11.92   0.000 0.000 14.267 11.015 3.260 14.314 10.837 3.484
WS7MET_125 2018-09-29 15:30:00 125 30483.0 12.060 12.190 12.600 12.260 11.670 79.410 76.070 8.610 8.170 243.40 42.48 13.830 13.950 13.290 12.060 13.380 12.340 12.280 12.800 12.410 11.810 8.780 8.480 369.10 71.14 0.8230   11.720 12.020 12.240 12.060 11.630 8.420 7.991     0     0.3250 163.80 30.02   0.000 0.000 14.080 11.181 2.899 14.267 10.852 3.414
WS7MET_125 2018-09-29 15:25:00 125 30483.0 11.500 11.790 11.890 11.640 11.500 82.900 79.500 8.710 8.220 217.70 41.14 13.830 13.950 13.290 12.060 13.270 11.720 11.990 12.170 11.960 11.620 8.860 8.400 326.20 75.17 0.3400   11.280 11.650 11.740 11.450 11.410 8.520 8.110     0     0.0610 196.40 4.06   0.000 0.000 13.569 11.257 2.320 13.695 10.889 2.807
WS7MET_125 2018-09-29 15:20:00 125 30483.0 11.220 11.490 11.590 11.390 11.260 82.500 80.700 8.370 8.200 115.40 18.93 13.840 13.950 13.290 12.060 13.020 11.310 11.640 11.720 11.520 11.460 8.750 8.390 138.30 22.82 0.2870   11.110 11.390 11.500 11.280 11.130 8.200 8.040     0     0.0340 227.00 5.85   0.000 0.000 13.319 11.000 2.331 13.470 10.874 2.600
WS7MET_125 2018-09-29 15:15:00 125 30483.0 11.040 11.250 11.360 11.140 11.070 84.100 81.500 8.470 8.100 105.10 16.78 13.830 13.950 13.290 12.060 13.000 11.250 11.370 11.500 11.250 11.220 8.740 8.230 107.40 17.45 0.0330   10.840 11.150 11.230 11.040 10.920 8.230 7.949     0     0.0020 173.30 0.99   0.000 0.000 13.161 11.075 2.093 13.249 10.800 2.451
WS7MET_125 2018-09-29 15:10:00 125 30483.0 10.910 11.090 11.170 11.040 10.870 84.200 82.500 8.360 8.190 94.00 15.37 13.840 13.950 13.290 12.060 12.920 11.010 11.150 11.230 11.210 10.920 8.620 8.290 104.70 17.45 0.1570   10.800 11.070 11.130 10.970 10.810 8.230 8.110     0     0.0080 66.81 0.00   0.000 0.000 13.048 10.993 2.062 13.161 10.867 2.303
WS7MET_125 2018-09-29 15:05:00 125 30483.0 10.950 11.090 11.170 11.000 10.820 83.500 82.400 8.270 8.130 52.69 7.85 13.840 13.960 13.290 12.060 12.850 11.040 11.130 11.210 11.080 10.890 8.500 8.200 68.46 10.74 0.2220   10.840 11.070 11.130 10.870 10.780 8.080 8.030     0     0.0280 59.41 1.03   0.000 0.000 13.083 10.926 2.159 13.126 10.822 2.310
WS7MET_125 2018-09-29 15:00:00 125 30483.0 10.980 11.120 11.200 11.010 10.890 84.300 82.400 8.450 8.140 38.79 5.50 13.840 13.960 13.290 12.060 12.870 11.140 11.130 11.210 11.080 10.960 8.650 8.240 45.64 6.71 0.0000   10.870 11.110 11.190 10.940 10.820 8.310 8.060     0     0.0000 0.00 0.00   0.000 0.000 13.109 11.060 2.058 13.135 10.830 2.312
WS7MET_125 2018-09-29 14:55:00 125 30483.0 10.990 11.100 11.180 11.020 10.820 83.600 82.300 8.320 8.130 50.94 7.65 13.840 13.970 13.290 12.060 12.890 11.080 11.110 11.190 11.080 10.910 8.560 8.230 53.69 8.05 0.2870   10.870 11.090 11.170 10.940 10.770 8.100 8.070     0     0.0210 102.50 3.41   0.000 0.000 13.117 10.963 2.151 13.144 10.822 2.326
WS7MET_125 2018-09-29 14:50:00 125 30483.0 11.030 11.130 11.210 11.020 10.880 83.800 82.100 8.410 8.100 46.38 6.64 13.840 13.970 13.290 12.060 12.900 11.080 11.150 11.230 11.110 10.900 8.550 8.170 52.35 8.05 0.1760   10.970 11.110 11.190 10.940 10.840 8.210 8.030     0     0.0280 97.00 2.89   0.000 0.000 13.152 11.030 2.131 13.144 10.800 2.353
WS7MET_125 2018-09-29 14:45:00 125 30483.0 11.020 11.150 11.190 11.000 10.810 83.700 82.500 8.370 8.140 51.21 7.45 13.840 13.970 13.290 12.060 12.910 11.110 11.170 11.210 11.080 10.850 8.570 8.230 57.72 9.40 0.1960   10.940 11.140 11.170 10.940 10.760 8.260 8.050     0     0.0350 89.00 0.20   0.000 0.000 13.144 11.000 2.142 13.126 10.830 2.297
WS7MET_125 2018-09-29 14:40:00 125 30483.0 10.960 11.090 11.120 11.000 10.860 84.400 82.400 8.440 8.130 65.64 10.07 13.840 13.970 13.290 12.060 12.960 11.110 11.150 11.170 11.080 10.920 8.620 8.220 75.17 12.08 0.0390   10.840 11.050 11.070 10.940 10.800 8.290 8.060     0     0.0060 84.10 2.40   0.000 0.000 13.091 11.053 2.042 13.126 10.822 2.310
WS7MET_125 2018-09-29 14:35:00 125 30483.0 10.940 10.980 11.040 10.960 10.770 83.600 82.100 8.280 8.040 73.22 11.48 13.840 13.970 13.290 12.060 12.920 11.040 11.040 11.070 11.040 10.910 8.570 8.160 77.85 12.08 0.5290   10.870 10.950 11.010 10.900 10.650 8.050 7.942     0     0.2060 30.83 19.50   0.000 0.000 13.074 10.933 2.144 13.091 10.756 2.343
WS7MET_125 2018-09-29 14:30:00 125 30483.0 11.010 11.030 11.120 11.020 10.700 82.900 81.900 8.230 8.070 51.07 7.38 13.840 13.970 13.290 12.060 12.890 11.210 11.080 11.190 11.080 10.740 8.370 8.170 56.38 8.05 0.4440   10.840 10.990 11.060 10.940 10.640 7.986 7.920     0     0.1290 63.08 18.55   0.000 0.000 13.135 10.896 2.246 13.144 10.778 2.379
WS7MET_125 2018-09-29 14:25:00 125 30483.0 11.080 11.120 11.220 11.090 10.730 82.400 81.600 8.200 8.060 53.62 8.05 13.840 13.980 13.290 12.060 12.920 11.140 11.200 11.290 11.180 10.850 8.470 8.190 55.03 8.05 0.1370   10.940 11.090 11.190 11.010 10.650 7.957 7.915     0     0.0110 277.00 9.96   0.000 0.000 13.196 10.874 2.323 13.205 10.771 2.430
WS7MET_125 2018-09-29 14:20:00 125 30483.0 11.190 11.190 11.270 11.100 10.960 82.800 82.000 8.390 8.150 52.42 7.78 13.840 13.980 13.290 12.060 12.900 11.280 11.200 11.290 11.140 11.090 8.630 8.310 53.69 8.05 0.4380   11.080 11.170 11.260 11.040 10.790 8.260 7.986     0     0.0970 77.73 11.16   0.000 0.000 13.293 11.015 2.286 13.214 10.837 2.378
WS7MET_125 2018-09-29 14:15:00 125 30483.0 11.220 11.200 11.320 11.120 10.950 83.100 81.800 8.470 8.140 50.87 7.58 13.840 13.980 13.290 12.060 12.900 11.320 11.250 11.350 11.250 11.100 8.630 8.320 52.35 8.05 0.5100   11.110 11.170 11.290 11.010 10.890 8.300 8.010     0     0.1940 124.70 21.61   0.000 0.000 13.319 11.075 2.251 13.231 10.830 2.408
WS7MET_125 2018-09-29 14:10:00 125 30483.0 11.320 11.320 11.410 11.210 10.960 82.500 81.300 8.460 8.140 48.39 6.71 13.840 13.980 13.290 12.060 12.980 11.550 11.410 11.500 11.320 11.050 8.850 8.230 49.66 6.71 0.9470   11.250 11.250 11.350 11.080 10.900 8.250 7.994     0     0.2980 217.60 37.02   0.000 0.000 13.408 11.068 2.346 13.310 10.830 2.489
WS7MET_125 2018-09-29 14:05:00 125 30483.0 11.380 11.450 11.530 11.290 11.030 82.100 81.100 8.440 8.190 54.30 8.12 13.840 13.990 13.290 12.060 13.020 11.590 11.500 11.580 11.350 11.160 8.590 8.310 60.40 9.40 0.1180   11.250 11.410 11.500 11.210 10.930 8.270 8.060     0     0.0120 114.10 11.48   0.000 0.000 13.461 11.053 2.410 13.381 10.867 2.529
WS7MET_125 2018-09-29 14:00:00 125 30483.0 11.350 11.530 11.600 11.340 11.150 82.800 81.100 8.540 8.220 68.79 10.74 13.840 13.990 13.290 12.060 13.000 11.450 11.550 11.620 11.380 11.330 8.700 8.280 75.17 12.08 0.0000   11.250 11.500 11.580 11.280 11.030 8.350 8.120     0     0.0000 0.00 0.00   0.000 0.000 13.435 11.128 2.311 13.426 10.889 2.537
WS7MET_125 2018-09-29 13:55:00 125 30483.0 11.220 11.400 11.460 11.240 11.180 83.300 81.500 8.500 8.210 80.80 12.75 13.840 14.000 13.290 12.060 13.010 11.310 11.500 11.570 11.350 11.320 8.690 8.340 94.00 14.77 0.1630   11.070 11.330 11.350 11.140 11.000 8.310 8.100     0     0.0210 143.90 36.09   0.000 0.000 13.319 11.098 2.224 13.337 10.881 2.467
WS7MET_125 2018-09-29 13:50:00 125 30483.0 11.150 11.300 11.320 11.170 11.030 82.700 81.600 8.320 8.150 117.90 19.73 13.840 14.000 13.290 12.060 13.060 11.280 11.350 11.370 11.250 11.180 8.460 8.320 126.20 21.48 0.3920   11.040 11.250 11.270 11.070 10.950 8.150 8.030     0     0.1340 80.30 15.73   0.000 0.000 13.258 10.963 2.294 13.275 10.837 2.443
WS7MET_125 2018-09-29 13:45:00 125 30483.0 11.050 11.250 11.280 11.080 11.010 83.600 81.500 8.390 8.060 115.80 19.53 13.840 14.000 13.290 12.060 13.070 11.180 11.270 11.290 11.180 11.040 8.610 8.190 120.80 20.14 0.8300   10.840 11.190 11.230 10.940 10.990 8.230 7.871     0     0.4700 115.00 14.19   0.000 0.000 13.170 11.015 2.160 13.196 10.771 2.441
WS7MET_125 2018-09-29 13:40:00 125 30483.0 10.910 11.070 11.130 11.020 10.760 83.100 81.500 8.150 7.993 127.30 21.75 13.840 14.000 13.290 12.060 13.010 11.080 11.180 11.210 11.140 10.940 8.570 8.170 136.90 24.16 0.6140   10.800 11.010 11.070 10.940 10.640 7.961 7.871     0     0.2010 152.90 77.64   0.000 0.000 13.048 10.837 2.205 13.144 10.722 2.432
WS7MET_125 2018-09-29 13:35:00 125 30483.0 10.910 11.060 11.130 10.990 10.890 83.000 81.400 8.140 7.930 87.20 14.16 13.840 14.000 13.290 12.060 13.000 11.010 11.070 11.150 11.040 10.940 8.330 8.050 108.70 18.79 0.4440   10.770 11.040 11.110 10.900 10.830 7.949 7.838     0     0.2180 66.95 14.53   0.000 0.000 13.048 10.830 2.218 13.117 10.676 2.440
WS7MET_125 2018-09-29 13:30:00 125 30483.0 10.820 10.980 11.060 10.900 10.770 83.200 80.900 8.090 7.747 72.49 11.48 13.840 14.000 13.290 12.060 13.030 10.940 11.030 11.110 11.010 10.870 8.270 7.950 73.83 12.08 0.2810   10.730 10.930 11.000 10.840 10.720 7.898 7.655     0     0.0760 183.90 46.20   0.000 0.000 12.970 10.793 2.179 13.039 10.544 2.490
WS7MET_125 2018-09-29 13:25:00 125 30483.0 10.760 10.900 10.950 10.870 10.650 82.100 80.800 7.847 7.712 63.36 9.67 13.850 14.000 13.300 12.060 13.050 10.870 10.930 10.990 10.940 10.730 8.090 7.848 68.46 10.74 0.3010   10.630 10.870 10.910 10.800 10.570 7.675 7.609     0     0.0350 247.80 16.83   0.000 0.000 12.918 10.616 2.312 13.013 10.518 2.499
WS7MET_125 2018-09-29 13:20:00 125 30483.0 10.760 10.870 10.910 10.850 10.630 81.700 80.700 7.770 7.679 55.98 8.26 13.850 14.010 13.300 12.060 13.020 10.870 10.890 10.940 10.970 10.780 7.965 7.901 59.07 9.40 0.7450   10.670 10.840 10.890 10.770 10.540 7.572 7.504     0     0.3430 245.00 32.01   0.000 0.000 12.918 10.560 2.364 12.996 10.495 2.508
WS7MET_125 2018-09-29 13:15:00 125 30483.0 10.920 11.000 11.050 10.950 10.690 81.400 80.600 7.872 7.763 60.27 8.93 13.850 14.010 13.290 12.060 13.020 11.080 11.090 11.120 11.080 10.800 8.150 8.020 64.43 9.40 1.4630   10.800 10.930 10.950 10.870 10.600 7.622 7.476     0     0.5860 230.30 42.44   0.000 0.000 13.056 10.634 2.429 13.083 10.555 2.538
WS7MET_125 2018-09-29 13:10:00 125 30483.0 11.090 11.220 11.280 11.070 10.750 81.100 80.100 7.985 7.774 60.61 8.99 13.860 14.010 13.290 12.060 13.120 11.210 11.270 11.360 11.150 11.000 8.370 7.982 71.15 10.74 0.9800   10.940 11.090 11.130 10.940 10.600 7.727 7.641     0     0.5070 219.60 23.47   0.000 0.000 13.205 10.716 2.496 13.187 10.563 2.624
WS7MET_125 2018-09-29 13:05:00 125 30483.0 11.010 11.220 11.330 11.130 10.910 82.600 80.800 8.170 7.960 95.80 15.84 13.860 14.020 13.290 12.060 13.100 11.150 11.250 11.360 11.180 11.050 8.460 8.140 111.40 18.79 0.4830   10.840 11.170 11.300 11.040 10.770 7.902 7.848     0     0.0850 119.10 35.00   0.000 0.000 13.135 10.852 2.285 13.240 10.698 2.542
WS7MET_125 2018-09-29 13:00:00 125 30483.0 10.870 11.110 11.270 11.050 10.930 83.500 81.700 8.200 8.050 114.80 19.20 13.860 14.020 13.290 12.060 13.150 10.980 11.170 11.340 11.150 11.080 8.420 8.290 127.50 21.48 0.7120   10.770 10.990 11.150 10.910 10.820 8.010 7.929     0     0.1770 200.50 45.38   0.000 0.000 13.013 10.874 2.147 13.170 10.764 2.410
WS7MET_125 2018-09-29 12:55:00 125 30483.0 10.690 10.880 11.030 10.860 10.640 83.800 82.000 8.080 7.929 121.80 20.47 13.860 14.020 13.290 12.060 13.150 10.810 10.990 11.140 10.980 10.920 8.380 8.170 127.50 21.48 0.5030   10.570 10.830 10.970 10.770 10.500 7.819 7.745     0     0.1690 199.30 43.26   0.000 0.000 12.858 10.786 2.083 13.004 10.675 2.341
WS7MET_125 2018-09-29 12:50:00 125 30483.0 10.790 10.960 11.080 10.890 10.570 82.100 81.000 7.876 7.768 124.90 20.87 13.870 14.020 13.290 12.070 13.160 10.910 11.070 11.160 10.940 10.690 8.050 7.936 130.20 21.48 0.7320   10.670 10.850 10.990 10.800 10.510 7.655 7.640     0     0.2010 235.60 24.07   0.000 0.000 12.944 10.637 2.317 13.030 10.559 2.476
WS7MET_125 2018-09-29 12:45:00 125 30483.0 10.920 11.070 11.150 10.860 10.540 82.100 80.700 7.995 7.689 108.80 17.99 13.870 14.030 13.290 12.070 13.130 11.010 11.110 11.180 11.040 10.670 8.400 7.908 124.80 21.48 0.2480   10.840 11.030 11.110 10.770 10.380 7.752 7.596     0     0.0480 143.50 16.94   0.000 0.000 13.056 10.723 2.337 13.004 10.502 2.510
WS7MET_125 2018-09-29 12:40:00 125 30483.0 10.740 10.900 10.940 10.730 10.710 82.800 81.900 7.941 7.769 118.00 19.87 13.870 14.030 13.290 12.070 13.110 10.910 11.050 11.120 10.880 10.870 8.080 7.934 132.90 22.82 0.2610   10.640 10.720 10.750 10.570 10.450 7.797 7.541     0     0.0540 230.30 10.57   0.000 0.000 12.901 10.684 2.219 12.892 10.559 2.334
WS7MET_125 2018-09-29 12:35:00 125 30483.0 10.550 10.620 10.690 10.540 10.390 83.400 82.200 7.867 7.645 127.50 21.68 13.870 14.040 13.290 12.070 13.130 10.810 10.710 10.740 10.670 10.480 8.140 7.789 132.90 22.82 0.4640   10.400 10.490 10.580 10.430 10.260 7.692 7.525     0     0.1600 256.40 30.90   0.000 0.000 12.739 10.630 2.115 12.730 10.470 2.266
WS7MET_125 2018-09-29 12:30:00 125 30483.0 10.370 10.340 10.430 10.360 10.120 83.700 83.100 7.747 7.620 120.80 20.34 13.870 14.040 13.290 12.070 13.130 10.500 10.470 10.550 10.460 10.390 8.050 7.724 127.50 21.48 0.8170   10.260 10.250 10.350 10.290 9.950 7.531 7.527     0     0.2700 216.50 43.66   0.000 0.000 12.586 10.544 2.052 12.578 10.453 2.126
WS7MET_125 2018-09-29 12:25:00 125 30483.0 10.700 10.590 10.660 10.420 10.100 82.300 82.900 7.814 7.641 114.60 18.80 13.870 14.040 13.290 12.070 13.120 10.940 10.810 10.870 10.500 10.400 8.180 7.761 119.50 20.14 0.9340   10.430 10.350 10.450 10.300 9.900 7.627 7.468     0     0.5140 236.20 19.43   0.000 0.000 12.867 10.592 2.277 12.629 10.468 2.159
WS7MET_125 2018-09-29 12:20:00 125 30483.0 10.750 10.760 10.810 10.420 10.310 84.400 82.900 8.220 7.658 111.20 17.99 13.870 14.040 13.290 12.070 13.110 10.940 10.810 10.870 10.500 10.440 8.410 7.767 132.90 21.48 0.5290   10.600 10.690 10.730 10.300 10.220 8.080 7.574     0     0.1980 170.20 21.58   0.000 0.000 12.910 10.889 2.014 12.629 10.480 2.159
WS7MET_125 2018-09-29 12:15:00 125 30483.0 10.530 10.630 10.640 10.440 10.050 84.100 83.200 7.966 7.725 153.20 26.25 13.870 14.050 13.290 12.070 13.090 10.600 10.690 10.710 10.500 10.200 8.190 7.810 159.80 28.19 0.2290   10.430 10.570 10.590 10.360 9.840 7.755 7.619     0     0.0380 149.70 11.94   0.000 0.000 12.722 10.702 2.023 12.645 10.528 2.124
WS7MET_125 2018-09-29 12:10:00 125 30483.0 10.500 10.610 10.620 10.340 10.160 85.000 84.400 8.090 7.833 141.40 24.23 13.880 14.050 13.290 12.070 13.090 10.600 10.630 10.650 10.430 10.240 8.260 7.921 149.00 25.51 0.6790   10.360 10.590 10.590 10.260 10.100 7.996 7.764     0     0.3300 109.60 8.24   0.000 0.000 12.696 10.793 1.904 12.561 10.606 1.960
WS7MET_125 2018-09-29 12:05:00 125 30483.0 10.470 10.530 10.560 10.260 9.890 84.200 84.000 7.925 7.694 132.20 22.69 13.890 14.050 13.290 12.070 13.050 10.600 10.590 10.610 10.330 10.170 8.210 7.804 134.30 22.82 0.2810   10.360 10.490 10.510 10.190 9.770 7.803 7.598     0     0.0370 168.00 41.45   0.000 0.000 12.671 10.672 2.002 12.494 10.505 1.999
WS7MET_125 2018-09-29 12:00:00 125 30483.0 10.410 10.480 10.490 10.210 10.080 86.000 84.900 8.180 7.793 130.20 22.08 13.890 14.050 13.290 12.070 13.030 10.530 10.570 10.580 10.330 10.180 8.310 8.010 132.90 22.82 0.3010   10.300 10.370 10.410 10.120 10.020 7.917 7.636     0     0.0630 162.10 9.80   0.000 0.000 12.620 10.859 1.767 12.453 10.577 1.880
WS7MET_125 2018-09-29 11:55:00 125 30483.0 10.350 10.310 10.330 10.100 9.990 86.200 85.900 8.160 7.862 123.40 20.81 13.890 14.050 13.290 12.070 13.010 10.430 10.360 10.390 10.190 10.090 8.340 8.020 128.90 21.48 0.6400   10.230 10.290 10.300 9.960 9.950 8.020 7.712     0     0.2810 106.30 23.37   0.000 0.000 12.570 10.844 1.735 12.361 10.627 1.743
WS7MET_125 2018-09-29 11:50:00 125 30483.0 10.410 10.370 10.390 10.110 9.980 86.700 86.100 8.290 7.899 111.50 18.39 13.890 14.050 13.280 12.070 12.970 10.530 10.410 10.410 10.230 10.030 8.410 8.020 115.50 18.80 0.5620   10.300 10.330 10.370 10.020 9.930 8.090 7.837     0     0.2470 118.10 20.07   0.000 0.000 12.620 10.941 1.678 12.370 10.653 1.719
WS7MET_125 2018-09-29 11:45:00 125 30483.0 10.310 10.380 10.380 10.070 10.090 87.300 86.200 8.300 7.876 101.40 16.78 13.890 14.060 13.280 12.060 12.960 10.500 10.410 10.420 10.130 10.280 8.510 7.999 106.10 17.45 0.5030   10.160 10.310 10.350 9.960 9.970 8.130 7.736     0     0.1990 123.70 34.70   0.000 0.000 12.536 10.948 1.592 12.336 10.637 1.702
WS7MET_125 2018-09-29 11:40:00 125 30483.0 10.050 10.180 10.250 9.940 9.960 88.500 86.800 8.250 7.841 101.20 16.92 13.890 14.060 13.280 12.070 12.930 10.160 10.310 10.340 10.060 10.160 8.400 7.912 103.40 17.45 0.3010   9.890 10.080 10.170 9.820 9.780 8.060 7.748     0     0.0470 181.20 12.07   0.000 0.000 12.320 10.911 1.417 12.229 10.611 1.614
WS7MET_125 2018-09-29 11:35:00 125 30483.0 9.890 10.000 10.080 9.850 9.680 88.300 87.300 8.050 7.842 100.20 16.11 13.900 14.060 13.280 12.070 12.950 9.990 10.070 10.150 9.960 9.900 8.220 7.979 100.70 16.11 0.3070   9.720 9.980 10.050 9.750 9.600 7.868 7.725     0     0.0810 84.70 23.35   0.000 0.000 12.189 10.764 1.426 12.156 10.612 1.544
WS7MET_125 2018-09-29 11:30:00 125 30483.0 9.840 9.910 9.980 9.740 9.570 88.100 87.600 7.973 7.791 93.50 15.17 13.900 14.060 13.280 12.060 12.900 9.920 9.970 10.050 9.820 9.730 8.200 7.866 96.70 16.11 0.3070   9.750 9.860 9.920 9.620 9.400 7.794 7.723     0     0.1100 155.80 15.92   0.000 0.000 12.148 10.707 1.446 12.066 10.575 1.496
WS7MET_125 2018-09-29 11:25:00 125 30483.0 9.780 9.830 9.910 9.680 9.640 89.600 88.400 8.160 7.870 89.20 14.70 13.910 14.070 13.280 12.060 12.910 9.850 9.860 9.920 9.750 9.680 8.300 7.982 91.30 14.77 0.3330   9.580 9.760 9.860 9.580 9.540 7.998 7.802     0     0.1320 114.90 18.25   0.000 0.000 12.099 10.844 1.258 12.018 10.632 1.394
WS7MET_125 2018-09-29 11:20:00 125 30483.0 9.640 9.710 9.800 9.550 9.500 90.100 88.700 8.100 7.792 85.80 13.49 13.910 14.070 13.280 12.060 12.850 9.750 9.760 9.860 9.610 9.560 8.300 7.885 87.30 14.77 0.2810   9.510 9.630 9.740 9.480 9.410 8.030 7.700     0     0.0770 129.40 1.33   0.000 0.000 11.986 10.800 1.187 11.913 10.576 1.346
WS7MET_125 2018-09-29 11:15:00 125 30483.0 9.520 9.600 9.690 9.460 9.330 89.900 88.900 7.952 7.723 72.63 11.48 13.910 14.070 13.280 12.060 12.870 9.650 9.620 9.740 9.550 9.390 8.080 7.807 81.90 13.42 0.2090   9.410 9.580 9.650 9.370 9.250 7.835 7.633     0     0.0250 131.90 0.64   0.000 0.000 11.889 10.692 1.201 11.841 10.526 1.314
WS7MET_125 2018-09-29 11:10:00 125 30483.0 9.420 9.520 9.600 9.410 9.360 90.700 89.300 7.984 7.750 66.65 10.74 13.910 14.070 13.280 12.070 12.860 9.510 9.580 9.650 9.540 9.470 8.100 7.867 67.12 10.74 0.4640   9.340 9.480 9.540 9.310 9.230 7.900 7.654     0     0.1520 117.60 24.68   0.000 0.000 11.810 10.715 1.098 11.802 10.546 1.263
WS7MET_125 2018-09-29 11:05:00 125 30483.0 9.330 9.450 9.520 9.410 9.250 91.100 89.600 7.959 7.792 68.67 10.74 13.910 14.080 13.280 12.060 12.860 9.440 9.480 9.560 9.510 9.380 8.160 7.893 69.81 10.74 0.4970   9.200 9.400 9.480 9.340 9.120 7.848 7.687     0     0.1690 100.70 24.66   0.000 0.000 11.738 10.697 1.045 11.802 10.576 1.227
WS7MET_125 2018-09-29 11:00:00 125 30483.0 9.360 9.450 9.510 9.410 9.120 90.400 89.600 7.880 7.791 67.80 10.74 13.910 14.090 13.280 12.070 12.850 9.440 9.500 9.560 9.480 9.460 8.070 7.950 69.81 10.74 0.2870   9.240 9.390 9.460 9.300 8.950 7.721 7.671     0     0.0630 170.30 62.86   0.000 0.000 11.762 10.640 1.129 11.802 10.575 1.227
WS7MET_125 2018-09-29 10:55:00 125 30483.0 9.460 9.550 9.590 9.410 9.250 90.500 89.600 7.984 7.798 67.26 10.74 13.930 14.090 13.280 12.060 12.880 9.510 9.560 9.600 9.510 9.390 8.100 7.908 71.15 10.74 0.3720   9.370 9.520 9.560 9.340 9.020 7.828 7.712     0     0.0650 88.60 14.45   0.000 0.000 11.841 10.715 1.125 11.802 10.580 1.227
WS7MET_125 2018-09-29 10:50:00 125 30483.0 9.440 9.540 9.560 9.390 9.300 90.400 89.400 7.954 7.749 67.66 10.67 13.930 14.090 13.280 12.060 12.840 9.510 9.560 9.580 9.580 9.400 8.060 7.942 71.15 10.74 0.3660   9.310 9.520 9.530 9.340 9.220 7.795 7.689     0     0.1240 66.90 23.88   0.000 0.000 11.826 10.693 1.135 11.786 10.545 1.249
WS7MET_125 2018-09-29 10:45:00 125 30483.0 9.420 9.540 9.570 9.400 9.330 90.300 89.400 7.916 7.749 61.08 9.53 13.930 14.090 13.280 12.060 12.850 9.510 9.560 9.590 9.440 9.420 8.010 7.846 65.78 10.74 0.5160   9.310 9.500 9.520 9.340 9.230 7.789 7.656     0     0.1590 61.05 16.92   0.000 0.000 11.810 10.666 1.146 11.794 10.545 1.250
WS7MET_125 2018-09-29 10:40:00 125 30483.0 9.400 9.480 9.510 9.320 9.240 90.300 89.600 7.906 7.714 65.31 10.27 13.930 14.090 13.280 12.070 12.850 9.510 9.500 9.520 9.370 9.400 8.040 7.784 68.47 10.74 0.6140   9.270 9.460 9.480 9.270 9.110 7.777 7.642     0     0.3090 94.70 25.47   0.000 0.000 11.794 10.659 1.144 11.730 10.520 1.220
WS7MET_125 2018-09-29 10:35:00 125 30483.0 9.410 9.470 9.480 9.330 9.260 89.900 89.300 7.838 7.671 59.67 8.93 13.930 14.090 13.280 12.060 12.840 9.510 9.500 9.500 9.480 9.400 7.900 7.800 68.47 10.74 0.8170   9.270 9.440 9.460 9.200 9.150 7.737 7.580     0     0.2820 22.57 42.26   0.000 0.000 11.802 10.609 1.192 11.738 10.489 1.256
WS7MET_125 2018-09-29 10:30:00 125 30483.0 9.440 9.510 9.520 9.340 9.340 89.900 89.000 7.876 7.620 50.88 7.45 13.940 14.090 13.280 12.060 12.830 9.510 9.540 9.560 9.410 9.550 8.040 7.686 53.70 8.05 0.5750   9.340 9.480 9.460 9.200 9.220 7.764 7.523     0     0.3260 99.20 19.46   0.000 0.000 11.826 10.637 1.194 11.746 10.453 1.292
WS7MET_125 2018-09-29 10:25:00 125 30483.0 9.390 9.390 9.420 9.340 9.310 89.800 89.300 7.801 7.675 48.80 7.11 13.950 14.100 13.280 12.060 12.880 9.510 9.480 9.520 9.440 9.500 7.906 7.827 52.35 8.05 0.5100   9.170 9.320 9.340 9.240 9.020 7.592 7.550     0     0.1550 137.40 19.07   0.000 0.000 11.786 10.582 1.202 11.746 10.492 1.257
WS7MET_125 2018-09-29 10:20:00 125 30483.0 9.580 9.440 9.460 9.390 9.110 88.300 88.500 7.740 7.591 43.36 6.11 13.950 14.100 13.280 12.070 12.850 9.880 9.560 9.580 9.540 9.270 7.943 7.669 49.67 6.71 1.8490   9.410 9.320 9.340 9.300 9.000 7.611 7.534     0     0.4770 234.90 76.06   0.000 0.000 11.937 10.539 1.397 11.786 10.432 1.355
WS7MET_125 2018-09-29 10:15:00 125 30483.0 9.790 9.720 9.780 9.610 9.480 87.900 87.100 7.893 7.580 35.71 4.56 13.950 14.110 13.280 12.070 12.880 9.890 9.760 9.860 9.750 9.660 8.020 7.711 37.59 5.37 1.5680   9.650 9.600 9.610 9.470 9.080 7.699 7.480     0     0.5450 178.80 44.56   0.000 0.000 12.107 10.649 1.465 11.962 10.424 1.543
WS7MET_125 2018-09-29 10:10:00 125 30483.0 9.800 9.780 9.870 9.680 9.630 88.000 86.900 7.915 7.620 36.85 5.37 13.950 14.110 13.280 12.070 12.880 9.850 9.810 9.880 9.750 9.680 8.000 7.688 37.59 5.37 0.8690   9.750 9.740 9.860 9.610 9.550 7.836 7.525     0     0.3740 144.20 28.40   0.000 0.000 12.115 10.665 1.454 12.018 10.453 1.574
WS7MET_125 2018-09-29 10:05:00 125 30483.0 9.830 9.840 9.910 9.770 9.650 87.700 86.600 7.890 7.657 45.91 6.58 13.970 14.110 13.280 12.070 12.960 9.920 9.870 9.930 9.850 9.760 8.040 7.755 49.67 8.05 0.9020   9.680 9.790 9.870 9.610 9.510 7.705 7.492     0     0.4920 138.90 31.29   0.000 0.000 12.140 10.647 1.493 12.091 10.479 1.620
WS7MET_125 2018-09-29 10:00:00 125 30483.0 9.870 9.880 9.910 9.800 9.590 86.700 86.500 7.774 7.663 51.08 7.52 13.970 14.110 13.280 12.070 12.930 10.060 9.970 10.020 9.920 9.800 7.932 7.744 57.73 9.40 1.8290   9.750 9.850 9.870 9.750 9.430 7.672 7.553     0     0.6900 257.50 68.34   0.000 0.000 12.172 10.563 1.619 12.115 10.483 1.636
WS7MET_125 2018-09-29 09:55:00 125 30483.0 10.060 9.980 10.020 9.910 9.660 86.000 85.800 7.829 7.661 63.37 10.00 13.970 14.110 13.280 12.070 12.970 10.190 10.050 10.090 10.060 9.830 7.935 7.746 72.50 12.08 1.0320   9.920 9.930 9.970 9.780 9.510 7.656 7.563     0     0.3890 160.60 55.18   0.000 0.000 12.328 10.603 1.726 12.205 10.482 1.733
WS7MET_125 2018-09-29 09:50:00 125 30483.0 10.230 10.150 10.190 10.050 9.850 85.700 85.500 7.950 7.741 70.21 11.01 13.980 14.120 13.280 12.070 13.000 10.400 10.190 10.230 10.120 9.950 8.150 7.850 75.18 12.08 1.1830   10.090 10.090 10.100 9.950 9.700 7.849 7.621     0     0.4950 207.50 77.63   0.000 0.000 12.469 10.691 1.783 12.320 10.539 1.786
WS7MET_125 2018-09-29 09:45:00 125 30483.0 10.400 10.250 10.300 10.130 9.970 85.400 85.500 8.070 7.816 75.18 12.28 13.990 14.120 13.270 12.070 13.030 10.570 10.270 10.330 10.230 10.050 8.240 7.957 79.21 13.43 0.7580   10.300 10.210 10.260 10.020 9.880 7.893 7.698     0     0.2630 151.60 39.51   0.000 0.000 12.612 10.778 1.841 12.386 10.593 1.796
WS7MET_125 2018-09-29 09:40:00 125 30483.0 10.540 10.320 10.340 10.150 10.030 84.700 85.100 8.090 7.765 76.86 12.28 13.990 14.120 13.270 12.070 13.060 10.640 10.360 10.420 10.230 10.080 8.250 7.881 79.21 13.43 0.7190   10.430 10.270 10.270 10.020 9.930 7.940 7.667     0     0.2970 88.40 34.63   0.000 0.000 12.730 10.793 1.948 12.403 10.557 1.848
WS7MET_125 2018-09-29 09:35:00 125 30483.0 10.690 10.380 10.430 10.250 9.990 83.700 84.400 8.060 7.738 94.80 15.84 14.000 14.130 13.270 12.070 13.150 10.980 10.480 10.560 10.370 10.060 8.330 7.811 124.90 21.48 0.6990   10.540 10.330 10.380 10.160 9.920 7.846 7.640     0     0.3810 101.30 30.07   0.000 0.000 12.858 10.771 2.096 12.486 10.537 1.948
WS7MET_125 2018-09-29 09:30:00 125 30483.0 10.910 10.600 10.700 10.330 10.140 82.900 83.600 8.130 7.680 154.70 26.78 14.010 14.130 13.270 12.070 13.240 11.020 10.670 10.780 10.440 10.320 8.290 7.803 166.50 29.54 0.8950   10.810 10.490 10.570 10.160 9.960 7.980 7.505     0     0.5420 116.60 13.48   0.000 0.000 13.048 10.822 2.231 12.553 10.495 2.059
WS7MET_125 2018-09-29 09:25:00 125 30483.0 10.830 10.680 10.730 10.410 10.120 83.900 83.000 8.230 7.657 165.40 28.66 14.010 14.130 13.270 12.070 13.250 10.950 10.710 10.750 10.570 10.180 8.370 7.803 178.60 30.88 0.6790   10.710 10.640 10.690 10.300 10.080 8.090 7.530     0     0.4320 125.40 17.79   0.000 0.000 12.979 10.896 2.090 12.620 10.479 2.145
WS7MET_125 2018-09-29 09:20:00 125 30483.0 10.740 10.790 10.720 10.480 10.140 83.300 82.700 8.030 7.668 195.70 34.17 14.020 14.130 13.270 12.070 13.330 10.910 10.870 10.810 10.570 10.250 8.270 7.787 218.80 37.59 0.6730   10.610 10.730 10.640 10.370 10.050 7.782 7.529     0     0.3210 97.80 15.07   0.000 0.000 12.901 10.749 2.154 12.679 10.487 2.194
WS7MET_125 2018-09-29 09:15:00 125 30483.0 10.820 10.880 10.840 10.520 10.240 82.900 82.800 8.040 7.731 265.20 45.58 14.030 14.130 13.260 12.070 13.290 11.080 10.960 10.930 10.640 10.400 8.590 7.924 335.60 52.36 0.8820   10.710 10.800 10.750 10.370 10.040 7.817 7.643     0     0.2900 127.90 41.11   0.000 0.000 12.970 10.756 2.218 12.713 10.532 2.187
WS7MET_125 2018-09-29 09:10:00 125 30483.0 10.560 10.630 10.680 10.300 10.080 84.400 83.500 8.060 7.645 207.80 37.05 14.030 14.130 13.260 12.070 13.180 10.710 10.810 10.820 10.440 10.410 8.320 7.803 237.60 42.96 0.9730   10.470 10.540 10.580 10.160 9.940 7.835 7.481     0     0.2130 180.90 19.40   0.000 0.000 12.747 10.771 1.989 12.528 10.470 2.067
WS7MET_125 2018-09-29 09:05:00 125 30483.0 10.510 10.450 10.460 10.180 9.950 83.800 84.100 7.900 7.616 180.00 31.95 14.040 14.130 13.260 12.070 13.180 10.680 10.540 10.580 10.370 10.280 8.280 7.798 196.00 34.91 0.4640   10.400 10.390 10.390 10.060 9.700 7.559 7.455     0     0.0900 100.90 41.90   0.000 0.000 12.705 10.654 2.058 12.428 10.450 1.976
WS7MET_125 2018-09-29 09:00:00 125 30483.0 10.570 10.520 10.480 10.170 9.930 84.400 83.700 8.060 7.550 139.50 24.57 14.040 14.130 13.260 12.070 13.180 10.680 10.540 10.510 10.270 10.120 8.240 7.655 157.10 28.19 0.4770   10.470 10.470 10.450 10.060 9.770 7.893 7.454     0     0.1530 132.00 5.22   0.000 0.000 12.756 10.771 1.990 12.419 10.403 2.024
WS7MET_125 2018-09-29 08:55:00 125 30483.0 10.350 10.470 10.490 10.180 10.060 86.200 83.800 8.150 7.574 129.40 22.49 14.060 14.140 13.260 12.070 13.180 10.540 10.510 10.510 10.270 10.150 8.280 7.676 157.10 28.19 0.6010   10.200 10.380 10.430 10.100 10.000 7.980 7.501     0     0.4210 115.40 12.95   0.000 0.000 12.570 10.837 1.735 12.428 10.420 2.013
WS7MET_125 2018-09-29 08:50:00 125 30483.0 9.950 10.190 10.260 10.060 9.930 87.600 84.000 7.989 7.487 166.20 30.21 14.060 14.140 13.260 12.070 13.290 10.130 10.370 10.420 10.230 10.120 8.090 7.643 177.20 37.59 0.6860   9.720 10.010 10.100 9.960 9.820 7.851 7.368     0     0.3710 136.60 23.17   0.000 0.000 12.238 10.719 1.517 12.328 10.358 1.973
WS7MET_125 2018-09-29 08:45:00 125 30483.0 9.630 9.880 10.000 9.900 9.690 88.500 85.000 7.825 7.499 189.80 43.30 14.070 14.150 13.260 12.070 13.350 9.820 9.990 10.070 9.990 9.820 8.050 7.632 197.40 46.99 0.8490   9.450 9.720 9.880 9.790 9.520 7.647 7.357     0     0.4310 121.30 32.70   0.000 0.000 11.978 10.600 1.377 12.197 10.366 1.830
WS7MET_125 2018-09-29 08:40:00 125 30483.0 9.370 9.610 9.710 9.700 9.350 88.700 85.600 7.615 7.407 140.20 32.69 14.080 14.150 13.260 12.070 13.170 9.480 9.690 9.860 9.820 9.480 7.729 7.577 169.20 40.28 0.4900   9.240 9.560 9.610 9.550 9.200 7.407 7.279     0     0.3010 114.50 25.36   0.000 0.000 11.770 10.449 1.330 12.034 10.301 1.733
WS7MET_125 2018-09-29 08:35:00 125 30483.0 9.310 9.580 9.700 9.570 9.290 88.800 86.300 7.562 7.398 105.40 22.35 14.080 14.150 13.260 12.070 12.980 9.550 9.610 9.810 9.650 9.440 7.895 7.520 115.50 25.51 0.4970   9.170 9.550 9.610 9.480 9.220 7.407 7.271     0     0.3030 100.00 17.57   0.000 0.000 11.722 10.411 1.313 11.929 10.295 1.634
WS7MET_125 2018-09-29 08:30:00 125 30483.0 9.100 9.490 9.690 9.380 9.330 91.200 87.000 7.743 7.323 98.00 19.47 14.090 14.150 13.260 12.070 12.810 9.240 9.570 9.770 9.510 9.420 7.913 7.442 103.40 20.14 0.8360   8.900 9.360 9.550 9.210 9.290 7.606 7.213     0     0.3730 152.70 12.88   0.000 0.000 11.558 10.541 1.017 11.778 10.242 1.531
WS7MET_125 2018-09-29 08:25:00 125 30483.0 8.820 9.160 9.320 9.200 9.030 91.400 88.700 7.511 7.450 135.50 26.25 14.100 14.150 13.260 12.070 12.840 9.040 9.330 9.510 9.380 9.300 7.727 7.569 158.40 30.88 1.4440   8.700 9.040 9.210 9.040 8.860 7.335 7.351     0     0.5100 204.70 36.67   0.000 0.000 11.341 10.375 0.975 11.636 10.332 1.315
WS7MET_125 2018-09-29 08:20:00 125 30483.0 8.630 8.900 9.050 8.850 8.740 92.400 90.600 7.476 7.406 165.30 29.80 14.110 14.150 13.260 12.070 12.720 8.930 9.040 9.190 9.110 9.040 7.708 7.540 181.20 32.22 0.9470   8.460 8.730 8.870 8.660 8.420 7.267 7.274     0     0.4610 237.80 19.65   0.000 0.000 11.196 10.350 0.851 11.364 10.301 1.068
WS7MET_125 2018-09-29 08:15:00 125 30483.0 8.530 8.720 8.830 8.620 8.370 92.300 91.400 7.359 7.303 163.40 24.97 14.110 14.160 13.260 12.070 12.670 8.630 8.730 8.860 8.700 8.540 7.499 7.398 208.10 26.85 0.9340   8.420 8.690 8.770 8.560 8.270 7.217 7.223     0     0.2080 134.80 20.24   0.000 0.000 11.120 10.268 0.856 11.188 10.228 0.962
WS7MET_125 2018-09-29 08:10:00 125 30483.0 8.490 8.650 8.700 8.480 8.320 92.600 92.200 7.370 7.288 127.30 21.08 14.120 14.160 13.260 12.060 12.640 8.590 8.680 8.760 8.630 8.520 7.496 7.431 135.60 22.82 0.6470   8.320 8.610 8.670 8.390 8.140 7.207 7.130     0     0.3550 230.50 31.96   0.000 0.000 11.090 10.275 0.821 11.083 10.218 0.864
WS7MET_125 2018-09-29 08:05:00 125 30483.0 8.360 8.540 8.560 8.300 8.360 94.300 93.000 7.499 7.254 113.20 19.27 14.120 14.170 13.260 12.070 12.550 8.560 8.690 8.710 8.460 8.640 7.633 7.424 127.50 21.48 0.4050   8.150 8.370 8.390 8.180 8.170 7.337 7.180     0     0.1560 213.70 30.18   0.000 0.000 10.993 10.366 0.627 10.948 10.194 0.766
WS7MET_125 2018-09-29 08:00:00 125 30483.0 8.150 8.290 8.300 8.180 8.020 94.000 93.200 7.242 7.159 85.30 14.43 14.140 14.170 13.260 12.060 12.480 8.220 8.350 8.370 8.250 8.310 7.383 7.232 102.00 17.45 0.4380   8.050 8.250 8.250 8.120 7.812 7.087 7.103     0     0.1390 198.30 41.99   0.000 0.000 10.837 10.186 0.650 10.859 10.128 0.738
WS7MET_125 2018-09-29 07:55:00 125 30483.0 8.110 8.200 8.250 8.120 8.110 94.300 93.600 7.267 7.148 45.24 6.85 14.140 14.170 13.260 12.060 12.420 8.180 8.310 8.340 8.180 8.300 7.371 7.238 61.76 9.40 0.4570   8.010 8.160 8.220 8.050 7.969 7.141 7.075     0     0.2440 110.30 45.05   0.000 0.000 10.808 10.203 0.616 10.815 10.120 0.692
WS7MET_125 2018-09-29 07:50:00 125 30483.0 8.130 8.160 8.210 8.060 7.983 93.900 93.600 7.216 7.088 37.39 5.37 14.150 14.170 13.260 12.070 12.410 8.250 8.200 8.240 8.180 8.150 7.348 7.210 38.93 5.37 0.5230   8.050 8.120 8.180 7.979 7.802 7.107 6.986     0     0.2150 151.20 29.51   0.000 0.000 10.822 10.168 0.660 10.771 10.079 0.689
WS7MET_125 2018-09-29 07:45:00 125 30483.0 8.100 8.110 8.160 8.000 7.926 94.100 93.500 7.211 7.020 41.22 6.04 14.160 14.170 13.250 12.070 12.430 8.220 8.160 8.200 8.120 8.060 7.334 7.147 45.65 6.71 0.4700   8.050 8.080 8.140 7.910 7.772 7.122 6.936     0     0.1200 129.40 6.75   0.000 0.000 10.800 10.164 0.637 10.727 10.032 0.697
WS7MET_125 2018-09-29 07:40:00 125 30483.0 8.080 8.100 8.150 7.990 7.986 93.900 93.400 7.169 6.994 38.13 5.50 14.170 14.170 13.260 12.070 12.440 8.350 8.120 8.160 8.110 8.050 7.428 7.131 44.30 6.71 0.5100   7.978 8.060 8.130 7.876 7.939 7.091 6.888     0     0.3020 193.60 32.87   0.000 0.000 10.786 10.135 0.658 10.720 10.014 0.707
WS7MET_125 2018-09-29 07:35:00 125 30483.0 8.090 8.050 8.110 7.997 7.827 93.400 93.100 7.090 6.964 31.35 4.36 14.180 14.180 13.250 12.070 12.400 8.150 8.100 8.160 8.110 7.920 7.229 7.088 36.25 5.37 0.2810   7.978 8.020 8.100 7.944 7.743 6.932 6.892     0     0.0470 101.70 28.58   0.000 0.000 10.793 10.080 0.712 10.725 9.993 0.740
WS7MET_125 2018-09-29 07:30:00 125 30483.0 8.140 8.140 8.200 8.070 7.976 92.900 92.600 7.072 6.949 28.39 4.03 14.190 14.180 13.250 12.060 12.420 8.220 8.180 8.250 8.150 8.140 7.190 7.015 29.54 4.03 0.5100   8.050 8.100 8.160 7.944 7.851 6.980 6.839     0     0.2730 95.50 17.62   0.000 0.000 10.830 10.068 0.769 10.778 9.983 0.798
WS7MET_125 2018-09-29 07:25:00 125 30483.0 8.180 8.140 8.210 8.090 8.020 92.600 92.200 7.060 6.912 26.25 4.03 14.200 14.180 13.250 12.070 12.430 8.290 8.170 8.240 8.220 8.120 7.157 7.067 29.54 4.03 0.6010   8.080 8.140 8.200 7.911 7.920 6.977 6.736     0     0.3360 107.40 19.58   0.000 0.000 10.859 10.059 0.804 10.793 9.958 0.842
WS7MET_125 2018-09-29 07:20:00 125 30483.0 8.200 8.210 8.250 8.170 8.030 92.300 91.600 7.029 6.888 32.42 4.43 14.210 14.190 13.250 12.070 12.420 8.290 8.240 8.270 8.290 8.210 7.108 7.003 34.91 5.37 0.4120   8.080 8.180 8.220 8.080 7.910 6.938 6.805     0     0.2290 88.40 10.38   0.000 0.000 10.874 10.038 0.837 10.852 9.941 0.912
WS7MET_125 2018-09-29 07:15:00 125 30483.0 8.300 8.320 8.360 8.270 8.130 91.400 90.700 6.993 6.844 31.62 4.09 14.210 14.190 13.250 12.070 12.410 8.460 8.390 8.430 8.390 8.230 7.141 6.915 34.91 5.37 0.6660   8.190 8.220 8.240 8.150 8.010 6.890 6.781     0     0.3650 87.90 24.32   0.000 0.000 10.948 10.013 0.942 10.926 9.911 1.016
WS7MET_125 2018-09-29 07:10:00 125 30483.0 8.350 8.420 8.440 8.350 8.300 90.700 89.900 6.936 6.806 36.45 5.24 14.220 14.190 13.240 12.070 12.450 8.420 8.450 8.490 8.460 8.390 7.031 6.871 38.93 5.37 0.8300   8.290 8.390 8.410 8.250 8.250 6.840 6.709     0     0.3970 92.20 15.40   0.000 0.000 10.985 9.974 1.022 10.985 9.885 1.110
WS7MET_125 2018-09-29 07:05:00 125 30483.0 8.360 8.460 8.490 8.400 8.370 90.800 89.600 6.957 6.791 35.17 4.57 14.230 14.190 13.240 12.070 12.410 8.460 8.490 8.510 8.460 8.410 7.042 6.860 38.93 5.37 0.7250   8.290 8.410 8.470 8.320 8.330 6.881 6.704     0     0.3450 112.10 24.79   0.000 0.000 10.993 9.988 1.011 11.023 9.875 1.146
WS7MET_125 2018-09-29 07:00:00 125 30483.0 8.280 8.350 8.420 8.320 8.270 91.100 89.500 6.912 6.707 47.86 7.25 14.240 14.190 13.240 12.070 12.440 8.390 8.410 8.470 8.420 8.330 7.019 6.811 53.70 8.06 0.6600   8.180 8.290 8.350 8.220 8.150 6.801 6.620     0     0.3970 126.80 12.97   0.000 0.000 10.933 9.958 0.973 10.963 9.818 1.151
WS7MET_125 2018-09-29 06:55:00 125 30483.0 8.230 8.290 8.360 8.300 8.160 90.700 89.300 6.810 6.657 49.61 7.45 14.250 14.200 13.240 12.070 12.430 8.490 8.310 8.380 8.390 8.270 7.011 6.723 51.02 8.06 0.5360   8.150 8.250 8.350 8.220 8.020 6.713 6.570     0     0.2760 114.10 18.17   0.000 0.000 10.896 9.888 1.013 10.948 9.784 1.171
WS7MET_125 2018-09-29 06:50:00 125 30483.0 8.240 8.290 8.380 8.330 8.010 90.100 88.800 6.716 6.603 47.39 6.71 14.250 14.200 13.240 12.070 12.410 8.420 8.330 8.420 8.420 8.090 6.904 6.677 49.67 6.71 0.0330   8.150 8.250 8.350 8.290 7.930 6.574 6.525     0     0.0020 155.30 0.00   0.000 0.000 10.904 9.824 1.079 10.970 9.748 1.229
WS7MET_125 2018-09-29 06:45:00 125 30483.0 8.340 8.380 8.470 8.410 8.240 89.300 87.800 6.689 6.506 42.02 6.18 14.270 14.200 13.240 12.070 12.410 8.700 8.410 8.490 8.490 8.330 7.042 6.615 45.65 6.71 0.4310   8.180 8.330 8.410 8.290 8.100 6.509 6.385     0     0.2780 126.90 19.60   0.000 0.000 10.978 9.806 1.175 11.030 9.683 1.346
WS7MET_125 2018-09-29 06:40:00 125 30483.0 8.370 8.470 8.560 8.520 8.380 88.500 86.700 6.593 6.437 31.48 4.23 14.270 14.200 13.240 12.070 12.380 8.460 8.490 8.590 8.630 8.520 6.707 6.525 36.25 5.37 0.3790   8.290 8.390 8.490 8.420 8.180 6.484 6.317     0     0.1580 143.50 14.06   0.000 0.000 11.000 9.741 1.265 11.113 9.637 1.478
WS7MET_125 2018-09-29 06:35:00 125 30483.0 8.390 8.440 8.560 8.570 8.490 87.900 86.100 6.508 6.389 27.72 4.03 14.290 14.200 13.240 12.070 12.380 8.530 8.480 8.590 8.660 8.570 6.629 6.518 28.19 4.03 0.5230   8.290 8.410 8.530 8.490 8.360 6.394 6.310     0     0.2970 132.50 9.57   0.000 0.000 11.015 9.685 1.333 11.151 9.605 1.550
WS7MET_125 2018-09-29 06:30:00 125 30483.0 8.380 8.370 8.500 8.530 8.460 87.000 85.900 6.351 6.319 26.78 4.03 14.290 14.210 13.240 12.070 12.360 8.490 8.410 8.550 8.590 8.550 6.486 6.387 28.19 4.03 0.3660   8.190 8.340 8.460 8.420 8.290 6.247 6.219     0     0.2190 125.60 6.80   0.000 0.000 11.008 9.580 1.431 11.120 9.559 1.568
WS7MET_125 2018-09-29 06:25:00 125 30483.0 8.450 8.370 8.490 8.500 8.250 86.200 85.500 6.288 6.218 20.47 3.56 14.300 14.210 13.240 12.070 12.380 8.560 8.420 8.530 8.590 8.330 6.379 6.280 24.17 4.03 0.2350   8.360 8.340 8.460 8.420 8.200 6.173 6.122     0     0.0400 160.00 0.34   0.000 0.000 11.060 9.539 1.526 11.098 9.493 1.609
WS7MET_125 2018-09-29 06:20:00 125 30483.0 8.620 8.510 8.620 8.630 8.400 85.000 84.600 6.258 6.187 12.42 2.01 14.310 14.210 13.240 12.070 12.380 8.800 8.610 8.710 8.770 8.480 6.369 6.346 16.11 2.68 0.3720   8.360 8.430 8.550 8.530 8.350 6.071 6.110     0     0.1540 141.00 7.00   0.000 0.000 11.188 9.519 1.678 11.196 9.472 1.724
WS7MET_125 2018-09-29 06:15:00 125 30483.0 8.930 8.760 8.860 8.870 8.500 83.500 82.900 6.289 6.139 6.18 0.74 14.310 14.210 13.240 12.070 12.350 9.170 8.920 9.060 9.140 8.660 6.368 6.225 9.40 1.34 0.3070   8.700 8.630 8.720 8.660 8.350 6.195 6.061     0     0.1510 123.30 7.59   0.000 0.000 11.426 9.539 1.885 11.379 9.441 1.946
WS7MET_125 2018-09-29 06:10:00 125 30483.0 9.270 9.110 9.280 9.300 8.910 81.300 80.400 6.250 6.107 2.21 0.00 14.330 14.220 13.240 12.070 12.380 9.450 9.310 9.490 9.550 9.170 6.419 6.334 4.03 0.00 0.3920   9.040 8.930 9.070 9.040 8.620 6.156 5.986     0     0.1730 133.90 21.56   0.000 0.000 11.691 9.514 2.186 11.715 9.420 2.296
WS7MET_125 2018-09-29 06:05:00 125 30483.0 9.490 9.450 9.680 9.750 9.460 79.730 77.270 6.177 5.968 0.00 0.00 14.330 14.220 13.240 12.070 12.400 9.620 9.570 9.790 9.920 9.570 6.252 6.040 0.00 0.00 0.5750   9.340 9.350 9.530 9.580 9.250 6.053 5.883     0     0.3700 129.10 17.01   0.000 0.000 11.865 9.466 2.405 12.075 9.330 2.745
WS7MET_125 2018-09-29 06:00:00 125 30483.0 9.580 9.660 9.850 9.990 9.750 78.760 76.000 6.087 5.964 0.00 0.00 14.340 14.220 13.240 12.070 12.370 9.650 9.730 9.890 10.060 9.850 6.165 6.051 0.00 0.00 0.5420   9.450 9.580 9.790 9.860 9.590 5.933 5.801     0     0.3130 113.50 1.71   0.000 0.000 11.937 9.407 2.536 12.271 9.327 2.945
WS7MET_125 2018-09-29 05:55:00 125 30483.0 9.680 9.770 9.920 10.060 9.890 78.300 75.830 6.094 6.000 0.00 0.00 14.350 14.220 13.240 12.080 12.370 9.750 9.830 9.960 10.130 10.010 6.252 6.098 0.00 0.00 0.2740   9.580 9.730 9.900 9.990 9.840 5.986 5.928     0     0.1520 132.30 14.03   0.000 0.000 12.018 9.412 2.608 12.328 9.351 2.980
WS7MET_125 2018-09-29 05:50:00 125 30483.0 9.740 9.840 9.980 10.160 10.050 77.360 75.120 5.982 5.961 0.00 0.00 14.360 14.220 13.240 12.080 12.360 9.820 9.870 10.010 10.270 10.090 6.075 6.054 0.00 0.00 0.2220   9.650 9.820 9.960 10.030 10.000 5.868 5.863     0     0.0150 143.50 0.00   0.000 0.000 12.066 9.339 2.732 12.411 9.325 3.088
WS7MET_125 2018-09-29 05:45:00 125 30483.0 9.860 9.910 10.050 10.240 10.050 76.810 74.440 5.992 5.908 0.00 0.00 14.370 14.220 13.240 12.070 12.360 9.990 9.970 10.090 10.400 10.090 6.128 6.061 0.00 0.00 0.0650   9.750 9.870 10.010 10.160 10.030 5.891 5.790     0     0.0040 322.10 0.50   0.000 0.000 12.164 9.345 2.821 12.478 9.291 3.189
WS7MET_125 2018-09-29 05:40:00 125 30483.0 9.980 10.030 10.160 10.410 10.140 76.080 73.570 5.966 5.904 0.00 0.00 14.380 14.220 13.240 12.080 12.390 10.200 10.100 10.230 10.500 10.190 6.210 6.033 0.00 0.00 0.0000   9.890 9.970 10.110 10.330 10.110 5.900 5.792     0     0.0000 0.00 0.00   0.000 0.000 12.262 9.329 2.933 12.620 9.289 3.336
WS7MET_125 2018-09-29 05:35:00 125 30483.0 10.100 10.180 10.320 10.510 10.320 75.750 73.120 6.019 5.906 0.00 0.00 14.390 14.220 13.240 12.070 12.390 10.200 10.250 10.390 10.570 10.410 6.138 6.004 0.00 0.00 0.0000   9.990 10.110 10.250 10.400 10.210 5.887 5.798     0     0.0000 0.00 0.00   0.000 0.000 12.361 9.363 2.998 12.705 9.290 3.415
WS7MET_125 2018-09-29 05:30:00 125 30483.0 10.130 10.280 10.450 10.640 10.480 75.590 72.740 6.023 5.961 0.00 0.00 14.400 14.220 13.240 12.070 12.350 10.230 10.330 10.510 10.780 10.520 6.106 6.134 0.00 0.00 0.0000   10.030 10.250 10.390 10.570 10.420 5.941 5.874     0     0.0000 0.00 0.00   0.000 0.000 12.386 9.365 3.023 12.815 9.325 3.493
WS7MET_125 2018-09-29 05:25:00 125 30483.0 10.240 10.400 10.580 10.770 10.580 75.140 72.160 6.041 5.965 0.00 0.00 14.400 14.230 13.240 12.080 12.350 10.370 10.470 10.650 10.850 10.640 6.101 6.033 0.00 0.00 0.1500   10.100 10.330 10.510 10.680 10.540 5.942 5.884     0     0.0150 347.50 1.56   0.000 0.000 12.478 9.377 3.102 12.927 9.328 3.599
WS7MET_125 2018-09-29 05:20:00 125 30483.0 10.320 10.530 10.700 10.860 10.690 74.650 71.630 6.026 5.948 0.00 0.00 14.420 14.230 13.240 12.080 12.400 10.400 10.570 10.750 10.980 10.770 6.121 6.055 0.00 0.00 0.0000   10.270 10.470 10.650 10.710 10.630 5.907 5.837     0     0.0000 0.00 0.00   0.000 0.000 12.545 9.367 3.180 13.004 9.317 3.689
WS7MET_125 2018-09-29 05:15:00 125 30483.0 10.360 10.610 10.790 10.940 10.880 74.210 71.300 5.980 5.955 0.00 0.00 14.420 14.230 13.240 12.080 12.350 10.440 10.630 10.790 11.080 10.960 6.086 6.094 0.00 0.00 0.0000   10.260 10.580 10.750 10.880 10.780 5.894 5.869     0     0.0000 0.00 0.00   0.000 0.000 12.578 9.338 3.244 13.074 9.321 3.752
WS7MET_125 2018-09-29 05:10:00 125 30483.0 10.390 10.620 10.790 10.930 10.960 73.760 70.820 5.923 5.852 0.00 0.00 14.430 14.230 13.240 12.080 12.400 10.470 10.630 10.800 11.050 11.000 6.033 5.945 0.00 0.00 0.0000   10.300 10.610 10.760 10.880 10.890 5.800 5.785     0     0.0000 0.00 0.00   0.000 0.000 12.603 9.301 3.307 13.065 9.255 3.812
WS7MET_125 2018-09-29 05:05:00 125 30483.0 10.410 10.570 10.710 10.790 10.950 73.600 71.120 5.903 5.781 0.00 0.00 14.440 14.230 13.240 12.080 12.380 10.470 10.610 10.760 10.950 11.020 5.978 5.879 0.00 0.00 0.2160   10.330 10.510 10.630 10.710 10.870 5.826 5.691     0     0.0770 337.50 2.39   0.000 0.000 12.620 9.288 3.332 12.944 9.210 3.738
WS7MET_125 2018-09-29 05:00:00 125 30483.0 10.430 10.480 10.590 10.750 10.660 73.320 71.460 5.869 5.811 0.00 0.00 14.450 14.230 13.240 12.080 12.390 10.540 10.500 10.630 10.810 10.840 5.945 5.941 0.00 0.00 0.2350   10.330 10.470 10.570 10.670 10.590 5.785 5.691     0     0.0450 336.50 3.67   0.000 0.000 12.637 9.266 3.372 12.910 9.229 3.684
WS7MET_125 2018-09-29 04:55:00 125 30483.0 10.590 10.560 10.680 10.840 10.600 72.250 70.440 5.815 5.690 0.00 0.00 14.460 14.230 13.230 12.080 12.380 10.670 10.650 10.760 10.910 10.630 5.895 5.787 0.00 0.00 0.0000   10.470 10.500 10.610 10.710 10.550 5.744 5.624     0     0.0000 0.00 0.00   0.000 0.000 12.773 9.231 3.544 12.987 9.152 3.839
WS7MET_125 2018-09-29 04:50:00 125 30483.0 10.740 10.740 10.860 10.970 10.690 71.500 70.020 5.809 5.728 0.00 0.00 14.470 14.230 13.230 12.080 12.390 10.880 10.830 10.950 11.150 10.780 5.931 5.844 0.00 0.00 0.0000   10.470 10.650 10.770 10.840 10.600 5.599 5.638     0     0.0000 0.00 0.00   0.000 0.000 12.901 9.228 3.677 13.100 9.176 3.927
WS7MET_125 2018-09-29 04:45:00 125 30483.0 10.920 10.960 11.060 11.170 10.870 71.240 69.250 5.926 5.756 0.00 0.00 14.480 14.230 13.230 12.080 12.370 11.050 11.070 11.170 11.320 10.950 6.122 5.918 0.00 0.00 0.0000   10.780 10.850 10.950 11.020 10.780 5.784 5.656     0     0.0000 0.00 0.00   0.000 0.000 13.056 9.303 3.755 13.275 9.194 4.082
WS7MET_125 2018-09-29 04:40:00 125 30483.0 11.020 11.170 11.280 11.380 11.130 71.740 69.030 6.126 5.917 0.00 0.00 14.480 14.230 13.230 12.080 12.420 11.150 11.260 11.360 11.530 11.290 6.296 6.159 0.00 0.00 0.0000   10.950 11.080 11.180 11.250 10.970 6.017 5.721     0     0.0000 0.00 0.00   0.000 0.000 13.144 9.432 3.714 13.461 9.297 4.169
WS7MET_125 2018-09-29 04:35:00 125 30483.0 11.090 11.320 11.450 11.570 11.360 71.260 68.770 6.096 6.037 0.00 0.00 14.500 14.230 13.230 12.080 12.390 11.150 11.380 11.520 11.630 11.420 6.203 6.145 0.00 0.00 0.4570   11.020 11.260 11.370 11.460 11.300 6.042 5.975     0     0.2130 246.60 3.65   0.000 0.000 13.205 9.413 3.795 13.632 9.375 4.257
WS7MET_125 2018-09-29 04:30:00 125 30483.0 11.140 11.420 11.580 11.650 11.650 70.630 67.950 6.013 5.943 0.00 0.00 14.500 14.230 13.230 12.080 12.380 11.290 11.440 11.610 11.730 11.790 6.220 6.056 0.00 0.00 0.5620   11.020 11.390 11.520 11.530 11.440 5.788 5.773     0     0.2020 271.30 20.71   0.000 0.000 13.249 9.359 3.891 13.704 9.314 4.392
WS7MET_125 2018-09-29 04:25:00 125 30483.0 11.160 11.390 11.530 11.600 11.650 69.700 67.270 5.837 5.751 0.00 0.00 14.510 14.230 13.230 12.080 12.380 11.250 11.400 11.560 11.770 11.730 5.973 5.910 0.00 0.00 0.2090   11.050 11.380 11.490 11.490 11.560 5.646 5.575     0     0.0250 311.70 1.20   0.000 0.000 13.266 9.246 4.020 13.659 9.191 4.471
WS7MET_125 2018-09-29 04:20:00 125 30483.0 11.160 11.380 11.480 11.570 11.560 68.650 66.500 5.627 5.557 0.00 0.00 14.520 14.240 13.230 12.080 12.380 11.320 11.390 11.490 11.660 11.610 5.809 5.670 0.00 0.00 0.0000   11.010 11.380 11.470 11.360 11.520 5.467 5.384     0     0.0000 0.00 0.00   0.000 0.000 13.266 9.112 4.159 13.632 9.068 4.567
WS7MET_125 2018-09-29 04:15:00 125 30483.0 11.170 11.360 11.450 11.510 11.530 69.020 66.880 5.706 5.581 0.00 0.00 14.530 14.240 13.230 12.080 12.380 11.250 11.380 11.460 11.600 11.590 5.805 5.695 0.00 0.00 0.2680   11.080 11.340 11.420 11.430 11.440 5.583 5.427     0     0.1610 331.10 3.65   0.000 0.000 13.275 9.162 4.113 13.578 9.083 4.497
WS7MET_125 2018-09-29 04:10:00 125 30483.0 11.130 11.330 11.420 11.510 11.480 69.580 67.450 5.786 5.703 0.00 0.00 14.550 14.240 13.230 12.080 12.390 11.220 11.340 11.440 11.630 11.560 5.850 5.862 0.00 0.00 0.3140   11.050 11.300 11.400 11.420 11.410 5.687 5.564     0     0.1630 325.50 8.92   0.000 0.000 13.240 9.213 4.028 13.578 9.160 4.420
WS7MET_125 2018-09-29 04:05:00 125 30483.0 11.090 11.290 11.410 11.520 11.490 69.350 67.110 5.703 5.638 0.00 0.00 14.550 14.240 13.230 12.080 12.400 11.150 11.300 11.420 11.590 11.560 5.799 5.789 0.00 0.00 0.2740   10.980 11.280 11.400 11.460 11.420 5.564 5.510     0     0.1230 320.30 7.61   0.000 0.000 13.205 9.160 4.047 13.587 9.119 4.469
WS7MET_125 2018-09-29 04:00:00 125 30483.0 11.110 11.300 11.430 11.600 11.490 68.790 66.220 5.601 5.521 0.00 0.00 14.560 14.250 13.230 12.080 12.390 11.150 11.320 11.460 11.700 11.560 5.701 5.622 0.00 0.00 0.2160   11.010 11.280 11.400 11.490 11.410 5.488 5.451     0     0.0390 322.30 1.83   0.000 0.000 13.222 9.095 4.127 13.659 9.045 4.614
WS7MET_125 2018-09-29 03:55:00 125 30483.0 11.230 11.370 11.520 11.700 11.530 68.540 65.880 5.664 5.546 0.00 0.00 14.570 14.250 13.230 12.080 12.390 11.360 11.430 11.580 11.800 11.660 5.832 5.640 0.00 0.00 0.4120   11.080 11.320 11.460 11.660 11.440 5.535 5.451     0     0.1400 314.70 4.22   0.000 0.000 13.328 9.135 4.193 13.749 9.061 4.691
WS7MET_125 2018-09-29 03:50:00 125 30483.0 11.290 11.460 11.600 11.750 11.730 68.230 65.860 5.661 5.590 0.00 0.00 14.570 14.250 13.230 12.080 12.390 11.390 11.470 11.610 11.800 11.820 5.786 5.648 0.00 0.00 0.2090   11.080 11.440 11.580 11.700 11.630 5.412 5.543     0     0.0800 330.20 4.22   0.000 0.000 13.381 9.133 4.251 13.795 9.088 4.710
WS7MET_125 2018-09-29 03:45:00 125 30483.0 11.360 11.490 11.610 11.780 11.770 68.030 65.800 5.679 5.600 0.00 0.00 14.590 14.250 13.230 12.080 12.390 11.420 11.500 11.630 11.870 11.810 5.735 5.688 0.00 0.00 0.2220   11.250 11.460 11.580 11.700 11.680 5.617 5.543     0     0.0940 337.30 4.56   0.000 0.000 13.444 9.145 4.298 13.822 9.095 4.727
WS7MET_125 2018-09-29 03:40:00 125 30483.0 11.450 11.520 11.640 11.870 11.710 67.490 65.200 5.652 5.555 0.00 0.00 14.590 14.250 13.230 12.080 12.380 11.630 11.560 11.690 11.930 11.780 5.795 5.684 0.00 0.00 0.2870   11.320 11.500 11.620 11.760 11.650 5.544 5.434     0     0.1400 336.70 3.15   0.000 0.000 13.524 9.128 4.397 13.905 9.066 4.839
WS7MET_125 2018-09-29 03:35:00 125 30483.0 11.580 11.670 11.790 12.040 11.750 67.020 64.630 5.678 5.591 0.00 0.00 14.600 14.250 13.230 12.080 12.400 11.700 11.760 11.890 12.140 11.890 5.806 5.701 0.00 0.00 0.1440   11.490 11.570 11.690 11.900 11.580 5.588 5.521     0     0.0230 328.10 0.07   0.000 0.000 13.641 9.144 4.499 14.062 9.089 4.974
WS7MET_125 2018-09-29 03:30:00 125 30483.0 11.700 11.840 11.960 12.170 12.000 66.270 63.860 5.635 5.545 0.00 0.00 14.610 14.250 13.230 12.080 12.420 11.830 11.900 12.020 12.310 12.080 5.701 5.646 0.00 0.00 0.1630   11.590 11.770 11.890 12.070 11.910 5.546 5.482     0     0.0220 340.60 1.20   0.000 0.000 13.749 9.117 4.638 14.182 9.060 5.126
WS7MET_125 2018-09-29 03:25:00 125 30483.0 11.800 11.970 12.090 12.270 12.150 65.860 63.390 5.638 5.526 0.00 0.00 14.620 14.250 13.220 12.080 12.420 11.870 12.010 12.130 12.340 12.200 5.747 5.616 0.00 0.00 0.2680   11.690 11.910 12.030 12.170 12.100 5.509 5.439     0     0.0690 330.70 6.63   0.000 0.000 13.841 9.119 4.725 14.276 9.048 5.226
WS7MET_125 2018-09-29 03:20:00 125 30483.0 11.800 12.020 12.160 12.340 12.200 65.590 62.870 5.579 5.479 0.00 0.00 14.630 14.250 13.220 12.070 12.390 11.930 12.040 12.200 12.510 12.260 5.692 5.702 0.00 0.00 0.2610   11.690 12.010 12.140 12.270 12.180 5.457 5.405     0     0.1110 340.40 0.10   0.000 0.000 13.841 9.082 4.763 14.342 9.019 5.325
WS7MET_125 2018-09-29 03:15:00 125 30483.0 11.870 12.090 12.250 12.410 12.320 65.110 62.320 5.532 5.416 0.00 0.00 14.630 14.240 13.220 12.070 12.380 11.930 12.130 12.280 12.480 12.360 5.743 5.504 0.00 0.00 0.0390   11.760 12.050 12.220 12.340 12.280 5.366 5.360     0     0.0020 303.70 0.00   0.000 0.000 13.905 9.052 4.851 14.408 8.979 5.429
WS7MET_125 2018-09-29 03:10:00 125 30483.0 12.000 12.170 12.310 12.480 12.400 64.300 61.970 5.483 5.399 0.00 0.00 14.640 14.240 13.220 12.070 12.390 12.170 12.230 12.330 12.580 12.420 5.671 5.523 0.00 0.00 0.2680   11.900 12.130 12.280 12.410 12.360 5.397 5.313     0     0.0490 300.10 0.47   0.000 0.000 14.025 9.021 5.007 14.475 8.969 5.505
WS7MET_125 2018-09-29 03:05:00 125 30483.0 12.090 12.250 12.350 12.520 12.470 64.020 61.730 5.498 5.391 0.00 0.00 14.650 14.240 13.220 12.070 12.430 12.170 12.270 12.360 12.620 12.480 5.594 5.467 0.00 0.00 0.1760   11.970 12.240 12.340 12.410 12.440 5.422 5.272     0     0.0120 315.10 0.01   0.000 0.000 14.108 9.031 5.076 14.513 8.964 5.554
WS7MET_125 2018-09-29 03:00:00 125 30483.0 12.150 12.290 12.390 12.600 12.450 63.750 61.520 5.501 5.411 0.00 0.00 14.650 14.240 13.220 12.070 12.390 12.380 12.300 12.420 12.680 12.570 5.710 5.490 0.00 0.00 0.1830   12.000 12.270 12.360 12.510 12.400 5.331 5.329     0     0.0300 315.50 0.22   0.000 0.000 14.164 9.032 5.134 14.589 8.976 5.614
WS7MET_125 2018-09-29 02:55:00 125 30483.0 12.210 12.300 12.430 12.720 12.560 63.690 61.240 5.545 5.455 0.00 0.00 14.670 14.240 13.210 12.070 12.400 12.310 12.320 12.460 12.850 12.610 5.614 5.531 0.00 0.00 0.3330   12.140 12.290 12.420 12.550 12.510 5.477 5.322     0     0.1480 317.20 2.23   0.000 0.000 14.220 9.060 5.163 14.704 9.004 5.699
WS7MET_125 2018-09-29 02:50:00 125 30483.0 12.370 12.400 12.560 12.910 12.610 63.020 60.380 5.545 5.431 0.00 0.00 14.670 14.240 13.210 12.070 12.380 12.550 12.490 12.670 12.990 12.700 5.653 5.554 0.00 0.00 0.0000   12.270 12.330 12.460 12.780 12.540 5.475 5.360     0     0.0000 0.00 0.00   0.000 0.000 14.370 9.060 5.314 14.889 8.989 5.899
WS7MET_125 2018-09-29 02:45:00 125 30483.0 12.540 12.620 12.790 13.100 12.770 62.150 59.610 5.503 5.432 0.00 0.00 14.680 14.240 13.210 12.070 12.420 12.780 12.730 12.900 13.230 12.920 5.687 5.491 0.00 0.00 0.0000   12.410 12.500 12.680 12.990 12.670 5.397 5.362     0     0.0000 0.00 0.00   0.000 0.000 14.532 9.034 5.500 15.075 8.989 6.089
WS7MET_125 2018-09-29 02:40:00 125 30483.0 12.750 12.850 13.010 13.240 12.960 61.400 58.760 5.530 5.356 0.00 0.00 14.690 14.240 13.210 12.070 12.410 12.880 12.980 13.120 13.360 13.150 5.647 5.452 0.00 0.00 0.3070   12.540 12.740 12.900 13.160 12.870 5.349 5.274     0     0.0570 322.80 0.37   0.000 0.000 14.733 9.051 5.687 15.213 8.942 6.274
WS7MET_125 2018-09-29 02:35:00 125 30483.0 12.820 13.030 13.170 13.370 13.240 61.050 58.230 5.508 5.342 0.00 0.00 14.700 14.240 13.210 12.070 12.390 12.880 13.060 13.210 13.430 13.290 5.568 5.411 0.00 0.00 0.2420   12.750 13.000 13.120 13.290 13.180 5.407 5.244     0     0.1140 331.20 5.41   0.000 0.000 14.801 9.037 5.765 15.343 8.933 6.409
WS7MET_125 2018-09-29 02:30:00 125 30483.0 12.850 13.090 13.230 13.400 13.320 61.180 58.490 5.566 5.443 0.00 0.00 14.700 14.240 13.210 12.070 12.400 13.050 13.100 13.250 13.530 13.340 5.744 5.585 0.00 0.00 0.4050   12.710 13.060 13.210 13.330 13.270 5.414 5.349     0     0.3020 343.00 4.30   0.000 0.000 14.830 9.073 5.757 15.373 8.996 6.381
WS7MET_125 2018-09-29 02:25:00 125 30483.0 12.860 13.090 13.250 13.390 13.340 60.980 58.180 5.529 5.354 0.00 0.00 14.710 14.240 13.210 12.070 12.420 13.060 13.100 13.250 13.460 13.350 5.737 5.438 0.00 0.00 0.5420   12.780 13.070 13.230 13.330 13.310 5.373 5.207     0     0.4290 343.80 5.11   0.000 0.000 14.840 9.050 5.791 15.363 8.941 6.425
WS7MET_125 2018-09-29 02:20:00 125 30483.0 12.870 13.060 13.210 13.380 13.290 60.510 58.050 5.425 5.312 0.00 0.00 14.720 14.240 13.210 12.070 12.380 12.950 13.080 13.230 13.430 13.330 5.535 5.390 0.00 0.00 0.4640   12.780 13.040 13.210 13.290 13.260 5.325 5.207     0     0.3840 338.10 1.24   0.000 0.000 14.850 8.985 5.864 15.353 8.914 6.440
WS7MET_125 2018-09-29 02:15:00 125 30483.0 12.830 13.080 13.220 13.380 13.300 60.830 58.210 5.468 5.349 0.00 0.00 14.720 14.240 13.210 12.070 12.380 12.950 13.090 13.230 13.470 13.340 5.584 5.442 0.00 0.00 0.5030   12.750 13.060 13.220 13.290 13.270 5.350 5.242     0     0.4390 342.90 1.75   0.000 0.000 14.811 9.012 5.801 15.353 8.937 6.416
WS7MET_125 2018-09-29 02:10:00 125 30483.0 12.820 13.060 13.210 13.380 13.300 60.840 58.070 5.462 5.312 0.00 0.00 14.730 14.240 13.210 12.070 12.430 12.950 13.070 13.220 13.470 13.330 5.640 5.404 0.00 0.00 0.4700   12.750 13.060 13.210 13.290 13.260 5.358 5.234     0     0.3620 338.60 6.39   0.000 0.000 14.801 9.008 5.796 15.353 8.914 6.437
WS7MET_125 2018-09-29 02:05:00 125 30483.0 12.850 13.090 13.230 13.440 13.320 60.950 58.070 5.509 5.376 0.00 0.00 14.740 14.240 13.210 12.070 12.430 12.920 13.100 13.260 13.530 13.370 5.713 5.468 0.00 0.00 0.3850   12.750 13.060 13.200 13.360 13.270 5.350 5.291     0     0.2920 343.00 11.05   0.000 0.000 14.830 9.037 5.791 15.413 8.954 6.463
WS7MET_125 2018-09-29 02:00:00 125 30483.0 12.890 13.130 13.290 13.440 13.430 61.040 58.350 5.576 5.442 0.00 0.00 14.750 14.240 13.200 12.060 12.400 12.990 13.140 13.310 13.500 13.450 5.704 5.522 0.00 0.00 0.4440   12.820 13.110 13.270 13.330 13.370 5.438 5.341     0     0.2860 355.20 8.47   0.000 0.000 14.869 9.080 5.793 15.413 8.995 6.419
WS7MET_125 2018-09-29 01:55:00 125 30483.0 12.960 13.180 13.330 13.500 13.420 60.660 58.070 5.548 5.427 0.00 0.00 14.750 14.230 13.200 12.060 12.400 13.050 13.210 13.350 13.600 13.430 5.654 5.522 0.00 0.00 0.3790   12.780 13.150 13.310 13.430 13.410 5.421 5.351     0     0.2660 341.90 1.52   0.000 0.000 14.937 9.062 5.876 15.473 8.986 6.488
WS7MET_125 2018-09-29 01:50:00 125 30483.0 13.060 13.260 13.390 13.550 13.450 60.440 58.080 5.589 5.478 0.00 0.00 14.760 14.230 13.200 12.060 12.420 13.190 13.290 13.410 13.630 13.460 5.702 5.596 0.00 0.00 0.5100   12.920 13.220 13.360 13.500 13.410 5.467 5.400     0     0.3930 340.30 5.74   0.000 0.000 15.035 9.088 5.948 15.524 9.018 6.508
WS7MET_125 2018-09-29 01:45:00 125 30483.0 13.110 13.320 13.460 13.650 13.500 59.920 57.410 5.515 5.402 0.00 0.00 14.770 14.230 13.200 12.060 12.410 13.220 13.350 13.500 13.740 13.580 5.586 5.522 0.00 0.00 0.4050   13.050 13.290 13.410 13.570 13.390 5.434 5.283     0     0.3180 337.50 6.08   0.000 0.000 15.085 9.041 6.046 15.625 8.970 6.655
WS7MET_125 2018-09-29 01:40:00 125 30483.0 13.230 13.390 13.530 13.720 13.590 59.600 57.090 5.553 5.387 0.00 0.00 14.780 14.230 13.200 12.060 12.400 13.500 13.430 13.550 13.800 13.630 5.868 5.468 0.00 0.00 0.4570   13.120 13.350 13.500 13.630 13.540 5.424 5.295     0     0.3520 343.80 0.38   0.000 0.000 15.203 9.065 6.142 15.697 8.961 6.735
WS7MET_125 2018-09-29 01:35:00 125 30483.0 13.280 13.480 13.600 13.800 13.640 59.230 56.660 5.502 5.355 0.00 0.00 14.790 14.230 13.200 12.060 12.430 13.430 13.520 13.620 13.910 13.680 5.705 5.536 0.00 0.00 0.4970   13.220 13.430 13.560 13.740 13.580 5.396 5.290     0     0.4110 342.50 1.39   0.000 0.000 15.253 9.033 6.219 15.778 8.941 6.838
WS7MET_125 2018-09-29 01:30:00 125 30483.0 13.300 13.540 13.670 13.860 13.740 59.190 56.390 5.519 5.346 0.00 0.00 14.790 14.230 13.200 12.060 12.430 13.360 13.560 13.680 13.970 13.790 5.649 5.470 0.00 0.00 0.4770   13.220 13.520 13.630 13.770 13.640 5.418 5.206     0     0.3960 340.50 2.76   0.000 0.000 15.273 9.044 6.233 15.840 8.936 6.908
WS7MET_125 2018-09-29 01:25:00 125 30483.0 13.390 13.600 13.730 13.960 13.820 58.700 56.130 5.477 5.372 0.00 0.00 14.800 14.220 13.200 12.060 12.390 13.460 13.620 13.760 14.080 13.860 5.607 5.522 0.00 0.00 0.3460   13.330 13.560 13.690 13.910 13.770 5.314 5.213     0     0.2670 339.50 1.75   0.000 0.000 15.363 9.017 6.345 15.943 8.952 6.994
WS7MET_125 2018-09-29 01:20:00 125 30483.0 13.520 13.660 13.800 14.050 13.820 58.120 55.590 5.462 5.312 0.00 0.00 14.810 14.220 13.200 12.060 12.410 13.630 13.730 13.870 14.150 13.890 5.652 5.469 0.00 0.00 0.3200   13.430 13.610 13.760 13.940 13.770 5.292 5.176     0     0.2500 337.80 1.24   0.000 0.000 15.494 9.008 6.489 16.037 8.914 7.122
WS7MET_125 2018-09-29 01:15:00 125 30483.0 13.640 13.800 13.940 14.180 13.980 57.370 54.960 5.386 5.270 0.00 0.00 14.820 14.220 13.200 12.060 12.410 13.770 13.860 14.010 14.250 14.050 5.494 5.367 0.00 0.00 0.3400   13.530 13.730 13.870 14.110 13.890 5.305 5.170     0     0.2250 341.20 8.44   0.000 0.000 15.615 8.960 6.657 16.172 8.888 7.284
WS7MET_125 2018-09-29 01:10:00 125 30483.0 13.750 13.950 14.090 14.310 14.100 56.770 54.430 5.333 5.257 0.00 0.00 14.830 14.210 13.200 12.060 12.420 13.910 14.020 14.170 14.420 14.210 5.475 5.358 0.00 0.00 0.3400   13.630 13.870 14.020 14.210 14.020 5.235 5.171     0     0.2560 329.60 4.22   0.000 0.000 15.727 8.927 6.799 16.309 8.880 7.432
WS7MET_125 2018-09-29 01:05:00 125 30483.0 13.850 14.060 14.220 14.460 14.260 56.450 53.800 5.345 5.227 0.00 0.00 14.830 14.210 13.200 12.060 12.410 13.940 14.120 14.270 14.550 14.300 5.420 5.397 0.00 0.00 0.4310   13.740 14.020 14.170 14.380 14.190 5.264 5.093     0     0.3160 338.30 5.71   0.000 0.000 15.830 8.935 6.894 16.468 8.862 7.608
WS7MET_125 2018-09-29 01:00:00 125 30483.0 13.960 14.170 14.340 14.600 14.400 55.920 53.230 5.315 5.207 0.00 0.00 14.840 14.210 13.200 12.060 12.400 14.080 14.200 14.380 14.690 14.470 5.434 5.273 0.00 0.00 0.3330   13.870 14.130 14.290 14.520 14.320 5.213 5.140     0     0.2620 343.60 2.57   0.000 0.000 15.943 8.916 7.028 16.618 8.849 7.772
WS7MET_125 2018-09-29 00:55:00 125 30483.0 14.110 14.270 14.440 14.730 14.520 55.640 52.920 5.384 5.238 0.00 0.00 14.850 14.210 13.200 12.060 12.460 14.250 14.330 14.500 14.860 14.570 5.493 5.386 0.00 0.00 0.4310   14.010 14.200 14.390 14.660 14.470 5.246 5.090     0     0.3190 340.30 1.12   0.000 0.000 16.099 8.959 7.142 16.758 8.869 7.890
WS7MET_125 2018-09-29 00:50:00 125 30483.0 14.250 14.410 14.570 14.850 14.630 54.830 52.280 5.306 5.172 0.00 0.00 14.850 14.210 13.200 12.060 12.420 14.380 14.490 14.650 15.070 14.690 5.509 5.306 0.00 0.00 0.4050   14.110 14.330 14.500 14.730 14.570 5.179 5.052     0     0.1760 339.90 1.62   0.000 0.000 16.246 8.911 7.338 16.888 8.828 8.059
WS7MET_125 2018-09-29 00:45:00 125 30483.0 14.420 14.580 14.740 14.990 14.790 54.330 51.970 5.328 5.218 0.00 0.00 14.860 14.210 13.200 12.060 12.430 14.520 14.650 14.800 15.130 14.850 5.479 5.348 0.00 0.00 0.3590   14.320 14.490 14.660 14.860 14.690 5.111 5.043     0     0.1700 334.60 0.87   0.000 0.000 16.426 8.924 7.502 17.041 8.856 8.185
WS7MET_125 2018-09-29 00:40:00 125 30483.0 14.530 14.700 14.850 15.080 14.900 53.630 51.230 5.243 5.094 0.00 0.00 14.870 14.210 13.200 12.070 12.460 14.660 14.750 14.900 15.170 14.970 5.484 5.422 0.00 0.00 0.5030   14.420 14.660 14.810 14.960 14.850 5.134 4.998     0     0.3950 339.20 5.55   0.000 0.000 16.543 8.872 7.671 17.140 8.780 8.359
WS7MET_125 2018-09-29 00:35:00 125 30483.0 14.680 14.830 14.960 15.210 15.010 53.680 51.070 5.399 5.177 0.00 0.00 14.870 14.210 13.200 12.070 12.460 15.130 14.910 15.030 15.310 15.060 5.800 5.374 0.00 0.00 0.3660   14.520 14.770 14.900 15.100 14.960 5.266 5.047     0     0.2530 337.60 2.76   0.000 0.000 16.704 8.969 7.737 17.284 8.831 8.457
WS7MET_125 2018-09-29 00:30:00 125 30483.0 14.760 14.970 15.110 15.350 15.130 53.390 50.900 5.394 5.255 0.00 0.00 14.880 14.210 13.200 12.070 12.440 14.900 15.010 15.170 15.410 15.290 5.651 5.476 0.00 0.00 0.4120   14.590 14.920 15.030 15.240 15.020 5.210 5.164     0     0.3390 339.20 0.93   0.000 0.000 16.790 8.965 7.826 17.440 8.879 8.563
WS7MET_125 2018-09-29 00:25:00 125 30483.0 14.900 15.040 15.220 15.530 15.340 53.030 50.380 5.426 5.273 0.00 0.00 14.890 14.210 13.200 12.070 12.420 15.030 15.100 15.280 15.610 15.380 5.519 5.379 0.00 0.00 0.3720   14.830 15.000 15.170 15.480 15.280 5.321 5.168     0     0.1410 342.50 3.76   0.000 0.000 16.942 8.985 7.958 17.642 8.890 8.754
WS7MET_125 2018-09-29 00:20:00 125 30483.0 15.020 15.180 15.360 15.640 15.420 52.600 49.970 5.420 5.254 0.00 0.00 14.900 14.210 13.200 12.070 12.440 15.170 15.260 15.420 15.820 15.480 5.548 5.359 0.00 0.00 0.3460   14.930 15.110 15.290 15.540 15.390 5.305 5.198     0     0.1510 347.20 2.13   0.000 0.000 17.074 8.982 8.093 17.767 8.879 8.889
WS7MET_125 2018-09-29 00:15:00 125 30483.0 15.150 15.330 15.500 15.760 15.550 52.600 49.890 5.542 5.343 0.00 0.00 14.910 14.210 13.200 12.070 12.410 15.240 15.400 15.550 15.850 15.610 5.721 5.451 0.00 0.00 0.4510   15.070 15.260 15.430 15.610 15.480 5.412 5.206     0     0.3060 345.10 0.60   0.000 0.000 17.217 9.058 8.161 17.904 8.934 8.972
WS7MET_125 2018-09-29 00:10:00 125 30483.0 15.270 15.460 15.600 15.850 15.660 52.970 49.870 5.760 5.420 0.00 0.00 14.910 14.210 13.200 12.070 12.440 15.480 15.520 15.650 15.990 15.690 5.997 5.550 0.00 0.00 0.4310   15.170 15.410 15.560 15.750 15.610 5.628 5.314     0     0.3410 343.30 1.45   0.000 0.000 17.351 9.196 8.160 18.008 8.982 9.027
WS7MET_125 2018-09-29 00:05:00 125 30483.0 15.350 15.560 15.690 15.910 15.770 52.550 49.530 5.711 5.382 0.00 0.00 14.910 14.210 13.200 12.070 12.420 15.410 15.570 15.710 16.020 15.800 5.875 5.514 0.00 0.00 0.4250   15.270 15.520 15.650 15.850 15.690 5.422 5.229     0     0.3770 343.00 0.81   0.000 0.000 17.440 9.165 8.275 18.077 8.958 9.123
WS7MET_125 2018-09-29 00:00:00 125 30483.0 15.390 15.600 15.730 15.940 15.770 51.730 49.180 5.528 5.304 0.00 0.00 14.920 14.200 13.200 12.070 12.420 15.480 15.650 15.760 16.060 15.800 5.741 5.515 0.00 0.00 0.5680   15.270 15.560 15.700 15.850 15.760 5.309 5.171     0     0.4320 342.40 3.60   0.000 0.000 17.485 9.049 8.440 18.112 8.909 9.204
WS7MET_125 2018-09-28 23:55:00 125 30483.0 15.500 15.680 15.820 16.040 15.880 50.890 48.440 5.389 5.183 0.00 0.00 14.930 14.200 13.200 12.070 12.470 15.580 15.710 15.850 16.160 15.910 5.526 5.327 0.00 0.00 0.4310   15.410 15.660 15.770 15.950 15.780 5.236 5.111     0     0.2720 332.60 7.54   0.000 0.000 17.609 8.962 8.648 18.228 8.835 9.398
WS7MET_125 2018-09-28 23:50:00 125 30483.0 15.570 15.780 15.920 16.150 15.950 50.550 48.050 5.364 5.165 0.00 0.00 14.940 14.200 13.200 12.070 12.440 15.780 15.830 15.970 16.230 16.020 5.566 5.371 0.00 0.00 0.3200   15.410 15.710 15.850 16.060 15.840 5.173 4.991     0     0.2500 334.20 0.61   0.000 0.000 17.688 8.947 8.747 18.356 8.824 9.536
WS7MET_125 2018-09-28 23:45:00 125 30483.0 15.640 15.840 16.010 16.250 16.060 50.410 47.830 5.386 5.190 0.00 0.00 14.940 14.190 13.200 12.070 12.420 15.750 15.850 16.040 16.360 16.090 5.539 5.324 0.00 0.00 0.4380   15.540 15.830 15.970 16.090 16.030 5.245 5.022     0     0.3000 329.90 3.16   0.000 0.000 17.767 8.960 8.811 18.473 8.839 9.638
WS7MET_125 2018-09-28 23:40:00 125 30483.0 15.680 15.890 16.080 16.330 16.150 50.450 47.730 5.436 5.231 0.00 0.00 14.950 14.190 13.200 12.070 12.430 15.920 15.920 16.120 16.430 16.190 5.665 5.365 0.00 0.00 0.4180   15.610 15.870 16.050 16.260 16.110 5.274 5.086     0     0.3550 338.20 0.34   0.000 0.000 17.813 8.992 8.826 18.568 8.864 9.705
WS7MET_125 2018-09-28 23:35:00 125 30483.0 15.740 15.960 16.140 16.350 16.240 50.660 47.770 5.542 5.265 0.00 0.00 14.950 14.190 13.190 12.070 12.410 15.920 15.990 16.160 16.430 16.260 5.743 5.427 0.00 0.00 0.4970   15.610 15.920 16.120 16.290 16.190 5.304 5.158     0     0.3550 341.30 4.86   0.000 0.000 17.881 9.058 8.823 18.592 8.885 9.710
WS7MET_125 2018-09-28 23:30:00 125 30483.0 15.770 16.020 16.160 16.370 16.240 50.630 47.800 5.563 5.289 0.00 0.00 14.960 14.190 13.190 12.070 12.490 15.850 16.040 16.170 16.500 16.260 5.728 5.375 0.00 0.00 0.5490   15.650 16.000 16.160 16.290 16.240 5.408 5.210     0     0.4440 343.70 4.72   0.000 0.000 17.916 9.071 8.845 18.615 8.900 9.717
WS7MET_125 2018-09-28 23:25:00 125 30483.0 15.780 16.030 16.190 16.410 16.260 50.550 47.640 5.550 5.276 0.00 0.00 14.970 14.190 13.190 12.070 12.440 15.850 16.030 16.190 16.500 16.300 5.687 5.531 0.00 0.00 0.4310   15.710 16.010 16.170 16.290 16.240 5.359 5.189     0     0.3230 339.60 2.67   0.000 0.000 17.927 9.063 8.865 18.663 8.892 9.772
WS7MET_125 2018-09-28 23:20:00 125 30483.0 15.840 16.050 16.220 16.460 16.260 49.520 47.110 5.315 5.159 0.00 0.00 14.970 14.190 13.190 12.070 12.420 15.950 16.090 16.280 16.530 16.310 5.583 5.284 0.00 0.00 0.5290   15.750 16.020 16.190 16.400 16.210 5.215 5.065     0     0.4170 345.30 0.79   0.000 0.000 17.996 8.916 9.084 18.722 8.820 9.902
WS7MET_125 2018-09-28 23:15:00 125 30483.0 15.920 16.140 16.320 16.510 16.390 49.270 46.850 5.314 5.130 0.00 0.00 14.970 14.180 13.190 12.070 12.410 15.990 16.170 16.340 16.600 16.460 5.410 5.388 0.00 0.00 0.4640   15.820 16.090 16.280 16.430 16.320 5.179 4.960     0     0.3940 340.50 3.26   0.000 0.000 18.088 8.916 9.176 18.782 8.802 9.983
WS7MET_125 2018-09-28 23:10:00 125 30483.0 15.920 16.160 16.300 16.500 16.400 48.890 46.530 5.204 5.019 0.00 0.00 14.980 14.170 13.190 12.070 12.440 16.060 16.180 16.340 16.570 16.480 5.320 5.106 0.00 0.00 0.4970   15.850 16.140 16.280 16.430 16.320 5.067 4.940     0     0.4450 342.20 1.15   0.000 0.000 18.088 8.848 9.245 18.770 8.734 10.036
WS7MET_125 2018-09-28 23:05:00 125 30483.0 15.980 16.190 16.340 16.560 16.380 49.310 46.700 5.377 5.132 0.00 0.00 14.990 14.170 13.190 12.070 12.430 16.090 16.260 16.370 16.640 16.390 5.626 5.347 0.00 0.00 0.5750   15.890 16.140 16.290 16.500 16.320 5.150 4.960     0     0.4860 342.60 4.14   0.000 0.000 18.158 8.955 9.204 18.842 8.803 10.043
WS7MET_125 2018-09-28 23:00:00 125 30483.0 16.070 16.310 16.440 16.650 16.470 49.090 46.430 5.401 5.130 0.00 0.00 15.000 14.170 13.190 12.070 12.450 16.190 16.350 16.480 16.740 16.540 5.598 5.305 0.00 0.00 0.5750   15.950 16.260 16.380 16.570 16.370 5.171 5.021     0     0.4300 336.30 2.24   0.000 0.000 18.263 8.970 9.297 18.950 8.802 10.151
WS7MET_125 2018-09-28 22:55:00 125 30483.0 16.130 16.360 16.510 16.710 16.550 48.890 46.440 5.392 5.186 0.00 0.00 15.000 14.170 13.190 12.070 12.440 16.230 16.390 16.530 16.770 16.590 5.568 5.461 0.00 0.00 0.4770   16.020 16.340 16.490 16.600 16.520 5.185 5.032     0     0.4120 339.40 3.53   0.000 0.000 18.333 8.964 9.370 19.022 8.837 10.188
WS7MET_125 2018-09-28 22:50:00 125 30483.0 16.200 16.400 16.560 16.800 16.620 48.610 46.190 5.379 5.189 0.00 0.00 15.000 14.170 13.190 12.070 12.470 16.290 16.430 16.590 16.910 16.650 5.495 5.260 0.00 0.00 0.4700   16.120 16.380 16.530 16.700 16.580 5.280 5.102     0     0.3900 341.70 1.10   0.000 0.000 18.415 8.956 9.463 19.131 8.838 10.294
WS7MET_125 2018-09-28 22:45:00 125 30483.0 16.280 16.480 16.660 16.920 16.690 48.610 45.970 5.448 5.233 0.00 0.00 15.010 14.170 13.190 12.070 12.460 16.360 16.540 16.720 17.010 16.760 5.798 5.449 0.00 0.00 0.4700   16.160 16.420 16.590 16.810 16.610 5.167 5.006     0     0.3540 343.10 3.73   0.000 0.000 18.509 8.999 9.512 19.277 8.866 10.416
WS7MET_125 2018-09-28 22:40:00 125 30483.0 16.390 16.600 16.780 17.080 16.860 48.470 45.790 5.507 5.318 0.00 0.00 15.010 14.170 13.190 12.070 12.480 16.470 16.640 16.830 17.150 16.920 5.630 5.543 0.00 0.00 0.3530   16.290 16.540 16.730 16.980 16.790 5.395 5.203     0     0.2790 338.60 8.33   0.000 0.000 18.639 9.036 9.605 19.474 8.918 10.557
WS7MET_125 2018-09-28 22:35:00 125 30483.0 16.500 16.690 16.870 17.110 16.950 49.100 46.070 5.793 5.436 0.00 0.00 15.020 14.160 13.190 12.070 12.440 16.810 16.740 16.910 17.250 16.960 5.986 5.581 0.00 0.00 0.5230   16.330 16.650 16.840 16.980 16.920 5.425 5.290     0     0.3960 349.20 1.73   0.000 0.000 18.770 9.217 9.554 19.511 8.992 10.522
WS7MET_125 2018-09-28 22:30:00 125 30483.0 16.620 16.810 16.960 17.200 17.000 48.830 45.920 5.823 5.472 0.00 0.00 15.020 14.150 13.190 12.070 12.450 16.700 16.880 17.020 17.280 17.060 6.072 5.676 0.00 0.00 0.4640   16.500 16.750 16.910 17.110 16.950 5.593 5.316     0     0.3520 341.40 2.11   0.000 0.000 18.914 9.237 9.678 19.622 9.014 10.612
WS7MET_125 2018-09-28 22:25:00 125 30483.0 16.690 16.910 17.040 17.290 17.090 48.890 46.080 5.908 5.604 0.00 0.00 15.020 14.150 13.190 12.070 12.450 16.810 16.940 17.080 17.490 17.100 6.115 5.724 0.00 0.00 0.4440   16.600 16.890 17.020 17.180 17.080 5.718 5.486     0     0.3900 335.00 0.38   0.000 0.000 18.998 9.291 9.710 19.734 9.097 10.641
WS7MET_125 2018-09-28 22:20:00 125 30483.0 16.790 16.990 17.140 17.400 17.170 48.090 45.690 5.764 5.579 0.00 0.00 15.030 14.150 13.190 12.070 12.470 16.840 17.040 17.200 17.490 17.280 5.833 5.748 0.00 0.00 0.4510   16.740 16.950 17.080 17.280 17.100 5.658 5.495     0     0.3320 334.10 1.58   0.000 0.000 19.119 9.199 9.925 19.872 9.082 10.792
WS7MET_125 2018-09-28 22:15:00 125 30483.0 16.840 17.070 17.240 17.480 17.300 48.030 45.510 5.792 5.591 0.00 0.00 15.040 14.150 13.190 12.070 12.470 16.940 17.110 17.290 17.560 17.370 6.088 5.927 0.00 0.00 0.4250   16.740 17.040 17.200 17.390 17.240 5.627 5.499     0     0.3420 336.20 4.47   0.000 0.000 19.180 9.217 9.968 19.973 9.089 10.883
WS7MET_125 2018-09-28 22:10:00 125 30483.0 16.940 17.140 17.290 17.550 17.370 47.580 45.260 5.751 5.576 0.00 0.00 15.040 14.140 13.190 12.070 12.470 17.080 17.190 17.330 17.660 17.390 5.938 5.676 0.00 0.00 0.3920   16.870 17.120 17.280 17.420 17.320 5.617 5.468     0     0.3160 341.50 3.01   0.000 0.000 19.302 9.191 10.118 20.061 9.080 10.981
WS7MET_125 2018-09-28 22:05:00 125 30483.0 17.010 17.220 17.390 17.660 17.450 47.270 44.840 5.719 5.542 0.00 0.00 15.040 14.140 13.190 12.070 12.460 17.110 17.250 17.450 17.760 17.540 5.919 5.792 0.00 0.00 0.5230   16.910 17.190 17.330 17.520 17.370 5.544 5.452     0     0.3170 341.10 3.55   0.000 0.000 19.388 9.170 10.223 20.201 9.058 11.143
WS7MET_125 2018-09-28 22:00:00 125 30483.0 17.110 17.300 17.500 17.750 17.580 47.110 44.610 5.756 5.554 0.00 0.00 15.050 14.130 13.190 12.070 12.450 17.180 17.340 17.520 17.830 17.630 5.846 5.671 0.00 0.00 0.4830   16.980 17.260 17.450 17.660 17.540 5.658 5.475     0     0.4020 350.20 2.96   0.000 0.000 19.511 9.194 10.319 20.316 9.066 11.253
WS7MET_125 2018-09-28 21:55:00 125 30483.0 17.210 17.390 17.580 17.830 17.630 46.820 44.510 5.756 5.595 0.00 0.00 15.050 14.130 13.190 12.070 12.470 17.280 17.430 17.620 17.900 17.660 5.877 5.809 0.00 0.00 0.4830   17.150 17.350 17.530 17.760 17.590 5.636 5.449     0     0.4110 344.60 1.24   0.000 0.000 19.635 9.194 10.442 20.418 9.092 11.330
WS7MET_125 2018-09-28 21:50:00 125 30483.0 17.310 17.500 17.680 17.920 17.710 46.480 44.180 5.746 5.571 0.00 0.00 15.050 14.130 13.190 12.070 12.490 17.420 17.560 17.710 18.030 17.750 5.876 5.707 0.00 0.00 0.4900   17.250 17.440 17.620 17.800 17.680 5.656 5.424     0     0.4380 344.60 1.72   0.000 0.000 19.759 9.187 10.575 20.534 9.076 11.462
WS7MET_125 2018-09-28 21:45:00 125 30483.0 17.400 17.610 17.770 18.000 17.800 46.350 43.790 5.787 5.514 0.00 0.00 15.050 14.130 13.190 12.070 12.510 17.560 17.650 17.790 18.070 17.840 5.907 5.783 0.00 0.00 0.5680   17.280 17.560 17.740 17.970 17.750 5.621 5.422     0     0.4540 344.20 5.90   0.000 0.000 19.872 9.214 10.661 20.638 9.041 11.600
WS7MET_125 2018-09-28 21:40:00 125 30483.0 17.500 17.660 17.830 18.060 17.850 46.140 43.690 5.808 5.535 0.00 0.00 15.050 14.130 13.190 12.070 12.470 17.630 17.680 17.850 18.140 17.870 6.104 5.711 0.00 0.00 0.7510   17.390 17.650 17.790 17.970 17.790 5.609 5.410     0     0.5750 344.80 2.11   0.000 0.000 19.998 9.227 10.771 20.716 9.054 11.665
WS7MET_125 2018-09-28 21:35:00 125 30483.0 17.570 17.730 17.900 18.130 17.900 46.120 43.870 5.869 5.660 0.00 0.00 15.060 14.120 13.190 12.080 12.450 17.690 17.780 17.950 18.240 17.930 5.969 5.800 0.00 0.00 0.5420   17.490 17.680 17.860 18.000 17.870 5.746 5.514     0     0.4720 336.80 0.59   0.000 0.000 20.086 9.266 10.823 20.807 9.133 11.679
WS7MET_125 2018-09-28 21:30:00 125 30483.0 17.710 17.880 18.040 18.270 18.000 45.860 43.400 5.917 5.632 0.00 0.00 15.060 14.110 13.190 12.080 12.490 17.830 17.960 18.130 18.410 18.090 6.164 5.812 0.00 0.00 0.6080   17.590 17.780 17.960 18.170 17.930 5.764 5.415     0     0.5230 337.70 0.77   0.000 0.000 20.264 9.297 10.971 20.991 9.115 11.881
WS7MET_125 2018-09-28 21:25:00 125 30483.0 17.860 18.050 18.220 18.510 18.190 44.890 42.550 5.747 5.558 0.00 0.00 15.060 14.100 13.190 12.080 12.490 17.970 18.140 18.330 18.650 18.310 5.950 5.695 0.00 0.00 0.5290   17.760 17.970 18.140 18.410 18.110 5.570 5.465     0     0.4470 341.10 5.51   0.000 0.000 20.457 9.188 11.274 21.309 9.068 12.242
WS7MET_125 2018-09-28 21:20:00 125 30483.0 17.930 18.200 18.400 18.660 18.460 45.110 42.190 5.877 5.578 0.00 0.00 15.060 14.100 13.190 12.080 12.470 18.030 18.230 18.440 18.790 18.570 6.254 5.808 0.00 0.00 0.5490   17.800 18.150 18.340 18.610 18.340 5.678 5.480     0     0.5090 353.40 1.64   0.000 0.000 20.547 9.271 11.278 21.510 9.081 12.435
WS7MET_125 2018-09-28 21:15:00 125 30483.0 17.900 18.230 18.420 18.640 18.580 45.010 42.040 5.819 5.506 0.00 0.00 15.060 14.100 13.190 12.080 12.460 18.000 18.250 18.440 18.750 18.610 6.129 5.615 0.00 0.00 0.5880   17.800 18.190 18.390 18.550 18.570 5.557 5.426     0     0.5080 347.10 4.09   0.000 0.000 20.508 9.234 11.278 21.483 9.036 12.452
WS7MET_125 2018-09-28 21:10:00 125 30483.0 17.880 18.160 18.370 18.580 18.500 44.670 41.850 5.691 5.381 0.00 0.00 15.070 14.100 13.190 12.080 12.480 18.030 18.190 18.390 18.610 18.570 5.935 5.461 0.00 0.00 0.6790   17.800 18.130 18.350 18.550 18.470 5.508 5.289     0     0.5500 348.70 13.02   0.000 0.000 20.483 9.152 11.333 21.402 8.957 12.446
WS7MET_125 2018-09-28 21:05:00 125 30483.0 17.870 18.160 18.360 18.570 18.440 44.520 41.690 5.633 5.323 0.00 0.00 15.070 14.090 13.190 12.080 12.450 17.970 18.180 18.370 18.680 18.470 5.817 5.452 0.00 0.00 0.6600   17.730 18.130 18.340 18.440 18.380 5.371 5.185     0     0.5540 348.10 3.63   0.000 0.000 20.470 9.116 11.357 21.389 8.921 12.472
WS7MET_125 2018-09-28 21:00:00 125 30483.0 17.850 18.150 18.340 18.530 18.420 44.100 41.430 5.478 5.198 0.00 0.00 15.070 14.080 13.190 12.080 12.520 17.930 18.170 18.350 18.610 18.450 5.802 5.348 0.00 0.00 0.7450   17.800 18.140 18.330 18.480 18.410 5.320 5.074     0     0.5940 354.80 4.67   0.000 0.000 20.444 9.018 11.428 21.336 8.844 12.496
WS7MET_125 2018-09-28 20:55:00 125 30483.0 17.840 18.150 18.330 18.540 18.420 43.530 41.070 5.285 5.085 0.00 0.00 15.070 14.080 13.190 12.080 12.470 17.930 18.170 18.350 18.650 18.450 5.458 5.168 0.00 0.00 0.8820   17.730 18.140 18.310 18.480 18.380 5.126 5.021     0     0.5370 355.00 4.92   0.000 0.000 20.431 8.898 11.537 21.349 8.775 12.581
WS7MET_125 2018-09-28 20:50:00 125 30483.0 17.840 18.140 18.350 18.600 18.440 43.520 40.840 5.275 5.051 0.00 0.00 15.070 14.080 13.190 12.080 12.500 17.930 18.140 18.350 18.750 18.450 5.553 5.224 0.00 0.00 0.6660   17.730 18.130 18.340 18.510 18.430 5.081 4.908     0     0.4560 350.90 8.64   0.000 0.000 20.431 8.892 11.539 21.429 8.754 12.678
WS7MET_125 2018-09-28 20:45:00 125 30483.0 17.900 18.150 18.360 18.630 18.440 44.260 40.640 5.576 5.006 0.00 0.00 15.070 14.080 13.190 12.080 12.460 17.970 18.180 18.380 18.680 18.470 5.837 5.310 0.00 0.00 0.6600   17.830 18.130 18.350 18.580 18.410 5.152 4.787     0     0.5730 355.70 6.50   0.000 0.000 20.508 9.080 11.431 21.470 8.726 12.744
WS7MET_125 2018-09-28 20:40:00 125 30483.0 18.000 18.240 18.430 18.670 18.470 42.870 40.050 5.204 4.833 0.00 0.00 15.070 14.070 13.190 12.080 12.490 18.070 18.270 18.460 18.750 18.520 5.396 5.079 0.00 0.00 0.6470   17.930 18.190 18.380 18.580 18.410 4.872 4.621     0     0.5640 357.40 4.17   0.000 0.000 20.638 8.848 11.790 21.523 8.621 12.903
WS7MET_125 2018-09-28 20:35:00 125 30483.0 18.090 18.310 18.490 18.770 18.580 43.040 40.520 5.347 5.092 0.00 0.00 15.070 14.060 13.190 12.080 12.470 18.270 18.360 18.530 18.850 18.630 5.590 5.256 0.00 0.00 0.7120   18.030 18.270 18.460 18.680 18.520 5.157 4.976     0     0.4750 353.30 6.10   0.000 0.000 20.755 8.936 11.822 21.658 8.779 12.882
WS7MET_125 2018-09-28 20:30:00 125 30483.0 18.190 18.420 18.580 18.850 18.650 43.340 40.560 5.540 5.181 0.00 0.00 15.070 14.060 13.190 12.080 12.500 18.340 18.490 18.650 19.020 18.730 5.812 5.613 0.00 0.00 0.6530   18.100 18.370 18.530 18.790 18.610 5.292 4.971     0     0.3080 345.90 11.27   0.000 0.000 20.886 9.057 11.834 21.767 8.833 12.938
WS7MET_125 2018-09-28 20:25:00 125 30483.0 18.280 18.530 18.660 18.890 18.750 42.110 40.100 5.205 5.047 0.00 0.00 15.070 14.060 13.190 12.080 12.500 18.380 18.570 18.690 18.960 18.790 5.533 5.449 0.00 0.00 0.6930   18.140 18.490 18.630 18.790 18.700 5.043 4.872     0     0.4560 351.30 5.86   0.000 0.000 21.004 8.848 12.159 21.821 8.751 13.071
WS7MET_125 2018-09-28 20:20:00 125 30483.0 18.240 18.550 18.690 18.880 18.780 41.680 39.620 5.023 4.871 0.00 0.00 15.070 14.050 13.190 12.080 12.490 18.380 18.570 18.710 18.960 18.820 5.112 4.964 0.00 0.00 0.7450   18.170 18.510 18.670 18.820 18.730 4.935 4.693     0     0.5090 348.80 5.28   0.000 0.000 20.951 8.737 12.219 21.808 8.644 13.167
WS7MET_125 2018-09-28 20:15:00 125 30483.0 18.200 18.510 18.660 18.890 18.760 41.920 39.070 5.059 4.679 0.00 0.00 15.070 14.050 13.190 12.080 12.490 18.270 18.530 18.670 18.990 18.780 5.578 4.823 0.00 0.00 0.6860   18.140 18.460 18.620 18.850 18.730 4.779 4.467     0     0.4520 341.00 9.77   0.000 0.000 20.899 8.759 12.138 21.821 8.529 13.296
WS7MET_125 2018-09-28 20:10:00 125 30483.0 18.210 18.460 18.620 18.930 18.760 41.230 38.450 4.836 4.481 0.00 0.00 15.070 14.040 13.190 12.080 12.490 18.340 18.470 18.630 18.990 18.790 5.175 4.647 0.00 0.00 0.6340   18.140 18.460 18.620 18.850 18.730 4.607 4.345     0     0.4470 356.40 6.24   0.000 0.000 20.912 8.623 12.290 21.876 8.412 13.465
WS7MET_125 2018-09-28 20:05:00 125 30483.0 18.320 18.520 18.710 19.050 18.750 41.180 38.200 4.917 4.497 0.00 0.00 15.070 14.040 13.190 12.080 12.490 18.650 18.600 18.780 19.130 18.830 5.481 4.768 0.00 0.00 0.6340   18.210 18.460 18.650 18.960 18.700 4.589 4.304     0     0.4400 1.65 6.10   0.000 0.000 21.057 8.672 12.386 22.040 8.421 13.621
WS7MET_125 2018-09-28 20:00:00 125 30483.0 18.450 18.670 18.840 19.170 18.910 40.480 37.580 4.787 4.373 0.00 0.00 15.060 14.040 13.190 12.080 12.470 18.580 18.740 18.900 19.260 18.980 4.932 4.478 0.00 0.00 0.6140   18.340 18.600 18.780 19.060 18.840 4.676 4.235     0     0.3720 348.10 6.09   0.000 0.000 21.229 8.594 12.635 22.206 8.348 13.861
WS7MET_125 2018-09-28 19:55:00 125 30483.0 18.580 18.800 18.980 19.280 19.040 40.040 37.190 4.751 4.316 0.00 0.00 15.050 14.040 13.190 12.080 12.490 18.680 18.850 19.030 19.330 19.070 5.059 4.633 0.00 0.00 0.5880   18.480 18.750 18.920 19.130 18.980 4.505 4.170     0     0.4300 359.10 3.63   0.000 0.000 21.402 8.572 12.833 22.358 8.315 14.043
WS7MET_125 2018-09-28 19:50:00 125 30483.0 18.670 18.900 19.080 19.380 19.150 39.540 36.660 4.647 4.205 0.00 0.00 15.060 14.030 13.190 12.080 12.500 18.790 18.940 19.130 19.470 19.210 4.989 4.317 0.00 0.00 0.6530   18.550 18.850 19.030 19.300 19.050 4.343 4.124     0     0.3730 354.60 5.47   0.000 0.000 21.523 8.510 13.013 22.498 8.250 14.250
WS7MET_125 2018-09-28 19:45:00 125 30483.0 18.780 19.020 19.180 19.460 19.240 39.240 36.240 4.636 4.108 0.00 0.00 15.050 14.020 13.190 12.080 12.500 18.850 19.070 19.220 19.540 19.330 4.805 4.351 0.00 0.00 0.5360   18.610 18.960 19.130 19.400 19.180 4.489 3.896     0     0.4000 349.10 9.54   0.000 0.000 21.672 8.503 13.168 22.610 8.194 14.416
WS7MET_125 2018-09-28 19:40:00 125 30483.0 18.840 19.110 19.270 19.550 19.330 38.240 35.170 4.323 3.764 0.00 0.00 15.050 14.020 13.190 12.090 12.510 18.990 19.150 19.300 19.670 19.350 4.811 4.269 0.00 0.00 0.7190   18.750 19.070 19.220 19.430 19.300 3.805 3.574     0     0.4530 354.00 16.25   0.000 0.000 21.753 8.319 13.435 22.737 7.998 14.740
WS7MET_125 2018-09-28 19:35:00 125 30483.0 18.920 19.190 19.350 19.640 19.420 36.940 34.330 3.904 3.500 0.00 0.00 15.050 14.010 13.190 12.080 12.520 19.190 19.230 19.410 19.770 19.580 4.244 3.791 0.00 0.00 0.5160   18.820 19.150 19.320 19.500 19.340 3.700 3.240     0     0.3280 7.01 33.88   0.000 0.000 21.862 8.077 13.786 22.864 7.850 15.015
WS7MET_125 2018-09-28 19:30:00 125 30483.0 18.990 19.270 19.450 19.750 19.520 36.830 34.410 3.928 3.630 0.00 0.00 15.050 14.010 13.190 12.090 12.530 19.190 19.340 19.530 19.880 19.600 4.131 3.791 0.00 0.00 0.5880   18.790 19.200 19.390 19.640 19.440 3.630 3.499     0     0.3500 353.70 9.89   0.000 0.000 21.958 8.091 13.871 23.021 7.923 15.099
WS7MET_125 2018-09-28 19:25:00 125 30483.0 19.040 19.350 19.540 19.840 19.660 37.380 34.070 4.182 3.566 0.00 0.00 15.040 14.010 13.180 12.090 12.500 19.130 19.360 19.550 19.950 19.710 4.629 3.732 0.00 0.00 0.6990   18.990 19.340 19.530 19.740 19.600 3.885 3.390     0     0.4000 357.40 10.81   0.000 0.000 22.026 8.237 13.793 23.150 7.887 15.263
WS7MET_125 2018-09-28 19:20:00 125 30483.0 19.080 19.380 19.610 20.010 19.600 36.250 33.570 3.780 3.503 0.00 0.00 15.030 14.000 13.180 12.090 12.490 19.190 19.430 19.700 20.120 19.650 4.104 3.782 0.00 0.00 0.5620   18.960 19.350 19.550 19.880 19.550 3.417 3.163     0     0.4440 352.10 5.20   0.000 0.000 22.081 8.007 14.077 23.395 7.852 15.541
WS7MET_125 2018-09-28 19:15:00 125 30483.0 19.170 19.460 19.690 20.000 19.820 34.250 32.260 3.050 2.940 0.00 0.00 15.030 14.000 13.180 12.090 12.500 19.300 19.530 19.770 20.150 20.010 3.660 3.179 0.00 0.00 1.1170   18.990 19.410 19.570 19.840 19.680 2.605 2.565     0     0.3150 271.70 29.53   0.000 0.000 22.206 7.604 14.600 23.380 7.545 15.838
WS7MET_125 2018-09-28 19:10:00 125 30483.0 19.240 19.450 19.620 19.950 19.760 33.330 31.340 2.732 2.487 0.00 0.00 15.020 13.990 13.180 12.090 12.540 19.500 19.510 19.690 20.050 19.830 3.496 2.685 0.00 0.00 0.5360   19.130 19.410 19.570 19.840 19.700 2.239 2.236     0     0.2300 353.50 14.26   0.000 0.000 22.303 7.434 14.869 23.308 7.306 16.003
WS7MET_125 2018-09-28 19:05:00 125 30483.0 19.330 19.570 19.760 20.080 19.870 32.860 30.720 2.604 2.317 0.00 0.00 15.010 13.990 13.180 12.090 12.570 19.430 19.620 19.830 20.180 19.950 3.169 2.468 0.00 0.00 0.6270   19.160 19.530 19.690 19.980 19.770 2.150 2.161     0     0.2890 3.63 12.46   0.000 0.000 22.428 7.367 15.058 23.496 7.218 16.278
WS7MET_125 2018-09-28 19:00:00 125 30483.0 19.430 19.650 19.850 20.150 19.950 33.130 31.130 2.815 2.564 0.00 0.00 15.010 13.990 13.180 12.090 12.530 19.570 19.680 19.880 20.220 19.980 3.133 2.819 0.00 0.00 0.7970   19.330 19.620 19.830 20.080 19.920 2.507 2.329     0     0.4980 2.15 15.45   0.000 0.000 22.568 7.478 15.091 23.598 7.346 16.252
WS7MET_125 2018-09-28 18:55:00 125 30483.0 19.550 19.750 19.930 20.250 19.940 33.530 31.480 3.087 2.810 0.00 0.00 15.010 13.980 13.180 12.090 12.550 19.640 19.830 20.020 20.390 19.980 3.337 2.953 0.00 0.00 0.6270   19.400 19.690 19.880 20.120 19.920 2.862 2.386     0     0.4560 349.00 4.08   0.000 0.000 22.737 7.624 15.113 23.744 7.476 16.270
WS7MET_125 2018-09-28 18:50:00 125 30483.0 19.720 19.940 20.130 20.470 20.130 33.510 31.350 3.222 2.946 0.00 0.00 14.990 13.970 13.180 12.090 12.530 19.810 20.020 20.230 20.630 20.330 3.686 3.236 0.00 0.00 0.5230   19.600 19.850 20.020 20.320 19.990 2.864 2.753     0     0.3950 349.00 9.73   0.000 0.000 22.978 7.698 15.278 24.069 7.548 16.523
WS7MET_125 2018-09-28 18:45:00 125 30483.0 19.880 20.110 20.300 20.630 20.390 33.700 31.100 3.446 2.969 0.00 0.00 14.990 13.970 13.180 12.090 12.560 20.010 20.180 20.360 20.700 20.500 3.699 3.311 0.00 0.00 0.4640   19.770 20.040 20.240 20.560 20.340 3.086 2.709     0     0.3090 354.70 3.81   0.000 0.000 23.207 7.821 15.386 24.308 7.561 16.748
WS7MET_125 2018-09-28 18:40:00 125 30483.0 19.950 20.250 20.410 20.720 20.520 32.860 30.730 3.157 2.879 0.00 0.00 14.970 13.970 13.180 12.090 12.550 20.050 20.300 20.470 20.830 20.590 3.599 3.199 0.00 0.00 0.7380   19.810 20.200 20.370 20.630 20.490 2.881 2.738     0     0.3150 359.40 11.50   0.000 0.000 23.308 7.662 15.649 24.443 7.512 16.931
WS7MET_125 2018-09-28 18:35:00 125 30483.0 20.040 20.300 20.470 20.740 20.590 32.670 30.650 3.148 2.859 0.00 0.00 14.970 13.970 13.180 12.090 12.540 20.120 20.330 20.500 20.830 20.700 3.670 3.108 0.00 0.00 0.5030   19.950 20.280 20.450 20.590 20.540 2.850 2.505     0     0.2980 16.96 20.38   0.000 0.000 23.438 7.657 15.781 24.473 7.502 16.972
WS7MET_125 2018-09-28 18:30:00 125 30483.0 20.100 20.340 20.530 20.780 20.610 32.880 30.740 3.288 2.932 0.00 0.00 14.960 13.960 13.180 12.090 12.580 20.180 20.400 20.590 20.870 20.720 3.700 3.228 0.00 0.00 0.6210   19.980 20.280 20.470 20.660 20.540 2.985 2.754     0     0.3020 11.28 11.02   0.000 0.000 23.525 7.734 15.790 24.533 7.541 16.992
WS7MET_125 2018-09-28 18:25:00 125 30483.0 20.200 20.440 20.620 20.860 20.740 32.130 30.580 3.060 2.929 0.00 0.00 14.950 13.950 13.180 12.090 12.540 20.320 20.470 20.660 21.000 20.770 3.460 3.087 0.00 0.00 0.5420   20.120 20.400 20.590 20.760 20.710 2.848 2.805     0     0.3990 353.50 4.78   0.000 0.000 23.671 7.610 16.066 24.654 7.539 17.115
WS7MET_125 2018-09-28 18:20:00 125 30483.0 20.280 20.520 20.710 20.930 20.770 31.880 30.080 3.013 2.756 0.00 0.00 14.940 13.950 13.180 12.090 12.600 20.350 20.560 20.760 21.000 20.800 3.491 2.910 0.00 0.00 0.5680   20.220 20.470 20.660 20.800 20.730 2.709 2.648     0     0.4540 346.70 4.89   0.000 0.000 23.789 7.584 16.205 24.761 7.447 17.313
WS7MET_125 2018-09-28 18:15:00 125 30483.0 20.400 20.600 20.790 21.000 20.890 31.930 29.840 3.141 2.707 0.00 0.00 14.930 13.950 13.180 12.090 12.590 20.530 20.620 20.820 21.070 20.920 3.432 2.974 0.00 0.00 0.5360   20.250 20.580 20.770 20.930 20.800 2.810 2.489     0     0.3820 344.20 5.15   0.000 0.000 23.965 7.653 16.313 24.867 7.421 17.447
WS7MET_125 2018-09-28 18:10:00 125 30483.0 20.590 20.710 20.880 21.140 20.870 31.630 29.940 3.174 2.876 0.00 0.00 14.920 13.950 13.180 12.090 12.610 20.800 20.800 20.970 21.280 20.920 3.522 3.122 0.00 0.00 0.6730   20.460 20.640 20.820 21.040 20.830 2.824 2.616     0     0.4850 348.60 5.61   0.000 0.000 24.248 7.671 16.578 25.082 7.511 17.572
WS7MET_125 2018-09-28 18:05:00 125 30483.0 20.860 20.930 21.090 21.380 21.030 31.420 29.900 3.311 3.061 0.00 0.00 14.900 13.940 13.180 12.090 12.590 21.110 21.060 21.210 21.580 21.140 3.686 3.406 0.00 0.00 0.5420   20.630 20.830 20.970 21.240 20.950 2.783 2.842     0     0.4570 350.70 4.25   0.000 0.000 24.654 7.746 16.908 25.454 7.610 17.843
WS7MET_125 2018-09-28 18:00:00 125 30483.0 21.130 21.210 21.350 21.640 21.290 30.660 29.370 3.205 3.037 0.00 0.00 14.890 13.930 13.180 12.090 12.620 21.380 21.350 21.470 21.790 21.460 3.363 3.094 0.00 0.00 0.4700   20.970 21.070 21.230 21.510 21.170 3.052 2.954     0     0.3820 350.60 2.89   0.000 0.000 25.066 7.688 17.381 25.862 7.597 18.266
WS7MET_125 2018-09-28 17:55:00 125 30483.0 21.380 21.480 21.610 21.880 21.530 30.180 29.000 3.198 3.064 1.54 0.00 14.880 13.930 13.180 12.100 12.660 21.510 21.600 21.750 22.030 21.680 3.351 3.190 2.68 0.00 0.5750   21.280 21.350 21.490 21.720 21.460 3.003 2.936     0     0.3820 346.30 2.90   0.000 0.000 25.454 7.684 17.772 26.243 7.612 18.633
WS7MET_125 2018-09-28 17:50:00 125 30483.0 21.620 21.760 21.900 22.190 21.800 29.360 28.250 3.012 2.956 3.62 0.00 14.870 13.920 13.180 12.100 12.660 21.790 21.870 22.020 22.400 21.920 3.271 3.137 4.03 0.00 0.4770   21.510 21.630 21.760 22.060 21.650 2.834 2.798     0     0.3080 339.20 16.61   0.000 0.000 25.830 7.584 18.246 26.744 7.554 19.189
WS7MET_125 2018-09-28 17:45:00 125 30483.0 21.870 22.040 22.200 22.500 22.020 28.940 27.660 3.020 2.926 5.43 0.00 14.850 13.920 13.180 12.100 12.680 21.990 22.180 22.370 22.640 22.280 3.529 3.161 6.71 0.00 0.7710   21.720 21.890 22.050 22.330 21.920 2.818 2.769     0     0.4040 340.60 17.72   0.000 0.000 26.227 7.588 18.637 27.253 7.538 19.715
WS7MET_125 2018-09-28 17:40:00 125 30483.0 22.130 22.300 22.480 22.800 22.360 28.620 26.850 3.089 2.765 9.60 1.07 14.840 13.920 13.180 12.100 12.700 22.400 22.420 22.600 23.020 22.470 3.334 2.974 12.08 1.34 0.7060   21.920 22.190 22.390 22.610 22.290 2.762 2.317     0     0.2920 328.20 24.09   0.000 0.000 26.646 7.625 19.020 27.753 7.452 20.301
WS7MET_125 2018-09-28 17:35:00 125 30483.0 22.410 22.590 22.760 23.090 22.580 28.100 26.080 3.071 2.608 15.17 2.01 14.820 13.920 13.180 12.100 12.700 22.540 22.730 22.890 23.250 22.720 3.502 2.917 18.79 2.68 1.0520   22.200 22.430 22.600 22.910 22.420 2.651 2.021     0     0.3980 3.27 39.52   0.000 0.000 27.104 7.616 19.488 28.244 7.369 20.878
WS7MET_125 2018-09-28 17:30:00 125 30483.0 22.570 22.790 22.970 23.270 22.900 26.310 24.750 2.283 2.023 21.00 2.75 14.810 13.920 13.180 12.100 12.720 22.710 22.860 23.040 23.390 23.270 2.939 2.346 22.82 4.03 0.7640   22.500 22.730 22.910 23.190 22.720 1.823 1.638     0     0.1280 341.20 42.66   0.000 0.000 27.369 7.200 20.168 28.553 7.068 21.486
WS7MET_125 2018-09-28 17:25:00 125 30483.0 22.700 22.860 23.040 23.380 22.960 25.670 23.660 2.049 1.488 25.43 4.03 14.790 13.910 13.180 12.100 12.780 22.850 22.960 23.120 23.490 23.150 2.299 1.855 26.84 4.03 0.7770   22.540 22.790 23.010 23.290 22.890 1.693 0.946     0     0.3350 298.30 32.81   0.000 0.000 27.585 7.081 20.504 28.743 6.802 21.942
WS7MET_125 2018-09-28 17:20:00 125 30483.0 23.020 23.120 23.300 23.720 23.040 24.690 22.570 1.773 1.109 29.99 4.03 14.780 13.900 13.180 12.100 12.790 23.190 23.320 23.500 24.010 23.140 2.279 1.566 32.21 4.03 0.4120   22.810 22.970 23.130 23.490 22.970 1.254 0.686     0     0.1930 330.50 20.66   0.000 0.000 28.125 6.942 21.181 29.338 6.619 22.716
WS7MET_125 2018-09-28 17:15:00 125 30483.0 23.360 23.520 23.700 24.070 23.460 22.930 20.640 1.017 0.154 36.03 4.36 14.760 13.900 13.180 12.100 12.790 23.490 23.670 23.850 24.210 23.730 1.904 0.922 41.60 5.37 0.0200   23.220 23.350 23.510 23.900 23.170 -0.190 -0.764     0     0.0020 204.50 0.05   0.000 0.000 28.708 6.575 22.126 29.961 6.177 23.777
WS7MET_125 2018-09-28 17:10:00 125 30483.0 23.570 23.740 23.910 24.250 23.840 21.770 19.220 0.473 -0.674 40.39 5.10 14.740 13.900 13.180 12.100 12.800 23.660 23.780 23.960 24.350 24.170 1.593 0.222 41.60 5.37 0.6860   23.490 23.680 23.860 24.140 23.550 -1.068 -1.559     0     0.1050 183.80 60.08   0.000 0.000 29.074 6.321 22.745 30.286 5.815 24.465
WS7MET_125 2018-09-28 17:05:00 125 30483.0 23.760 23.950 24.130 24.530 23.850 21.390 19.320 0.399 -0.365 41.60 5.37 14.720 13.900 13.180 12.100 12.830 23.970 24.140 24.310 24.760 24.040 1.162 0.188 41.60 5.37 0.7060   23.630 23.790 23.970 24.350 23.740 0.076 -0.928     0     0.1440 57.69 23.38   0.000 0.000 29.408 6.287 23.118 30.798 5.947 24.848
WS7MET_125 2018-09-28 17:00:00 125 30483.0 23.930 24.170 24.350 24.750 24.380 19.120 17.060 -1.031 -1.892 41.13 5.37 14.710 13.890 13.180 12.100 12.840 24.040 24.210 24.390 24.930 24.550 0.895 -0.629 41.60 5.37 0.4250   23.800 24.130 24.310 24.650 24.150 -2.405 -2.773     0     0.0910 245.20 54.50   0.000 0.000 29.710 5.664 24.030 31.205 5.316 25.882
WS7MET_125 2018-09-28 16:55:00 125 30483.0 24.090 24.260 24.470 24.870 24.290 18.620 16.350 -1.269 -2.364 36.84 4.70 14.690 13.890 13.180 12.100 12.870 24.280 24.410 24.600 24.960 24.640 0.557 -1.286 38.92 5.37 0.5550   23.940 24.180 24.400 24.790 23.880 -2.647 -2.949     0     0.1470 156.90 54.08   0.000 0.000 29.997 5.566 24.412 31.429 5.134 26.291
WS7MET_125 2018-09-28 16:50:00 125 30483.0 24.360 24.540 24.740 25.070 24.520 17.300 15.390 -2.031 -3.021 40.46 5.43 14.670 13.890 13.180 12.100 12.880 24.450 24.610 24.830 25.230 24.710 0.014 -2.292 41.60 6.71 0.5810   24.240 24.440 24.650 24.930 24.360 -2.902 -3.660     0     0.1650 145.20 67.54   0.000 0.000 30.486 5.262 25.212 31.806 4.888 26.911
WS7MET_125 2018-09-28 16:45:00 125 30483.0 24.620 24.720 24.940 25.420 24.630 18.200 15.370 -1.162 -2.791 43.54 6.57 14.650 13.880 13.180 12.100 12.910 24.930 24.920 25.120 25.680 24.790 1.574 -0.700 44.28 6.71 0.9340   24.450 24.620 24.850 25.170 24.370 -3.248 -4.287     0     0.2230 290.90 71.14   0.000 0.000 30.964 5.610 25.328 32.475 4.973 27.483
WS7MET_125 2018-09-28 16:40:00 125 30483.0 24.950 25.100 25.320 25.730 25.090 15.600 14.270 -3.032 -3.542 44.89 7.38 14.630 13.880 13.180 12.100 12.980 25.200 25.150 25.390 25.850 25.270 0.717 -1.130 45.62 8.05 0.5160   24.820 24.960 25.160 25.640 24.690 -4.468 -4.312     0     0.1380 40.28 27.01   0.000 0.000 31.580 4.884 26.653 33.077 4.702 28.357
WS7MET_125 2018-09-28 16:35:00 125 30483.0 25.120 25.220 25.490 25.900 25.140 14.790 13.840 -3.516 -3.779 61.93 8.86 14.610 13.880 13.180 12.100 12.940 25.510 25.300 25.630 26.090 25.300 -2.525 -3.378 83.20 9.39 0.8560   24.990 25.150 25.390 25.750 25.030 -4.300 -4.030     0     0.2890 118.00 35.12   0.000 0.000 31.901 4.711 27.183 33.412 4.619 28.788
WS7MET_125 2018-09-28 16:30:00 125 30483.0 25.350 25.390 25.780 26.270 25.270 15.020 13.720 -3.134 -3.593 53.94 10.06 14.590 13.880 13.180 12.100 12.980 25.570 25.500 25.920 26.430 25.530 -1.572 -3.367 60.38 10.74 0.4180   25.200 25.310 25.650 26.020 25.100 -4.025 -3.781     0     0.1300 180.10 64.86   0.000 0.000 32.340 4.847 27.483 34.150 4.684 29.465
WS7MET_125 2018-09-28 16:25:00 125 30483.0 25.660 25.710 26.140 26.640 25.350 15.420 13.540 -2.542 -3.487 78.90 11.88 14.570 13.870 13.180 12.100 13.000 26.020 25.900 26.340 26.870 25.460 -1.268 -2.498 99.30 13.42 0.6990   25.510 25.530 25.930 26.430 25.140 -3.669 -3.776     0     0.2520 75.80 43.93   0.000 0.000 32.940 5.066 27.861 34.903 4.721 30.177
WS7MET_125 2018-09-28 16:20:00 125 30483.0 26.050 26.170 26.420 26.940 25.610 15.100 13.410 -2.548 -3.396 176.20 14.96 14.550 13.870 13.180 12.100 13.010 26.220 26.270 26.510 27.180 25.940 -0.367 -1.249 253.60 16.10 1.0320   25.780 25.940 26.340 26.730 25.350 -4.417 -4.132     0     0.2520 103.40 58.69   0.000 0.000 33.709 5.064 28.619 35.523 4.753 30.760
WS7MET_125 2018-09-28 16:15:00 125 30483.0 26.340 26.390 26.620 27.190 25.960 13.250 12.720 -4.012 -3.889 292.90 18.72 14.530 13.870 13.170 12.100 13.050 26.430 26.480 26.700 27.280 26.030 -3.209 -3.130 304.60 21.47 1.7050   26.150 26.260 26.480 27.110 25.860 -4.619 -4.388     0     0.6450 247.90 59.40   0.000 0.000 34.291 4.538 29.748 36.048 4.581 31.463
WS7MET_125 2018-09-28 16:10:00 125 30483.0 26.550 26.600 26.880 27.340 26.040 12.970 12.380 -4.136 -4.130 310.70 23.01 14.510 13.870 13.170 12.100 13.100 26.700 26.760 27.050 27.550 26.270 -2.511 -3.569 315.30 24.15 1.9600   26.360 26.370 26.650 27.110 25.750 -4.720 -4.497     0     0.8120 240.90 66.22   0.000 0.000 34.718 4.496 30.215 36.366 4.498 31.864
WS7MET_125 2018-09-28 16:05:00 125 30483.0 26.560 26.640 26.950 27.320 26.090 12.640 12.210 -4.470 -4.341 304.50 25.09 14.490 13.870 13.170 12.100 13.090 26.670 26.710 27.050 27.420 26.190 -3.305 -3.464 339.50 29.52 1.5880   26.430 26.530 26.840 27.250 25.920 -5.352 -4.999     0     0.5720 226.20 84.40   0.000 0.000 34.739 4.384 30.348 36.323 4.427 31.888
WS7MET_125 2018-09-28 16:00:00 125 30483.0 26.660 26.770 27.060 27.310 26.050 14.520 13.470 -2.537 -3.028 357.10 32.94 14.470 13.870 13.170 12.100 13.170 26.940 26.840 27.230 27.450 26.130 -1.151 -2.237 367.70 34.89 0.6860   26.530 26.730 26.980 27.210 25.940 -3.879 -3.819     0     0.4240 85.00 45.06   0.000 0.000 34.944 5.068 29.870 36.302 4.886 31.412
WS7MET_125 2018-09-28 15:55:00 125 30483.0 26.570 26.710 27.090 27.350 26.080 15.140 13.550 -2.073 -2.916 378.30 38.04 14.450 13.860 13.170 12.100 13.160 26.670 26.850 27.340 27.490 26.300 0.180 -2.540 389.10 40.26 1.0190   26.460 26.590 26.920 27.210 25.850 -3.298 -3.103     0     0.3610 92.40 35.92   0.000 0.000 34.759 5.246 29.497 36.387 4.927 31.457
WS7MET_125 2018-09-28 15:50:00 125 30483.0 26.630 26.810 27.270 27.550 26.040 14.110 13.230 -2.962 -3.078 375.70 40.05 14.430 13.860 13.170 12.100 13.170 26.800 26.980 27.530 27.690 26.220 -0.915 -2.316 390.50 41.60 1.4310   26.500 26.740 27.150 27.420 25.780 -3.788 -3.569     0     0.7320 192.70 71.15   0.000 0.000 34.882 4.910 29.960 36.815 4.868 31.944
WS7MET_125 2018-09-28 15:45:00 125 30483.0 26.770 27.030 27.440 27.750 26.230 14.290 13.390 -2.672 -2.768 354.00 39.85 14.410 13.860 13.170 12.100 13.110 26.910 27.060 27.570 27.860 26.410 -1.299 -1.490 362.30 40.26 0.9410   26.630 26.950 27.320 27.550 25.960 -3.506 -3.409     0     0.2190 223.00 35.05   0.000 0.000 35.170 5.017 30.145 37.247 4.982 32.260
WS7MET_125 2018-09-28 15:40:00 125 30483.0 26.750 26.950 27.270 27.680 26.440 14.160 13.240 -2.808 -2.965 375.70 43.68 14.390 13.860 13.170 12.100 13.170 26.870 27.030 27.360 27.790 26.550 -1.393 -2.396 402.60 46.96 0.6930   26.630 26.850 27.150 27.550 26.340 -3.559 -3.435     0     0.1630 204.30 59.13   0.000 0.000 35.129 4.967 30.155 37.096 4.909 32.184
WS7MET_125 2018-09-28 15:35:00 125 30483.0 27.250 27.200 27.650 27.850 26.440 15.410 13.520 -1.300 -2.556 431.30 50.59 14.370 13.860 13.170 12.100 13.110 27.550 27.510 28.030 28.300 26.560 0.780 -1.433 450.90 53.67 0.9210   26.730 26.980 27.400 27.590 26.330 -2.990 -2.884     0     0.5400 87.70 53.85   0.000 0.000 36.175 5.554 30.600 37.465 5.061 32.400
WS7MET_125 2018-09-28 15:30:00 125 30483.0 27.420 27.560 28.090 28.240 26.540 14.300 13.310 -2.180 -2.477 380.40 54.28 14.350 13.860 13.170 12.100 13.130 27.520 27.660 28.330 28.410 26.850 -0.057 -1.106 464.30 55.02 1.1960   27.310 27.460 27.940 28.000 26.270 -3.394 -3.234     0     0.4500 211.60 40.89   0.000 0.000 36.536 5.204 31.312 38.325 5.091 33.224
WS7MET_125 2018-09-28 15:25:00 125 30483.0 27.230 27.540 27.960 27.990 26.670 15.320 13.710 -1.384 -2.259 244.70 54.68 14.330 13.860 13.170 12.100 13.080 27.420 27.740 28.220 28.200 26.880 0.791 -1.354 291.20 56.36 1.3260   26.940 27.260 27.570 27.830 26.290 -3.230 -3.278     0     0.3640 172.70 75.16   0.000 0.000 36.132 5.519 30.597 37.772 5.174 32.594
WS7MET_125 2018-09-28 15:20:00 125 30483.0 26.970 27.180 27.560 27.700 26.480 15.910 14.040 -1.085 -2.171 270.10 54.08 14.310 13.860 13.170 12.110 13.080 27.080 27.320 27.660 27.930 26.660 0.645 -1.213 387.80 59.04 1.6660   26.870 27.090 27.460 27.550 26.290 -3.398 -3.240     0     0.8800 184.70 58.21   0.000 0.000 35.586 5.642 29.924 37.139 5.208 31.925
WS7MET_125 2018-09-28 15:15:00 125 30483.0 27.250 27.360 27.730 27.900 26.780 14.600 13.780 -1.996 -2.251 398.60 48.51 14.290 13.860 13.170 12.100 13.040 27.490 27.540 27.880 28.030 26.870 -0.515 -1.842 481.70 59.04 1.6530   27.040 27.260 27.580 27.760 26.700 -2.786 -2.559     0     0.7780 179.40 64.70   0.000 0.000 36.175 5.276 30.893 37.575 5.177 32.397
WS7MET_125 2018-09-28 15:10:00 125 30483.0 27.610 27.530 27.730 27.920 26.620 15.370 14.130 -1.045 -1.908 490.60 60.65 14.270 13.860 13.170 12.100 13.090 27.790 27.680 27.840 28.030 26.840 0.798 -0.709 500.50 61.73 1.3460   27.310 27.400 27.570 27.760 26.300 -2.416 -2.389     0     0.4810 144.60 63.70   0.000 0.000 36.944 5.659 31.266 37.618 5.310 32.303
WS7MET_125 2018-09-28 15:05:00 125 30483.0 28.000 27.810 27.940 27.980 26.750 14.960 13.830 -1.105 -2.149 434.40 54.14 14.250 13.860 13.170 12.110 13.070 28.240 27.910 28.090 28.130 26.960 0.635 -0.313 468.30 59.04 1.1240   27.830 27.680 27.800 27.830 26.520 -2.364 -2.511     0     0.6060 103.50 43.24   0.000 0.000 37.794 5.634 32.140 37.750 5.216 32.529
WS7MET_125 2018-09-28 15:00:00 125 30483.0 28.130 28.180 28.300 28.380 27.120 15.640 13.630 -0.390 -2.033 449.10 56.56 14.230 13.860 13.170 12.100 13.090 28.270 28.400 28.590 28.610 27.440 1.451 -1.088 540.80 69.78 1.6010   27.890 27.910 27.940 28.000 26.690 -1.947 -2.946     0     0.7260 108.30 49.40   0.000 0.000 38.081 5.937 32.125 38.638 5.261 33.372
WS7MET_125 2018-09-28 14:55:00 125 30483.0 28.320 28.320 28.590 28.560 27.300 14.930 13.720 -0.876 -1.792 553.60 72.26 14.210 13.850 13.170 12.110 13.070 28.580 28.430 28.740 28.750 27.700 1.020 -0.571 558.20 73.80 2.0250   28.070 28.220 28.430 28.340 26.820 -2.310 -2.256     0     0.9840 121.50 83.40   0.000 0.000 38.504 5.729 32.755 39.044 5.356 33.687
WS7MET_125 2018-09-28 14:50:00 125 30483.0 28.530 28.710 29.130 28.740 27.350 15.250 13.680 -0.420 -1.690 560.50 76.35 14.200 13.860 13.170 12.100 13.060 28.710 28.930 29.410 28.850 27.560 2.447 -0.967 566.30 79.17 1.1110   28.270 28.490 28.770 28.580 27.100 -2.133 -2.166     0     0.5960 121.30 49.00   0.000 0.000 38.976 5.924 33.032 39.453 5.396 34.056
WS7MET_125 2018-09-28 14:45:00 125 30483.0 28.160 28.480 28.660 28.640 27.400 15.000 13.890 -0.927 -1.572 576.10 81.80 14.180 13.860 13.170 12.110 13.090 28.300 28.780 29.080 28.820 27.580 1.432 -0.119 587.70 84.50 0.5950   28.000 28.160 28.390 28.370 27.220 -2.073 -1.908     0     0.2540 82.40 65.08   0.000 0.000 38.148 5.708 32.425 39.225 5.443 33.777
WS7MET_125 2018-09-28 14:40:00 125 30483.0 28.080 28.200 28.380 28.300 27.080 15.290 14.010 -0.730 -1.716 593.10 87.70 14.160 13.860 13.170 12.100 13.090 28.200 28.260 28.490 28.540 27.440 0.939 -0.761 598.50 89.90 1.3520   27.960 28.110 28.270 28.070 26.850 -2.040 -2.140     0     0.6810 132.20 81.10   0.000 0.000 37.970 5.791 32.165 38.459 5.386 33.071
WS7MET_125 2018-09-28 14:35:00 125 30483.0 28.330 28.320 28.530 28.270 27.100 14.550 13.780 -1.208 -1.967 604.80 92.30 14.140 13.860 13.170 12.100 13.050 28.470 28.430 28.740 28.470 27.270 0.937 -1.415 609.20 93.90 2.2080   28.070 28.140 28.220 28.070 26.940 -2.244 -2.283     0     0.8330 124.10 73.57   0.000 0.000 38.526 5.591 32.921 38.392 5.287 33.102
WS7MET_125 2018-09-28 14:30:00 125 30483.0 28.170 28.160 28.500 28.280 26.890 17.310 15.150 0.994 -0.695 585.80 91.40 14.130 13.860 13.170 12.100 13.050 28.300 28.330 28.680 28.580 27.190 3.110 1.132 613.20 96.60 2.5410   28.070 28.090 28.330 28.000 26.600 -1.933 -1.899     0     0.8380 161.70 59.59   0.000 0.000 38.170 6.564 31.563 38.415 5.806 32.595
WS7MET_125 2018-09-28 14:25:00 125 30483.0 28.490 28.430 28.770 28.450 27.320 15.150 13.970 -0.529 -1.635 547.70 86.80 14.110 13.860 13.170 12.100 13.110 28.710 28.560 29.050 28.610 27.530 1.380 -0.673 607.90 96.60 1.0390   28.130 28.240 28.520 28.340 27.080 -1.669 -1.939     0     0.6760 127.50 68.20   0.000 0.000 38.886 5.877 32.995 38.796 5.418 33.376
WS7MET_125 2018-09-28 14:20:00 125 30483.0 28.710 28.590 28.980 28.520 27.280 16.060 13.910 0.437 -1.633 631.30 101.50 14.100 13.850 13.170 12.110 13.090 28.950 28.670 29.120 28.650 27.570 1.902 -1.054 654.80 106.00 1.0060   28.540 28.510 28.840 28.440 27.050 -1.869 -1.926     0     0.6190 115.60 36.59   0.000 0.000 39.385 6.305 33.060 38.954 5.419 33.535
WS7MET_125 2018-09-28 14:15:00 125 30483.0 28.850 28.700 29.100 28.510 27.390 16.790 14.550 1.175 -1.061 641.20 104.20 14.080 13.860 13.170 12.100 13.060 28.990 28.870 29.200 28.650 27.810 2.456 1.130 665.60 107.30 1.0320   28.610 28.560 28.990 28.370 27.060 -1.314 -1.878     0     0.6140 113.00 43.68   0.000 0.000 39.705 6.650 33.039 38.931 5.652 33.266
WS7MET_125 2018-09-28 14:10:00 125 30483.0 28.460 28.560 28.860 28.610 27.140 16.440 14.630 0.564 -0.894 604.90 98.40 14.060 13.860 13.170 12.100 13.100 28.610 28.710 29.010 28.880 27.300 2.642 0.360 615.90 100.60 1.3330   28.300 28.390 28.700 28.410 26.980 -1.421 -1.731     0     0.6220 174.00 62.18   0.000 0.000 38.818 6.363 32.436 39.157 5.722 33.429
WS7MET_125 2018-09-28 14:05:00 125 30483.0 28.370 28.440 28.700 28.490 27.060 16.500 15.170 0.545 -0.485 614.80 99.80 14.050 13.860 13.170 12.100 13.080 28.510 28.620 28.930 28.750 27.220 2.154 0.502 641.40 104.70 0.8360   28.240 28.270 28.450 28.270 26.820 -1.179 -1.286     0     0.3790 210.80 59.86   0.000 0.000 38.616 6.354 32.244 38.886 5.896 32.987
WS7MET_125 2018-09-28 14:00:00 125 30483.0 28.730 28.550 28.910 28.590 27.430 17.300 14.730 1.481 -0.803 576.60 93.30 14.030 13.860 13.170 12.100 13.070 28.880 28.960 29.410 28.990 27.730 3.607 0.011 602.50 98.00 1.5290   28.470 28.330 28.520 28.300 27.220 -0.832 -1.172     0     0.9670 110.90 31.30   0.000 0.000 39.430 6.798 32.609 39.112 5.760 33.351
WS7MET_125 2018-09-28 13:55:00 125 30483.0 28.520 28.780 29.170 28.840 27.580 16.240 15.010 0.467 -0.347 634.40 102.20 14.020 13.860 13.170 12.100 13.110 28.680 28.950 29.350 29.050 27.900 2.598 0.307 672.30 107.30 0.8750   28.340 28.490 28.920 28.710 27.330 -0.946 -0.897     0     0.5160 189.80 39.83   0.000 0.000 38.954 6.319 32.627 39.682 5.955 33.726
WS7MET_125 2018-09-28 13:50:00 125 30483.0 28.340 28.610 29.280 28.740 27.550 16.580 15.220 0.600 -0.251 660.30 105.70 14.010 13.860 13.170 12.100 13.080 28.650 28.780 29.500 28.880 27.900 1.697 1.407 677.60 108.70 1.1430   28.100 28.360 29.010 28.540 27.220 -0.985 -1.151     0     0.6040 162.50 54.28   0.000 0.000 38.549 6.380 32.157 39.453 5.997 33.448
WS7MET_125 2018-09-28 13:45:00 125 30483.0 28.140 28.360 29.120 28.690 27.260 17.230 14.840 0.932 -0.628 670.20 105.80 13.990 13.870 13.160 12.110 13.070 28.240 28.480 29.320 28.880 27.390 3.934 1.490 688.40 108.70 1.5290   28.070 28.200 28.950 28.510 27.170 -1.187 -1.265     0     0.8020 176.80 52.00   0.000 0.000 38.103 6.535 31.538 39.339 5.834 33.501
WS7MET_125 2018-09-28 13:40:00 125 30483.0 28.080 28.320 28.870 28.640 27.140 16.750 15.140 0.517 -0.400 663.80 103.50 13.980 13.870 13.160 12.100 13.090 28.240 28.490 29.110 28.780 27.540 2.510 0.415 695.10 108.70 0.9080   27.960 28.120 28.480 28.440 26.730 -1.588 -1.322     0     0.4600 134.30 46.61   0.000 0.000 37.970 6.341 31.610 39.225 5.932 33.287
WS7MET_125 2018-09-28 13:35:00 125 30483.0 28.260 28.510 28.890 28.650 27.410 15.440 14.490 -0.444 -0.994 680.90 105.00 13.960 13.870 13.160 12.110 13.100 28.470 28.650 29.130 28.850 27.590 1.430 0.646 693.70 107.30 1.8100   28.130 28.260 28.540 28.510 27.260 -1.442 -1.684     0     1.1730 217.90 36.21   0.000 0.000 38.370 5.913 32.446 39.248 5.680 33.561
WS7MET_125 2018-09-28 13:30:00 125 30483.0 28.770 28.410 28.770 28.550 27.460 14.670 14.320 -0.729 -1.218 695.00 104.50 13.950 13.880 13.160 12.110 13.120 29.260 28.540 29.150 28.650 27.590 0.681 -0.424 712.50 106.00 2.3910   28.270 28.270 28.620 28.440 27.220 -1.372 -1.616     0     0.9890 104.30 56.64   0.000 0.000 39.522 5.791 33.724 39.021 5.587 33.433
WS7MET_125 2018-09-28 13:25:00 125 30483.0 29.030 28.440 29.210 28.440 27.350 17.450 14.410 1.839 -1.228 715.20 104.70 13.940 13.880 13.160 12.110 13.130 29.230 28.570 29.320 28.610 27.710 3.822 -0.216 720.60 106.00 1.1430   28.680 28.360 29.140 28.270 26.880 -0.965 -1.805     0     0.6670 120.80 19.39   0.000 0.000 40.121 6.975 33.120 38.773 5.583 33.186
WS7MET_125 2018-09-28 13:20:00 125 30483.0 28.280 28.110 28.960 28.240 26.900 17.300 14.490 1.154 -1.321 719.40 103.80 13.930 13.880 13.160 12.110 13.090 28.650 28.330 29.180 28.410 27.290 2.188 0.568 723.30 104.70 0.8950   27.930 27.990 28.680 28.130 26.620 0.172 -2.006     0     0.6140 147.30 30.03   0.000 0.000 38.415 6.640 31.769 38.325 5.545 32.772
WS7MET_125 2018-09-28 13:15:00 125 30483.0 28.100 28.040 28.640 28.300 26.950 16.330 14.370 0.139 -1.383 726.80 104.70 13.920 13.880 13.160 12.110 13.080 28.300 28.250 28.920 28.610 27.410 2.828 0.605 730.00 104.70 1.4570   27.830 27.870 28.480 28.070 26.600 -1.968 -2.026     0     0.5440 158.70 34.93   0.000 0.000 38.015 6.170 31.807 38.459 5.520 32.933
WS7MET_125 2018-09-28 13:10:00 125 30483.0 27.640 27.850 28.580 28.020 26.920 18.000 15.140 1.126 -0.929 731.90 106.30 13.900 13.870 13.160 12.110 13.090 28.100 28.190 28.800 28.300 27.330 3.490 1.420 740.70 107.30 1.0580   27.210 27.470 28.200 27.830 26.310 -1.600 -2.140     0     0.6750 125.70 21.65   0.000 0.000 37.009 6.627 30.347 37.838 5.707 32.109
WS7MET_125 2018-09-28 13:05:00 125 30483.0 27.170 27.450 28.030 27.940 26.430 16.620 14.410 -0.376 -1.633 717.80 104.90 13.900 13.870 13.160 12.110 13.120 27.250 27.580 28.270 28.030 26.660 2.415 -0.219 740.70 108.70 1.0980   27.040 27.240 27.870 27.860 26.200 -2.313 -2.302     0     0.5680 178.30 58.72   0.000 0.000 36.006 5.943 30.022 37.662 5.419 32.235
WS7MET_125 2018-09-28 13:00:00 125 30483.0 26.940 27.570 28.160 27.880 26.540 17.830 15.260 0.458 -0.907 684.80 100.60 13.890 13.880 13.160 12.110 13.110 27.310 27.700 28.270 28.070 26.880 3.226 1.572 738.00 108.70 1.3650   26.700 27.430 27.940 27.660 26.240 -1.887 -2.001     0     0.5350 159.50 71.88   0.000 0.000 35.523 6.314 29.190 37.531 5.716 31.804
WS7MET_125 2018-09-28 12:55:00 125 30483.0 26.600 27.310 27.800 27.850 26.590 18.300 14.770 0.561 -1.361 734.20 107.90 13.880 13.880 13.160 12.100 13.100 26.730 27.410 27.870 28.000 26.850 1.678 -0.330 747.40 110.00 1.0190   26.500 27.160 27.740 27.690 26.290 -1.087 -1.858     0     0.6910 110.30 26.64   0.000 0.000 34.821 6.362 28.448 37.465 5.529 31.932
WS7MET_125 2018-09-28 12:50:00 125 30483.0 26.670 27.110 27.820 27.870 26.640 17.800 14.460 0.222 -1.641 680.20 99.50 13.870 13.880 13.150 12.110 13.150 27.280 27.160 27.970 28.030 26.940 2.343 -0.221 762.20 111.40 1.1960   26.530 26.990 27.610 27.720 26.490 -1.413 -2.342     0     0.5660 131.70 48.81   0.000 0.000 34.964 6.207 28.741 37.509 5.416 32.085
WS7MET_125 2018-09-28 12:45:00 125 30483.0 26.760 27.150 27.640 27.790 26.640 17.960 13.750 0.398 -2.371 716.50 104.00 13.870 13.880 13.150 12.110 13.170 26.940 27.410 27.930 28.000 27.100 3.381 -1.427 752.80 110.00 1.3460   26.600 27.020 27.530 27.690 26.490 -1.784 -2.859     0     0.9500 121.00 26.22   0.000 0.000 35.150 6.287 28.837 37.334 5.131 32.201
WS7MET_125 2018-09-28 12:40:00 125 30483.0 26.950 27.440 27.950 27.910 27.000 16.960 13.820 -0.259 -2.215 714.10 102.50 13.860 13.890 13.160 12.110 13.100 27.110 27.560 28.040 28.000 27.130 2.705 -0.979 732.70 104.70 1.4630   26.840 27.390 27.870 27.720 26.760 -2.701 -2.835     0     0.9760 108.80 54.10   0.000 0.000 35.544 5.994 29.516 37.596 5.191 32.401
WS7MET_125 2018-09-28 12:35:00 125 30483.0 26.910 27.280 27.660 27.540 26.540 17.650 14.290 0.283 -2.052 735.10 103.20 13.860 13.890 13.160 12.110 13.150 27.010 27.390 27.990 27.890 26.780 2.253 -1.169 750.10 104.70 1.2220   26.800 27.200 27.470 27.350 26.340 -3.042 -2.725     0     0.7500 130.60 66.17   0.000 0.000 35.461 6.235 29.202 36.794 5.254 31.536
WS7MET_125 2018-09-28 12:30:00 125 30483.0 27.080 27.280 27.470 27.400 26.510 17.380 14.540 0.189 -1.930 631.10 85.50 13.850 13.890 13.160 12.110 13.120 27.280 27.330 27.580 27.490 26.730 3.238 -1.051 744.70 102.00 1.3590   26.940 27.220 27.360 27.280 26.370 -2.077 -2.725     0     0.9590 98.20 25.90   0.000 0.000 35.816 6.192 29.591 36.494 5.301 31.188
WS7MET_125 2018-09-28 12:25:00 125 30483.0 27.550 27.420 27.640 27.450 26.460 16.290 14.800 -0.291 -1.650 666.70 88.20 13.850 13.900 13.160 12.110 13.130 27.830 27.540 27.830 27.590 26.620 1.721 -0.924 711.20 93.90 1.1960   27.250 27.220 27.500 27.350 26.110 -2.492 -2.860     0     0.7060 116.50 44.40   0.000 0.000 36.815 5.980 30.818 36.601 5.412 31.184
WS7MET_125 2018-09-28 12:20:00 125 30483.0 27.700 27.420 27.740 27.310 26.250 17.430 15.740 0.719 -0.956 650.30 87.90 13.840 13.900 13.160 12.110 13.130 27.860 27.560 27.890 27.450 26.420 4.348 1.291 709.80 92.60 1.3850   27.520 27.250 27.530 27.140 26.010 -1.853 -2.513     0     0.7700 156.20 55.41   0.000 0.000 37.139 6.435 30.666 36.302 5.696 30.588
WS7MET_125 2018-09-28 12:15:00 125 30483.0 27.670 27.440 27.640 27.260 26.130 19.780 16.650 2.403 -0.198 545.20 84.90 13.840 13.900 13.150 12.110 13.130 27.790 27.500 27.730 27.420 26.340 5.519 1.215 708.50 92.60 0.9800   27.550 27.300 27.530 27.140 25.990 -1.799 -2.361     0     0.5620 136.90 41.98   0.000 0.000 37.074 7.262 29.741 36.196 6.020 30.169
WS7MET_125 2018-09-28 12:10:00 125 30483.0 27.510 27.390 27.680 27.360 26.320 19.900 16.650 2.419 -0.119 724.50 94.70 13.830 13.900 13.150 12.110 13.120 27.620 27.430 27.760 27.490 26.480 5.655 2.288 755.50 99.30 1.5160   27.350 27.320 27.590 27.250 26.120 0.080 -1.021     0     0.7330 103.90 25.28   0.000 0.000 36.729 7.271 29.420 36.408 6.055 30.346
WS7MET_125 2018-09-28 12:05:00 125 30483.0 27.540 27.510 27.740 27.310 26.070 19.930 17.020 2.485 0.151 740.60 98.20 13.840 13.910 13.150 12.110 13.120 27.690 27.770 27.860 27.420 26.340 4.932 0.944 760.90 100.60 1.5160   27.420 27.390 27.620 27.140 25.830 0.634 -0.805     0     0.8110 118.40 29.88   0.000 0.000 36.794 7.305 29.461 36.302 6.175 30.123
WS7MET_125 2018-09-28 12:00:00 125 30483.0 27.340 27.730 27.900 27.470 26.040 20.740 17.260 2.893 0.468 740.10 99.90 13.840 13.910 13.150 12.110 13.180 27.690 27.980 28.130 27.660 26.350 5.241 1.426 751.50 102.00 1.2870   27.040 27.450 27.590 27.310 25.740 1.357 -0.899     0     0.5800 127.70 27.28   0.000 0.000 36.366 7.520 28.824 36.643 6.319 30.319
WS7MET_125 2018-09-28 11:55:00 125 30483.0 26.880 27.220 27.480 27.370 26.490 18.600 16.690 1.009 -0.069 748.50 102.80 13.840 13.910 13.150 12.110 13.350 27.080 27.490 27.630 27.620 26.820 2.669 1.239 760.90 104.70 1.6730   26.730 27.010 27.290 27.210 26.160 -0.790 -0.934     0     1.0680 173.90 85.20   0.000 0.000 35.398 6.571 28.814 36.430 6.077 30.350
WS7MET_125 2018-09-28 11:50:00 125 30483.0 26.730 26.880 27.400 27.110 26.170 20.080 16.490 1.945 -0.440 745.10 104.60 13.840 13.910 13.150 12.110 13.700 26.870 27.000 27.540 27.250 26.390 3.524 0.598 758.20 106.00 1.3330   26.500 26.670 27.110 26.970 25.980 -0.110 -0.991     0     0.7770 106.40 26.66   0.000 0.000 35.088 7.028 28.042 35.879 5.915 29.963
WS7MET_125 2018-09-28 11:45:00 125 30483.0 26.790 26.770 27.200 26.910 25.840 19.040 16.660 1.156 -0.497 739.40 105.80 13.840 13.910 13.150 12.110 13.680 26.910 26.910 27.430 27.110 26.190 5.812 1.489 756.90 108.70 1.4370   26.600 26.630 27.020 26.800 25.600 -1.073 -2.159     0     0.9860 102.80 26.34   0.000 0.000 35.212 6.641 28.507 35.461 5.890 29.553
WS7MET_125 2018-09-28 11:40:00 125 30483.0 26.620 26.930 27.470 27.100 25.850 19.930 17.220 1.706 0.133 746.80 108.80 13.840 13.910 13.150 12.110 13.700 26.770 27.070 27.650 27.250 26.060 4.297 1.456 756.90 110.00 1.3130   26.390 26.720 27.330 26.970 25.700 -0.890 -1.231     0     0.6830 143.60 36.12   0.000 0.000 34.862 6.909 27.914 35.858 6.167 29.683
WS7MET_125 2018-09-28 11:35:00 125 30483.0 26.590 26.920 27.350 27.000 25.750 20.590 17.720 2.198 0.465 740.70 110.00 13.840 13.910 13.150 12.100 13.710 26.970 27.070 27.610 27.180 25.940 3.802 0.931 744.80 110.00 0.9540   26.330 26.770 27.160 26.840 25.470 1.091 0.001     0     0.6710 108.60 20.96   0.000 0.000 34.800 7.157 27.635 35.649 6.318 29.332
WS7MET_125 2018-09-28 11:30:00 125 30483.0 26.960 27.140 27.590 26.930 25.660 22.180 19.140 3.559 1.473 734.00 109.50 13.840 13.920 13.150 12.100 13.750 27.080 27.240 27.780 27.140 25.870 4.792 2.186 738.10 110.00 1.0130   26.840 27.070 27.380 26.670 25.370 2.075 0.561     0     0.5340 124.50 25.55   0.000 0.000 35.565 7.883 27.677 35.502 6.794 28.707
WS7MET_125 2018-09-28 11:25:00 125 30483.0 27.080 27.090 27.400 26.910 25.520 19.190 18.990 1.616 1.342 728.90 108.70 13.850 13.920 13.150 12.100 13.730 27.210 27.270 27.580 27.040 25.750 3.232 2.361 732.80 108.70 1.4370   26.940 26.990 27.300 26.800 25.150 0.193 0.535     0     0.5660 216.20 45.61   0.000 0.000 35.816 6.865 28.943 35.461 6.731 28.727
WS7MET_125 2018-09-28 11:20:00 125 30483.0 27.070 26.830 27.360 26.720 25.400 20.160 19.420 2.270 1.497 724.60 107.30 13.850 13.930 13.140 12.100 13.780 27.210 27.050 27.530 26.840 25.860 5.166 3.344 728.70 108.70 1.2090   26.910 26.640 27.080 26.460 24.960 0.857 0.792     0     0.5610 191.00 53.30   0.000 0.000 35.795 7.194 28.579 35.067 6.806 28.257
WS7MET_125 2018-09-28 11:15:00 125 30483.0 26.400 26.540 27.140 26.540 25.280 24.320 19.970 4.379 1.746 717.00 104.90 13.850 13.930 13.140 12.100 13.890 26.870 26.730 27.470 26.700 25.730 6.552 3.012 722.00 106.00 1.1890   26.050 26.380 26.850 26.360 25.020 3.058 1.340     0     0.6380 136.70 16.62   0.000 0.000 34.413 8.352 26.044 34.698 6.929 27.769
WS7MET_125 2018-09-28 11:10:00 125 30483.0 26.050 26.530 26.890 26.610 25.150 22.600 21.040 3.069 2.526 717.50 103.80 13.850 13.930 13.140 12.100 13.870 26.190 26.600 27.020 26.730 25.380 4.503 3.674 720.70 104.70 0.9540   25.920 26.380 26.680 26.360 24.880 1.750 1.863     0     0.4820 193.10 43.28   0.000 0.000 33.709 7.615 26.091 34.841 7.326 27.511
WS7MET_125 2018-09-28 11:05:00 125 30483.0 25.870 26.620 27.070 26.520 24.730 22.990 20.860 3.152 2.335 714.10 101.30 13.850 13.930 13.140 12.100 13.910 26.050 26.820 27.470 26.730 25.170 4.707 3.417 716.70 102.00 1.2540   25.540 26.480 26.750 26.360 24.230 2.136 1.783     0     0.5420 110.40 27.49   0.000 0.000 33.353 7.659 25.685 34.657 7.227 27.428
WS7MET_125 2018-09-28 11:00:00 125 30483.0 24.950 26.050 26.660 25.950 24.470 26.510 23.370 4.304 3.402 705.80 98.80 13.850 13.940 13.140 12.100 13.980 25.540 26.480 27.130 26.390 25.040 6.766 5.956 711.30 99.30 0.7320   24.380 25.470 26.050 25.640 23.540 1.632 1.576     0     0.4100 155.10 31.83   0.000 0.000 31.580 8.308 23.208 33.511 7.796 25.679
WS7MET_125 2018-09-28 10:55:00 125 30483.0 24.270 25.160 25.680 25.480 23.650 29.410 24.390 5.317 3.643 697.00 96.80 13.860 13.940 13.140 12.100 13.900 24.380 25.400 25.970 25.680 24.020 6.029 6.031 703.20 98.00 1.0000   24.110 24.990 25.540 25.270 23.330 3.863 1.770     0     0.7520 125.80 19.70   0.000 0.000 30.322 8.918 21.405 32.591 7.930 24.642
WS7MET_125 2018-09-28 10:50:00 125 30483.0 23.880 24.780 25.650 25.320 23.630 30.130 25.310 5.323 4.042 684.50 94.40 13.870 13.940 13.140 12.100 13.940 24.210 25.020 25.830 25.540 24.020 6.108 5.477 689.80 95.30 1.1370   23.490 24.340 25.380 25.170 23.410 3.977 2.191     0     0.6800 128.40 16.98   0.000 0.000 29.621 8.921 20.696 32.282 8.156 24.112
WS7MET_125 2018-09-28 10:45:00 125 30483.0 23.410 23.990 24.940 25.120 23.210 30.060 25.050 4.888 3.745 675.90 91.70 13.870 13.940 13.140 12.100 13.990 23.630 24.290 25.320 25.300 23.770 5.882 4.747 683.10 92.60 0.8040   23.320 23.850 24.760 24.990 22.640 3.866 2.633     0     0.5750 97.90 29.59   0.000 0.000 28.795 8.655 20.139 31.901 7.987 23.910
WS7MET_125 2018-09-28 10:40:00 125 30483.0 23.570 24.190 25.150 25.270 22.990 29.440 26.340 4.711 4.580 664.90 88.60 13.870 13.940 13.140 12.100 14.000 23.660 24.340 25.340 25.440 23.840 6.085 5.553 668.40 89.90 0.7510   23.430 23.930 24.800 25.130 22.380 2.670 3.130     0     0.3530 125.00 55.82   0.000 0.000 29.074 8.548 20.515 32.187 8.470 23.709
WS7MET_125 2018-09-28 10:35:00 125 30483.0 23.330 24.260 25.130 25.310 23.160 28.710 24.890 4.144 3.806 656.40 85.20 13.890 13.950 13.140 12.100 14.020 23.460 24.320 25.240 25.470 23.640 5.645 4.780 663.00 87.20 0.6210   23.190 24.210 25.000 25.060 22.390 2.242 2.177     0     0.2200 137.50 32.80   0.000 0.000 28.657 8.215 20.429 32.263 8.022 24.233
WS7MET_125 2018-09-28 10:30:00 125 30483.0 23.540 24.440 25.010 25.120 22.750 28.560 25.500 4.263 4.004 650.90 81.30 13.890 13.950 13.130 12.100 14.010 23.730 24.630 25.220 25.370 23.400 4.966 4.740 656.30 83.20 0.6990   23.390 24.240 24.700 24.720 22.270 3.055 3.025     0     0.2120 98.10 16.72   0.000 0.000 29.022 8.284 20.733 31.901 8.134 23.766
WS7MET_125 2018-09-28 10:25:00 125 30483.0 23.420 23.930 24.300 24.360 22.590 29.290 26.400 4.502 3.844 644.10 77.24 13.890 13.950 13.130 12.100 14.020 23.490 24.210 24.620 24.620 22.920 5.875 4.964 648.20 79.18 0.8430   23.250 23.790 24.110 24.180 22.170 2.909 2.801     0     0.2280 100.90 60.94   0.000 0.000 28.812 8.424 20.373 30.486 8.043 22.438
WS7MET_125 2018-09-28 10:20:00 125 30483.0 23.260 23.870 24.120 24.110 22.120 29.190 26.560 4.310 3.709 631.40 73.08 13.890 13.950 13.130 12.100 13.960 23.430 24.020 24.280 24.210 22.620 5.712 5.010 638.80 75.16 0.7910   23.120 23.760 23.980 23.970 21.780 2.573 2.693     0     0.2830 158.30 79.96   0.000 0.000 28.536 8.311 20.206 30.033 7.967 22.056
WS7MET_125 2018-09-28 10:15:00 125 30483.0 22.950 23.800 24.000 24.030 22.310 29.070 26.770 4.012 3.767 606.80 70.12 13.900 13.950 13.130 12.100 14.000 23.220 23.970 24.150 24.140 22.580 4.909 4.859 628.10 71.13 1.2480   22.670 23.610 23.850 23.900 21.820 2.943 2.791     0     0.5200 223.70 25.49   0.000 0.000 28.006 8.139 19.865 29.889 8.000 21.888
WS7MET_125 2018-09-28 10:10:00 125 30483.0 22.350 23.170 23.370 23.510 21.890 30.170 27.300 4.015 3.599 582.50 67.31 13.910 13.950 13.130 12.100 14.050 22.670 23.520 23.840 23.830 22.150 6.345 4.666 614.70 68.45 1.0060   22.030 22.930 23.070 23.150 21.600 2.972 2.799     0     0.1960 228.30 55.97   0.000 0.000 27.005 8.141 18.858 28.969 7.906 21.061
WS7MET_125 2018-09-28 10:05:00 125 30483.0 21.620 22.490 22.700 23.060 21.690 30.460 27.670 3.532 3.412 604.30 64.96 13.920 13.950 13.130 12.100 14.040 21.990 22.860 23.110 23.220 22.170 4.184 4.133 610.60 65.76 1.2220   21.240 22.210 22.420 22.910 21.080 2.784 2.977     0     0.3490 164.20 52.64   0.000 0.000 25.830 7.868 17.962 28.193 7.802 20.392
WS7MET_125 2018-09-28 10:00:00 125 30483.0 21.210 22.330 22.650 23.140 20.950 32.840 28.150 4.232 3.724 592.50 63.08 13.920 13.950 13.120 12.100 14.050 21.340 22.410 22.770 23.290 21.340 5.970 4.684 599.90 64.42 1.1170   20.930 22.230 22.510 22.980 20.610 2.978 3.019     0     0.3630 100.00 46.88   0.000 0.000 25.190 8.266 16.917 28.330 7.976 20.355
WS7MET_125 2018-09-28 09:55:00 125 30483.0 20.550 21.870 22.150 22.650 20.730 34.530 29.670 4.369 4.052 582.00 61.40 13.930 13.950 13.120 12.100 14.100 21.040 22.270 22.580 22.880 21.240 5.917 4.443 587.80 61.74 0.8170   20.250 21.650 21.940 22.300 20.350 3.283 3.608     0     0.1270 206.90 27.70   0.000 0.000 24.188 8.346 15.836 27.502 8.162 19.342
WS7MET_125 2018-09-28 09:50:00 125 30483.0 19.870 21.060 21.580 22.010 20.670 35.650 30.090 4.235 3.698 572.70 60.39 13.940 13.950 13.120 12.100 14.060 20.250 21.620 21.940 22.330 21.310 5.197 4.405 577.10 60.39 1.0910   19.640 20.480 21.120 21.620 20.160 3.762 3.137     0     0.1940 246.60 14.56   0.000 0.000 23.193 8.268 14.925 26.452 7.961 18.493
WS7MET_125 2018-09-28 09:45:00 125 30483.0 19.610 20.270 20.960 21.420 20.020 36.920 31.130 4.504 3.669 561.80 59.25 13.940 13.950 13.120 12.100 14.100 19.740 20.460 21.110 21.620 20.230 5.019 3.979 566.40 60.39 0.9870   19.540 20.170 20.860 21.280 19.880 3.869 3.362     0     0.3000 73.15 37.26   0.000 0.000 22.822 8.425 14.396 25.516 7.945 17.573
WS7MET_125 2018-09-28 09:40:00 125 30483.0 19.610 20.150 20.730 21.180 19.630 37.110 31.710 4.574 3.724 551.10 57.84 13.950 13.960 13.120 12.100 14.170 19.840 20.240 20.860 21.310 20.040 5.551 3.954 557.00 59.05 1.1830   19.500 20.080 20.670 21.040 19.500 3.951 3.476     0     0.2850 60.12 26.03   0.000 0.000 22.822 8.467 14.353 25.143 7.976 17.170
WS7MET_125 2018-09-28 09:35:00 125 30483.0 19.390 20.060 20.440 20.750 20.130 37.090 31.690 4.355 3.336 537.80 55.83 13.960 13.960 13.120 12.100 14.180 19.710 20.270 20.670 21.110 20.550 5.527 4.765 544.90 56.37 0.5680   19.160 19.800 20.130 20.490 19.740 2.756 2.612     0     0.0940 52.28 30.86   0.000 0.000 22.512 8.338 14.162 24.488 7.760 16.728
WS7MET_125 2018-09-28 09:30:00 125 30483.0 19.190 19.680 20.030 20.420 19.670 36.500 31.360 3.955 2.898 524.60 53.62 13.960 13.960 13.120 12.090 14.200 19.300 19.770 20.140 20.560 20.100 5.270 3.207 532.80 55.03 0.7320   19.090 19.590 19.930 20.290 19.340 2.461 2.361     0     0.3300 82.50 19.81   0.000 0.000 22.233 8.106 14.118 23.995 7.523 16.470
WS7MET_125 2018-09-28 09:25:00 125 30483.0 19.250 19.750 20.100 20.340 19.740 37.670 31.970 4.459 3.102 513.00 51.00 13.980 13.970 13.120 12.090 14.210 19.540 19.810 20.170 20.460 20.070 5.727 3.506 519.40 52.34 0.7060   19.090 19.690 20.030 20.180 19.450 3.326 2.573     0     0.1960 98.70 28.66   0.000 0.000 22.317 8.399 13.910 23.877 7.632 16.243
WS7MET_125 2018-09-28 09:20:00 125 30483.0 18.920 19.410 19.770 20.040 19.550 36.670 32.250 3.773 2.964 504.20 48.85 13.980 13.970 13.120 12.090 14.240 19.160 19.700 20.030 20.220 20.210 5.225 3.410 508.70 49.66 0.7640   18.750 19.240 19.610 19.910 18.970 2.715 2.561     0     0.1880 225.60 70.28   0.000 0.000 21.862 8.003 13.845 23.438 7.558 15.879
WS7MET_125 2018-09-28 09:15:00 125 30483.0 18.520 19.170 19.570 19.850 19.480 37.060 32.320 3.572 2.829 490.80 45.77 13.990 13.970 13.120 12.100 14.230 18.790 19.350 19.690 20.050 19.790 5.291 3.684 499.30 46.98 0.4510   18.170 18.790 19.340 19.640 19.040 2.333 2.277     0     0.2420 113.30 59.48   0.000 0.000 21.322 7.890 13.420 23.164 7.486 15.677
WS7MET_125 2018-09-28 09:10:00 125 30483.0 18.140 18.690 19.150 19.490 19.040 40.240 33.900 4.417 3.184 476.70 42.34 14.000 13.970 13.120 12.100 14.060 18.380 18.770 19.310 19.710 19.280 5.997 4.050 483.20 44.29 0.4970   17.970 18.520 18.910 19.260 18.490 3.662 2.724     0     0.1900 189.40 43.68   0.000 0.000 20.820 8.374 12.442 22.652 7.677 14.973
WS7MET_125 2018-09-28 09:05:00 125 30483.0 17.920 18.450 18.810 19.150 18.720 40.150 34.240 4.189 3.034 412.40 38.65 14.000 13.970 13.120 12.100 13.760 18.140 18.570 18.970 19.370 18.970 5.694 3.603 471.10 40.26 0.4970   17.730 18.360 18.660 18.920 18.530 3.409 2.692     0     0.1370 283.70 65.81   0.000 0.000 20.534 8.241 12.290 22.178 7.596 14.584
WS7MET_125 2018-09-28 09:00:00 125 30483.0 17.530 18.140 18.460 18.790 18.550 39.090 34.670 3.466 2.888 70.60 34.16 14.020 13.970 13.120 12.100 13.530 17.800 18.340 18.650 19.020 18.840 4.062 3.299 166.40 36.24 0.9930   17.390 17.950 18.250 18.610 18.130 2.833 2.292     0     0.2980 73.24 30.70   0.000 0.000 20.036 7.832 12.204 21.685 7.517 14.167
WS7MET_125 2018-09-28 08:55:00 125 30483.0 17.370 17.950 18.260 18.660 18.090 41.320 35.350 4.108 3.049 53.62 31.74 14.020 13.970 13.110 12.100 13.470 17.630 17.960 18.290 18.790 18.330 4.613 3.389 57.71 33.55 0.6010   17.250 17.930 18.210 18.580 17.940 3.508 2.814     0     0.1740 50.50 11.49   0.000 0.000 19.834 8.194 11.639 21.510 7.604 13.906
WS7MET_125 2018-09-28 08:50:00 125 30483.0 17.270 17.870 18.170 18.610 17.940 41.260 35.970 3.996 3.253 49.73 29.06 14.020 13.980 13.110 12.100 13.340 17.350 17.950 18.250 18.720 18.380 4.571 3.503 51.00 30.87 1.0130   17.220 17.820 18.110 18.510 17.690 3.495 2.863     0     0.2690 29.70 33.52   0.000 0.000 19.709 8.130 11.577 21.443 7.714 13.730
WS7MET_125 2018-09-28 08:45:00 125 30483.0 17.060 17.750 18.070 18.560 18.290 40.340 35.670 3.494 3.088 49.12 25.50 14.040 13.980 13.110 12.100 13.180 17.280 17.950 18.250 18.680 18.540 4.051 3.412 49.66 26.84 0.3530   16.740 17.410 17.790 18.410 18.090 3.148 2.789     0     0.1110 82.90 55.22   0.000 0.000 19.449 7.847 11.603 21.376 7.625 13.751
WS7MET_125 2018-09-28 08:40:00 125 30483.0 16.660 17.210 17.550 18.240 17.530 40.520 37.030 3.193 3.328 50.73 21.27 14.040 13.980 13.110 12.100 12.830 16.770 17.340 17.730 18.410 17.920 3.794 4.150 59.05 22.82 0.5810   16.570 17.120 17.410 17.970 17.330 2.597 2.842     0     0.1190 119.30 30.80   0.000 0.000 18.962 7.682 11.278 20.951 7.756 13.193
WS7MET_125 2018-09-28 08:35:00 125 30483.0 16.480 17.010 17.250 17.600 17.250 40.330 39.300 2.966 3.607 47.85 17.45 14.060 13.980 13.110 12.100 12.610 16.570 17.100 17.400 18.000 17.420 3.544 3.939 51.00 18.79 0.3200   16.290 16.940 17.120 17.320 17.080 2.517 3.294     0     0.0270 79.49 5.24   0.000 0.000 18.746 7.559 11.186 20.124 7.910 12.216
WS7MET_125 2018-09-28 08:30:00 125 30483.0 16.320 16.860 17.020 17.270 17.050 43.410 40.060 3.864 3.578 50.19 14.76 14.060 13.980 13.110 12.100 12.510 16.430 16.930 17.120 17.390 17.100 4.366 4.043 80.50 16.11 0.3850   16.190 16.780 16.900 17.180 16.970 3.351 3.307     0     0.0620 28.49 7.86   0.000 0.000 18.556 8.055 10.501 19.709 7.894 11.814
WS7MET_125 2018-09-28 08:25:00 125 30483.0 16.110 16.630 16.740 17.040 16.850 44.380 40.820 3.984 3.639 91.50 12.75 14.070 13.980 13.110 12.100 12.490 16.230 16.770 16.880 17.220 17.010 4.289 3.784 127.50 13.42 0.4050   16.020 16.520 16.640 16.840 16.720 3.759 3.417     0     0.1010 35.63 14.95   0.000 0.000 18.309 8.123 10.184 19.425 7.928 11.495
WS7MET_125 2018-09-28 08:20:00 125 30483.0 16.020 16.450 16.580 16.810 16.640 44.630 42.140 3.984 3.889 68.25 11.21 14.080 13.990 13.100 12.100 12.450 16.120 16.520 16.630 16.910 16.720 4.376 4.157 80.50 12.08 0.4700   15.950 16.390 16.510 16.710 16.550 3.582 3.570     0     0.1400 1.46 16.21   0.000 0.000 18.204 8.123 10.080 19.143 8.069 11.076
WS7MET_125 2018-09-28 08:15:00 125 30483.0 15.910 16.340 16.470 16.690 16.520 42.970 40.990 3.349 3.385 92.80 9.86 14.080 13.990 13.100 12.100 12.430 16.020 16.390 16.510 16.880 16.550 3.946 4.104 146.30 10.74 0.5160   15.780 16.280 16.410 16.570 16.480 2.878 2.720     0     0.0990 26.76 10.38   0.000 0.000 18.077 7.767 10.309 18.998 7.787 11.211
WS7MET_125 2018-09-28 08:10:00 125 30483.0 15.790 16.250 16.350 16.550 16.420 43.940 42.550 3.555 3.784 97.70 8.52 14.090 13.990 13.100 12.100 12.440 15.850 16.270 16.410 16.670 16.490 3.953 4.314 139.60 9.39 0.2810   15.680 16.230 16.310 16.360 16.360 3.152 3.420     0     0.1110 2.39 7.60   0.000 0.000 17.939 7.881 10.056 18.830 8.009 10.818
WS7MET_125 2018-09-28 08:05:00 125 30483.0 15.700 16.170 16.270 16.430 16.310 43.410 41.990 3.302 3.486 38.25 7.65 14.110 13.990 13.100 12.100 12.430 15.850 16.220 16.300 16.500 16.350 3.576 4.074 42.95 8.05 0.2550   15.510 16.080 16.190 16.360 16.270 3.094 2.887     0     0.1060 8.11 11.95   0.000 0.000 17.836 7.741 10.093 18.686 7.843 10.840
WS7MET_125 2018-09-28 08:00:00 125 30483.0 15.590 16.020 16.120 16.310 16.210 44.050 40.010 3.411 2.704 38.45 6.71 14.110 14.000 13.100 12.100 12.410 15.680 16.080 16.190 16.400 16.260 3.737 3.004 42.95 6.71 0.5420   15.510 15.940 16.040 16.230 16.130 3.204 2.420     0     0.1990 354.10 9.36   0.000 0.000 17.710 7.801 9.909 18.544 7.420 11.125
WS7MET_125 2018-09-28 07:55:00 125 30483.0 15.480 15.890 15.990 16.180 16.130 44.410 40.910 3.428 2.898 33.22 6.04 14.120 14.000 13.100 12.100 12.400 15.580 15.940 16.040 16.330 16.160 3.791 3.068 36.24 6.71 0.4250   15.370 15.800 15.910 16.060 16.080 2.937 2.711     0     0.2200 355.50 5.66   0.000 0.000 17.586 7.811 9.776 18.391 7.523 10.867
WS7MET_125 2018-09-28 07:50:00 125 30483.0 15.350 15.730 15.830 16.040 15.960 46.290 43.330 3.892 3.582 31.47 5.37 14.130 14.000 13.100 12.100 12.420 15.510 15.800 15.910 16.120 16.060 4.232 4.086 32.21 5.37 0.4970   15.140 15.710 15.800 15.950 15.860 3.540 3.120     0     0.3140 2.21 13.13   0.000 0.000 17.440 8.071 9.367 18.228 7.896 10.330
WS7MET_125 2018-09-28 07:45:00 125 30483.0 15.240 15.690 15.770 15.940 15.850 46.440 42.680 3.845 3.282 29.73 4.83 14.140 14.000 13.100 12.100 12.410 15.340 15.710 15.800 16.090 15.890 4.180 3.587 30.87 5.37 0.6530   15.140 15.650 15.720 15.850 15.820 3.576 3.074     0     0.4140 356.50 3.67   0.000 0.000 17.317 8.044 9.275 18.112 7.730 10.382
WS7MET_125 2018-09-28 07:40:00 125 30483.0 15.100 15.540 15.630 15.790 15.800 45.760 42.530 3.506 3.094 27.71 4.03 14.150 14.000 13.100 12.100 12.400 15.200 15.630 15.710 15.890 15.840 3.808 3.346 28.18 4.03 0.5950   14.970 15.430 15.520 15.720 15.690 3.259 2.944     0     0.4390 352.40 4.59   0.000 0.000 17.162 7.854 9.309 17.939 7.628 10.309
WS7MET_125 2018-09-28 07:35:00 125 30483.0 14.940 15.320 15.460 15.630 15.580 46.710 43.560 3.650 3.293 25.50 4.03 14.150 14.000 13.100 12.100 12.410 15.070 15.410 15.520 15.750 15.690 3.948 3.501 26.84 4.03 0.6400   14.830 15.270 15.430 15.510 15.510 3.400 3.139     0     0.4270 355.60 8.97   0.000 0.000 16.986 7.934 9.052 17.756 7.736 10.021
WS7MET_125 2018-09-28 07:30:00 125 30483.0 14.810 15.190 15.370 15.520 15.520 47.700 44.450 3.826 3.471 22.88 4.03 14.170 14.000 13.100 12.100 12.410 14.930 15.260 15.430 15.610 15.560 4.064 4.067 24.16 4.03 0.6340   14.690 15.110 15.290 15.410 15.440 3.578 3.136     0     0.4860 342.40 3.81   0.000 0.000 16.844 8.033 8.810 17.631 7.834 9.794
WS7MET_125 2018-09-28 07:25:00 125 30483.0 14.650 15.050 15.210 15.390 15.340 48.420 45.230 3.897 3.605 20.47 3.62 14.170 14.000 13.100 12.100 12.370 14.760 15.110 15.280 15.510 15.430 4.139 3.972 21.47 4.03 0.7510   14.550 15.000 15.150 15.270 15.220 3.676 3.411     0     0.5890 353.20 5.19   0.000 0.000 16.671 8.073 8.599 17.485 7.909 9.576
WS7MET_125 2018-09-28 07:20:00 125 30483.0 14.540 14.930 15.110 15.300 15.250 48.010 45.050 3.675 3.460 17.72 2.68 14.180 14.000 13.100 12.100 12.400 14.690 15.000 15.150 15.370 15.280 3.870 3.879 18.79 2.68 0.5950   14.320 14.850 15.040 15.240 15.220 3.459 3.199     0     0.5140 352.40 2.26   0.000 0.000 16.553 7.948 8.606 17.384 7.828 9.553
WS7MET_125 2018-09-28 07:15:00 125 30483.0 14.440 14.810 15.000 15.190 15.140 49.650 45.800 4.056 3.600 15.50 2.42 14.190 14.000 13.100 12.100 12.380 14.490 14.850 15.040 15.270 15.210 4.246 3.807 16.11 2.68 0.6470   14.320 14.770 14.960 15.100 15.040 3.698 3.447     0     0.4870 355.70 3.98   0.000 0.000 16.447 8.164 8.281 17.262 7.906 9.356
WS7MET_125 2018-09-28 07:10:00 125 30483.0 14.390 14.710 14.920 15.100 15.060 49.610 46.130 4.000 3.619 13.09 1.34 14.200 14.000 13.100 12.100 12.370 14.490 14.770 14.980 15.200 15.130 4.380 3.982 14.76 1.34 0.6730   14.320 14.660 14.860 15.030 14.970 3.719 3.312     0     0.5870 355.00 2.34   0.000 0.000 16.394 8.132 8.261 17.162 7.917 9.245
WS7MET_125 2018-09-28 07:05:00 125 30483.0 14.430 14.660 14.860 15.080 14.910 50.580 47.300 4.311 3.960 8.72 0.20 14.210 14.000 13.100 12.110 12.360 14.730 14.700 14.900 15.170 14.980 4.651 4.331 10.74 1.34 0.6600   14.250 14.640 14.830 15.030 14.850 4.131 3.725     0     0.4510 341.80 8.71   0.000 0.000 16.436 8.312 8.123 17.140 8.109 9.033
WS7MET_125 2018-09-28 07:00:00 125 30483.0 14.480 14.740 14.920 15.130 14.960 49.780 46.340 4.128 3.715 7.72 0.00 14.210 14.000 13.100 12.100 12.380 14.590 14.770 14.950 15.240 14.990 4.446 3.911 8.05 0.00 0.6010   14.350 14.710 14.900 15.030 14.940 3.798 3.288     0     0.4230 339.70 9.01   0.000 0.000 16.489 8.206 8.281 17.195 7.971 9.227
WS7MET_125 2018-09-28 06:55:00 125 30483.0 14.530 14.820 15.010 15.250 15.030 46.870 43.090 3.320 2.788 6.71 0.00 14.230 14.010 13.100 12.100 12.370 14.620 14.830 15.070 15.340 15.130 3.604 3.340 6.71 0.00 0.5680   14.380 14.780 14.950 15.140 14.930 3.121 2.485     0     0.4430 337.00 6.95   0.000 0.000 16.543 7.751 8.789 17.328 7.464 9.862
WS7MET_125 2018-09-28 06:50:00 125 30483.0 14.570 14.870 15.090 15.310 15.160 47.070 42.810 3.422 2.758 6.71 0.00 14.230 14.010 13.100 12.100 12.360 14.830 14.920 15.130 15.370 15.240 3.754 2.963 6.71 0.00 0.5750   14.490 14.830 15.070 15.240 15.120 3.205 2.496     0     0.4580 342.50 1.52   0.000 0.000 16.586 7.807 8.779 17.395 7.448 9.948
WS7MET_125 2018-09-28 06:45:00 125 30483.0 14.570 14.910 15.140 15.370 15.250 46.770 42.990 3.332 2.863 5.70 0.00 14.240 14.020 13.100 12.100 12.360 14.690 14.930 15.140 15.480 15.300 3.605 3.731 6.71 0.00 0.6140   14.490 14.890 15.130 15.310 15.220 3.058 2.546     0     0.4340 343.70 4.90   0.000 0.000 16.586 7.758 8.828 17.462 7.504 9.955
WS7MET_125 2018-09-28 06:40:00 125 30483.0 14.600 14.910 15.150 15.390 15.270 45.030 41.630 2.816 2.426 5.37 0.00 14.250 14.020 13.090 12.100 12.370 14.690 14.920 15.160 15.480 15.290 3.359 2.851 5.37 0.00 0.5290   14.520 14.890 15.130 15.310 15.240 2.621 2.239     0     0.3780 337.80 1.46   0.000 0.000 16.618 7.479 9.135 17.485 7.274 10.206
WS7MET_125 2018-09-28 06:35:00 125 30483.0 14.630 14.950 15.200 15.450 15.280 46.160 41.520 3.198 2.448 4.56 0.00 14.260 14.020 13.090 12.100 12.370 14.730 14.980 15.240 15.540 15.320 3.515 2.662 5.37 0.00 0.4310   14.550 14.920 15.170 15.370 15.260 2.654 2.269     0     0.3620 335.60 0.92   0.000 0.000 16.650 7.684 8.964 17.552 7.286 10.265
WS7MET_125 2018-09-28 06:30:00 125 30483.0 14.630 14.970 15.210 15.450 15.350 45.630 41.220 3.033 2.348 4.03 0.00 14.270 14.020 13.090 12.100 12.400 14.730 14.980 15.240 15.510 15.370 3.411 2.547 4.03 0.00 0.6140   14.550 14.950 15.190 15.370 15.310 2.716 2.196     0     0.4720 336.10 6.75   0.000 0.000 16.650 7.595 9.053 17.552 7.234 10.317
WS7MET_125 2018-09-28 06:25:00 125 30483.0 14.610 14.960 15.180 15.380 15.330 47.210 42.120 3.498 2.583 4.03 0.00 14.280 14.020 13.090 12.100 12.380 14.730 14.980 15.210 15.480 15.390 3.859 3.135 4.03 0.00 0.5880   14.550 14.940 15.150 15.310 15.280 3.057 2.239     0     0.4460 345.70 2.28   0.000 0.000 16.628 7.849 8.778 17.474 7.356 10.114
WS7MET_125 2018-09-28 06:20:00 125 30483.0 14.560 14.900 15.080 15.240 15.290 46.570 43.160 3.264 2.804 4.03 0.00 14.290 14.020 13.090 12.100 12.350 14.620 14.940 15.150 15.370 15.350 3.626 3.004 4.03 0.00 0.6790   14.450 14.830 15.020 15.130 15.210 2.985 2.615     0     0.5630 343.10 2.13   0.000 0.000 16.575 7.720 8.856 17.317 7.473 9.843
WS7MET_125 2018-09-28 06:15:00 125 30483.0 14.460 14.780 14.960 15.090 15.090 46.920 43.950 3.280 2.925 2.89 0.00 14.290 14.020 13.090 12.100 12.370 14.550 14.810 15.010 15.200 15.190 3.451 3.084 4.03 0.00 0.6140   14.320 14.750 14.900 14.960 14.980 3.089 2.820     0     0.5130 339.00 4.01   0.000 0.000 16.468 7.729 8.741 17.151 7.537 9.613
WS7MET_125 2018-09-28 06:10:00 125 30483.0 14.450 14.720 14.910 15.080 14.960 47.700 44.340 3.496 3.038 2.21 0.00 14.300 14.020 13.090 12.100 12.390 14.520 14.750 14.920 15.130 14.980 4.021 3.181 2.68 0.00 0.5230   14.380 14.710 14.890 15.000 14.950 3.152 2.905     0     0.4720 336.70 1.84   0.000 0.000 16.457 7.848 8.607 17.140 7.598 9.540
WS7MET_125 2018-09-28 06:05:00 125 30483.0 14.450 14.750 14.950 15.150 15.020 47.910 44.510 3.565 3.156 1.34 0.00 14.320 14.020 13.090 12.100 12.350 14.550 14.770 14.960 15.310 15.070 3.990 3.587 1.34 0.00 0.4570   14.320 14.730 14.920 15.070 14.950 3.295 2.924     0     0.3960 340.70 2.17   0.000 0.000 16.457 7.887 8.573 17.217 7.662 9.554
WS7MET_125 2018-09-28 06:00:00 125 30483.0 14.440 14.740 14.950 15.150 15.070 48.180 44.700 3.631 3.220 0.34 0.00 14.320 14.020 13.090 12.100 12.360 14.520 14.740 14.970 15.200 15.110 3.940 3.608 1.34 0.00 0.6530   14.350 14.710 14.940 15.030 15.040 3.399 2.980     0     0.4840 345.90 0.44   0.000 0.000 16.447 7.923 8.523 17.217 7.696 9.521
WS7MET_125 2018-09-28 05:55:00 125 30483.0 14.480 14.730 14.960 15.190 15.060 48.750 45.250 3.830 3.428 0.00 0.00 14.330 14.020 13.090 12.100 12.360 14.590 14.740 14.980 15.270 15.090 4.223 3.617 0.00 0.00 0.4830   14.380 14.710 14.940 15.130 15.000 3.428 3.214     0     0.4340 347.20 2.78   0.000 0.000 16.489 8.035 8.451 17.262 7.811 9.451
WS7MET_125 2018-09-28 05:50:00 125 30483.0 14.500 14.770 14.960 15.180 15.060 49.410 45.450 4.043 3.478 0.00 0.00 14.340 14.020 13.090 12.100 12.370 14.550 14.790 14.980 15.240 15.090 4.238 3.649 0.00 0.00 0.4640   14.380 14.740 14.960 15.100 15.040 3.629 3.301     0     0.4320 343.60 1.37   0.000 0.000 16.511 8.157 8.353 17.250 7.838 9.410
WS7MET_125 2018-09-28 05:45:00 125 30483.0 14.560 14.800 14.980 15.200 15.060 49.070 45.540 4.000 3.531 0.00 0.00 14.350 14.020 13.090 12.100 12.360 14.660 14.830 15.000 15.310 15.110 4.364 3.764 0.00 0.00 0.5950   14.450 14.790 14.960 15.130 15.010 3.776 3.352     0     0.5290 338.20 3.52   0.000 0.000 16.575 8.132 8.442 17.273 7.868 9.407
WS7MET_125 2018-09-28 05:40:00 125 30483.0 14.550 14.830 15.000 15.250 15.100 48.590 45.410 3.856 3.530 0.00 0.00 14.360 14.020 13.080 12.100 12.350 14.660 14.830 15.010 15.340 15.130 4.184 3.785 0.00 0.00 0.6080   14.350 14.810 14.990 15.170 15.060 3.518 3.406     0     0.4870 343.40 7.32   0.000 0.000 16.564 8.050 8.516 17.328 7.867 9.460
WS7MET_125 2018-09-28 05:35:00 125 30483.0 14.550 14.820 15.030 15.270 15.200 50.250 46.140 4.333 3.779 0.00 0.00 14.360 14.020 13.090 12.100 12.390 14.620 14.830 15.040 15.340 15.240 4.853 4.046 0.00 0.00 0.5620   14.450 14.800 15.000 15.200 15.110 3.937 3.564     0     0.4510 344.70 4.51   0.000 0.000 16.564 8.325 8.241 17.351 8.007 9.345
WS7MET_125 2018-09-28 05:30:00 125 30483.0 14.600 14.840 15.040 15.220 15.140 52.400 48.610 4.977 4.476 0.00 0.00 14.370 14.020 13.080 12.100 12.370 14.660 14.870 15.060 15.270 15.200 5.135 4.771 0.00 0.00 0.5950   14.550 14.810 15.010 15.170 15.080 4.762 3.973     0     0.5200 350.70 4.73   0.000 0.000 16.618 8.709 7.910 17.295 8.409 8.888
WS7MET_125 2018-09-28 05:25:00 125 30483.0 14.610 14.850 15.060 15.240 15.150 51.500 48.530 4.734 4.470 0.00 0.00 14.380 14.020 13.080 12.100 12.370 14.690 14.870 15.070 15.310 15.200 4.866 4.653 0.00 0.00 0.6990   14.550 14.840 15.040 15.170 15.110 4.569 4.321     0     0.5120 348.80 2.81   0.000 0.000 16.628 8.562 8.065 17.317 8.405 8.913
WS7MET_125 2018-09-28 05:20:00 125 30483.0 14.630 14.860 15.050 15.240 15.100 51.100 47.950 4.648 4.297 0.00 0.00 14.380 14.030 13.080 12.100 12.360 14.830 14.880 15.070 15.340 15.120 4.910 4.473 0.00 0.00 0.6660   14.490 14.840 15.040 15.130 15.090 4.447 4.158     0     0.5930 344.80 2.00   0.000 0.000 16.650 8.511 8.142 17.317 8.304 9.014
WS7MET_125 2018-09-28 05:15:00 125 30483.0 14.710 14.920 15.090 15.290 15.110 52.730 49.410 5.169 4.772 0.00 0.00 14.400 14.030 13.080 12.100 12.350 14.790 14.970 15.130 15.410 15.170 5.387 5.213 0.00 0.00 0.6210   14.620 14.880 15.060 15.170 15.090 4.885 4.300     0     0.5180 346.10 3.18   0.000 0.000 16.736 8.826 7.911 17.373 8.585 8.789
WS7MET_125 2018-09-28 05:10:00 125 30483.0 14.790 15.010 15.170 15.390 15.220 53.190 49.820 5.367 4.987 0.00 0.00 14.400 14.030 13.080 12.100 12.360 14.860 15.050 15.200 15.510 15.240 5.548 5.206 0.00 0.00 0.4640   14.690 14.970 15.130 15.340 15.150 5.193 4.769     0     0.3950 340.80 5.37   0.000 0.000 16.823 8.949 7.875 17.485 8.715 8.774
WS7MET_125 2018-09-28 05:05:00 125 30483.0 14.830 15.090 15.220 15.430 15.290 51.340 48.240 4.898 4.556 0.00 0.00 14.410 14.030 13.080 12.110 12.360 14.930 15.100 15.230 15.480 15.310 5.228 5.039 0.00 0.00 0.5550   14.730 15.060 15.200 15.370 15.240 4.645 4.325     0     0.4470 338.60 2.87   0.000 0.000 16.866 8.661 8.207 17.530 8.456 9.073
WS7MET_125 2018-09-28 05:00:00 125 30483.0 14.810 15.070 15.250 15.470 15.300 50.300 47.260 4.589 4.299 0.00 0.00 14.420 14.030 13.080 12.100 12.390 14.900 15.100 15.280 15.540 15.340 4.735 4.419 0.00 0.00 0.5160   14.730 15.070 15.220 15.370 15.260 4.459 4.191     0     0.4240 346.20 7.36   0.000 0.000 16.844 8.476 8.372 17.575 8.305 9.269
WS7MET_125 2018-09-28 04:55:00 125 30483.0 14.870 15.110 15.310 15.510 15.400 51.340 47.770 4.931 4.491 0.00 0.00 14.430 14.030 13.080 12.100 12.420 14.930 15.120 15.320 15.610 15.430 5.075 4.646 0.00 0.00 0.6790   14.790 15.100 15.290 15.410 15.350 4.795 4.336     0     0.5200 349.20 4.31   0.000 0.000 16.910 8.681 8.228 17.620 8.418 9.203
WS7MET_125 2018-09-28 04:50:00 125 30483.0 14.860 15.130 15.310 15.530 15.380 50.990 47.710 4.826 4.488 0.00 0.00 14.440 14.030 13.080 12.100 12.390 14.930 15.150 15.330 15.610 15.410 5.027 4.745 0.00 0.00 0.6860   14.790 15.120 15.300 15.480 15.370 4.558 4.264     0     0.5020 343.30 4.59   0.000 0.000 16.899 8.617 8.282 17.642 8.416 9.225
WS7MET_125 2018-09-28 04:45:00 125 30483.0 14.860 15.140 15.320 15.510 15.380 53.080 49.530 5.406 5.009 0.00 0.00 14.450 14.030 13.080 12.100 12.370 14.930 15.160 15.330 15.580 15.410 5.665 5.404 0.00 0.00 0.6730   14.790 15.120 15.300 15.440 15.350 4.898 4.531     0     0.5880 340.90 1.50   0.000 0.000 16.899 8.973 7.929 17.620 8.728 8.893
WS7MET_125 2018-09-28 04:40:00 125 30483.0 14.900 15.180 15.370 15.580 15.430 54.110 50.420<